<?xml version="1.0" encoding="UTF-8" standalone="no" ?>
<gpx xmlns="http://www.topografix.com/GPX/1/1" xmlns:xsi="http://www.w3.org/2001/XMLSchema-instance" xsi:schemaLocation="http://www.topografix.com/GPX/1/1 http://www.topografix.com/GPX/1/1/gpx.xsd" version="1.1" creator="VisuGPX - https://www.visugpx.com">
  <metadata>
    <name>e lac des perches...</name>
    <desc><![CDATA[randonnée entre copins.]]></desc>
  </metadata>
  <trk>
    <name><![CDATA[Sequence 1]]></name>
    <trkseg>
      <trkpt lat="47.81798" lon="6.943">
        <ele>516</ele>
        <time>2015-08-09T08:43:21Z</time>
      </trkpt>
      <trkpt lat="47.81796" lon="6.94299">
        <ele>518</ele>
        <time>2015-08-09T08:43:28Z</time>
      </trkpt>
      <trkpt lat="47.81796" lon="6.943">
        <ele>518</ele>
        <time>2015-08-09T08:43:38Z</time>
      </trkpt>
      <trkpt lat="47.81796" lon="6.943">
        <ele>517</ele>
        <time>2015-08-09T08:43:41Z</time>
      </trkpt>
      <trkpt lat="47.81797" lon="6.94301">
        <ele>516</ele>
        <time>2015-08-09T08:43:44Z</time>
      </trkpt>
      <trkpt lat="47.81796" lon="6.943">
        <ele>516</ele>
        <time>2015-08-09T08:43:50Z</time>
      </trkpt>
      <trkpt lat="47.81796" lon="6.943">
        <ele>516</ele>
        <time>2015-08-09T08:43:59Z</time>
      </trkpt>
      <trkpt lat="47.81797" lon="6.94301">
        <ele>517</ele>
        <time>2015-08-09T08:44:08Z</time>
      </trkpt>
      <trkpt lat="47.81798" lon="6.94306">
        <ele>518</ele>
        <time>2015-08-09T08:44:11Z</time>
      </trkpt>
      <trkpt lat="47.81794" lon="6.94319">
        <ele>524</ele>
        <time>2015-08-09T08:44:24Z</time>
      </trkpt>
      <trkpt lat="47.81793" lon="6.94335">
        <ele>523</ele>
        <time>2015-08-09T08:44:38Z</time>
      </trkpt>
      <trkpt lat="47.81791" lon="6.9435">
        <ele>521</ele>
        <time>2015-08-09T08:44:51Z</time>
      </trkpt>
      <trkpt lat="47.81788" lon="6.94356">
        <ele>521</ele>
        <time>2015-08-09T08:44:55Z</time>
      </trkpt>
      <trkpt lat="47.81783" lon="6.94373">
        <ele>520</ele>
        <time>2015-08-09T08:45:06Z</time>
      </trkpt>
      <trkpt lat="47.81779" lon="6.94389">
        <ele>522</ele>
        <time>2015-08-09T08:45:17Z</time>
      </trkpt>
      <trkpt lat="47.81789" lon="6.94395">
        <ele>522</ele>
        <time>2015-08-09T08:45:28Z</time>
      </trkpt>
      <trkpt lat="47.81798" lon="6.94401">
        <ele>525</ele>
        <time>2015-08-09T08:45:39Z</time>
      </trkpt>
      <trkpt lat="47.81809" lon="6.94408">
        <ele>524</ele>
        <time>2015-08-09T08:45:50Z</time>
      </trkpt>
      <trkpt lat="47.81821" lon="6.94416">
        <ele>526</ele>
        <time>2015-08-09T08:46:01Z</time>
      </trkpt>
      <trkpt lat="47.81838" lon="6.94431">
        <ele>524</ele>
        <time>2015-08-09T08:46:20Z</time>
      </trkpt>
      <trkpt lat="47.81841" lon="6.94433">
        <ele>523</ele>
        <time>2015-08-09T08:46:23Z</time>
      </trkpt>
      <trkpt lat="47.81852" lon="6.94447">
        <ele>521</ele>
        <time>2015-08-09T08:46:37Z</time>
      </trkpt>
      <trkpt lat="47.81866" lon="6.9446">
        <ele>519</ele>
        <time>2015-08-09T08:46:51Z</time>
      </trkpt>
      <trkpt lat="47.8187" lon="6.94465">
        <ele>522</ele>
        <time>2015-08-09T08:46:56Z</time>
      </trkpt>
      <trkpt lat="47.8188" lon="6.94472">
        <ele>525</ele>
        <time>2015-08-09T08:47:07Z</time>
      </trkpt>
      <trkpt lat="47.8189" lon="6.94478">
        <ele>528</ele>
        <time>2015-08-09T08:47:18Z</time>
      </trkpt>
      <trkpt lat="47.81902" lon="6.94483">
        <ele>529</ele>
        <time>2015-08-09T08:47:29Z</time>
      </trkpt>
      <trkpt lat="47.81917" lon="6.94486">
        <ele>532</ele>
        <time>2015-08-09T08:47:42Z</time>
      </trkpt>
      <trkpt lat="47.81938" lon="6.94485">
        <ele>529</ele>
        <time>2015-08-09T08:48:00Z</time>
      </trkpt>
      <trkpt lat="47.81946" lon="6.94486">
        <ele>531</ele>
        <time>2015-08-09T08:48:10Z</time>
      </trkpt>
      <trkpt lat="47.81952" lon="6.94489">
        <ele>532</ele>
        <time>2015-08-09T08:48:15Z</time>
      </trkpt>
      <trkpt lat="47.81961" lon="6.94494">
        <ele>531</ele>
        <time>2015-08-09T08:48:24Z</time>
      </trkpt>
      <trkpt lat="47.81973" lon="6.94503">
        <ele>531</ele>
        <time>2015-08-09T08:48:35Z</time>
      </trkpt>
      <trkpt lat="47.81983" lon="6.94509">
        <ele>535</ele>
        <time>2015-08-09T08:48:46Z</time>
      </trkpt>
      <trkpt lat="47.81992" lon="6.94519">
        <ele>536</ele>
        <time>2015-08-09T08:48:57Z</time>
      </trkpt>
      <trkpt lat="47.82005" lon="6.94528">
        <ele>534</ele>
        <time>2015-08-09T08:49:08Z</time>
      </trkpt>
      <trkpt lat="47.82015" lon="6.94537">
        <ele>535</ele>
        <time>2015-08-09T08:49:19Z</time>
      </trkpt>
      <trkpt lat="47.82023" lon="6.94544">
        <ele>536</ele>
        <time>2015-08-09T08:49:33Z</time>
      </trkpt>
      <trkpt lat="47.82031" lon="6.94553">
        <ele>536</ele>
        <time>2015-08-09T08:49:41Z</time>
      </trkpt>
      <trkpt lat="47.82041" lon="6.94562">
        <ele>535</ele>
        <time>2015-08-09T08:49:52Z</time>
      </trkpt>
      <trkpt lat="47.82054" lon="6.94569">
        <ele>532</ele>
        <time>2015-08-09T08:50:03Z</time>
      </trkpt>
      <trkpt lat="47.82061" lon="6.94575">
        <ele>538</ele>
        <time>2015-08-09T08:50:14Z</time>
      </trkpt>
      <trkpt lat="47.82084" lon="6.94597">
        <ele>542</ele>
        <time>2015-08-09T08:50:35Z</time>
      </trkpt>
      <trkpt lat="47.82085" lon="6.94598">
        <ele>542</ele>
        <time>2015-08-09T08:50:36Z</time>
      </trkpt>
      <trkpt lat="47.82096" lon="6.94609">
        <ele>546</ele>
        <time>2015-08-09T08:50:47Z</time>
      </trkpt>
      <trkpt lat="47.8211" lon="6.94625">
        <ele>545</ele>
        <time>2015-08-09T08:51:02Z</time>
      </trkpt>
      <trkpt lat="47.82113" lon="6.94631">
        <ele>544</ele>
        <time>2015-08-09T08:51:09Z</time>
      </trkpt>
      <trkpt lat="47.82123" lon="6.94649">
        <ele>551</ele>
        <time>2015-08-09T08:51:25Z</time>
      </trkpt>
      <trkpt lat="47.82135" lon="6.94669">
        <ele>558</ele>
        <time>2015-08-09T08:51:39Z</time>
      </trkpt>
      <trkpt lat="47.82141" lon="6.94673">
        <ele>555</ele>
        <time>2015-08-09T08:51:42Z</time>
      </trkpt>
      <trkpt lat="47.82154" lon="6.94677">
        <ele>555</ele>
        <time>2015-08-09T08:51:53Z</time>
      </trkpt>
      <trkpt lat="47.8217" lon="6.94686">
        <ele>554</ele>
        <time>2015-08-09T08:52:06Z</time>
      </trkpt>
      <trkpt lat="47.82179" lon="6.94689">
        <ele>553</ele>
        <time>2015-08-09T08:52:15Z</time>
      </trkpt>
      <trkpt lat="47.82195" lon="6.947">
        <ele>545</ele>
        <time>2015-08-09T08:52:32Z</time>
      </trkpt>
      <trkpt lat="47.82198" lon="6.94705">
        <ele>546</ele>
        <time>2015-08-09T08:52:37Z</time>
      </trkpt>
      <trkpt lat="47.82208" lon="6.94716">
        <ele>548</ele>
        <time>2015-08-09T08:52:48Z</time>
      </trkpt>
      <trkpt lat="47.82212" lon="6.94732">
        <ele>552</ele>
        <time>2015-08-09T08:52:59Z</time>
      </trkpt>
      <trkpt lat="47.82222" lon="6.94747">
        <ele>549</ele>
        <time>2015-08-09T08:53:10Z</time>
      </trkpt>
      <trkpt lat="47.82232" lon="6.94761">
        <ele>547</ele>
        <time>2015-08-09T08:53:21Z</time>
      </trkpt>
      <trkpt lat="47.82248" lon="6.94786">
        <ele>546</ele>
        <time>2015-08-09T08:53:39Z</time>
      </trkpt>
      <trkpt lat="47.82255" lon="6.94796">
        <ele>544</ele>
        <time>2015-08-09T08:53:46Z</time>
      </trkpt>
      <trkpt lat="47.82261" lon="6.94801">
        <ele>549</ele>
        <time>2015-08-09T08:53:54Z</time>
      </trkpt>
      <trkpt lat="47.82285" lon="6.94816">
        <ele>551</ele>
        <time>2015-08-09T08:54:14Z</time>
      </trkpt>
      <trkpt lat="47.8229" lon="6.94821">
        <ele>554</ele>
        <time>2015-08-09T08:54:21Z</time>
      </trkpt>
      <trkpt lat="47.82298" lon="6.94824">
        <ele>551</ele>
        <time>2015-08-09T08:54:27Z</time>
      </trkpt>
      <trkpt lat="47.82321" lon="6.94833">
        <ele>546</ele>
        <time>2015-08-09T08:54:45Z</time>
      </trkpt>
      <trkpt lat="47.82326" lon="6.94836">
        <ele>546</ele>
        <time>2015-08-09T08:54:49Z</time>
      </trkpt>
      <trkpt lat="47.82335" lon="6.94846">
        <ele>547</ele>
        <time>2015-08-09T08:55:00Z</time>
      </trkpt>
      <trkpt lat="47.82342" lon="6.9486">
        <ele>548</ele>
        <time>2015-08-09T08:55:11Z</time>
      </trkpt>
      <trkpt lat="47.82352" lon="6.94895">
        <ele>558</ele>
        <time>2015-08-09T08:55:32Z</time>
      </trkpt>
      <trkpt lat="47.82352" lon="6.94896">
        <ele>559</ele>
        <time>2015-08-09T08:55:33Z</time>
      </trkpt>
      <trkpt lat="47.82361" lon="6.9491">
        <ele>552</ele>
        <time>2015-08-09T08:55:44Z</time>
      </trkpt>
      <trkpt lat="47.82372" lon="6.94937">
        <ele>555</ele>
        <time>2015-08-09T08:56:01Z</time>
      </trkpt>
      <trkpt lat="47.8238" lon="6.94947">
        <ele>556</ele>
        <time>2015-08-09T08:56:12Z</time>
      </trkpt>
      <trkpt lat="47.82384" lon="6.94957">
        <ele>556</ele>
        <time>2015-08-09T08:56:18Z</time>
      </trkpt>
      <trkpt lat="47.82397" lon="6.94965">
        <ele>553</ele>
        <time>2015-08-09T08:56:28Z</time>
      </trkpt>
      <trkpt lat="47.824" lon="6.94972">
        <ele>559</ele>
        <time>2015-08-09T08:56:39Z</time>
      </trkpt>
      <trkpt lat="47.82409" lon="6.94975">
        <ele>556</ele>
        <time>2015-08-09T08:56:58Z</time>
      </trkpt>
      <trkpt lat="47.82415" lon="6.94979">
        <ele>556</ele>
        <time>2015-08-09T08:57:05Z</time>
      </trkpt>
      <trkpt lat="47.82418" lon="6.94978">
        <ele>552</ele>
        <time>2015-08-09T08:57:12Z</time>
      </trkpt>
      <trkpt lat="47.82433" lon="6.94984">
        <ele>550</ele>
        <time>2015-08-09T08:57:26Z</time>
      </trkpt>
      <trkpt lat="47.82447" lon="6.94989">
        <ele>545</ele>
        <time>2015-08-09T08:57:41Z</time>
      </trkpt>
      <trkpt lat="47.82453" lon="6.94991">
        <ele>546</ele>
        <time>2015-08-09T08:57:45Z</time>
      </trkpt>
      <trkpt lat="47.82462" lon="6.95002">
        <ele>553</ele>
        <time>2015-08-09T08:57:56Z</time>
      </trkpt>
      <trkpt lat="47.82478" lon="6.95009">
        <ele>551</ele>
        <time>2015-08-09T08:58:11Z</time>
      </trkpt>
      <trkpt lat="47.82485" lon="6.95014">
        <ele>554</ele>
        <time>2015-08-09T08:58:18Z</time>
      </trkpt>
      <trkpt lat="47.82495" lon="6.95018">
        <ele>554</ele>
        <time>2015-08-09T08:58:29Z</time>
      </trkpt>
      <trkpt lat="47.82517" lon="6.95023">
        <ele>556</ele>
        <time>2015-08-09T08:58:50Z</time>
      </trkpt>
      <trkpt lat="47.82522" lon="6.95025">
        <ele>554</ele>
        <time>2015-08-09T08:58:54Z</time>
      </trkpt>
      <trkpt lat="47.82529" lon="6.95028">
        <ele>555</ele>
        <time>2015-08-09T08:59:02Z</time>
      </trkpt>
      <trkpt lat="47.82542" lon="6.95032">
        <ele>553</ele>
        <time>2015-08-09T08:59:13Z</time>
      </trkpt>
      <trkpt lat="47.82549" lon="6.95038">
        <ele>554</ele>
        <time>2015-08-09T08:59:24Z</time>
      </trkpt>
      <trkpt lat="47.82556" lon="6.95045">
        <ele>557</ele>
        <time>2015-08-09T08:59:35Z</time>
      </trkpt>
      <trkpt lat="47.82564" lon="6.95054">
        <ele>563</ele>
        <time>2015-08-09T08:59:47Z</time>
      </trkpt>
      <trkpt lat="47.82572" lon="6.95062">
        <ele>568</ele>
        <time>2015-08-09T08:59:57Z</time>
      </trkpt>
      <trkpt lat="47.82589" lon="6.95073">
        <ele>563</ele>
        <time>2015-08-09T09:00:12Z</time>
      </trkpt>
      <trkpt lat="47.82595" lon="6.95078">
        <ele>561</ele>
        <time>2015-08-09T09:00:19Z</time>
      </trkpt>
      <trkpt lat="47.82604" lon="6.95084">
        <ele>560</ele>
        <time>2015-08-09T09:00:32Z</time>
      </trkpt>
      <trkpt lat="47.82609" lon="6.95098">
        <ele>564</ele>
        <time>2015-08-09T09:00:41Z</time>
      </trkpt>
      <trkpt lat="47.8262" lon="6.9511">
        <ele>567</ele>
        <time>2015-08-09T09:00:52Z</time>
      </trkpt>
      <trkpt lat="47.82642" lon="6.95124">
        <ele>564</ele>
        <time>2015-08-09T09:01:13Z</time>
      </trkpt>
      <trkpt lat="47.82645" lon="6.95126">
        <ele>565</ele>
        <time>2015-08-09T09:01:17Z</time>
      </trkpt>
      <trkpt lat="47.82654" lon="6.9513">
        <ele>565</ele>
        <time>2015-08-09T09:01:25Z</time>
      </trkpt>
      <trkpt lat="47.82658" lon="6.95132">
        <ele>565</ele>
        <time>2015-08-09T09:01:36Z</time>
      </trkpt>
      <trkpt lat="47.82666" lon="6.95135">
        <ele>566</ele>
        <time>2015-08-09T09:01:48Z</time>
      </trkpt>
      <trkpt lat="47.82676" lon="6.95138">
        <ele>568</ele>
        <time>2015-08-09T09:01:58Z</time>
      </trkpt>
      <trkpt lat="47.82688" lon="6.95139">
        <ele>567</ele>
        <time>2015-08-09T09:02:09Z</time>
      </trkpt>
      <trkpt lat="47.82702" lon="6.95139">
        <ele>566</ele>
        <time>2015-08-09T09:02:20Z</time>
      </trkpt>
      <trkpt lat="47.82718" lon="6.95142">
        <ele>567</ele>
        <time>2015-08-09T09:02:37Z</time>
      </trkpt>
      <trkpt lat="47.82727" lon="6.9514">
        <ele>563</ele>
        <time>2015-08-09T09:02:45Z</time>
      </trkpt>
      <trkpt lat="47.82744" lon="6.95142">
        <ele>567</ele>
        <time>2015-08-09T09:03:02Z</time>
      </trkpt>
      <trkpt lat="47.82748" lon="6.95142">
        <ele>569</ele>
        <time>2015-08-09T09:03:06Z</time>
      </trkpt>
      <trkpt lat="47.82758" lon="6.95142">
        <ele>566</ele>
        <time>2015-08-09T09:03:15Z</time>
      </trkpt>
      <trkpt lat="47.8277" lon="6.95144">
        <ele>565</ele>
        <time>2015-08-09T09:03:26Z</time>
      </trkpt>
      <trkpt lat="47.82784" lon="6.95146">
        <ele>568</ele>
        <time>2015-08-09T09:03:40Z</time>
      </trkpt>
      <trkpt lat="47.82794" lon="6.95146">
        <ele>571</ele>
        <time>2015-08-09T09:03:50Z</time>
      </trkpt>
      <trkpt lat="47.82802" lon="6.95146">
        <ele>574</ele>
        <time>2015-08-09T09:03:59Z</time>
      </trkpt>
      <trkpt lat="47.82817" lon="6.95136">
        <ele>574</ele>
        <time>2015-08-09T09:04:15Z</time>
      </trkpt>
      <trkpt lat="47.82822" lon="6.95127">
        <ele>573</ele>
        <time>2015-08-09T09:04:21Z</time>
      </trkpt>
      <trkpt lat="47.82835" lon="6.95116">
        <ele>575</ele>
        <time>2015-08-09T09:04:36Z</time>
      </trkpt>
      <trkpt lat="47.82841" lon="6.95112">
        <ele>576</ele>
        <time>2015-08-09T09:04:43Z</time>
      </trkpt>
      <trkpt lat="47.82849" lon="6.95105">
        <ele>576</ele>
        <time>2015-08-09T09:04:54Z</time>
      </trkpt>
      <trkpt lat="47.82863" lon="6.95097">
        <ele>577</ele>
        <time>2015-08-09T09:05:09Z</time>
      </trkpt>
      <trkpt lat="47.82868" lon="6.95095">
        <ele>579</ele>
        <time>2015-08-09T09:05:16Z</time>
      </trkpt>
      <trkpt lat="47.82875" lon="6.95092">
        <ele>581</ele>
        <time>2015-08-09T09:05:27Z</time>
      </trkpt>
      <trkpt lat="47.82887" lon="6.9508">
        <ele>578</ele>
        <time>2015-08-09T09:05:38Z</time>
      </trkpt>
      <trkpt lat="47.82893" lon="6.95073">
        <ele>583</ele>
        <time>2015-08-09T09:05:49Z</time>
      </trkpt>
      <trkpt lat="47.82904" lon="6.95064">
        <ele>582</ele>
        <time>2015-08-09T09:06:04Z</time>
      </trkpt>
      <trkpt lat="47.82906" lon="6.95049">
        <ele>586</ele>
        <time>2015-08-09T09:06:16Z</time>
      </trkpt>
      <trkpt lat="47.82908" lon="6.95042">
        <ele>586</ele>
        <time>2015-08-09T09:06:22Z</time>
      </trkpt>
      <trkpt lat="47.82911" lon="6.95029">
        <ele>586</ele>
        <time>2015-08-09T09:06:33Z</time>
      </trkpt>
      <trkpt lat="47.82919" lon="6.95014">
        <ele>585</ele>
        <time>2015-08-09T09:06:44Z</time>
      </trkpt>
      <trkpt lat="47.82925" lon="6.95002">
        <ele>587</ele>
        <time>2015-08-09T09:06:55Z</time>
      </trkpt>
      <trkpt lat="47.82935" lon="6.94993">
        <ele>588</ele>
        <time>2015-08-09T09:07:06Z</time>
      </trkpt>
      <trkpt lat="47.82945" lon="6.94981">
        <ele>587</ele>
        <time>2015-08-09T09:07:17Z</time>
      </trkpt>
      <trkpt lat="47.82954" lon="6.94968">
        <ele>593</ele>
        <time>2015-08-09T09:07:30Z</time>
      </trkpt>
      <trkpt lat="47.82965" lon="6.94958">
        <ele>587</ele>
        <time>2015-08-09T09:07:42Z</time>
      </trkpt>
      <trkpt lat="47.82969" lon="6.94948">
        <ele>591</ele>
        <time>2015-08-09T09:07:50Z</time>
      </trkpt>
      <trkpt lat="47.82977" lon="6.94936">
        <ele>588</ele>
        <time>2015-08-09T09:08:01Z</time>
      </trkpt>
      <trkpt lat="47.82984" lon="6.94922">
        <ele>590</ele>
        <time>2015-08-09T09:08:12Z</time>
      </trkpt>
      <trkpt lat="47.82994" lon="6.94907">
        <ele>596</ele>
        <time>2015-08-09T09:08:27Z</time>
      </trkpt>
      <trkpt lat="47.82999" lon="6.94899">
        <ele>598</ele>
        <time>2015-08-09T09:08:34Z</time>
      </trkpt>
      <trkpt lat="47.83009" lon="6.94885">
        <ele>601</ele>
        <time>2015-08-09T09:08:47Z</time>
      </trkpt>
      <trkpt lat="47.83016" lon="6.94876">
        <ele>604</ele>
        <time>2015-08-09T09:08:56Z</time>
      </trkpt>
      <trkpt lat="47.83032" lon="6.94861">
        <ele>607</ele>
        <time>2015-08-09T09:09:14Z</time>
      </trkpt>
      <trkpt lat="47.83037" lon="6.94854">
        <ele>607</ele>
        <time>2015-08-09T09:09:19Z</time>
      </trkpt>
      <trkpt lat="47.83048" lon="6.94847">
        <ele>605</ele>
        <time>2015-08-09T09:09:31Z</time>
      </trkpt>
      <trkpt lat="47.83053" lon="6.94838">
        <ele>608</ele>
        <time>2015-08-09T09:09:40Z</time>
      </trkpt>
      <trkpt lat="47.8306" lon="6.94826">
        <ele>608</ele>
        <time>2015-08-09T09:09:51Z</time>
      </trkpt>
      <trkpt lat="47.83069" lon="6.9482">
        <ele>607</ele>
        <time>2015-08-09T09:10:02Z</time>
      </trkpt>
      <trkpt lat="47.83076" lon="6.94814">
        <ele>610</ele>
        <time>2015-08-09T09:10:15Z</time>
      </trkpt>
      <trkpt lat="47.83082" lon="6.94812">
        <ele>613</ele>
        <time>2015-08-09T09:10:24Z</time>
      </trkpt>
      <trkpt lat="47.83098" lon="6.948">
        <ele>609</ele>
        <time>2015-08-09T09:10:38Z</time>
      </trkpt>
      <trkpt lat="47.83112" lon="6.94795">
        <ele>613</ele>
        <time>2015-08-09T09:10:56Z</time>
      </trkpt>
      <trkpt lat="47.83114" lon="6.94793">
        <ele>613</ele>
        <time>2015-08-09T09:10:59Z</time>
      </trkpt>
      <trkpt lat="47.83128" lon="6.94782">
        <ele>614</ele>
        <time>2015-08-09T09:11:14Z</time>
      </trkpt>
      <trkpt lat="47.83132" lon="6.94782">
        <ele>613</ele>
        <time>2015-08-09T09:11:20Z</time>
      </trkpt>
      <trkpt lat="47.83147" lon="6.94772">
        <ele>621</ele>
        <time>2015-08-09T09:11:40Z</time>
      </trkpt>
      <trkpt lat="47.83149" lon="6.9477">
        <ele>620</ele>
        <time>2015-08-09T09:11:42Z</time>
      </trkpt>
      <trkpt lat="47.83159" lon="6.94772">
        <ele>620</ele>
        <time>2015-08-09T09:11:55Z</time>
      </trkpt>
      <trkpt lat="47.83169" lon="6.94772">
        <ele>623</ele>
        <time>2015-08-09T09:12:10Z</time>
      </trkpt>
      <trkpt lat="47.83168" lon="6.94773">
        <ele>627</ele>
        <time>2015-08-09T09:12:20Z</time>
      </trkpt>
      <trkpt lat="47.83167" lon="6.94773">
        <ele>627</ele>
        <time>2015-08-09T09:12:23Z</time>
      </trkpt>
      <trkpt lat="47.83167" lon="6.94773">
        <ele>626</ele>
        <time>2015-08-09T09:12:29Z</time>
      </trkpt>
      <trkpt lat="47.83167" lon="6.94773">
        <ele>626</ele>
        <time>2015-08-09T09:12:32Z</time>
      </trkpt>
      <trkpt lat="47.83167" lon="6.94773">
        <ele>625</ele>
        <time>2015-08-09T09:12:35Z</time>
      </trkpt>
      <trkpt lat="47.83167" lon="6.94773">
        <ele>626</ele>
        <time>2015-08-09T09:12:38Z</time>
      </trkpt>
      <trkpt lat="47.83167" lon="6.94773">
        <ele>626</ele>
        <time>2015-08-09T09:12:42Z</time>
      </trkpt>
      <trkpt lat="47.83167" lon="6.94773">
        <ele>625</ele>
        <time>2015-08-09T09:12:46Z</time>
      </trkpt>
      <trkpt lat="47.83167" lon="6.94773">
        <ele>625</ele>
        <time>2015-08-09T09:12:48Z</time>
      </trkpt>
      <trkpt lat="47.83167" lon="6.94773">
        <ele>625</ele>
        <time>2015-08-09T09:12:50Z</time>
      </trkpt>
      <trkpt lat="47.83167" lon="6.94773">
        <ele>626</ele>
        <time>2015-08-09T09:12:53Z</time>
      </trkpt>
      <trkpt lat="47.83167" lon="6.94772">
        <ele>626</ele>
        <time>2015-08-09T09:12:58Z</time>
      </trkpt>
      <trkpt lat="47.83167" lon="6.94772">
        <ele>626</ele>
        <time>2015-08-09T09:13:01Z</time>
      </trkpt>
      <trkpt lat="47.83167" lon="6.94772">
        <ele>626</ele>
        <time>2015-08-09T09:13:03Z</time>
      </trkpt>
      <trkpt lat="47.83167" lon="6.94772">
        <ele>626</ele>
        <time>2015-08-09T09:13:05Z</time>
      </trkpt>
      <trkpt lat="47.83167" lon="6.94772">
        <ele>626</ele>
        <time>2015-08-09T09:13:08Z</time>
      </trkpt>
      <trkpt lat="47.83167" lon="6.94772">
        <ele>626</ele>
        <time>2015-08-09T09:13:11Z</time>
      </trkpt>
      <trkpt lat="47.83167" lon="6.94772">
        <ele>626</ele>
        <time>2015-08-09T09:13:14Z</time>
      </trkpt>
      <trkpt lat="47.83167" lon="6.94772">
        <ele>626</ele>
        <time>2015-08-09T09:13:17Z</time>
      </trkpt>
      <trkpt lat="47.8317" lon="6.94769">
        <ele>628</ele>
        <time>2015-08-09T09:13:22Z</time>
      </trkpt>
      <trkpt lat="47.83193" lon="6.94759">
        <ele>632</ele>
        <time>2015-08-09T09:13:31Z</time>
      </trkpt>
      <trkpt lat="47.83229" lon="6.94751">
        <ele>633</ele>
        <time>2015-08-09T09:13:47Z</time>
      </trkpt>
      <trkpt lat="47.83264" lon="6.94735">
        <ele>644</ele>
        <time>2015-08-09T09:14:02Z</time>
      </trkpt>
      <trkpt lat="47.83268" lon="6.94736">
        <ele>642</ele>
        <time>2015-08-09T09:14:05Z</time>
      </trkpt>
      <trkpt lat="47.83277" lon="6.94732">
        <ele>641</ele>
        <time>2015-08-09T09:14:15Z</time>
      </trkpt>
      <trkpt lat="47.83286" lon="6.94734">
        <ele>636</ele>
        <time>2015-08-09T09:14:26Z</time>
      </trkpt>
      <trkpt lat="47.83291" lon="6.94733">
        <ele>642</ele>
        <time>2015-08-09T09:14:37Z</time>
      </trkpt>
      <trkpt lat="47.83303" lon="6.94726">
        <ele>645</ele>
        <time>2015-08-09T09:14:48Z</time>
      </trkpt>
      <trkpt lat="47.83317" lon="6.9472">
        <ele>651</ele>
        <time>2015-08-09T09:15:02Z</time>
      </trkpt>
      <trkpt lat="47.83317" lon="6.94714">
        <ele>654</ele>
        <time>2015-08-09T09:15:13Z</time>
      </trkpt>
      <trkpt lat="47.83324" lon="6.94707">
        <ele>655</ele>
        <time>2015-08-09T09:15:23Z</time>
      </trkpt>
      <trkpt lat="47.83338" lon="6.9469">
        <ele>655</ele>
        <time>2015-08-09T09:15:42Z</time>
      </trkpt>
      <trkpt lat="47.83338" lon="6.94688">
        <ele>658</ele>
        <time>2015-08-09T09:15:44Z</time>
      </trkpt>
      <trkpt lat="47.83342" lon="6.94682">
        <ele>660</ele>
        <time>2015-08-09T09:15:54Z</time>
      </trkpt>
      <trkpt lat="47.83353" lon="6.94672">
        <ele>665</ele>
        <time>2015-08-09T09:16:10Z</time>
      </trkpt>
      <trkpt lat="47.83354" lon="6.94665">
        <ele>666</ele>
        <time>2015-08-09T09:16:16Z</time>
      </trkpt>
      <trkpt lat="47.83364" lon="6.94652">
        <ele>671</ele>
        <time>2015-08-09T09:16:35Z</time>
      </trkpt>
      <trkpt lat="47.83367" lon="6.94647">
        <ele>670</ele>
        <time>2015-08-09T09:16:38Z</time>
      </trkpt>
      <trkpt lat="47.83374" lon="6.94632">
        <ele>678</ele>
        <time>2015-08-09T09:16:53Z</time>
      </trkpt>
      <trkpt lat="47.83378" lon="6.94626">
        <ele>682</ele>
        <time>2015-08-09T09:17:01Z</time>
      </trkpt>
      <trkpt lat="47.83388" lon="6.94614">
        <ele>679</ele>
        <time>2015-08-09T09:17:11Z</time>
      </trkpt>
      <trkpt lat="47.83404" lon="6.94601">
        <ele>680</ele>
        <time>2015-08-09T09:17:31Z</time>
      </trkpt>
      <trkpt lat="47.83404" lon="6.94599">
        <ele>684</ele>
        <time>2015-08-09T09:17:36Z</time>
      </trkpt>
      <trkpt lat="47.8341" lon="6.9459">
        <ele>685</ele>
        <time>2015-08-09T09:17:45Z</time>
      </trkpt>
      <trkpt lat="47.83417" lon="6.94577">
        <ele>689</ele>
        <time>2015-08-09T09:17:56Z</time>
      </trkpt>
      <trkpt lat="47.8343" lon="6.94561">
        <ele>693</ele>
        <time>2015-08-09T09:18:13Z</time>
      </trkpt>
      <trkpt lat="47.83431" lon="6.9456">
        <ele>702</ele>
        <time>2015-08-09T09:18:20Z</time>
      </trkpt>
      <trkpt lat="47.83448" lon="6.94552">
        <ele>697</ele>
        <time>2015-08-09T09:18:33Z</time>
      </trkpt>
      <trkpt lat="47.8345" lon="6.94548">
        <ele>696</ele>
        <time>2015-08-09T09:18:36Z</time>
      </trkpt>
      <trkpt lat="47.8345" lon="6.94536">
        <ele>704</ele>
        <time>2015-08-09T09:18:45Z</time>
      </trkpt>
      <trkpt lat="47.83461" lon="6.94527">
        <ele>704</ele>
        <time>2015-08-09T09:19:00Z</time>
      </trkpt>
      <trkpt lat="47.83476" lon="6.94519">
        <ele>698</ele>
        <time>2015-08-09T09:19:13Z</time>
      </trkpt>
      <trkpt lat="47.83488" lon="6.94507">
        <ele>703</ele>
        <time>2015-08-09T09:19:28Z</time>
      </trkpt>
      <trkpt lat="47.83488" lon="6.94507">
        <ele>704</ele>
        <time>2015-08-09T09:19:29Z</time>
      </trkpt>
      <trkpt lat="47.83494" lon="6.945">
        <ele>706</ele>
        <time>2015-08-09T09:19:45Z</time>
      </trkpt>
      <trkpt lat="47.83501" lon="6.94493">
        <ele>706</ele>
        <time>2015-08-09T09:19:51Z</time>
      </trkpt>
      <trkpt lat="47.83511" lon="6.94476">
        <ele>703</ele>
        <time>2015-08-09T09:20:03Z</time>
      </trkpt>
      <trkpt lat="47.83515" lon="6.94473">
        <ele>714</ele>
        <time>2015-08-09T09:20:13Z</time>
      </trkpt>
      <trkpt lat="47.83527" lon="6.94462">
        <ele>720</ele>
        <time>2015-08-09T09:20:25Z</time>
      </trkpt>
      <trkpt lat="47.83541" lon="6.94452">
        <ele>720</ele>
        <time>2015-08-09T09:20:38Z</time>
      </trkpt>
      <trkpt lat="47.83549" lon="6.94445">
        <ele>719</ele>
        <time>2015-08-09T09:20:53Z</time>
      </trkpt>
      <trkpt lat="47.83558" lon="6.94434">
        <ele>716</ele>
        <time>2015-08-09T09:21:05Z</time>
      </trkpt>
      <trkpt lat="47.83561" lon="6.9443">
        <ele>716</ele>
        <time>2015-08-09T09:21:08Z</time>
      </trkpt>
      <trkpt lat="47.8357" lon="6.9442">
        <ele>716</ele>
        <time>2015-08-09T09:21:19Z</time>
      </trkpt>
      <trkpt lat="47.8357" lon="6.94412">
        <ele>719</ele>
        <time>2015-08-09T09:21:30Z</time>
      </trkpt>
      <trkpt lat="47.83583" lon="6.94389">
        <ele>725</ele>
        <time>2015-08-09T09:21:47Z</time>
      </trkpt>
      <trkpt lat="47.83587" lon="6.94384">
        <ele>719</ele>
        <time>2015-08-09T09:21:52Z</time>
      </trkpt>
      <trkpt lat="47.83595" lon="6.94373">
        <ele>716</ele>
        <time>2015-08-09T09:22:05Z</time>
      </trkpt>
      <trkpt lat="47.83604" lon="6.94366">
        <ele>717</ele>
        <time>2015-08-09T09:22:14Z</time>
      </trkpt>
      <trkpt lat="47.83612" lon="6.94359">
        <ele>714</ele>
        <time>2015-08-09T09:22:26Z</time>
      </trkpt>
      <trkpt lat="47.83633" lon="6.94334">
        <ele>713</ele>
        <time>2015-08-09T09:22:46Z</time>
      </trkpt>
      <trkpt lat="47.83633" lon="6.94333">
        <ele>713</ele>
        <time>2015-08-09T09:22:47Z</time>
      </trkpt>
      <trkpt lat="47.83638" lon="6.94324">
        <ele>719</ele>
        <time>2015-08-09T09:22:59Z</time>
      </trkpt>
      <trkpt lat="47.83647" lon="6.94317">
        <ele>726</ele>
        <time>2015-08-09T09:23:10Z</time>
      </trkpt>
      <trkpt lat="47.83664" lon="6.94297">
        <ele>724</ele>
        <time>2015-08-09T09:23:22Z</time>
      </trkpt>
      <trkpt lat="47.83672" lon="6.94287">
        <ele>726</ele>
        <time>2015-08-09T09:23:32Z</time>
      </trkpt>
      <trkpt lat="47.83677" lon="6.94276">
        <ele>725</ele>
        <time>2015-08-09T09:23:42Z</time>
      </trkpt>
      <trkpt lat="47.83688" lon="6.94269">
        <ele>732</ele>
        <time>2015-08-09T09:23:56Z</time>
      </trkpt>
      <trkpt lat="47.83696" lon="6.94264">
        <ele>730</ele>
        <time>2015-08-09T09:24:04Z</time>
      </trkpt>
      <trkpt lat="47.8371" lon="6.94261">
        <ele>729</ele>
        <time>2015-08-09T09:24:20Z</time>
      </trkpt>
      <trkpt lat="47.83727" lon="6.94249">
        <ele>730</ele>
        <time>2015-08-09T09:24:34Z</time>
      </trkpt>
      <trkpt lat="47.8373" lon="6.94249">
        <ele>728</ele>
        <time>2015-08-09T09:24:37Z</time>
      </trkpt>
      <trkpt lat="47.83741" lon="6.94247">
        <ele>738</ele>
        <time>2015-08-09T09:24:52Z</time>
      </trkpt>
      <trkpt lat="47.83762" lon="6.94241">
        <ele>736</ele>
        <time>2015-08-09T09:25:08Z</time>
      </trkpt>
      <trkpt lat="47.83765" lon="6.9424">
        <ele>735</ele>
        <time>2015-08-09T09:25:10Z</time>
      </trkpt>
      <trkpt lat="47.83774" lon="6.9424">
        <ele>735</ele>
        <time>2015-08-09T09:25:23Z</time>
      </trkpt>
      <trkpt lat="47.83784" lon="6.94242">
        <ele>744</ele>
        <time>2015-08-09T09:25:42Z</time>
      </trkpt>
      <trkpt lat="47.83786" lon="6.94242">
        <ele>744</ele>
        <time>2015-08-09T09:25:43Z</time>
      </trkpt>
      <trkpt lat="47.83796" lon="6.94238">
        <ele>747</ele>
        <time>2015-08-09T09:25:57Z</time>
      </trkpt>
      <trkpt lat="47.83798" lon="6.94239">
        <ele>745</ele>
        <time>2015-08-09T09:26:06Z</time>
      </trkpt>
      <trkpt lat="47.838" lon="6.94238">
        <ele>743</ele>
        <time>2015-08-09T09:26:19Z</time>
      </trkpt>
      <trkpt lat="47.838" lon="6.94238">
        <ele>743</ele>
        <time>2015-08-09T09:26:22Z</time>
      </trkpt>
      <trkpt lat="47.838" lon="6.94238">
        <ele>743</ele>
        <time>2015-08-09T09:26:26Z</time>
      </trkpt>
      <trkpt lat="47.83802" lon="6.94241">
        <ele>741</ele>
        <time>2015-08-09T09:26:34Z</time>
      </trkpt>
      <trkpt lat="47.83803" lon="6.94244">
        <ele>737</ele>
        <time>2015-08-09T09:26:39Z</time>
      </trkpt>
      <trkpt lat="47.83804" lon="6.94245">
        <ele>738</ele>
        <time>2015-08-09T09:26:50Z</time>
      </trkpt>
      <trkpt lat="47.83804" lon="6.94245">
        <ele>738</ele>
        <time>2015-08-09T09:26:53Z</time>
      </trkpt>
      <trkpt lat="47.83804" lon="6.94245">
        <ele>738</ele>
        <time>2015-08-09T09:26:56Z</time>
      </trkpt>
      <trkpt lat="47.83804" lon="6.94245">
        <ele>738</ele>
        <time>2015-08-09T09:26:59Z</time>
      </trkpt>
      <trkpt lat="47.83804" lon="6.94245">
        <ele>738</ele>
        <time>2015-08-09T09:27:03Z</time>
      </trkpt>
      <trkpt lat="47.83804" lon="6.94245">
        <ele>738</ele>
        <time>2015-08-09T09:27:05Z</time>
      </trkpt>
      <trkpt lat="47.83804" lon="6.94245">
        <ele>738</ele>
        <time>2015-08-09T09:27:08Z</time>
      </trkpt>
      <trkpt lat="47.83804" lon="6.94245">
        <ele>738</ele>
        <time>2015-08-09T09:27:13Z</time>
      </trkpt>
      <trkpt lat="47.83804" lon="6.94245">
        <ele>738</ele>
        <time>2015-08-09T09:27:16Z</time>
      </trkpt>
      <trkpt lat="47.83804" lon="6.94245">
        <ele>731</ele>
        <time>2015-08-09T09:27:25Z</time>
      </trkpt>
      <trkpt lat="47.83804" lon="6.94245">
        <ele>732</ele>
        <time>2015-08-09T09:27:28Z</time>
      </trkpt>
      <trkpt lat="47.83804" lon="6.94246">
        <ele>730</ele>
        <time>2015-08-09T09:27:32Z</time>
      </trkpt>
      <trkpt lat="47.83804" lon="6.94246">
        <ele>730</ele>
        <time>2015-08-09T09:27:36Z</time>
      </trkpt>
      <trkpt lat="47.83804" lon="6.94246">
        <ele>730</ele>
        <time>2015-08-09T09:27:38Z</time>
      </trkpt>
      <trkpt lat="47.83804" lon="6.94246">
        <ele>730</ele>
        <time>2015-08-09T09:27:41Z</time>
      </trkpt>
      <trkpt lat="47.83804" lon="6.94246">
        <ele>730</ele>
        <time>2015-08-09T09:27:44Z</time>
      </trkpt>
      <trkpt lat="47.83802" lon="6.94249">
        <ele>729</ele>
        <time>2015-08-09T09:27:48Z</time>
      </trkpt>
      <trkpt lat="47.83802" lon="6.94244">
        <ele>726</ele>
        <time>2015-08-09T09:28:06Z</time>
      </trkpt>
      <trkpt lat="47.83802" lon="6.94243">
        <ele>726</ele>
        <time>2015-08-09T09:28:09Z</time>
      </trkpt>
      <trkpt lat="47.83802" lon="6.94243">
        <ele>726</ele>
        <time>2015-08-09T09:28:12Z</time>
      </trkpt>
      <trkpt lat="47.83802" lon="6.94243">
        <ele>726</ele>
        <time>2015-08-09T09:28:17Z</time>
      </trkpt>
      <trkpt lat="47.83802" lon="6.94243">
        <ele>726</ele>
        <time>2015-08-09T09:28:18Z</time>
      </trkpt>
      <trkpt lat="47.83802" lon="6.94243">
        <ele>726</ele>
        <time>2015-08-09T09:28:21Z</time>
      </trkpt>
      <trkpt lat="47.83802" lon="6.94243">
        <ele>726</ele>
        <time>2015-08-09T09:28:24Z</time>
      </trkpt>
      <trkpt lat="47.83802" lon="6.94243">
        <ele>726</ele>
        <time>2015-08-09T09:28:27Z</time>
      </trkpt>
      <trkpt lat="47.83802" lon="6.94243">
        <ele>726</ele>
        <time>2015-08-09T09:28:30Z</time>
      </trkpt>
      <trkpt lat="47.83802" lon="6.94243">
        <ele>726</ele>
        <time>2015-08-09T09:28:33Z</time>
      </trkpt>
      <trkpt lat="47.83802" lon="6.94243">
        <ele>726</ele>
        <time>2015-08-09T09:28:36Z</time>
      </trkpt>
      <trkpt lat="47.83802" lon="6.94243">
        <ele>726</ele>
        <time>2015-08-09T09:28:40Z</time>
      </trkpt>
      <trkpt lat="47.83802" lon="6.94243">
        <ele>726</ele>
        <time>2015-08-09T09:28:42Z</time>
      </trkpt>
      <trkpt lat="47.83802" lon="6.94243">
        <ele>726</ele>
        <time>2015-08-09T09:28:45Z</time>
      </trkpt>
      <trkpt lat="47.83802" lon="6.94243">
        <ele>726</ele>
        <time>2015-08-09T09:28:50Z</time>
      </trkpt>
      <trkpt lat="47.83802" lon="6.94243">
        <ele>726</ele>
        <time>2015-08-09T09:28:53Z</time>
      </trkpt>
      <trkpt lat="47.83802" lon="6.94243">
        <ele>726</ele>
        <time>2015-08-09T09:28:55Z</time>
      </trkpt>
      <trkpt lat="47.83802" lon="6.94243">
        <ele>726</ele>
        <time>2015-08-09T09:28:57Z</time>
      </trkpt>
      <trkpt lat="47.83802" lon="6.94243">
        <ele>727</ele>
        <time>2015-08-09T09:29:00Z</time>
      </trkpt>
      <trkpt lat="47.83802" lon="6.94243">
        <ele>727</ele>
        <time>2015-08-09T09:29:04Z</time>
      </trkpt>
      <trkpt lat="47.83802" lon="6.94243">
        <ele>727</ele>
        <time>2015-08-09T09:29:06Z</time>
      </trkpt>
      <trkpt lat="47.83802" lon="6.94243">
        <ele>727</ele>
        <time>2015-08-09T09:29:09Z</time>
      </trkpt>
      <trkpt lat="47.83802" lon="6.94243">
        <ele>727</ele>
        <time>2015-08-09T09:29:12Z</time>
      </trkpt>
      <trkpt lat="47.83802" lon="6.94243">
        <ele>727</ele>
        <time>2015-08-09T09:29:15Z</time>
      </trkpt>
      <trkpt lat="47.83802" lon="6.94243">
        <ele>727</ele>
        <time>2015-08-09T09:29:18Z</time>
      </trkpt>
      <trkpt lat="47.83802" lon="6.94243">
        <ele>727</ele>
        <time>2015-08-09T09:29:23Z</time>
      </trkpt>
      <trkpt lat="47.83802" lon="6.94243">
        <ele>727</ele>
        <time>2015-08-09T09:29:24Z</time>
      </trkpt>
      <trkpt lat="47.83802" lon="6.94243">
        <ele>727</ele>
        <time>2015-08-09T09:29:28Z</time>
      </trkpt>
      <trkpt lat="47.83802" lon="6.94243">
        <ele>727</ele>
        <time>2015-08-09T09:29:31Z</time>
      </trkpt>
      <trkpt lat="47.83802" lon="6.94243">
        <ele>727</ele>
        <time>2015-08-09T09:29:34Z</time>
      </trkpt>
      <trkpt lat="47.83802" lon="6.94243">
        <ele>727</ele>
        <time>2015-08-09T09:29:36Z</time>
      </trkpt>
      <trkpt lat="47.83802" lon="6.94243">
        <ele>727</ele>
        <time>2015-08-09T09:29:39Z</time>
      </trkpt>
      <trkpt lat="47.83807" lon="6.94249">
        <ele>732</ele>
        <time>2015-08-09T09:29:47Z</time>
      </trkpt>
      <trkpt lat="47.83812" lon="6.9425">
        <ele>734</ele>
        <time>2015-08-09T09:29:53Z</time>
      </trkpt>
      <trkpt lat="47.83819" lon="6.94249">
        <ele>736</ele>
        <time>2015-08-09T09:30:04Z</time>
      </trkpt>
      <trkpt lat="47.83826" lon="6.94248">
        <ele>743</ele>
        <time>2015-08-09T09:30:15Z</time>
      </trkpt>
      <trkpt lat="47.83831" lon="6.94252">
        <ele>752</ele>
        <time>2015-08-09T09:30:28Z</time>
      </trkpt>
      <trkpt lat="47.83852" lon="6.94259">
        <ele>747</ele>
        <time>2015-08-09T09:30:43Z</time>
      </trkpt>
      <trkpt lat="47.83864" lon="6.9426">
        <ele>742</ele>
        <time>2015-08-09T09:30:54Z</time>
      </trkpt>
      <trkpt lat="47.83869" lon="6.94258">
        <ele>744</ele>
        <time>2015-08-09T09:30:59Z</time>
      </trkpt>
      <trkpt lat="47.83874" lon="6.94259">
        <ele>749</ele>
        <time>2015-08-09T09:31:10Z</time>
      </trkpt>
      <trkpt lat="47.83882" lon="6.94258">
        <ele>748</ele>
        <time>2015-08-09T09:31:21Z</time>
      </trkpt>
      <trkpt lat="47.83887" lon="6.94252">
        <ele>758</ele>
        <time>2015-08-09T09:31:32Z</time>
      </trkpt>
      <trkpt lat="47.839" lon="6.94251">
        <ele>768</ele>
        <time>2015-08-09T09:31:48Z</time>
      </trkpt>
      <trkpt lat="47.83907" lon="6.94258">
        <ele>763</ele>
        <time>2015-08-09T09:31:56Z</time>
      </trkpt>
      <trkpt lat="47.83918" lon="6.94264">
        <ele>765</ele>
        <time>2015-08-09T09:32:10Z</time>
      </trkpt>
      <trkpt lat="47.83921" lon="6.94261">
        <ele>768</ele>
        <time>2015-08-09T09:32:16Z</time>
      </trkpt>
      <trkpt lat="47.83933" lon="6.94271">
        <ele>771</ele>
        <time>2015-08-09T09:32:34Z</time>
      </trkpt>
      <trkpt lat="47.83937" lon="6.94273">
        <ele>773</ele>
        <time>2015-08-09T09:32:38Z</time>
      </trkpt>
      <trkpt lat="47.83954" lon="6.94272">
        <ele>774</ele>
        <time>2015-08-09T09:32:54Z</time>
      </trkpt>
      <trkpt lat="47.83961" lon="6.9427">
        <ele>774</ele>
        <time>2015-08-09T09:33:00Z</time>
      </trkpt>
      <trkpt lat="47.8397" lon="6.94274">
        <ele>774</ele>
        <time>2015-08-09T09:33:15Z</time>
      </trkpt>
      <trkpt lat="47.83985" lon="6.94275">
        <ele>772</ele>
        <time>2015-08-09T09:33:29Z</time>
      </trkpt>
      <trkpt lat="47.83988" lon="6.94276">
        <ele>770</ele>
        <time>2015-08-09T09:33:35Z</time>
      </trkpt>
      <trkpt lat="47.83997" lon="6.94277">
        <ele>769</ele>
        <time>2015-08-09T09:33:45Z</time>
      </trkpt>
      <trkpt lat="47.84014" lon="6.94273">
        <ele>773</ele>
        <time>2015-08-09T09:33:56Z</time>
      </trkpt>
      <trkpt lat="47.84035" lon="6.94272">
        <ele>769</ele>
        <time>2015-08-09T09:34:09Z</time>
      </trkpt>
      <trkpt lat="47.84039" lon="6.94274">
        <ele>762</ele>
        <time>2015-08-09T09:34:17Z</time>
      </trkpt>
      <trkpt lat="47.84057" lon="6.94271">
        <ele>759</ele>
        <time>2015-08-09T09:34:31Z</time>
      </trkpt>
      <trkpt lat="47.84062" lon="6.94274">
        <ele>757</ele>
        <time>2015-08-09T09:34:39Z</time>
      </trkpt>
      <trkpt lat="47.84069" lon="6.94275">
        <ele>759</ele>
        <time>2015-08-09T09:34:55Z</time>
      </trkpt>
      <trkpt lat="47.84069" lon="6.94275">
        <ele>759</ele>
        <time>2015-08-09T09:35:03Z</time>
      </trkpt>
      <trkpt lat="47.84069" lon="6.94275">
        <ele>759</ele>
        <time>2015-08-09T09:35:04Z</time>
      </trkpt>
      <trkpt lat="47.84069" lon="6.94275">
        <ele>759</ele>
        <time>2015-08-09T09:35:08Z</time>
      </trkpt>
      <trkpt lat="47.84069" lon="6.94275">
        <ele>759</ele>
        <time>2015-08-09T09:35:10Z</time>
      </trkpt>
      <trkpt lat="47.84069" lon="6.94275">
        <ele>759</ele>
        <time>2015-08-09T09:35:13Z</time>
      </trkpt>
      <trkpt lat="47.84069" lon="6.94275">
        <ele>759</ele>
        <time>2015-08-09T09:35:17Z</time>
      </trkpt>
      <trkpt lat="47.84069" lon="6.94275">
        <ele>759</ele>
        <time>2015-08-09T09:35:19Z</time>
      </trkpt>
      <trkpt lat="47.84069" lon="6.94275">
        <ele>759</ele>
        <time>2015-08-09T09:35:23Z</time>
      </trkpt>
      <trkpt lat="47.84069" lon="6.94275">
        <ele>759</ele>
        <time>2015-08-09T09:35:26Z</time>
      </trkpt>
      <trkpt lat="47.84069" lon="6.94275">
        <ele>759</ele>
        <time>2015-08-09T09:35:30Z</time>
      </trkpt>
      <trkpt lat="47.84069" lon="6.94275">
        <ele>759</ele>
        <time>2015-08-09T09:35:31Z</time>
      </trkpt>
      <trkpt lat="47.84069" lon="6.94275">
        <ele>759</ele>
        <time>2015-08-09T09:35:35Z</time>
      </trkpt>
      <trkpt lat="47.84069" lon="6.94275">
        <ele>759</ele>
        <time>2015-08-09T09:35:37Z</time>
      </trkpt>
      <trkpt lat="47.84072" lon="6.94273">
        <ele>758</ele>
        <time>2015-08-09T09:35:46Z</time>
      </trkpt>
      <trkpt lat="47.84073" lon="6.94273">
        <ele>758</ele>
        <time>2015-08-09T09:35:54Z</time>
      </trkpt>
      <trkpt lat="47.84073" lon="6.94273">
        <ele>758</ele>
        <time>2015-08-09T09:35:57Z</time>
      </trkpt>
      <trkpt lat="47.84073" lon="6.94273">
        <ele>758</ele>
        <time>2015-08-09T09:36:00Z</time>
      </trkpt>
      <trkpt lat="47.84071" lon="6.94271">
        <ele>758</ele>
        <time>2015-08-09T09:36:11Z</time>
      </trkpt>
      <trkpt lat="47.84071" lon="6.94271">
        <ele>758</ele>
        <time>2015-08-09T09:36:16Z</time>
      </trkpt>
      <trkpt lat="47.84071" lon="6.9427">
        <ele>757</ele>
        <time>2015-08-09T09:36:20Z</time>
      </trkpt>
      <trkpt lat="47.84071" lon="6.9427">
        <ele>757</ele>
        <time>2015-08-09T09:36:24Z</time>
      </trkpt>
      <trkpt lat="47.84072" lon="6.94269">
        <ele>757</ele>
        <time>2015-08-09T09:36:26Z</time>
      </trkpt>
      <trkpt lat="47.84072" lon="6.94269">
        <ele>757</ele>
        <time>2015-08-09T09:36:29Z</time>
      </trkpt>
      <trkpt lat="47.84072" lon="6.94269">
        <ele>757</ele>
        <time>2015-08-09T09:36:32Z</time>
      </trkpt>
      <trkpt lat="47.84072" lon="6.94269">
        <ele>756</ele>
        <time>2015-08-09T09:36:35Z</time>
      </trkpt>
      <trkpt lat="47.84072" lon="6.94267">
        <ele>758</ele>
        <time>2015-08-09T09:36:38Z</time>
      </trkpt>
      <trkpt lat="47.84072" lon="6.94266">
        <ele>759</ele>
        <time>2015-08-09T09:36:49Z</time>
      </trkpt>
      <trkpt lat="47.84072" lon="6.94266">
        <ele>759</ele>
        <time>2015-08-09T09:36:52Z</time>
      </trkpt>
      <trkpt lat="47.84072" lon="6.94264">
        <ele>759</ele>
        <time>2015-08-09T09:36:57Z</time>
      </trkpt>
      <trkpt lat="47.84073" lon="6.94265">
        <ele>759</ele>
        <time>2015-08-09T09:36:58Z</time>
      </trkpt>
      <trkpt lat="47.84078" lon="6.9426">
        <ele>763</ele>
        <time>2015-08-09T09:37:11Z</time>
      </trkpt>
      <trkpt lat="47.84083" lon="6.94254">
        <ele>766</ele>
        <time>2015-08-09T09:37:20Z</time>
      </trkpt>
      <trkpt lat="47.84088" lon="6.94249">
        <ele>769</ele>
        <time>2015-08-09T09:37:32Z</time>
      </trkpt>
      <trkpt lat="47.84091" lon="6.94248">
        <ele>769</ele>
        <time>2015-08-09T09:37:44Z</time>
      </trkpt>
      <trkpt lat="47.84103" lon="6.94235">
        <ele>768</ele>
        <time>2015-08-09T09:37:59Z</time>
      </trkpt>
      <trkpt lat="47.84113" lon="6.94224">
        <ele>770</ele>
        <time>2015-08-09T09:38:07Z</time>
      </trkpt>
      <trkpt lat="47.84124" lon="6.94211">
        <ele>771</ele>
        <time>2015-08-09T09:38:21Z</time>
      </trkpt>
      <trkpt lat="47.84127" lon="6.94206">
        <ele>771</ele>
        <time>2015-08-09T09:38:26Z</time>
      </trkpt>
      <trkpt lat="47.84134" lon="6.94197">
        <ele>776</ele>
        <time>2015-08-09T09:38:37Z</time>
      </trkpt>
      <trkpt lat="47.84139" lon="6.94186">
        <ele>781</ele>
        <time>2015-08-09T09:38:48Z</time>
      </trkpt>
      <trkpt lat="47.84145" lon="6.94178">
        <ele>788</ele>
        <time>2015-08-09T09:39:01Z</time>
      </trkpt>
      <trkpt lat="47.8415" lon="6.94165">
        <ele>791</ele>
        <time>2015-08-09T09:39:12Z</time>
      </trkpt>
      <trkpt lat="47.84154" lon="6.94158">
        <ele>794</ele>
        <time>2015-08-09T09:39:21Z</time>
      </trkpt>
      <trkpt lat="47.8416" lon="6.94149">
        <ele>802</ele>
        <time>2015-08-09T09:39:37Z</time>
      </trkpt>
      <trkpt lat="47.84161" lon="6.94143">
        <ele>804</ele>
        <time>2015-08-09T09:39:43Z</time>
      </trkpt>
      <trkpt lat="47.84163" lon="6.94131">
        <ele>804</ele>
        <time>2015-08-09T09:39:55Z</time>
      </trkpt>
      <trkpt lat="47.8417" lon="6.94119">
        <ele>805</ele>
        <time>2015-08-09T09:40:05Z</time>
      </trkpt>
      <trkpt lat="47.84182" lon="6.94105">
        <ele>802</ele>
        <time>2015-08-09T09:40:16Z</time>
      </trkpt>
      <trkpt lat="47.84183" lon="6.94097">
        <ele>806</ele>
        <time>2015-08-09T09:40:27Z</time>
      </trkpt>
      <trkpt lat="47.84185" lon="6.94086">
        <ele>812</ele>
        <time>2015-08-09T09:40:38Z</time>
      </trkpt>
      <trkpt lat="47.84189" lon="6.94071">
        <ele>824</ele>
        <time>2015-08-09T09:40:56Z</time>
      </trkpt>
      <trkpt lat="47.84192" lon="6.94068">
        <ele>824</ele>
        <time>2015-08-09T09:41:03Z</time>
      </trkpt>
      <trkpt lat="47.84204" lon="6.94054">
        <ele>818</ele>
        <time>2015-08-09T09:41:11Z</time>
      </trkpt>
      <trkpt lat="47.84203" lon="6.94047">
        <ele>828</ele>
        <time>2015-08-09T09:41:22Z</time>
      </trkpt>
      <trkpt lat="47.84209" lon="6.94032">
        <ele>834</ele>
        <time>2015-08-09T09:41:41Z</time>
      </trkpt>
      <trkpt lat="47.84212" lon="6.94029">
        <ele>836</ele>
        <time>2015-08-09T09:41:44Z</time>
      </trkpt>
      <trkpt lat="47.84216" lon="6.94022">
        <ele>835</ele>
        <time>2015-08-09T09:41:55Z</time>
      </trkpt>
      <trkpt lat="47.84217" lon="6.94018">
        <ele>836</ele>
        <time>2015-08-09T09:42:06Z</time>
      </trkpt>
      <trkpt lat="47.84219" lon="6.94017">
        <ele>836</ele>
        <time>2015-08-09T09:42:19Z</time>
      </trkpt>
      <trkpt lat="47.84219" lon="6.94017">
        <ele>836</ele>
        <time>2015-08-09T09:42:20Z</time>
      </trkpt>
      <trkpt lat="47.84219" lon="6.94017">
        <ele>836</ele>
        <time>2015-08-09T09:42:23Z</time>
      </trkpt>
      <trkpt lat="47.84219" lon="6.94017">
        <ele>836</ele>
        <time>2015-08-09T09:42:26Z</time>
      </trkpt>
      <trkpt lat="47.84219" lon="6.94017">
        <ele>836</ele>
        <time>2015-08-09T09:42:29Z</time>
      </trkpt>
      <trkpt lat="47.84219" lon="6.94017">
        <ele>836</ele>
        <time>2015-08-09T09:42:32Z</time>
      </trkpt>
      <trkpt lat="47.84219" lon="6.94017">
        <ele>836</ele>
        <time>2015-08-09T09:42:35Z</time>
      </trkpt>
      <trkpt lat="47.84219" lon="6.94017">
        <ele>836</ele>
        <time>2015-08-09T09:42:38Z</time>
      </trkpt>
      <trkpt lat="47.84219" lon="6.94017">
        <ele>836</ele>
        <time>2015-08-09T09:42:41Z</time>
      </trkpt>
      <trkpt lat="47.84219" lon="6.94017">
        <ele>836</ele>
        <time>2015-08-09T09:42:44Z</time>
      </trkpt>
      <trkpt lat="47.84219" lon="6.94017">
        <ele>836</ele>
        <time>2015-08-09T09:42:47Z</time>
      </trkpt>
      <trkpt lat="47.84219" lon="6.94017">
        <ele>836</ele>
        <time>2015-08-09T09:42:50Z</time>
      </trkpt>
      <trkpt lat="47.84219" lon="6.94017">
        <ele>836</ele>
        <time>2015-08-09T09:42:54Z</time>
      </trkpt>
      <trkpt lat="47.84219" lon="6.94017">
        <ele>836</ele>
        <time>2015-08-09T09:42:56Z</time>
      </trkpt>
      <trkpt lat="47.8422" lon="6.94018">
        <ele>837</ele>
        <time>2015-08-09T09:43:00Z</time>
      </trkpt>
      <trkpt lat="47.8422" lon="6.94018">
        <ele>837</ele>
        <time>2015-08-09T09:43:02Z</time>
      </trkpt>
      <trkpt lat="47.8422" lon="6.94018">
        <ele>837</ele>
        <time>2015-08-09T09:43:07Z</time>
      </trkpt>
      <trkpt lat="47.8422" lon="6.94018">
        <ele>837</ele>
        <time>2015-08-09T09:43:08Z</time>
      </trkpt>
      <trkpt lat="47.8422" lon="6.94018">
        <ele>837</ele>
        <time>2015-08-09T09:43:13Z</time>
      </trkpt>
      <trkpt lat="47.8422" lon="6.94018">
        <ele>837</ele>
        <time>2015-08-09T09:43:14Z</time>
      </trkpt>
      <trkpt lat="47.8422" lon="6.94018">
        <ele>837</ele>
        <time>2015-08-09T09:43:19Z</time>
      </trkpt>
      <trkpt lat="47.8422" lon="6.94018">
        <ele>837</ele>
        <time>2015-08-09T09:43:20Z</time>
      </trkpt>
      <trkpt lat="47.8422" lon="6.94018">
        <ele>837</ele>
        <time>2015-08-09T09:43:25Z</time>
      </trkpt>
      <trkpt lat="47.8422" lon="6.94018">
        <ele>837</ele>
        <time>2015-08-09T09:43:26Z</time>
      </trkpt>
      <trkpt lat="47.8422" lon="6.94018">
        <ele>837</ele>
        <time>2015-08-09T09:43:29Z</time>
      </trkpt>
      <trkpt lat="47.8422" lon="6.94018">
        <ele>837</ele>
        <time>2015-08-09T09:43:32Z</time>
      </trkpt>
      <trkpt lat="47.8422" lon="6.94018">
        <ele>837</ele>
        <time>2015-08-09T09:43:35Z</time>
      </trkpt>
      <trkpt lat="47.8422" lon="6.94018">
        <ele>837</ele>
        <time>2015-08-09T09:43:38Z</time>
      </trkpt>
      <trkpt lat="47.8422" lon="6.94018">
        <ele>837</ele>
        <time>2015-08-09T09:43:41Z</time>
      </trkpt>
      <trkpt lat="47.8422" lon="6.94018">
        <ele>837</ele>
        <time>2015-08-09T09:43:45Z</time>
      </trkpt>
      <trkpt lat="47.8422" lon="6.94018">
        <ele>837</ele>
        <time>2015-08-09T09:43:47Z</time>
      </trkpt>
      <trkpt lat="47.8422" lon="6.94018">
        <ele>837</ele>
        <time>2015-08-09T09:43:51Z</time>
      </trkpt>
      <trkpt lat="47.8422" lon="6.94018">
        <ele>837</ele>
        <time>2015-08-09T09:43:54Z</time>
      </trkpt>
      <trkpt lat="47.8422" lon="6.94018">
        <ele>837</ele>
        <time>2015-08-09T09:43:58Z</time>
      </trkpt>
      <trkpt lat="47.8422" lon="6.94018">
        <ele>837</ele>
        <time>2015-08-09T09:43:59Z</time>
      </trkpt>
      <trkpt lat="47.8422" lon="6.94018">
        <ele>837</ele>
        <time>2015-08-09T09:44:02Z</time>
      </trkpt>
      <trkpt lat="47.8422" lon="6.94018">
        <ele>837</ele>
        <time>2015-08-09T09:44:05Z</time>
      </trkpt>
      <trkpt lat="47.8422" lon="6.94018">
        <ele>837</ele>
        <time>2015-08-09T09:44:08Z</time>
      </trkpt>
      <trkpt lat="47.8422" lon="6.94018">
        <ele>837</ele>
        <time>2015-08-09T09:44:11Z</time>
      </trkpt>
      <trkpt lat="47.8422" lon="6.94018">
        <ele>837</ele>
        <time>2015-08-09T09:44:16Z</time>
      </trkpt>
      <trkpt lat="47.8422" lon="6.94018">
        <ele>837</ele>
        <time>2015-08-09T09:44:17Z</time>
      </trkpt>
      <trkpt lat="47.8422" lon="6.94018">
        <ele>837</ele>
        <time>2015-08-09T09:44:22Z</time>
      </trkpt>
      <trkpt lat="47.8422" lon="6.94018">
        <ele>837</ele>
        <time>2015-08-09T09:44:23Z</time>
      </trkpt>
      <trkpt lat="47.84221" lon="6.94018">
        <ele>837</ele>
        <time>2015-08-09T09:44:26Z</time>
      </trkpt>
      <trkpt lat="47.84221" lon="6.94018">
        <ele>837</ele>
        <time>2015-08-09T09:44:29Z</time>
      </trkpt>
      <trkpt lat="47.84221" lon="6.94018">
        <ele>837</ele>
        <time>2015-08-09T09:44:33Z</time>
      </trkpt>
      <trkpt lat="47.84221" lon="6.94018">
        <ele>837</ele>
        <time>2015-08-09T09:44:35Z</time>
      </trkpt>
      <trkpt lat="47.84221" lon="6.94018">
        <ele>837</ele>
        <time>2015-08-09T09:44:38Z</time>
      </trkpt>
      <trkpt lat="47.84221" lon="6.94018">
        <ele>837</ele>
        <time>2015-08-09T09:44:41Z</time>
      </trkpt>
      <trkpt lat="47.84221" lon="6.94018">
        <ele>837</ele>
        <time>2015-08-09T09:44:46Z</time>
      </trkpt>
      <trkpt lat="47.84221" lon="6.94018">
        <ele>837</ele>
        <time>2015-08-09T09:44:47Z</time>
      </trkpt>
      <trkpt lat="47.84221" lon="6.94018">
        <ele>837</ele>
        <time>2015-08-09T09:44:52Z</time>
      </trkpt>
      <trkpt lat="47.84221" lon="6.94018">
        <ele>837</ele>
        <time>2015-08-09T09:44:53Z</time>
      </trkpt>
      <trkpt lat="47.84221" lon="6.94018">
        <ele>837</ele>
        <time>2015-08-09T09:44:56Z</time>
      </trkpt>
      <trkpt lat="47.84221" lon="6.94018">
        <ele>837</ele>
        <time>2015-08-09T09:44:59Z</time>
      </trkpt>
      <trkpt lat="47.84221" lon="6.94018">
        <ele>837</ele>
        <time>2015-08-09T09:45:04Z</time>
      </trkpt>
      <trkpt lat="47.84221" lon="6.94018">
        <ele>837</ele>
        <time>2015-08-09T09:45:05Z</time>
      </trkpt>
      <trkpt lat="47.84221" lon="6.94014">
        <ele>836</ele>
        <time>2015-08-09T09:45:08Z</time>
      </trkpt>
      <trkpt lat="47.84221" lon="6.94009">
        <ele>835</ele>
        <time>2015-08-09T09:45:20Z</time>
      </trkpt>
      <trkpt lat="47.84222" lon="6.94009">
        <ele>835</ele>
        <time>2015-08-09T09:45:30Z</time>
      </trkpt>
      <trkpt lat="47.84231" lon="6.94">
        <ele>836</ele>
        <time>2015-08-09T09:45:39Z</time>
      </trkpt>
      <trkpt lat="47.84232" lon="6.93994">
        <ele>839</ele>
        <time>2015-08-09T09:45:44Z</time>
      </trkpt>
      <trkpt lat="47.84246" lon="6.93975">
        <ele>846</ele>
        <time>2015-08-09T09:46:02Z</time>
      </trkpt>
      <trkpt lat="47.84251" lon="6.93969">
        <ele>847</ele>
        <time>2015-08-09T09:46:10Z</time>
      </trkpt>
      <trkpt lat="47.84261" lon="6.93954">
        <ele>847</ele>
        <time>2015-08-09T09:46:26Z</time>
      </trkpt>
      <trkpt lat="47.84264" lon="6.93953">
        <ele>847</ele>
        <time>2015-08-09T09:46:28Z</time>
      </trkpt>
      <trkpt lat="47.84272" lon="6.93946">
        <ele>848</ele>
        <time>2015-08-09T09:46:39Z</time>
      </trkpt>
      <trkpt lat="47.84283" lon="6.93933">
        <ele>854</ele>
        <time>2015-08-09T09:46:53Z</time>
      </trkpt>
      <trkpt lat="47.84297" lon="6.93923">
        <ele>860</ele>
        <time>2015-08-09T09:47:06Z</time>
      </trkpt>
      <trkpt lat="47.843" lon="6.93919">
        <ele>860</ele>
        <time>2015-08-09T09:47:12Z</time>
      </trkpt>
      <trkpt lat="47.84307" lon="6.93916">
        <ele>854</ele>
        <time>2015-08-09T09:47:23Z</time>
      </trkpt>
      <trkpt lat="47.84307" lon="6.93915">
        <ele>852</ele>
        <time>2015-08-09T09:47:34Z</time>
      </trkpt>
      <trkpt lat="47.84309" lon="6.93914">
        <ele>851</ele>
        <time>2015-08-09T09:47:45Z</time>
      </trkpt>
      <trkpt lat="47.84309" lon="6.93914">
        <ele>851</ele>
        <time>2015-08-09T09:47:46Z</time>
      </trkpt>
      <trkpt lat="47.84309" lon="6.93914">
        <ele>851</ele>
        <time>2015-08-09T09:47:51Z</time>
      </trkpt>
      <trkpt lat="47.84309" lon="6.93914">
        <ele>851</ele>
        <time>2015-08-09T09:47:54Z</time>
      </trkpt>
      <trkpt lat="47.84309" lon="6.93914">
        <ele>851</ele>
        <time>2015-08-09T09:47:55Z</time>
      </trkpt>
      <trkpt lat="47.84309" lon="6.93914">
        <ele>851</ele>
        <time>2015-08-09T09:47:58Z</time>
      </trkpt>
      <trkpt lat="47.84309" lon="6.93914">
        <ele>851</ele>
        <time>2015-08-09T09:48:01Z</time>
      </trkpt>
      <trkpt lat="47.84309" lon="6.93914">
        <ele>851</ele>
        <time>2015-08-09T09:48:04Z</time>
      </trkpt>
      <trkpt lat="47.84309" lon="6.93914">
        <ele>851</ele>
        <time>2015-08-09T09:48:07Z</time>
      </trkpt>
      <trkpt lat="47.84309" lon="6.93914">
        <ele>851</ele>
        <time>2015-08-09T09:48:10Z</time>
      </trkpt>
      <trkpt lat="47.84309" lon="6.93914">
        <ele>851</ele>
        <time>2015-08-09T09:48:13Z</time>
      </trkpt>
      <trkpt lat="47.84309" lon="6.93914">
        <ele>851</ele>
        <time>2015-08-09T09:48:16Z</time>
      </trkpt>
      <trkpt lat="47.84308" lon="6.93912">
        <ele>853</ele>
        <time>2015-08-09T09:48:19Z</time>
      </trkpt>
      <trkpt lat="47.84308" lon="6.9391">
        <ele>853</ele>
        <time>2015-08-09T09:48:30Z</time>
      </trkpt>
      <trkpt lat="47.84308" lon="6.9391">
        <ele>853</ele>
        <time>2015-08-09T09:48:33Z</time>
      </trkpt>
      <trkpt lat="47.84308" lon="6.9391">
        <ele>853</ele>
        <time>2015-08-09T09:48:36Z</time>
      </trkpt>
      <trkpt lat="47.84308" lon="6.9391">
        <ele>853</ele>
        <time>2015-08-09T09:48:39Z</time>
      </trkpt>
      <trkpt lat="47.84308" lon="6.9391">
        <ele>853</ele>
        <time>2015-08-09T09:48:42Z</time>
      </trkpt>
      <trkpt lat="47.84308" lon="6.9391">
        <ele>853</ele>
        <time>2015-08-09T09:48:45Z</time>
      </trkpt>
      <trkpt lat="47.84308" lon="6.9391">
        <ele>853</ele>
        <time>2015-08-09T09:48:48Z</time>
      </trkpt>
      <trkpt lat="47.84308" lon="6.9391">
        <ele>853</ele>
        <time>2015-08-09T09:48:51Z</time>
      </trkpt>
      <trkpt lat="47.84308" lon="6.9391">
        <ele>853</ele>
        <time>2015-08-09T09:48:54Z</time>
      </trkpt>
      <trkpt lat="47.84308" lon="6.9391">
        <ele>853</ele>
        <time>2015-08-09T09:48:57Z</time>
      </trkpt>
      <trkpt lat="47.84308" lon="6.9391">
        <ele>853</ele>
        <time>2015-08-09T09:49:00Z</time>
      </trkpt>
      <trkpt lat="47.84308" lon="6.9391">
        <ele>853</ele>
        <time>2015-08-09T09:49:03Z</time>
      </trkpt>
      <trkpt lat="47.84308" lon="6.9391">
        <ele>853</ele>
        <time>2015-08-09T09:49:08Z</time>
      </trkpt>
      <trkpt lat="47.84308" lon="6.9391">
        <ele>853</ele>
        <time>2015-08-09T09:49:11Z</time>
      </trkpt>
      <trkpt lat="47.84308" lon="6.9391">
        <ele>853</ele>
        <time>2015-08-09T09:49:14Z</time>
      </trkpt>
      <trkpt lat="47.84308" lon="6.9391">
        <ele>853</ele>
        <time>2015-08-09T09:49:17Z</time>
      </trkpt>
      <trkpt lat="47.84308" lon="6.9391">
        <ele>853</ele>
        <time>2015-08-09T09:49:18Z</time>
      </trkpt>
      <trkpt lat="47.84308" lon="6.9391">
        <ele>853</ele>
        <time>2015-08-09T09:49:21Z</time>
      </trkpt>
      <trkpt lat="47.84308" lon="6.9391">
        <ele>853</ele>
        <time>2015-08-09T09:49:26Z</time>
      </trkpt>
      <trkpt lat="47.84308" lon="6.9391">
        <ele>853</ele>
        <time>2015-08-09T09:49:27Z</time>
      </trkpt>
      <trkpt lat="47.84308" lon="6.9391">
        <ele>853</ele>
        <time>2015-08-09T09:49:30Z</time>
      </trkpt>
      <trkpt lat="47.84308" lon="6.93909">
        <ele>853</ele>
        <time>2015-08-09T09:49:33Z</time>
      </trkpt>
      <trkpt lat="47.84308" lon="6.93909">
        <ele>853</ele>
        <time>2015-08-09T09:49:36Z</time>
      </trkpt>
      <trkpt lat="47.84308" lon="6.93909">
        <ele>853</ele>
        <time>2015-08-09T09:49:39Z</time>
      </trkpt>
      <trkpt lat="47.84311" lon="6.93907">
        <ele>851</ele>
        <time>2015-08-09T09:49:52Z</time>
      </trkpt>
      <trkpt lat="47.84311" lon="6.93907">
        <ele>851</ele>
        <time>2015-08-09T09:49:53Z</time>
      </trkpt>
      <trkpt lat="47.84311" lon="6.93908">
        <ele>851</ele>
        <time>2015-08-09T09:49:58Z</time>
      </trkpt>
      <trkpt lat="47.84311" lon="6.93908">
        <ele>851</ele>
        <time>2015-08-09T09:49:59Z</time>
      </trkpt>
      <trkpt lat="47.84311" lon="6.93908">
        <ele>851</ele>
        <time>2015-08-09T09:50:02Z</time>
      </trkpt>
      <trkpt lat="47.84311" lon="6.93908">
        <ele>851</ele>
        <time>2015-08-09T09:50:05Z</time>
      </trkpt>
      <trkpt lat="47.84311" lon="6.93908">
        <ele>851</ele>
        <time>2015-08-09T09:50:08Z</time>
      </trkpt>
      <trkpt lat="47.84311" lon="6.93908">
        <ele>851</ele>
        <time>2015-08-09T09:50:11Z</time>
      </trkpt>
      <trkpt lat="47.84312" lon="6.93908">
        <ele>851</ele>
        <time>2015-08-09T09:50:15Z</time>
      </trkpt>
      <trkpt lat="47.84311" lon="6.9391">
        <ele>856</ele>
        <time>2015-08-09T09:50:25Z</time>
      </trkpt>
      <trkpt lat="47.84311" lon="6.93909">
        <ele>856</ele>
        <time>2015-08-09T09:50:28Z</time>
      </trkpt>
      <trkpt lat="47.84311" lon="6.93909">
        <ele>856</ele>
        <time>2015-08-09T09:50:30Z</time>
      </trkpt>
      <trkpt lat="47.84311" lon="6.93909">
        <ele>856</ele>
        <time>2015-08-09T09:50:32Z</time>
      </trkpt>
      <trkpt lat="47.84311" lon="6.93909">
        <ele>856</ele>
        <time>2015-08-09T09:50:37Z</time>
      </trkpt>
      <trkpt lat="47.84311" lon="6.93909">
        <ele>856</ele>
        <time>2015-08-09T09:50:38Z</time>
      </trkpt>
      <trkpt lat="47.84311" lon="6.93909">
        <ele>856</ele>
        <time>2015-08-09T09:50:41Z</time>
      </trkpt>
      <trkpt lat="47.84311" lon="6.93909">
        <ele>856</ele>
        <time>2015-08-09T09:50:45Z</time>
      </trkpt>
      <trkpt lat="47.84311" lon="6.93909">
        <ele>856</ele>
        <time>2015-08-09T09:50:47Z</time>
      </trkpt>
      <trkpt lat="47.84311" lon="6.93909">
        <ele>856</ele>
        <time>2015-08-09T09:50:50Z</time>
      </trkpt>
      <trkpt lat="47.84311" lon="6.93909">
        <ele>856</ele>
        <time>2015-08-09T09:50:53Z</time>
      </trkpt>
      <trkpt lat="47.84311" lon="6.93909">
        <ele>856</ele>
        <time>2015-08-09T09:50:56Z</time>
      </trkpt>
      <trkpt lat="47.84311" lon="6.93909">
        <ele>856</ele>
        <time>2015-08-09T09:50:59Z</time>
      </trkpt>
      <trkpt lat="47.84312" lon="6.93908">
        <ele>855</ele>
        <time>2015-08-09T09:51:05Z</time>
      </trkpt>
      <trkpt lat="47.84312" lon="6.9391">
        <ele>853</ele>
        <time>2015-08-09T09:51:12Z</time>
      </trkpt>
      <trkpt lat="47.84312" lon="6.93909">
        <ele>853</ele>
        <time>2015-08-09T09:51:14Z</time>
      </trkpt>
      <trkpt lat="47.84312" lon="6.93909">
        <ele>853</ele>
        <time>2015-08-09T09:51:17Z</time>
      </trkpt>
      <trkpt lat="47.84312" lon="6.93909">
        <ele>853</ele>
        <time>2015-08-09T09:51:21Z</time>
      </trkpt>
      <trkpt lat="47.84312" lon="6.93909">
        <ele>853</ele>
        <time>2015-08-09T09:51:23Z</time>
      </trkpt>
      <trkpt lat="47.84312" lon="6.93909">
        <ele>853</ele>
        <time>2015-08-09T09:51:26Z</time>
      </trkpt>
      <trkpt lat="47.84312" lon="6.93909">
        <ele>853</ele>
        <time>2015-08-09T09:51:29Z</time>
      </trkpt>
      <trkpt lat="47.84312" lon="6.93909">
        <ele>853</ele>
        <time>2015-08-09T09:51:32Z</time>
      </trkpt>
      <trkpt lat="47.84312" lon="6.93909">
        <ele>853</ele>
        <time>2015-08-09T09:51:35Z</time>
      </trkpt>
      <trkpt lat="47.84312" lon="6.93909">
        <ele>853</ele>
        <time>2015-08-09T09:51:38Z</time>
      </trkpt>
      <trkpt lat="47.84312" lon="6.93909">
        <ele>853</ele>
        <time>2015-08-09T09:51:41Z</time>
      </trkpt>
      <trkpt lat="47.84312" lon="6.93909">
        <ele>853</ele>
        <time>2015-08-09T09:51:46Z</time>
      </trkpt>
      <trkpt lat="47.84312" lon="6.93909">
        <ele>855</ele>
        <time>2015-08-09T09:51:50Z</time>
      </trkpt>
      <trkpt lat="47.84317" lon="6.93906">
        <ele>856</ele>
        <time>2015-08-09T09:52:02Z</time>
      </trkpt>
      <trkpt lat="47.84322" lon="6.939">
        <ele>857</ele>
        <time>2015-08-09T09:52:06Z</time>
      </trkpt>
      <trkpt lat="47.84327" lon="6.93898">
        <ele>856</ele>
        <time>2015-08-09T09:52:15Z</time>
      </trkpt>
      <trkpt lat="47.8433" lon="6.9389">
        <ele>862</ele>
        <time>2015-08-09T09:52:26Z</time>
      </trkpt>
      <trkpt lat="47.84345" lon="6.9388">
        <ele>871</ele>
        <time>2015-08-09T09:52:44Z</time>
      </trkpt>
      <trkpt lat="47.84347" lon="6.93883">
        <ele>872</ele>
        <time>2015-08-09T09:52:48Z</time>
      </trkpt>
      <trkpt lat="47.84356" lon="6.93887">
        <ele>871</ele>
        <time>2015-08-09T09:52:59Z</time>
      </trkpt>
      <trkpt lat="47.84369" lon="6.93882">
        <ele>872</ele>
        <time>2015-08-09T09:53:16Z</time>
      </trkpt>
      <trkpt lat="47.84379" lon="6.93886">
        <ele>871</ele>
        <time>2015-08-09T09:53:30Z</time>
      </trkpt>
      <trkpt lat="47.8438" lon="6.93887">
        <ele>874</ele>
        <time>2015-08-09T09:53:37Z</time>
      </trkpt>
      <trkpt lat="47.8438" lon="6.93887">
        <ele>874</ele>
        <time>2015-08-09T09:53:38Z</time>
      </trkpt>
      <trkpt lat="47.8438" lon="6.93887">
        <ele>874</ele>
        <time>2015-08-09T09:53:42Z</time>
      </trkpt>
      <trkpt lat="47.84393" lon="6.93882">
        <ele>875</ele>
        <time>2015-08-09T09:54:01Z</time>
      </trkpt>
      <trkpt lat="47.84397" lon="6.93883">
        <ele>876</ele>
        <time>2015-08-09T09:54:12Z</time>
      </trkpt>
      <trkpt lat="47.84397" lon="6.93883">
        <ele>876</ele>
        <time>2015-08-09T09:54:14Z</time>
      </trkpt>
      <trkpt lat="47.84398" lon="6.93882">
        <ele>879</ele>
        <time>2015-08-09T09:54:27Z</time>
      </trkpt>
      <trkpt lat="47.84402" lon="6.93876">
        <ele>882</ele>
        <time>2015-08-09T09:54:37Z</time>
      </trkpt>
      <trkpt lat="47.84403" lon="6.93874">
        <ele>883</ele>
        <time>2015-08-09T09:54:40Z</time>
      </trkpt>
      <trkpt lat="47.84406" lon="6.93872">
        <ele>887</ele>
        <time>2015-08-09T09:54:50Z</time>
      </trkpt>
      <trkpt lat="47.84408" lon="6.93871">
        <ele>890</ele>
        <time>2015-08-09T09:55:01Z</time>
      </trkpt>
      <trkpt lat="47.84406" lon="6.93861">
        <ele>892</ele>
        <time>2015-08-09T09:55:12Z</time>
      </trkpt>
      <trkpt lat="47.84404" lon="6.93861">
        <ele>896</ele>
        <time>2015-08-09T09:55:15Z</time>
      </trkpt>
      <trkpt lat="47.84404" lon="6.93836">
        <ele>892</ele>
        <time>2015-08-09T09:55:33Z</time>
      </trkpt>
      <trkpt lat="47.84407" lon="6.93826">
        <ele>890</ele>
        <time>2015-08-09T09:55:42Z</time>
      </trkpt>
      <trkpt lat="47.84406" lon="6.93823">
        <ele>892</ele>
        <time>2015-08-09T09:55:50Z</time>
      </trkpt>
      <trkpt lat="47.84405" lon="6.93816">
        <ele>892</ele>
        <time>2015-08-09T09:55:59Z</time>
      </trkpt>
      <trkpt lat="47.84404" lon="6.93795">
        <ele>889</ele>
        <time>2015-08-09T09:56:18Z</time>
      </trkpt>
      <trkpt lat="47.84402" lon="6.93792">
        <ele>892</ele>
        <time>2015-08-09T09:56:21Z</time>
      </trkpt>
      <trkpt lat="47.84404" lon="6.93778">
        <ele>889</ele>
        <time>2015-08-09T09:56:36Z</time>
      </trkpt>
      <trkpt lat="47.84404" lon="6.93762">
        <ele>887</ele>
        <time>2015-08-09T09:56:43Z</time>
      </trkpt>
      <trkpt lat="47.84403" lon="6.93757">
        <ele>889</ele>
        <time>2015-08-09T09:56:54Z</time>
      </trkpt>
      <trkpt lat="47.84397" lon="6.93734">
        <ele>901</ele>
        <time>2015-08-09T09:57:15Z</time>
      </trkpt>
      <trkpt lat="47.84393" lon="6.93725">
        <ele>900</ele>
        <time>2015-08-09T09:57:22Z</time>
      </trkpt>
      <trkpt lat="47.84396" lon="6.93715">
        <ele>895</ele>
        <time>2015-08-09T09:57:27Z</time>
      </trkpt>
      <trkpt lat="47.84397" lon="6.93699">
        <ele>893</ele>
        <time>2015-08-09T09:57:43Z</time>
      </trkpt>
      <trkpt lat="47.84398" lon="6.93685">
        <ele>891</ele>
        <time>2015-08-09T09:57:59Z</time>
      </trkpt>
      <trkpt lat="47.844" lon="6.93679">
        <ele>889</ele>
        <time>2015-08-09T09:58:05Z</time>
      </trkpt>
      <trkpt lat="47.844" lon="6.93674">
        <ele>891</ele>
        <time>2015-08-09T09:58:11Z</time>
      </trkpt>
      <trkpt lat="47.84395" lon="6.93662">
        <ele>897</ele>
        <time>2015-08-09T09:58:23Z</time>
      </trkpt>
      <trkpt lat="47.84393" lon="6.93653">
        <ele>898</ele>
        <time>2015-08-09T09:58:33Z</time>
      </trkpt>
      <trkpt lat="47.84391" lon="6.93632">
        <ele>902</ele>
        <time>2015-08-09T09:58:47Z</time>
      </trkpt>
      <trkpt lat="47.84385" lon="6.93626">
        <ele>903</ele>
        <time>2015-08-09T09:58:55Z</time>
      </trkpt>
      <trkpt lat="47.84384" lon="6.93613">
        <ele>902</ele>
        <time>2015-08-09T09:59:14Z</time>
      </trkpt>
      <trkpt lat="47.84386" lon="6.93603">
        <ele>901</ele>
        <time>2015-08-09T09:59:17Z</time>
      </trkpt>
      <trkpt lat="47.84382" lon="6.93589">
        <ele>915</ele>
        <time>2015-08-09T09:59:37Z</time>
      </trkpt>
      <trkpt lat="47.84382" lon="6.93588">
        <ele>917</ele>
        <time>2015-08-09T09:59:39Z</time>
      </trkpt>
      <trkpt lat="47.84379" lon="6.93574">
        <ele>915</ele>
        <time>2015-08-09T09:59:50Z</time>
      </trkpt>
      <trkpt lat="47.84378" lon="6.93557">
        <ele>920</ele>
        <time>2015-08-09T10:00:10Z</time>
      </trkpt>
      <trkpt lat="47.84376" lon="6.93554">
        <ele>919</ele>
        <time>2015-08-09T10:00:12Z</time>
      </trkpt>
      <trkpt lat="47.84375" lon="6.93536">
        <ele>915</ele>
        <time>2015-08-09T10:00:33Z</time>
      </trkpt>
      <trkpt lat="47.84374" lon="6.93536">
        <ele>915</ele>
        <time>2015-08-09T10:00:35Z</time>
      </trkpt>
      <trkpt lat="47.84372" lon="6.93523">
        <ele>916</ele>
        <time>2015-08-09T10:00:45Z</time>
      </trkpt>
      <trkpt lat="47.84367" lon="6.93512">
        <ele>916</ele>
        <time>2015-08-09T10:00:56Z</time>
      </trkpt>
      <trkpt lat="47.84365" lon="6.93504">
        <ele>922</ele>
        <time>2015-08-09T10:01:07Z</time>
      </trkpt>
      <trkpt lat="47.8436" lon="6.93506">
        <ele>924</ele>
        <time>2015-08-09T10:01:24Z</time>
      </trkpt>
      <trkpt lat="47.84361" lon="6.93506">
        <ele>924</ele>
        <time>2015-08-09T10:01:29Z</time>
      </trkpt>
      <trkpt lat="47.84361" lon="6.93506">
        <ele>924</ele>
        <time>2015-08-09T10:01:32Z</time>
      </trkpt>
      <trkpt lat="47.8436" lon="6.93507">
        <ele>925</ele>
        <time>2015-08-09T10:01:35Z</time>
      </trkpt>
      <trkpt lat="47.8436" lon="6.93507">
        <ele>925</ele>
        <time>2015-08-09T10:01:38Z</time>
      </trkpt>
      <trkpt lat="47.8436" lon="6.93507">
        <ele>926</ele>
        <time>2015-08-09T10:01:41Z</time>
      </trkpt>
      <trkpt lat="47.8436" lon="6.93507">
        <ele>926</ele>
        <time>2015-08-09T10:01:44Z</time>
      </trkpt>
      <trkpt lat="47.8436" lon="6.93507">
        <ele>926</ele>
        <time>2015-08-09T10:01:47Z</time>
      </trkpt>
      <trkpt lat="47.8436" lon="6.93507">
        <ele>926</ele>
        <time>2015-08-09T10:01:50Z</time>
      </trkpt>
      <trkpt lat="47.8436" lon="6.93507">
        <ele>926</ele>
        <time>2015-08-09T10:01:53Z</time>
      </trkpt>
      <trkpt lat="47.8436" lon="6.93501">
        <ele>923</ele>
        <time>2015-08-09T10:01:58Z</time>
      </trkpt>
      <trkpt lat="47.84362" lon="6.93496">
        <ele>917</ele>
        <time>2015-08-09T10:02:07Z</time>
      </trkpt>
      <trkpt lat="47.84362" lon="6.93496">
        <ele>917</ele>
        <time>2015-08-09T10:02:18Z</time>
      </trkpt>
      <trkpt lat="47.84362" lon="6.93496">
        <ele>917</ele>
        <time>2015-08-09T10:02:23Z</time>
      </trkpt>
      <trkpt lat="47.84362" lon="6.93496">
        <ele>917</ele>
        <time>2015-08-09T10:02:25Z</time>
      </trkpt>
      <trkpt lat="47.84359" lon="6.93496">
        <ele>921</ele>
        <time>2015-08-09T10:02:34Z</time>
      </trkpt>
      <trkpt lat="47.84358" lon="6.93496">
        <ele>921</ele>
        <time>2015-08-09T10:02:38Z</time>
      </trkpt>
      <trkpt lat="47.84358" lon="6.93496">
        <ele>921</ele>
        <time>2015-08-09T10:02:41Z</time>
      </trkpt>
      <trkpt lat="47.84358" lon="6.93496">
        <ele>921</ele>
        <time>2015-08-09T10:02:46Z</time>
      </trkpt>
      <trkpt lat="47.84358" lon="6.93496">
        <ele>921</ele>
        <time>2015-08-09T10:02:49Z</time>
      </trkpt>
      <trkpt lat="47.84358" lon="6.93496">
        <ele>921</ele>
        <time>2015-08-09T10:02:50Z</time>
      </trkpt>
      <trkpt lat="47.84358" lon="6.93496">
        <ele>921</ele>
        <time>2015-08-09T10:02:53Z</time>
      </trkpt>
      <trkpt lat="47.84358" lon="6.93496">
        <ele>921</ele>
        <time>2015-08-09T10:02:56Z</time>
      </trkpt>
      <trkpt lat="47.84358" lon="6.93496">
        <ele>921</ele>
        <time>2015-08-09T10:02:59Z</time>
      </trkpt>
      <trkpt lat="47.84358" lon="6.93496">
        <ele>922</ele>
        <time>2015-08-09T10:03:02Z</time>
      </trkpt>
      <trkpt lat="47.84358" lon="6.93496">
        <ele>922</ele>
        <time>2015-08-09T10:03:06Z</time>
      </trkpt>
      <trkpt lat="47.84358" lon="6.93496">
        <ele>922</ele>
        <time>2015-08-09T10:03:09Z</time>
      </trkpt>
      <trkpt lat="47.84358" lon="6.93496">
        <ele>922</ele>
        <time>2015-08-09T10:03:11Z</time>
      </trkpt>
      <trkpt lat="47.84358" lon="6.93496">
        <ele>922</ele>
        <time>2015-08-09T10:03:14Z</time>
      </trkpt>
      <trkpt lat="47.84358" lon="6.93496">
        <ele>922</ele>
        <time>2015-08-09T10:03:18Z</time>
      </trkpt>
      <trkpt lat="47.84358" lon="6.93496">
        <ele>922</ele>
        <time>2015-08-09T10:03:20Z</time>
      </trkpt>
      <trkpt lat="47.84358" lon="6.93496">
        <ele>922</ele>
        <time>2015-08-09T10:03:25Z</time>
      </trkpt>
      <trkpt lat="47.84358" lon="6.93495">
        <ele>922</ele>
        <time>2015-08-09T10:03:26Z</time>
      </trkpt>
      <trkpt lat="47.84358" lon="6.93495">
        <ele>922</ele>
        <time>2015-08-09T10:03:29Z</time>
      </trkpt>
      <trkpt lat="47.84358" lon="6.93495">
        <ele>922</ele>
        <time>2015-08-09T10:03:32Z</time>
      </trkpt>
      <trkpt lat="47.84358" lon="6.93495">
        <ele>922</ele>
        <time>2015-08-09T10:03:35Z</time>
      </trkpt>
      <trkpt lat="47.84358" lon="6.93495">
        <ele>922</ele>
        <time>2015-08-09T10:03:38Z</time>
      </trkpt>
      <trkpt lat="47.84358" lon="6.93495">
        <ele>922</ele>
        <time>2015-08-09T10:03:41Z</time>
      </trkpt>
      <trkpt lat="47.84358" lon="6.93495">
        <ele>922</ele>
        <time>2015-08-09T10:03:44Z</time>
      </trkpt>
      <trkpt lat="47.84358" lon="6.93495">
        <ele>922</ele>
        <time>2015-08-09T10:03:47Z</time>
      </trkpt>
      <trkpt lat="47.84358" lon="6.93495">
        <ele>922</ele>
        <time>2015-08-09T10:03:50Z</time>
      </trkpt>
      <trkpt lat="47.84358" lon="6.93495">
        <ele>922</ele>
        <time>2015-08-09T10:03:55Z</time>
      </trkpt>
      <trkpt lat="47.84358" lon="6.93495">
        <ele>922</ele>
        <time>2015-08-09T10:03:58Z</time>
      </trkpt>
      <trkpt lat="47.84358" lon="6.93495">
        <ele>922</ele>
        <time>2015-08-09T10:04:01Z</time>
      </trkpt>
      <trkpt lat="47.84358" lon="6.93495">
        <ele>922</ele>
        <time>2015-08-09T10:04:04Z</time>
      </trkpt>
      <trkpt lat="47.84358" lon="6.93495">
        <ele>922</ele>
        <time>2015-08-09T10:04:05Z</time>
      </trkpt>
      <trkpt lat="47.84358" lon="6.93495">
        <ele>922</ele>
        <time>2015-08-09T10:04:08Z</time>
      </trkpt>
      <trkpt lat="47.84358" lon="6.93495">
        <ele>922</ele>
        <time>2015-08-09T10:04:13Z</time>
      </trkpt>
      <trkpt lat="47.84358" lon="6.93495">
        <ele>922</ele>
        <time>2015-08-09T10:04:16Z</time>
      </trkpt>
      <trkpt lat="47.84358" lon="6.93495">
        <ele>922</ele>
        <time>2015-08-09T10:04:17Z</time>
      </trkpt>
      <trkpt lat="47.84358" lon="6.93495">
        <ele>922</ele>
        <time>2015-08-09T10:04:20Z</time>
      </trkpt>
      <trkpt lat="47.84358" lon="6.93495">
        <ele>922</ele>
        <time>2015-08-09T10:04:23Z</time>
      </trkpt>
      <trkpt lat="47.84358" lon="6.93495">
        <ele>922</ele>
        <time>2015-08-09T10:04:27Z</time>
      </trkpt>
      <trkpt lat="47.84358" lon="6.93495">
        <ele>922</ele>
        <time>2015-08-09T10:04:29Z</time>
      </trkpt>
      <trkpt lat="47.84358" lon="6.93495">
        <ele>922</ele>
        <time>2015-08-09T10:04:32Z</time>
      </trkpt>
      <trkpt lat="47.84358" lon="6.93495">
        <ele>922</ele>
        <time>2015-08-09T10:04:36Z</time>
      </trkpt>
      <trkpt lat="47.84357" lon="6.93495">
        <ele>922</ele>
        <time>2015-08-09T10:04:39Z</time>
      </trkpt>
      <trkpt lat="47.84357" lon="6.93494">
        <ele>923</ele>
        <time>2015-08-09T10:04:41Z</time>
      </trkpt>
      <trkpt lat="47.84355" lon="6.93481">
        <ele>924</ele>
        <time>2015-08-09T10:04:52Z</time>
      </trkpt>
      <trkpt lat="47.84351" lon="6.9347">
        <ele>927</ele>
        <time>2015-08-09T10:05:03Z</time>
      </trkpt>
      <trkpt lat="47.84354" lon="6.93454">
        <ele>923</ele>
        <time>2015-08-09T10:05:14Z</time>
      </trkpt>
      <trkpt lat="47.84355" lon="6.93444">
        <ele>929</ele>
        <time>2015-08-09T10:05:25Z</time>
      </trkpt>
      <trkpt lat="47.84346" lon="6.93437">
        <ele>938</ele>
        <time>2015-08-09T10:05:38Z</time>
      </trkpt>
      <trkpt lat="47.84351" lon="6.93405">
        <ele>930</ele>
        <time>2015-08-09T10:05:57Z</time>
      </trkpt>
      <trkpt lat="47.84353" lon="6.93404">
        <ele>930</ele>
        <time>2015-08-09T10:05:58Z</time>
      </trkpt>
      <trkpt lat="47.84352" lon="6.93392">
        <ele>931</ele>
        <time>2015-08-09T10:06:09Z</time>
      </trkpt>
      <trkpt lat="47.8435" lon="6.93367">
        <ele>933</ele>
        <time>2015-08-09T10:06:26Z</time>
      </trkpt>
      <trkpt lat="47.84344" lon="6.93355">
        <ele>937</ele>
        <time>2015-08-09T10:06:38Z</time>
      </trkpt>
      <trkpt lat="47.84346" lon="6.93348">
        <ele>934</ele>
        <time>2015-08-09T10:06:42Z</time>
      </trkpt>
      <trkpt lat="47.84348" lon="6.93333">
        <ele>937</ele>
        <time>2015-08-09T10:06:53Z</time>
      </trkpt>
      <trkpt lat="47.84357" lon="6.93311">
        <ele>935</ele>
        <time>2015-08-09T10:07:09Z</time>
      </trkpt>
      <trkpt lat="47.84355" lon="6.93303">
        <ele>942</ele>
        <time>2015-08-09T10:07:19Z</time>
      </trkpt>
      <trkpt lat="47.8436" lon="6.93295">
        <ele>940</ele>
        <time>2015-08-09T10:07:27Z</time>
      </trkpt>
      <trkpt lat="47.84365" lon="6.93282">
        <ele>944</ele>
        <time>2015-08-09T10:07:47Z</time>
      </trkpt>
      <trkpt lat="47.84366" lon="6.93281">
        <ele>945</ele>
        <time>2015-08-09T10:07:48Z</time>
      </trkpt>
      <trkpt lat="47.84367" lon="6.93273">
        <ele>944</ele>
        <time>2015-08-09T10:08:04Z</time>
      </trkpt>
      <trkpt lat="47.84375" lon="6.9326">
        <ele>948</ele>
        <time>2015-08-09T10:08:15Z</time>
      </trkpt>
      <trkpt lat="47.84376" lon="6.93256">
        <ele>949</ele>
        <time>2015-08-09T10:08:21Z</time>
      </trkpt>
      <trkpt lat="47.8438" lon="6.93246">
        <ele>947</ele>
        <time>2015-08-09T10:08:34Z</time>
      </trkpt>
      <trkpt lat="47.84385" lon="6.93238">
        <ele>951</ele>
        <time>2015-08-09T10:08:46Z</time>
      </trkpt>
      <trkpt lat="47.84383" lon="6.93235">
        <ele>959</ele>
        <time>2015-08-09T10:08:54Z</time>
      </trkpt>
      <trkpt lat="47.84388" lon="6.93218">
        <ele>955</ele>
        <time>2015-08-09T10:09:05Z</time>
      </trkpt>
      <trkpt lat="47.84394" lon="6.93203">
        <ele>954</ele>
        <time>2015-08-09T10:09:18Z</time>
      </trkpt>
      <trkpt lat="47.84392" lon="6.93189">
        <ele>961</ele>
        <time>2015-08-09T10:09:35Z</time>
      </trkpt>
      <trkpt lat="47.8439" lon="6.93187">
        <ele>963</ele>
        <time>2015-08-09T10:09:38Z</time>
      </trkpt>
      <trkpt lat="47.84388" lon="6.93181">
        <ele>967</ele>
        <time>2015-08-09T10:09:49Z</time>
      </trkpt>
      <trkpt lat="47.84399" lon="6.93147">
        <ele>953</ele>
        <time>2015-08-09T10:10:07Z</time>
      </trkpt>
      <trkpt lat="47.844" lon="6.93139">
        <ele>952</ele>
        <time>2015-08-09T10:10:11Z</time>
      </trkpt>
      <trkpt lat="47.84396" lon="6.93114">
        <ele>961</ele>
        <time>2015-08-09T10:10:32Z</time>
      </trkpt>
      <trkpt lat="47.84393" lon="6.93112">
        <ele>963</ele>
        <time>2015-08-09T10:10:35Z</time>
      </trkpt>
      <trkpt lat="47.84395" lon="6.931">
        <ele>962</ele>
        <time>2015-08-09T10:10:52Z</time>
      </trkpt>
      <trkpt lat="47.84396" lon="6.93093">
        <ele>964</ele>
        <time>2015-08-09T10:11:00Z</time>
      </trkpt>
      <trkpt lat="47.84401" lon="6.93082">
        <ele>964</ele>
        <time>2015-08-09T10:11:15Z</time>
      </trkpt>
      <trkpt lat="47.84401" lon="6.9308">
        <ele>964</ele>
        <time>2015-08-09T10:11:17Z</time>
      </trkpt>
      <trkpt lat="47.84404" lon="6.93066">
        <ele>965</ele>
        <time>2015-08-09T10:11:31Z</time>
      </trkpt>
      <trkpt lat="47.84407" lon="6.93055">
        <ele>965</ele>
        <time>2015-08-09T10:11:41Z</time>
      </trkpt>
      <trkpt lat="47.84406" lon="6.93046">
        <ele>968</ele>
        <time>2015-08-09T10:11:56Z</time>
      </trkpt>
      <trkpt lat="47.84412" lon="6.93036">
        <ele>969</ele>
        <time>2015-08-09T10:12:11Z</time>
      </trkpt>
      <trkpt lat="47.84413" lon="6.93035">
        <ele>969</ele>
        <time>2015-08-09T10:12:12Z</time>
      </trkpt>
      <trkpt lat="47.84414" lon="6.93032">
        <ele>968</ele>
        <time>2015-08-09T10:12:23Z</time>
      </trkpt>
      <trkpt lat="47.84419" lon="6.93016">
        <ele>975</ele>
        <time>2015-08-09T10:12:42Z</time>
      </trkpt>
      <trkpt lat="47.84426" lon="6.93011">
        <ele>974</ele>
        <time>2015-08-09T10:12:49Z</time>
      </trkpt>
      <trkpt lat="47.84426" lon="6.93005">
        <ele>977</ele>
        <time>2015-08-09T10:12:56Z</time>
      </trkpt>
      <trkpt lat="47.84434" lon="6.92992">
        <ele>979</ele>
        <time>2015-08-09T10:13:17Z</time>
      </trkpt>
      <trkpt lat="47.8444" lon="6.92982">
        <ele>981</ele>
        <time>2015-08-09T10:13:27Z</time>
      </trkpt>
      <trkpt lat="47.84442" lon="6.92976">
        <ele>982</ele>
        <time>2015-08-09T10:13:35Z</time>
      </trkpt>
      <trkpt lat="47.84441" lon="6.92971">
        <ele>984</ele>
        <time>2015-08-09T10:13:41Z</time>
      </trkpt>
      <trkpt lat="47.84451" lon="6.9296">
        <ele>983</ele>
        <time>2015-08-09T10:13:59Z</time>
      </trkpt>
      <trkpt lat="47.84453" lon="6.92957">
        <ele>987</ele>
        <time>2015-08-09T10:14:04Z</time>
      </trkpt>
      <trkpt lat="47.84456" lon="6.92949">
        <ele>989</ele>
        <time>2015-08-09T10:14:13Z</time>
      </trkpt>
      <trkpt lat="47.84459" lon="6.92934">
        <ele>993</ele>
        <time>2015-08-09T10:14:29Z</time>
      </trkpt>
      <trkpt lat="47.84464" lon="6.9293">
        <ele>992</ele>
        <time>2015-08-09T10:14:35Z</time>
      </trkpt>
      <trkpt lat="47.84467" lon="6.92917">
        <ele>991</ele>
        <time>2015-08-09T10:14:46Z</time>
      </trkpt>
      <trkpt lat="47.84473" lon="6.929">
        <ele>998</ele>
        <time>2015-08-09T10:15:03Z</time>
      </trkpt>
      <trkpt lat="47.84474" lon="6.92894">
        <ele>998</ele>
        <time>2015-08-09T10:15:08Z</time>
      </trkpt>
      <trkpt lat="47.84477" lon="6.9289">
        <ele>995</ele>
        <time>2015-08-09T10:15:19Z</time>
      </trkpt>
      <trkpt lat="47.84484" lon="6.92871">
        <ele>995</ele>
        <time>2015-08-09T10:15:39Z</time>
      </trkpt>
      <trkpt lat="47.84486" lon="6.92864">
        <ele>996</ele>
        <time>2015-08-09T10:15:45Z</time>
      </trkpt>
      <trkpt lat="47.8449" lon="6.92855">
        <ele>995</ele>
        <time>2015-08-09T10:15:57Z</time>
      </trkpt>
      <trkpt lat="47.84491" lon="6.9285">
        <ele>997</ele>
        <time>2015-08-09T10:16:03Z</time>
      </trkpt>
      <trkpt lat="47.84499" lon="6.92831">
        <ele>989</ele>
        <time>2015-08-09T10:16:18Z</time>
      </trkpt>
      <trkpt lat="47.84498" lon="6.92822">
        <ele>999</ele>
        <time>2015-08-09T10:16:31Z</time>
      </trkpt>
      <trkpt lat="47.845" lon="6.92818">
        <ele>1000</ele>
        <time>2015-08-09T10:16:36Z</time>
      </trkpt>
      <trkpt lat="47.84509" lon="6.92799">
        <ele>993</ele>
        <time>2015-08-09T10:16:52Z</time>
      </trkpt>
      <trkpt lat="47.84511" lon="6.92789">
        <ele>988</ele>
        <time>2015-08-09T10:16:58Z</time>
      </trkpt>
      <trkpt lat="47.84511" lon="6.92785">
        <ele>994</ele>
        <time>2015-08-09T10:17:13Z</time>
      </trkpt>
      <trkpt lat="47.84519" lon="6.92769">
        <ele>998</ele>
        <time>2015-08-09T10:17:29Z</time>
      </trkpt>
      <trkpt lat="47.8452" lon="6.92766">
        <ele>999</ele>
        <time>2015-08-09T10:17:32Z</time>
      </trkpt>
      <trkpt lat="47.84528" lon="6.92753">
        <ele>995</ele>
        <time>2015-08-09T10:17:42Z</time>
      </trkpt>
      <trkpt lat="47.84533" lon="6.92743">
        <ele>998</ele>
        <time>2015-08-09T10:17:53Z</time>
      </trkpt>
      <trkpt lat="47.84538" lon="6.92731">
        <ele>998</ele>
        <time>2015-08-09T10:18:04Z</time>
      </trkpt>
      <trkpt lat="47.84544" lon="6.9272">
        <ele>1000</ele>
        <time>2015-08-09T10:18:15Z</time>
      </trkpt>
      <trkpt lat="47.84541" lon="6.92711">
        <ele>1009</ele>
        <time>2015-08-09T10:18:26Z</time>
      </trkpt>
      <trkpt lat="47.84544" lon="6.92699">
        <ele>1006</ele>
        <time>2015-08-09T10:18:37Z</time>
      </trkpt>
      <trkpt lat="47.84552" lon="6.92676">
        <ele>1002</ele>
        <time>2015-08-09T10:18:57Z</time>
      </trkpt>
      <trkpt lat="47.8455" lon="6.92674">
        <ele>1001</ele>
        <time>2015-08-09T10:18:59Z</time>
      </trkpt>
      <trkpt lat="47.84546" lon="6.92662">
        <ele>1004</ele>
        <time>2015-08-09T10:19:10Z</time>
      </trkpt>
      <trkpt lat="47.84545" lon="6.92651">
        <ele>1005</ele>
        <time>2015-08-09T10:19:23Z</time>
      </trkpt>
      <trkpt lat="47.84543" lon="6.92628">
        <ele>1004</ele>
        <time>2015-08-09T10:19:42Z</time>
      </trkpt>
      <trkpt lat="47.84543" lon="6.92628">
        <ele>1004</ele>
        <time>2015-08-09T10:19:43Z</time>
      </trkpt>
      <trkpt lat="47.84539" lon="6.92612">
        <ele>1001</ele>
        <time>2015-08-09T10:19:56Z</time>
      </trkpt>
      <trkpt lat="47.84535" lon="6.92602">
        <ele>998</ele>
        <time>2015-08-09T10:20:07Z</time>
      </trkpt>
      <trkpt lat="47.84534" lon="6.92601">
        <ele>998</ele>
        <time>2015-08-09T10:20:08Z</time>
      </trkpt>
      <trkpt lat="47.84533" lon="6.92599">
        <ele>999</ele>
        <time>2015-08-09T10:20:19Z</time>
      </trkpt>
      <trkpt lat="47.8453" lon="6.926">
        <ele>997</ele>
        <time>2015-08-09T10:20:31Z</time>
      </trkpt>
      <trkpt lat="47.84528" lon="6.92599">
        <ele>994</ele>
        <time>2015-08-09T10:20:35Z</time>
      </trkpt>
      <trkpt lat="47.84529" lon="6.92599">
        <ele>995</ele>
        <time>2015-08-09T10:20:44Z</time>
      </trkpt>
      <trkpt lat="47.84529" lon="6.92599">
        <ele>995</ele>
        <time>2015-08-09T10:20:47Z</time>
      </trkpt>
      <trkpt lat="47.84528" lon="6.92599">
        <ele>995</ele>
        <time>2015-08-09T10:20:50Z</time>
      </trkpt>
      <trkpt lat="47.84528" lon="6.92599">
        <ele>995</ele>
        <time>2015-08-09T10:20:55Z</time>
      </trkpt>
      <trkpt lat="47.84528" lon="6.92599">
        <ele>995</ele>
        <time>2015-08-09T10:20:56Z</time>
      </trkpt>
      <trkpt lat="47.84528" lon="6.92599">
        <ele>995</ele>
        <time>2015-08-09T10:20:59Z</time>
      </trkpt>
      <trkpt lat="47.84528" lon="6.92599">
        <ele>995</ele>
        <time>2015-08-09T10:21:02Z</time>
      </trkpt>
      <trkpt lat="47.84528" lon="6.92599">
        <ele>995</ele>
        <time>2015-08-09T10:21:06Z</time>
      </trkpt>
      <trkpt lat="47.84528" lon="6.92599">
        <ele>995</ele>
        <time>2015-08-09T10:21:08Z</time>
      </trkpt>
      <trkpt lat="47.84528" lon="6.92599">
        <ele>995</ele>
        <time>2015-08-09T10:21:11Z</time>
      </trkpt>
      <trkpt lat="47.84528" lon="6.92599">
        <ele>995</ele>
        <time>2015-08-09T10:21:14Z</time>
      </trkpt>
      <trkpt lat="47.84528" lon="6.92599">
        <ele>995</ele>
        <time>2015-08-09T10:21:17Z</time>
      </trkpt>
      <trkpt lat="47.84528" lon="6.92599">
        <ele>995</ele>
        <time>2015-08-09T10:21:20Z</time>
      </trkpt>
      <trkpt lat="47.84528" lon="6.92599">
        <ele>995</ele>
        <time>2015-08-09T10:21:23Z</time>
      </trkpt>
      <trkpt lat="47.84529" lon="6.92599">
        <ele>995</ele>
        <time>2015-08-09T10:21:28Z</time>
      </trkpt>
      <trkpt lat="47.84528" lon="6.926">
        <ele>996</ele>
        <time>2015-08-09T10:21:37Z</time>
      </trkpt>
      <trkpt lat="47.84527" lon="6.92599">
        <ele>997</ele>
        <time>2015-08-09T10:21:42Z</time>
      </trkpt>
      <trkpt lat="47.84528" lon="6.92597">
        <ele>996</ele>
        <time>2015-08-09T10:21:44Z</time>
      </trkpt>
      <trkpt lat="47.84533" lon="6.92592">
        <ele>996</ele>
        <time>2015-08-09T10:21:55Z</time>
      </trkpt>
      <trkpt lat="47.84532" lon="6.92591">
        <ele>998</ele>
        <time>2015-08-09T10:22:06Z</time>
      </trkpt>
      <trkpt lat="47.84532" lon="6.9259">
        <ele>998</ele>
        <time>2015-08-09T10:22:10Z</time>
      </trkpt>
      <trkpt lat="47.84533" lon="6.9259">
        <ele>998</ele>
        <time>2015-08-09T10:22:12Z</time>
      </trkpt>
      <trkpt lat="47.84529" lon="6.92591">
        <ele>998</ele>
        <time>2015-08-09T10:22:22Z</time>
      </trkpt>
      <trkpt lat="47.84529" lon="6.92592">
        <ele>996</ele>
        <time>2015-08-09T10:22:26Z</time>
      </trkpt>
      <trkpt lat="47.8453" lon="6.92592">
        <ele>996</ele>
        <time>2015-08-09T10:22:29Z</time>
      </trkpt>
      <trkpt lat="47.8453" lon="6.92589">
        <ele>996</ele>
        <time>2015-08-09T10:22:32Z</time>
      </trkpt>
      <trkpt lat="47.84527" lon="6.92582">
        <ele>999</ele>
        <time>2015-08-09T10:22:43Z</time>
      </trkpt>
      <trkpt lat="47.84527" lon="6.92568">
        <ele>1000</ele>
        <time>2015-08-09T10:22:55Z</time>
      </trkpt>
      <trkpt lat="47.84526" lon="6.92556">
        <ele>1000</ele>
        <time>2015-08-09T10:23:05Z</time>
      </trkpt>
      <trkpt lat="47.84525" lon="6.9254">
        <ele>1004</ele>
        <time>2015-08-09T10:23:18Z</time>
      </trkpt>
      <trkpt lat="47.84523" lon="6.92528">
        <ele>1008</ele>
        <time>2015-08-09T10:23:27Z</time>
      </trkpt>
      <trkpt lat="47.84523" lon="6.92506">
        <ele>1010</ele>
        <time>2015-08-09T10:23:41Z</time>
      </trkpt>
      <trkpt lat="47.84524" lon="6.925">
        <ele>1009</ele>
        <time>2015-08-09T10:23:49Z</time>
      </trkpt>
      <trkpt lat="47.84529" lon="6.92473">
        <ele>1009</ele>
        <time>2015-08-09T10:24:08Z</time>
      </trkpt>
      <trkpt lat="47.84528" lon="6.92469">
        <ele>1010</ele>
        <time>2015-08-09T10:24:11Z</time>
      </trkpt>
      <trkpt lat="47.84533" lon="6.92435">
        <ele>1009</ele>
        <time>2015-08-09T10:24:32Z</time>
      </trkpt>
      <trkpt lat="47.84537" lon="6.92423">
        <ele>1013</ele>
        <time>2015-08-09T10:24:41Z</time>
      </trkpt>
      <trkpt lat="47.84536" lon="6.9242">
        <ele>1015</ele>
        <time>2015-08-09T10:24:46Z</time>
      </trkpt>
      <trkpt lat="47.84548" lon="6.92403">
        <ele>1005</ele>
        <time>2015-08-09T10:24:58Z</time>
      </trkpt>
      <trkpt lat="47.8455" lon="6.92392">
        <ele>1004</ele>
        <time>2015-08-09T10:25:06Z</time>
      </trkpt>
      <trkpt lat="47.84554" lon="6.92377">
        <ele>1003</ele>
        <time>2015-08-09T10:25:20Z</time>
      </trkpt>
      <trkpt lat="47.84553" lon="6.92373">
        <ele>1004</ele>
        <time>2015-08-09T10:25:28Z</time>
      </trkpt>
      <trkpt lat="47.84552" lon="6.92369">
        <ele>1003</ele>
        <time>2015-08-09T10:25:46Z</time>
      </trkpt>
      <trkpt lat="47.84551" lon="6.92368">
        <ele>1003</ele>
        <time>2015-08-09T10:25:48Z</time>
      </trkpt>
      <trkpt lat="47.84547" lon="6.92367">
        <ele>1002</ele>
        <time>2015-08-09T10:25:59Z</time>
      </trkpt>
      <trkpt lat="47.84547" lon="6.92367">
        <ele>1002</ele>
        <time>2015-08-09T10:26:10Z</time>
      </trkpt>
      <trkpt lat="47.84547" lon="6.92367">
        <ele>1002</ele>
        <time>2015-08-09T10:26:13Z</time>
      </trkpt>
      <trkpt lat="47.84547" lon="6.92367">
        <ele>1002</ele>
        <time>2015-08-09T10:26:18Z</time>
      </trkpt>
      <trkpt lat="47.84547" lon="6.92367">
        <ele>1002</ele>
        <time>2015-08-09T10:26:19Z</time>
      </trkpt>
      <trkpt lat="47.84547" lon="6.92367">
        <ele>1003</ele>
        <time>2015-08-09T10:26:24Z</time>
      </trkpt>
      <trkpt lat="47.84548" lon="6.92366">
        <ele>1002</ele>
        <time>2015-08-09T10:26:33Z</time>
      </trkpt>
      <trkpt lat="47.84548" lon="6.92365">
        <ele>1002</ele>
        <time>2015-08-09T10:26:40Z</time>
      </trkpt>
      <trkpt lat="47.84547" lon="6.92362">
        <ele>1002</ele>
        <time>2015-08-09T10:26:43Z</time>
      </trkpt>
      <trkpt lat="47.84548" lon="6.9235">
        <ele>1001</ele>
        <time>2015-08-09T10:26:54Z</time>
      </trkpt>
      <trkpt lat="47.84548" lon="6.9235">
        <ele>1000</ele>
        <time>2015-08-09T10:27:05Z</time>
      </trkpt>
      <trkpt lat="47.8455" lon="6.92345">
        <ele>999</ele>
        <time>2015-08-09T10:27:09Z</time>
      </trkpt>
      <trkpt lat="47.8455" lon="6.92344">
        <ele>999</ele>
        <time>2015-08-09T10:27:20Z</time>
      </trkpt>
      <trkpt lat="47.8455" lon="6.92343">
        <ele>999</ele>
        <time>2015-08-09T10:27:25Z</time>
      </trkpt>
      <trkpt lat="47.8455" lon="6.92344">
        <ele>999</ele>
        <time>2015-08-09T10:27:28Z</time>
      </trkpt>
      <trkpt lat="47.8455" lon="6.92343">
        <ele>1000</ele>
        <time>2015-08-09T10:27:31Z</time>
      </trkpt>
      <trkpt lat="47.84552" lon="6.92326">
        <ele>999</ele>
        <time>2015-08-09T10:27:51Z</time>
      </trkpt>
      <trkpt lat="47.84549" lon="6.92328">
        <ele>1001</ele>
        <time>2015-08-09T10:27:54Z</time>
      </trkpt>
      <trkpt lat="47.84548" lon="6.92327">
        <ele>1000</ele>
        <time>2015-08-09T10:28:05Z</time>
      </trkpt>
      <trkpt lat="47.84547" lon="6.92327">
        <ele>1000</ele>
        <time>2015-08-09T10:28:07Z</time>
      </trkpt>
      <trkpt lat="47.84548" lon="6.92328">
        <ele>1001</ele>
        <time>2015-08-09T10:28:15Z</time>
      </trkpt>
      <trkpt lat="47.84548" lon="6.92328">
        <ele>1001</ele>
        <time>2015-08-09T10:28:16Z</time>
      </trkpt>
      <trkpt lat="47.84548" lon="6.92328">
        <ele>1001</ele>
        <time>2015-08-09T10:28:19Z</time>
      </trkpt>
      <trkpt lat="47.84547" lon="6.92328">
        <ele>1001</ele>
        <time>2015-08-09T10:28:27Z</time>
      </trkpt>
      <trkpt lat="47.84547" lon="6.92328">
        <ele>1001</ele>
        <time>2015-08-09T10:28:30Z</time>
      </trkpt>
      <trkpt lat="47.84547" lon="6.92328">
        <ele>1001</ele>
        <time>2015-08-09T10:28:32Z</time>
      </trkpt>
      <trkpt lat="47.84547" lon="6.92328">
        <ele>1001</ele>
        <time>2015-08-09T10:28:34Z</time>
      </trkpt>
      <trkpt lat="47.84547" lon="6.92328">
        <ele>1001</ele>
        <time>2015-08-09T10:28:39Z</time>
      </trkpt>
      <trkpt lat="47.84547" lon="6.92328">
        <ele>1001</ele>
        <time>2015-08-09T10:28:40Z</time>
      </trkpt>
      <trkpt lat="47.84547" lon="6.92328">
        <ele>1001</ele>
        <time>2015-08-09T10:28:43Z</time>
      </trkpt>
      <trkpt lat="47.84547" lon="6.92328">
        <ele>1001</ele>
        <time>2015-08-09T10:28:46Z</time>
      </trkpt>
      <trkpt lat="47.84547" lon="6.92328">
        <ele>1001</ele>
        <time>2015-08-09T10:28:50Z</time>
      </trkpt>
      <trkpt lat="47.84547" lon="6.92328">
        <ele>1001</ele>
        <time>2015-08-09T10:28:52Z</time>
      </trkpt>
      <trkpt lat="47.84543" lon="6.92326">
        <ele>998</ele>
        <time>2015-08-09T10:29:04Z</time>
      </trkpt>
      <trkpt lat="47.84543" lon="6.92326">
        <ele>998</ele>
        <time>2015-08-09T10:29:06Z</time>
      </trkpt>
      <trkpt lat="47.84543" lon="6.92326">
        <ele>998</ele>
        <time>2015-08-09T10:29:09Z</time>
      </trkpt>
      <trkpt lat="47.84543" lon="6.92326">
        <ele>998</ele>
        <time>2015-08-09T10:29:12Z</time>
      </trkpt>
      <trkpt lat="47.84543" lon="6.92326">
        <ele>998</ele>
        <time>2015-08-09T10:29:15Z</time>
      </trkpt>
      <trkpt lat="47.84543" lon="6.92326">
        <ele>998</ele>
        <time>2015-08-09T10:29:18Z</time>
      </trkpt>
      <trkpt lat="47.84543" lon="6.92326">
        <ele>998</ele>
        <time>2015-08-09T10:29:21Z</time>
      </trkpt>
      <trkpt lat="47.84543" lon="6.92326">
        <ele>998</ele>
        <time>2015-08-09T10:29:24Z</time>
      </trkpt>
      <trkpt lat="47.84543" lon="6.92326">
        <ele>998</ele>
        <time>2015-08-09T10:29:27Z</time>
      </trkpt>
      <trkpt lat="47.84544" lon="6.92329">
        <ele>1001</ele>
        <time>2015-08-09T10:29:30Z</time>
      </trkpt>
      <trkpt lat="47.84541" lon="6.92328">
        <ele>1003</ele>
        <time>2015-08-09T10:29:47Z</time>
      </trkpt>
      <trkpt lat="47.84539" lon="6.92327">
        <ele>1003</ele>
        <time>2015-08-09T10:29:58Z</time>
      </trkpt>
      <trkpt lat="47.84539" lon="6.92327">
        <ele>1003</ele>
        <time>2015-08-09T10:30:01Z</time>
      </trkpt>
      <trkpt lat="47.84539" lon="6.92327">
        <ele>1003</ele>
        <time>2015-08-09T10:30:04Z</time>
      </trkpt>
      <trkpt lat="47.84539" lon="6.92327">
        <ele>1003</ele>
        <time>2015-08-09T10:30:07Z</time>
      </trkpt>
      <trkpt lat="47.84539" lon="6.92327">
        <ele>1003</ele>
        <time>2015-08-09T10:30:10Z</time>
      </trkpt>
      <trkpt lat="47.84539" lon="6.92327">
        <ele>1003</ele>
        <time>2015-08-09T10:30:13Z</time>
      </trkpt>
      <trkpt lat="47.84539" lon="6.92327">
        <ele>1003</ele>
        <time>2015-08-09T10:30:16Z</time>
      </trkpt>
      <trkpt lat="47.84539" lon="6.92327">
        <ele>1003</ele>
        <time>2015-08-09T10:30:20Z</time>
      </trkpt>
      <trkpt lat="47.84539" lon="6.92327">
        <ele>1003</ele>
        <time>2015-08-09T10:30:22Z</time>
      </trkpt>
      <trkpt lat="47.84539" lon="6.92327">
        <ele>1003</ele>
        <time>2015-08-09T10:30:25Z</time>
      </trkpt>
      <trkpt lat="47.84539" lon="6.92327">
        <ele>1003</ele>
        <time>2015-08-09T10:30:30Z</time>
      </trkpt>
      <trkpt lat="47.8454" lon="6.92327">
        <ele>1000</ele>
        <time>2015-08-09T10:30:32Z</time>
      </trkpt>
      <trkpt lat="47.84543" lon="6.92329">
        <ele>1002</ele>
        <time>2015-08-09T10:30:42Z</time>
      </trkpt>
      <trkpt lat="47.84543" lon="6.92327">
        <ele>1001</ele>
        <time>2015-08-09T10:30:54Z</time>
      </trkpt>
      <trkpt lat="47.84544" lon="6.92325">
        <ele>1001</ele>
        <time>2015-08-09T10:31:02Z</time>
      </trkpt>
      <trkpt lat="47.84544" lon="6.92326">
        <ele>1001</ele>
        <time>2015-08-09T10:31:05Z</time>
      </trkpt>
      <trkpt lat="47.84544" lon="6.92326">
        <ele>1001</ele>
        <time>2015-08-09T10:31:10Z</time>
      </trkpt>
      <trkpt lat="47.84544" lon="6.92326">
        <ele>1001</ele>
        <time>2015-08-09T10:31:11Z</time>
      </trkpt>
      <trkpt lat="47.84542" lon="6.92326">
        <ele>1001</ele>
        <time>2015-08-09T10:31:22Z</time>
      </trkpt>
      <trkpt lat="47.84541" lon="6.92325">
        <ele>1001</ele>
        <time>2015-08-09T10:31:28Z</time>
      </trkpt>
      <trkpt lat="47.84541" lon="6.92325">
        <ele>1001</ele>
        <time>2015-08-09T10:31:31Z</time>
      </trkpt>
      <trkpt lat="47.84541" lon="6.92325">
        <ele>1001</ele>
        <time>2015-08-09T10:31:34Z</time>
      </trkpt>
      <trkpt lat="47.84541" lon="6.92325">
        <ele>1001</ele>
        <time>2015-08-09T10:31:37Z</time>
      </trkpt>
      <trkpt lat="47.84541" lon="6.92325">
        <ele>1001</ele>
        <time>2015-08-09T10:31:40Z</time>
      </trkpt>
      <trkpt lat="47.84541" lon="6.92325">
        <ele>1001</ele>
        <time>2015-08-09T10:31:45Z</time>
      </trkpt>
      <trkpt lat="47.84541" lon="6.92324">
        <ele>1001</ele>
        <time>2015-08-09T10:31:46Z</time>
      </trkpt>
      <trkpt lat="47.84541" lon="6.92327">
        <ele>1004</ele>
        <time>2015-08-09T10:32:00Z</time>
      </trkpt>
      <trkpt lat="47.84541" lon="6.92327">
        <ele>1004</ele>
        <time>2015-08-09T10:32:03Z</time>
      </trkpt>
      <trkpt lat="47.84541" lon="6.92327">
        <ele>1004</ele>
        <time>2015-08-09T10:32:08Z</time>
      </trkpt>
      <trkpt lat="47.84541" lon="6.92327">
        <ele>1004</ele>
        <time>2015-08-09T10:32:10Z</time>
      </trkpt>
      <trkpt lat="47.84541" lon="6.92327">
        <ele>1004</ele>
        <time>2015-08-09T10:32:12Z</time>
      </trkpt>
      <trkpt lat="47.84541" lon="6.92327">
        <ele>1004</ele>
        <time>2015-08-09T10:32:15Z</time>
      </trkpt>
      <trkpt lat="47.84541" lon="6.92327">
        <ele>1004</ele>
        <time>2015-08-09T10:32:18Z</time>
      </trkpt>
      <trkpt lat="47.84541" lon="6.92327">
        <ele>1004</ele>
        <time>2015-08-09T10:32:21Z</time>
      </trkpt>
      <trkpt lat="47.84541" lon="6.92327">
        <ele>1004</ele>
        <time>2015-08-09T10:32:24Z</time>
      </trkpt>
      <trkpt lat="47.84541" lon="6.92327">
        <ele>1004</ele>
        <time>2015-08-09T10:32:27Z</time>
      </trkpt>
      <trkpt lat="47.84541" lon="6.92327">
        <ele>1004</ele>
        <time>2015-08-09T10:32:30Z</time>
      </trkpt>
      <trkpt lat="47.84541" lon="6.92327">
        <ele>1004</ele>
        <time>2015-08-09T10:32:33Z</time>
      </trkpt>
      <trkpt lat="47.84541" lon="6.92327">
        <ele>1004</ele>
        <time>2015-08-09T10:32:38Z</time>
      </trkpt>
      <trkpt lat="47.84541" lon="6.92327">
        <ele>1004</ele>
        <time>2015-08-09T10:32:39Z</time>
      </trkpt>
      <trkpt lat="47.84541" lon="6.92327">
        <ele>1004</ele>
        <time>2015-08-09T10:32:42Z</time>
      </trkpt>
      <trkpt lat="47.84541" lon="6.92327">
        <ele>1004</ele>
        <time>2015-08-09T10:32:45Z</time>
      </trkpt>
      <trkpt lat="47.84541" lon="6.92328">
        <ele>1004</ele>
        <time>2015-08-09T10:32:50Z</time>
      </trkpt>
      <trkpt lat="47.84541" lon="6.92328">
        <ele>1004</ele>
        <time>2015-08-09T10:32:51Z</time>
      </trkpt>
      <trkpt lat="47.84541" lon="6.92328">
        <ele>1004</ele>
        <time>2015-08-09T10:32:54Z</time>
      </trkpt>
      <trkpt lat="47.84541" lon="6.92328">
        <ele>1004</ele>
        <time>2015-08-09T10:32:57Z</time>
      </trkpt>
      <trkpt lat="47.84541" lon="6.92328">
        <ele>1004</ele>
        <time>2015-08-09T10:33:02Z</time>
      </trkpt>
      <trkpt lat="47.84541" lon="6.92328">
        <ele>1004</ele>
        <time>2015-08-09T10:33:03Z</time>
      </trkpt>
      <trkpt lat="47.84541" lon="6.92328">
        <ele>1004</ele>
        <time>2015-08-09T10:33:06Z</time>
      </trkpt>
      <trkpt lat="47.84541" lon="6.92328">
        <ele>1004</ele>
        <time>2015-08-09T10:33:11Z</time>
      </trkpt>
      <trkpt lat="47.84541" lon="6.92328">
        <ele>1004</ele>
        <time>2015-08-09T10:33:12Z</time>
      </trkpt>
      <trkpt lat="47.84541" lon="6.92328">
        <ele>1004</ele>
        <time>2015-08-09T10:33:15Z</time>
      </trkpt>
      <trkpt lat="47.84541" lon="6.92328">
        <ele>1004</ele>
        <time>2015-08-09T10:33:18Z</time>
      </trkpt>
      <trkpt lat="47.84541" lon="6.92328">
        <ele>1004</ele>
        <time>2015-08-09T10:33:21Z</time>
      </trkpt>
      <trkpt lat="47.84541" lon="6.92328">
        <ele>1004</ele>
        <time>2015-08-09T10:33:24Z</time>
      </trkpt>
      <trkpt lat="47.84541" lon="6.92328">
        <ele>1004</ele>
        <time>2015-08-09T10:33:28Z</time>
      </trkpt>
      <trkpt lat="47.84541" lon="6.92327">
        <ele>1004</ele>
        <time>2015-08-09T10:33:32Z</time>
      </trkpt>
      <trkpt lat="47.84541" lon="6.92327">
        <ele>1004</ele>
        <time>2015-08-09T10:33:34Z</time>
      </trkpt>
      <trkpt lat="47.84541" lon="6.92327">
        <ele>1004</ele>
        <time>2015-08-09T10:33:36Z</time>
      </trkpt>
      <trkpt lat="47.84541" lon="6.92327">
        <ele>1004</ele>
        <time>2015-08-09T10:33:40Z</time>
      </trkpt>
      <trkpt lat="47.84541" lon="6.92327">
        <ele>1004</ele>
        <time>2015-08-09T10:33:42Z</time>
      </trkpt>
      <trkpt lat="47.84541" lon="6.92327">
        <ele>1004</ele>
        <time>2015-08-09T10:33:47Z</time>
      </trkpt>
      <trkpt lat="47.84541" lon="6.92327">
        <ele>1004</ele>
        <time>2015-08-09T10:33:49Z</time>
      </trkpt>
      <trkpt lat="47.84541" lon="6.92327">
        <ele>1004</ele>
        <time>2015-08-09T10:33:51Z</time>
      </trkpt>
      <trkpt lat="47.84541" lon="6.92327">
        <ele>1004</ele>
        <time>2015-08-09T10:33:54Z</time>
      </trkpt>
      <trkpt lat="47.84541" lon="6.92327">
        <ele>1004</ele>
        <time>2015-08-09T10:33:57Z</time>
      </trkpt>
      <trkpt lat="47.84541" lon="6.92327">
        <ele>1004</ele>
        <time>2015-08-09T10:34:01Z</time>
      </trkpt>
      <trkpt lat="47.84541" lon="6.92327">
        <ele>1004</ele>
        <time>2015-08-09T10:34:03Z</time>
      </trkpt>
      <trkpt lat="47.84541" lon="6.92327">
        <ele>1004</ele>
        <time>2015-08-09T10:34:06Z</time>
      </trkpt>
      <trkpt lat="47.84541" lon="6.92327">
        <ele>1004</ele>
        <time>2015-08-09T10:34:10Z</time>
      </trkpt>
      <trkpt lat="47.84541" lon="6.92327">
        <ele>1004</ele>
        <time>2015-08-09T10:34:14Z</time>
      </trkpt>
      <trkpt lat="47.84541" lon="6.92327">
        <ele>1004</ele>
        <time>2015-08-09T10:34:17Z</time>
      </trkpt>
      <trkpt lat="47.84541" lon="6.92327">
        <ele>1004</ele>
        <time>2015-08-09T10:34:18Z</time>
      </trkpt>
      <trkpt lat="47.84541" lon="6.92327">
        <ele>1004</ele>
        <time>2015-08-09T10:34:22Z</time>
      </trkpt>
      <trkpt lat="47.84541" lon="6.92327">
        <ele>1004</ele>
        <time>2015-08-09T10:34:24Z</time>
      </trkpt>
      <trkpt lat="47.84541" lon="6.92327">
        <ele>1004</ele>
        <time>2015-08-09T10:34:27Z</time>
      </trkpt>
      <trkpt lat="47.84541" lon="6.92327">
        <ele>1004</ele>
        <time>2015-08-09T10:34:30Z</time>
      </trkpt>
      <trkpt lat="47.84541" lon="6.92327">
        <ele>1004</ele>
        <time>2015-08-09T10:34:33Z</time>
      </trkpt>
      <trkpt lat="47.84541" lon="6.92327">
        <ele>1004</ele>
        <time>2015-08-09T10:34:36Z</time>
      </trkpt>
      <trkpt lat="47.84541" lon="6.92327">
        <ele>1004</ele>
        <time>2015-08-09T10:34:41Z</time>
      </trkpt>
      <trkpt lat="47.84541" lon="6.92327">
        <ele>1004</ele>
        <time>2015-08-09T10:34:42Z</time>
      </trkpt>
      <trkpt lat="47.84541" lon="6.92327">
        <ele>1004</ele>
        <time>2015-08-09T10:34:46Z</time>
      </trkpt>
      <trkpt lat="47.84541" lon="6.92327">
        <ele>1004</ele>
        <time>2015-08-09T10:34:49Z</time>
      </trkpt>
      <trkpt lat="47.84541" lon="6.92327">
        <ele>1004</ele>
        <time>2015-08-09T10:34:51Z</time>
      </trkpt>
      <trkpt lat="47.84541" lon="6.92327">
        <ele>1004</ele>
        <time>2015-08-09T10:34:55Z</time>
      </trkpt>
      <trkpt lat="47.84541" lon="6.92328">
        <ele>1004</ele>
        <time>2015-08-09T10:34:57Z</time>
      </trkpt>
      <trkpt lat="47.84541" lon="6.92328">
        <ele>1004</ele>
        <time>2015-08-09T10:35:00Z</time>
      </trkpt>
      <trkpt lat="47.84541" lon="6.92328">
        <ele>1004</ele>
        <time>2015-08-09T10:35:03Z</time>
      </trkpt>
      <trkpt lat="47.84541" lon="6.92328">
        <ele>1004</ele>
        <time>2015-08-09T10:35:07Z</time>
      </trkpt>
      <trkpt lat="47.84541" lon="6.92328">
        <ele>1004</ele>
        <time>2015-08-09T10:35:11Z</time>
      </trkpt>
      <trkpt lat="47.84541" lon="6.92328">
        <ele>1004</ele>
        <time>2015-08-09T10:35:13Z</time>
      </trkpt>
      <trkpt lat="47.84541" lon="6.92328">
        <ele>1004</ele>
        <time>2015-08-09T10:35:15Z</time>
      </trkpt>
      <trkpt lat="47.84541" lon="6.92328">
        <ele>1004</ele>
        <time>2015-08-09T10:35:18Z</time>
      </trkpt>
      <trkpt lat="47.84541" lon="6.92328">
        <ele>1004</ele>
        <time>2015-08-09T10:35:21Z</time>
      </trkpt>
      <trkpt lat="47.84541" lon="6.92328">
        <ele>1004</ele>
        <time>2015-08-09T10:35:24Z</time>
      </trkpt>
      <trkpt lat="47.84541" lon="6.92328">
        <ele>1004</ele>
        <time>2015-08-09T10:35:27Z</time>
      </trkpt>
      <trkpt lat="47.84541" lon="6.92328">
        <ele>1004</ele>
        <time>2015-08-09T10:35:31Z</time>
      </trkpt>
      <trkpt lat="47.84541" lon="6.92328">
        <ele>1004</ele>
        <time>2015-08-09T10:35:33Z</time>
      </trkpt>
      <trkpt lat="47.84541" lon="6.92328">
        <ele>1004</ele>
        <time>2015-08-09T10:35:37Z</time>
      </trkpt>
      <trkpt lat="47.84541" lon="6.92328">
        <ele>1004</ele>
        <time>2015-08-09T10:35:39Z</time>
      </trkpt>
      <trkpt lat="47.84541" lon="6.92328">
        <ele>1004</ele>
        <time>2015-08-09T10:35:42Z</time>
      </trkpt>
      <trkpt lat="47.84541" lon="6.92328">
        <ele>1004</ele>
        <time>2015-08-09T10:35:45Z</time>
      </trkpt>
      <trkpt lat="47.84541" lon="6.92328">
        <ele>1004</ele>
        <time>2015-08-09T10:35:49Z</time>
      </trkpt>
      <trkpt lat="47.84541" lon="6.92328">
        <ele>1004</ele>
        <time>2015-08-09T10:35:51Z</time>
      </trkpt>
      <trkpt lat="47.84541" lon="6.92328">
        <ele>1004</ele>
        <time>2015-08-09T10:35:54Z</time>
      </trkpt>
      <trkpt lat="47.84541" lon="6.92328">
        <ele>1004</ele>
        <time>2015-08-09T10:35:57Z</time>
      </trkpt>
      <trkpt lat="47.84541" lon="6.92328">
        <ele>1004</ele>
        <time>2015-08-09T10:36:00Z</time>
      </trkpt>
      <trkpt lat="47.84541" lon="6.92328">
        <ele>1004</ele>
        <time>2015-08-09T10:36:04Z</time>
      </trkpt>
      <trkpt lat="47.84541" lon="6.92328">
        <ele>1004</ele>
        <time>2015-08-09T10:36:06Z</time>
      </trkpt>
      <trkpt lat="47.84541" lon="6.92328">
        <ele>1003</ele>
        <time>2015-08-09T10:36:09Z</time>
      </trkpt>
      <trkpt lat="47.84541" lon="6.92328">
        <ele>1003</ele>
        <time>2015-08-09T10:36:12Z</time>
      </trkpt>
      <trkpt lat="47.84541" lon="6.92328">
        <ele>1003</ele>
        <time>2015-08-09T10:36:15Z</time>
      </trkpt>
      <trkpt lat="47.84541" lon="6.92328">
        <ele>1003</ele>
        <time>2015-08-09T10:36:18Z</time>
      </trkpt>
      <trkpt lat="47.84541" lon="6.92328">
        <ele>1003</ele>
        <time>2015-08-09T10:36:21Z</time>
      </trkpt>
      <trkpt lat="47.84541" lon="6.92328">
        <ele>1003</ele>
        <time>2015-08-09T10:36:24Z</time>
      </trkpt>
      <trkpt lat="47.84541" lon="6.92328">
        <ele>1003</ele>
        <time>2015-08-09T10:36:27Z</time>
      </trkpt>
      <trkpt lat="47.84541" lon="6.92328">
        <ele>1003</ele>
        <time>2015-08-09T10:36:30Z</time>
      </trkpt>
      <trkpt lat="47.84541" lon="6.92328">
        <ele>1003</ele>
        <time>2015-08-09T10:36:33Z</time>
      </trkpt>
      <trkpt lat="47.84541" lon="6.92328">
        <ele>1003</ele>
        <time>2015-08-09T10:36:36Z</time>
      </trkpt>
      <trkpt lat="47.84541" lon="6.92328">
        <ele>1003</ele>
        <time>2015-08-09T10:36:39Z</time>
      </trkpt>
      <trkpt lat="47.84541" lon="6.92328">
        <ele>1003</ele>
        <time>2015-08-09T10:36:42Z</time>
      </trkpt>
      <trkpt lat="47.84541" lon="6.92328">
        <ele>1003</ele>
        <time>2015-08-09T10:36:47Z</time>
      </trkpt>
      <trkpt lat="47.84541" lon="6.92328">
        <ele>1003</ele>
        <time>2015-08-09T10:36:48Z</time>
      </trkpt>
      <trkpt lat="47.84541" lon="6.92328">
        <ele>1004</ele>
        <time>2015-08-09T10:36:51Z</time>
      </trkpt>
      <trkpt lat="47.84541" lon="6.92328">
        <ele>1003</ele>
        <time>2015-08-09T10:36:54Z</time>
      </trkpt>
      <trkpt lat="47.84541" lon="6.92328">
        <ele>1003</ele>
        <time>2015-08-09T10:36:57Z</time>
      </trkpt>
      <trkpt lat="47.84541" lon="6.92328">
        <ele>1003</ele>
        <time>2015-08-09T10:37:01Z</time>
      </trkpt>
      <trkpt lat="47.84541" lon="6.92328">
        <ele>1003</ele>
        <time>2015-08-09T10:37:03Z</time>
      </trkpt>
      <trkpt lat="47.84541" lon="6.92328">
        <ele>1003</ele>
        <time>2015-08-09T10:37:06Z</time>
      </trkpt>
      <trkpt lat="47.84541" lon="6.92328">
        <ele>1004</ele>
        <time>2015-08-09T10:37:09Z</time>
      </trkpt>
      <trkpt lat="47.84546" lon="6.92328">
        <ele>1000</ele>
        <time>2015-08-09T10:37:20Z</time>
      </trkpt>
      <trkpt lat="47.84546" lon="6.92328">
        <ele>1000</ele>
        <time>2015-08-09T10:37:23Z</time>
      </trkpt>
      <trkpt lat="47.84546" lon="6.92328">
        <ele>1000</ele>
        <time>2015-08-09T10:37:26Z</time>
      </trkpt>
      <trkpt lat="47.84545" lon="6.92331">
        <ele>1003</ele>
        <time>2015-08-09T10:37:34Z</time>
      </trkpt>
      <trkpt lat="47.84544" lon="6.92331">
        <ele>1004</ele>
        <time>2015-08-09T10:37:40Z</time>
      </trkpt>
      <trkpt lat="47.84544" lon="6.92331">
        <ele>1004</ele>
        <time>2015-08-09T10:37:43Z</time>
      </trkpt>
      <trkpt lat="47.84544" lon="6.92331">
        <ele>1004</ele>
        <time>2015-08-09T10:37:46Z</time>
      </trkpt>
      <trkpt lat="47.84544" lon="6.92331">
        <ele>1004</ele>
        <time>2015-08-09T10:37:49Z</time>
      </trkpt>
      <trkpt lat="47.84544" lon="6.92331">
        <ele>1004</ele>
        <time>2015-08-09T10:37:52Z</time>
      </trkpt>
      <trkpt lat="47.84544" lon="6.92331">
        <ele>1004</ele>
        <time>2015-08-09T10:37:57Z</time>
      </trkpt>
      <trkpt lat="47.84544" lon="6.92331">
        <ele>1004</ele>
        <time>2015-08-09T10:37:58Z</time>
      </trkpt>
      <trkpt lat="47.84544" lon="6.92331">
        <ele>1004</ele>
        <time>2015-08-09T10:38:01Z</time>
      </trkpt>
      <trkpt lat="47.84544" lon="6.92331">
        <ele>1004</ele>
        <time>2015-08-09T10:38:04Z</time>
      </trkpt>
      <trkpt lat="47.84544" lon="6.92331">
        <ele>1004</ele>
        <time>2015-08-09T10:38:07Z</time>
      </trkpt>
      <trkpt lat="47.84544" lon="6.92331">
        <ele>1004</ele>
        <time>2015-08-09T10:38:10Z</time>
      </trkpt>
      <trkpt lat="47.84544" lon="6.92331">
        <ele>1004</ele>
        <time>2015-08-09T10:38:13Z</time>
      </trkpt>
      <trkpt lat="47.84544" lon="6.92331">
        <ele>1004</ele>
        <time>2015-08-09T10:38:16Z</time>
      </trkpt>
      <trkpt lat="47.84544" lon="6.92331">
        <ele>1004</ele>
        <time>2015-08-09T10:38:19Z</time>
      </trkpt>
      <trkpt lat="47.84545" lon="6.92333">
        <ele>1005</ele>
        <time>2015-08-09T10:38:25Z</time>
      </trkpt>
      <trkpt lat="47.84544" lon="6.92332">
        <ele>1004</ele>
        <time>2015-08-09T10:38:33Z</time>
      </trkpt>
      <trkpt lat="47.84544" lon="6.92332">
        <ele>1004</ele>
        <time>2015-08-09T10:38:36Z</time>
      </trkpt>
      <trkpt lat="47.84544" lon="6.92332">
        <ele>1004</ele>
        <time>2015-08-09T10:38:39Z</time>
      </trkpt>
      <trkpt lat="47.84544" lon="6.92332">
        <ele>1004</ele>
        <time>2015-08-09T10:38:42Z</time>
      </trkpt>
      <trkpt lat="47.84544" lon="6.92332">
        <ele>1004</ele>
        <time>2015-08-09T10:38:45Z</time>
      </trkpt>
      <trkpt lat="47.84541" lon="6.92331">
        <ele>1003</ele>
        <time>2015-08-09T10:38:53Z</time>
      </trkpt>
      <trkpt lat="47.8454" lon="6.92331">
        <ele>1003</ele>
        <time>2015-08-09T10:39:00Z</time>
      </trkpt>
      <trkpt lat="47.8454" lon="6.92331">
        <ele>1003</ele>
        <time>2015-08-09T10:39:02Z</time>
      </trkpt>
      <trkpt lat="47.8454" lon="6.92331">
        <ele>1003</ele>
        <time>2015-08-09T10:39:05Z</time>
      </trkpt>
      <trkpt lat="47.8454" lon="6.92331">
        <ele>1003</ele>
        <time>2015-08-09T10:39:08Z</time>
      </trkpt>
      <trkpt lat="47.8454" lon="6.92331">
        <ele>1003</ele>
        <time>2015-08-09T10:39:12Z</time>
      </trkpt>
      <trkpt lat="47.8454" lon="6.92331">
        <ele>1003</ele>
        <time>2015-08-09T10:39:15Z</time>
      </trkpt>
      <trkpt lat="47.8454" lon="6.92331">
        <ele>1003</ele>
        <time>2015-08-09T10:39:18Z</time>
      </trkpt>
      <trkpt lat="47.8454" lon="6.92331">
        <ele>1003</ele>
        <time>2015-08-09T10:39:20Z</time>
      </trkpt>
      <trkpt lat="47.8454" lon="6.92331">
        <ele>1003</ele>
        <time>2015-08-09T10:39:23Z</time>
      </trkpt>
      <trkpt lat="47.8454" lon="6.92331">
        <ele>1003</ele>
        <time>2015-08-09T10:39:26Z</time>
      </trkpt>
      <trkpt lat="47.8454" lon="6.92331">
        <ele>1003</ele>
        <time>2015-08-09T10:39:29Z</time>
      </trkpt>
      <trkpt lat="47.8454" lon="6.92331">
        <ele>1003</ele>
        <time>2015-08-09T10:39:32Z</time>
      </trkpt>
      <trkpt lat="47.8454" lon="6.92331">
        <ele>1003</ele>
        <time>2015-08-09T10:39:35Z</time>
      </trkpt>
      <trkpt lat="47.8454" lon="6.92331">
        <ele>1003</ele>
        <time>2015-08-09T10:39:38Z</time>
      </trkpt>
      <trkpt lat="47.8454" lon="6.92331">
        <ele>1003</ele>
        <time>2015-08-09T10:39:41Z</time>
      </trkpt>
      <trkpt lat="47.8454" lon="6.92331">
        <ele>1003</ele>
        <time>2015-08-09T10:39:44Z</time>
      </trkpt>
      <trkpt lat="47.8454" lon="6.92331">
        <ele>1003</ele>
        <time>2015-08-09T10:39:47Z</time>
      </trkpt>
      <trkpt lat="47.8454" lon="6.92331">
        <ele>1003</ele>
        <time>2015-08-09T10:39:50Z</time>
      </trkpt>
      <trkpt lat="47.84544" lon="6.92326">
        <ele>999</ele>
        <time>2015-08-09T10:40:00Z</time>
      </trkpt>
      <trkpt lat="47.84544" lon="6.92327">
        <ele>999</ele>
        <time>2015-08-09T10:40:04Z</time>
      </trkpt>
      <trkpt lat="47.84543" lon="6.92327">
        <ele>999</ele>
        <time>2015-08-09T10:40:09Z</time>
      </trkpt>
      <trkpt lat="47.84543" lon="6.92326">
        <ele>999</ele>
        <time>2015-08-09T10:40:10Z</time>
      </trkpt>
      <trkpt lat="47.84542" lon="6.92326">
        <ele>1000</ele>
        <time>2015-08-09T10:40:13Z</time>
      </trkpt>
      <trkpt lat="47.8454" lon="6.92326">
        <ele>1001</ele>
        <time>2015-08-09T10:40:24Z</time>
      </trkpt>
      <trkpt lat="47.8454" lon="6.92326">
        <ele>1001</ele>
        <time>2015-08-09T10:40:27Z</time>
      </trkpt>
      <trkpt lat="47.8454" lon="6.92326">
        <ele>1001</ele>
        <time>2015-08-09T10:40:30Z</time>
      </trkpt>
      <trkpt lat="47.8454" lon="6.92326">
        <ele>1001</ele>
        <time>2015-08-09T10:40:33Z</time>
      </trkpt>
      <trkpt lat="47.8454" lon="6.92326">
        <ele>1002</ele>
        <time>2015-08-09T10:40:36Z</time>
      </trkpt>
      <trkpt lat="47.8454" lon="6.92326">
        <ele>1002</ele>
        <time>2015-08-09T10:40:39Z</time>
      </trkpt>
      <trkpt lat="47.8454" lon="6.92326">
        <ele>1002</ele>
        <time>2015-08-09T10:40:42Z</time>
      </trkpt>
      <trkpt lat="47.8454" lon="6.92326">
        <ele>1002</ele>
        <time>2015-08-09T10:40:45Z</time>
      </trkpt>
      <trkpt lat="47.8454" lon="6.92326">
        <ele>1002</ele>
        <time>2015-08-09T10:40:48Z</time>
      </trkpt>
      <trkpt lat="47.8454" lon="6.92326">
        <ele>1002</ele>
        <time>2015-08-09T10:40:52Z</time>
      </trkpt>
      <trkpt lat="47.8454" lon="6.92326">
        <ele>1002</ele>
        <time>2015-08-09T10:40:54Z</time>
      </trkpt>
      <trkpt lat="47.8454" lon="6.92326">
        <ele>1002</ele>
        <time>2015-08-09T10:40:57Z</time>
      </trkpt>
      <trkpt lat="47.8454" lon="6.92326">
        <ele>1002</ele>
        <time>2015-08-09T10:41:00Z</time>
      </trkpt>
      <trkpt lat="47.8454" lon="6.92326">
        <ele>1002</ele>
        <time>2015-08-09T10:41:05Z</time>
      </trkpt>
      <trkpt lat="47.8454" lon="6.92326">
        <ele>1002</ele>
        <time>2015-08-09T10:41:06Z</time>
      </trkpt>
      <trkpt lat="47.8454" lon="6.92326">
        <ele>1002</ele>
        <time>2015-08-09T10:41:09Z</time>
      </trkpt>
      <trkpt lat="47.8454" lon="6.92326">
        <ele>1002</ele>
        <time>2015-08-09T10:41:12Z</time>
      </trkpt>
      <trkpt lat="47.8454" lon="6.92326">
        <ele>1002</ele>
        <time>2015-08-09T10:41:15Z</time>
      </trkpt>
      <trkpt lat="47.8454" lon="6.92326">
        <ele>1002</ele>
        <time>2015-08-09T10:41:18Z</time>
      </trkpt>
      <trkpt lat="47.8454" lon="6.92326">
        <ele>1002</ele>
        <time>2015-08-09T10:41:21Z</time>
      </trkpt>
      <trkpt lat="47.8454" lon="6.92326">
        <ele>1002</ele>
        <time>2015-08-09T10:41:24Z</time>
      </trkpt>
      <trkpt lat="47.8454" lon="6.92326">
        <ele>1002</ele>
        <time>2015-08-09T10:41:27Z</time>
      </trkpt>
      <trkpt lat="47.8454" lon="6.92326">
        <ele>1002</ele>
        <time>2015-08-09T10:41:30Z</time>
      </trkpt>
      <trkpt lat="47.8454" lon="6.92326">
        <ele>1002</ele>
        <time>2015-08-09T10:41:33Z</time>
      </trkpt>
      <trkpt lat="47.8454" lon="6.92326">
        <ele>1002</ele>
        <time>2015-08-09T10:41:36Z</time>
      </trkpt>
      <trkpt lat="47.8454" lon="6.92326">
        <ele>1002</ele>
        <time>2015-08-09T10:41:39Z</time>
      </trkpt>
      <trkpt lat="47.8454" lon="6.92326">
        <ele>1002</ele>
        <time>2015-08-09T10:41:42Z</time>
      </trkpt>
      <trkpt lat="47.8454" lon="6.92326">
        <ele>1002</ele>
        <time>2015-08-09T10:41:45Z</time>
      </trkpt>
      <trkpt lat="47.8454" lon="6.92326">
        <ele>1002</ele>
        <time>2015-08-09T10:41:48Z</time>
      </trkpt>
      <trkpt lat="47.8454" lon="6.92326">
        <ele>1002</ele>
        <time>2015-08-09T10:41:52Z</time>
      </trkpt>
      <trkpt lat="47.8454" lon="6.92326">
        <ele>1002</ele>
        <time>2015-08-09T10:41:54Z</time>
      </trkpt>
      <trkpt lat="47.8454" lon="6.92326">
        <ele>1002</ele>
        <time>2015-08-09T10:41:57Z</time>
      </trkpt>
      <trkpt lat="47.8454" lon="6.92326">
        <ele>1002</ele>
        <time>2015-08-09T10:42:00Z</time>
      </trkpt>
      <trkpt lat="47.8454" lon="6.92326">
        <ele>1002</ele>
        <time>2015-08-09T10:42:03Z</time>
      </trkpt>
      <trkpt lat="47.8454" lon="6.92326">
        <ele>1002</ele>
        <time>2015-08-09T10:42:06Z</time>
      </trkpt>
      <trkpt lat="47.8454" lon="6.92326">
        <ele>1002</ele>
        <time>2015-08-09T10:42:09Z</time>
      </trkpt>
      <trkpt lat="47.8454" lon="6.92326">
        <ele>1002</ele>
        <time>2015-08-09T10:42:12Z</time>
      </trkpt>
      <trkpt lat="47.8454" lon="6.92326">
        <ele>1002</ele>
        <time>2015-08-09T10:42:15Z</time>
      </trkpt>
      <trkpt lat="47.8454" lon="6.92326">
        <ele>1002</ele>
        <time>2015-08-09T10:42:18Z</time>
      </trkpt>
      <trkpt lat="47.8454" lon="6.92326">
        <ele>1002</ele>
        <time>2015-08-09T10:42:21Z</time>
      </trkpt>
      <trkpt lat="47.8454" lon="6.92326">
        <ele>1002</ele>
        <time>2015-08-09T10:42:25Z</time>
      </trkpt>
      <trkpt lat="47.8454" lon="6.92326">
        <ele>1002</ele>
        <time>2015-08-09T10:42:27Z</time>
      </trkpt>
      <trkpt lat="47.8454" lon="6.92326">
        <ele>1002</ele>
        <time>2015-08-09T10:42:30Z</time>
      </trkpt>
      <trkpt lat="47.8454" lon="6.92326">
        <ele>1002</ele>
        <time>2015-08-09T10:42:33Z</time>
      </trkpt>
      <trkpt lat="47.8454" lon="6.92326">
        <ele>1002</ele>
        <time>2015-08-09T10:42:36Z</time>
      </trkpt>
      <trkpt lat="47.8454" lon="6.92326">
        <ele>1002</ele>
        <time>2015-08-09T10:42:39Z</time>
      </trkpt>
      <trkpt lat="47.8454" lon="6.92326">
        <ele>1002</ele>
        <time>2015-08-09T10:42:42Z</time>
      </trkpt>
      <trkpt lat="47.8454" lon="6.92326">
        <ele>1002</ele>
        <time>2015-08-09T10:42:45Z</time>
      </trkpt>
      <trkpt lat="47.8454" lon="6.92326">
        <ele>1002</ele>
        <time>2015-08-09T10:42:48Z</time>
      </trkpt>
      <trkpt lat="47.8454" lon="6.92326">
        <ele>1002</ele>
        <time>2015-08-09T10:42:51Z</time>
      </trkpt>
      <trkpt lat="47.8454" lon="6.92326">
        <ele>1002</ele>
        <time>2015-08-09T10:42:56Z</time>
      </trkpt>
      <trkpt lat="47.8454" lon="6.92326">
        <ele>1002</ele>
        <time>2015-08-09T10:42:57Z</time>
      </trkpt>
      <trkpt lat="47.8454" lon="6.92326">
        <ele>1002</ele>
        <time>2015-08-09T10:43:00Z</time>
      </trkpt>
      <trkpt lat="47.8454" lon="6.92326">
        <ele>1002</ele>
        <time>2015-08-09T10:43:03Z</time>
      </trkpt>
      <trkpt lat="47.8454" lon="6.92326">
        <ele>1002</ele>
        <time>2015-08-09T10:43:06Z</time>
      </trkpt>
      <trkpt lat="47.8454" lon="6.92326">
        <ele>1002</ele>
        <time>2015-08-09T10:43:09Z</time>
      </trkpt>
      <trkpt lat="47.8454" lon="6.92326">
        <ele>1002</ele>
        <time>2015-08-09T10:43:12Z</time>
      </trkpt>
      <trkpt lat="47.8454" lon="6.92326">
        <ele>1002</ele>
        <time>2015-08-09T10:43:15Z</time>
      </trkpt>
      <trkpt lat="47.8454" lon="6.92326">
        <ele>1002</ele>
        <time>2015-08-09T10:43:18Z</time>
      </trkpt>
      <trkpt lat="47.8454" lon="6.92326">
        <ele>1002</ele>
        <time>2015-08-09T10:43:22Z</time>
      </trkpt>
      <trkpt lat="47.8454" lon="6.92326">
        <ele>1002</ele>
        <time>2015-08-09T10:43:26Z</time>
      </trkpt>
      <trkpt lat="47.8454" lon="6.92326">
        <ele>1002</ele>
        <time>2015-08-09T10:43:29Z</time>
      </trkpt>
      <trkpt lat="47.8454" lon="6.92326">
        <ele>1002</ele>
        <time>2015-08-09T10:43:30Z</time>
      </trkpt>
      <trkpt lat="47.8454" lon="6.92326">
        <ele>1002</ele>
        <time>2015-08-09T10:43:33Z</time>
      </trkpt>
      <trkpt lat="47.8454" lon="6.92326">
        <ele>1002</ele>
        <time>2015-08-09T10:43:36Z</time>
      </trkpt>
      <trkpt lat="47.8454" lon="6.92326">
        <ele>1002</ele>
        <time>2015-08-09T10:43:39Z</time>
      </trkpt>
      <trkpt lat="47.8454" lon="6.92327">
        <ele>1002</ele>
        <time>2015-08-09T10:43:42Z</time>
      </trkpt>
      <trkpt lat="47.8454" lon="6.92327">
        <ele>1002</ele>
        <time>2015-08-09T10:43:45Z</time>
      </trkpt>
      <trkpt lat="47.8454" lon="6.92327">
        <ele>1003</ele>
        <time>2015-08-09T10:43:48Z</time>
      </trkpt>
      <trkpt lat="47.8454" lon="6.92327">
        <ele>1003</ele>
        <time>2015-08-09T10:43:52Z</time>
      </trkpt>
      <trkpt lat="47.8454" lon="6.92327">
        <ele>1003</ele>
        <time>2015-08-09T10:43:55Z</time>
      </trkpt>
      <trkpt lat="47.8454" lon="6.92327">
        <ele>1003</ele>
        <time>2015-08-09T10:43:57Z</time>
      </trkpt>
      <trkpt lat="47.8454" lon="6.92327">
        <ele>1003</ele>
        <time>2015-08-09T10:44:00Z</time>
      </trkpt>
      <trkpt lat="47.8454" lon="6.92327">
        <ele>1003</ele>
        <time>2015-08-09T10:44:03Z</time>
      </trkpt>
      <trkpt lat="47.8454" lon="6.92327">
        <ele>1003</ele>
        <time>2015-08-09T10:44:08Z</time>
      </trkpt>
      <trkpt lat="47.8454" lon="6.92327">
        <ele>1003</ele>
        <time>2015-08-09T10:44:09Z</time>
      </trkpt>
      <trkpt lat="47.8454" lon="6.92327">
        <ele>1003</ele>
        <time>2015-08-09T10:44:12Z</time>
      </trkpt>
      <trkpt lat="47.8454" lon="6.92327">
        <ele>1003</ele>
        <time>2015-08-09T10:44:15Z</time>
      </trkpt>
      <trkpt lat="47.8454" lon="6.92327">
        <ele>1003</ele>
        <time>2015-08-09T10:44:18Z</time>
      </trkpt>
      <trkpt lat="47.8454" lon="6.92327">
        <ele>1003</ele>
        <time>2015-08-09T10:44:22Z</time>
      </trkpt>
      <trkpt lat="47.8454" lon="6.92327">
        <ele>1003</ele>
        <time>2015-08-09T10:44:24Z</time>
      </trkpt>
      <trkpt lat="47.8454" lon="6.92327">
        <ele>1003</ele>
        <time>2015-08-09T10:44:27Z</time>
      </trkpt>
      <trkpt lat="47.8454" lon="6.92327">
        <ele>1003</ele>
        <time>2015-08-09T10:44:30Z</time>
      </trkpt>
      <trkpt lat="47.8454" lon="6.92327">
        <ele>1003</ele>
        <time>2015-08-09T10:44:33Z</time>
      </trkpt>
      <trkpt lat="47.8454" lon="6.92327">
        <ele>1003</ele>
        <time>2015-08-09T10:44:36Z</time>
      </trkpt>
      <trkpt lat="47.8454" lon="6.92327">
        <ele>1003</ele>
        <time>2015-08-09T10:44:39Z</time>
      </trkpt>
      <trkpt lat="47.8454" lon="6.92327">
        <ele>1003</ele>
        <time>2015-08-09T10:44:42Z</time>
      </trkpt>
      <trkpt lat="47.8454" lon="6.92327">
        <ele>1003</ele>
        <time>2015-08-09T10:44:47Z</time>
      </trkpt>
      <trkpt lat="47.8454" lon="6.92327">
        <ele>1003</ele>
        <time>2015-08-09T10:44:50Z</time>
      </trkpt>
      <trkpt lat="47.8454" lon="6.92327">
        <ele>1003</ele>
        <time>2015-08-09T10:44:53Z</time>
      </trkpt>
      <trkpt lat="47.8454" lon="6.92327">
        <ele>1003</ele>
        <time>2015-08-09T10:44:54Z</time>
      </trkpt>
      <trkpt lat="47.8454" lon="6.92327">
        <ele>1003</ele>
        <time>2015-08-09T10:44:57Z</time>
      </trkpt>
      <trkpt lat="47.8454" lon="6.92327">
        <ele>1003</ele>
        <time>2015-08-09T10:45:00Z</time>
      </trkpt>
      <trkpt lat="47.8454" lon="6.92327">
        <ele>1003</ele>
        <time>2015-08-09T10:45:05Z</time>
      </trkpt>
      <trkpt lat="47.8454" lon="6.92327">
        <ele>1003</ele>
        <time>2015-08-09T10:45:06Z</time>
      </trkpt>
      <trkpt lat="47.8454" lon="6.92327">
        <ele>1003</ele>
        <time>2015-08-09T10:45:09Z</time>
      </trkpt>
      <trkpt lat="47.8454" lon="6.92327">
        <ele>1003</ele>
        <time>2015-08-09T10:45:12Z</time>
      </trkpt>
      <trkpt lat="47.8454" lon="6.92327">
        <ele>1003</ele>
        <time>2015-08-09T10:45:15Z</time>
      </trkpt>
      <trkpt lat="47.8454" lon="6.92327">
        <ele>1003</ele>
        <time>2015-08-09T10:45:19Z</time>
      </trkpt>
      <trkpt lat="47.8454" lon="6.92327">
        <ele>1003</ele>
        <time>2015-08-09T10:45:21Z</time>
      </trkpt>
      <trkpt lat="47.8454" lon="6.92327">
        <ele>1003</ele>
        <time>2015-08-09T10:45:24Z</time>
      </trkpt>
      <trkpt lat="47.8454" lon="6.92327">
        <ele>1003</ele>
        <time>2015-08-09T10:45:27Z</time>
      </trkpt>
      <trkpt lat="47.8454" lon="6.92327">
        <ele>1003</ele>
        <time>2015-08-09T10:45:30Z</time>
      </trkpt>
      <trkpt lat="47.8454" lon="6.92327">
        <ele>1003</ele>
        <time>2015-08-09T10:45:33Z</time>
      </trkpt>
      <trkpt lat="47.8454" lon="6.92327">
        <ele>1003</ele>
        <time>2015-08-09T10:45:36Z</time>
      </trkpt>
      <trkpt lat="47.8454" lon="6.92327">
        <ele>1003</ele>
        <time>2015-08-09T10:45:39Z</time>
      </trkpt>
      <trkpt lat="47.8454" lon="6.92327">
        <ele>1003</ele>
        <time>2015-08-09T10:45:42Z</time>
      </trkpt>
      <trkpt lat="47.8454" lon="6.92327">
        <ele>1003</ele>
        <time>2015-08-09T10:45:46Z</time>
      </trkpt>
      <trkpt lat="47.8454" lon="6.92327">
        <ele>1003</ele>
        <time>2015-08-09T10:45:50Z</time>
      </trkpt>
      <trkpt lat="47.8454" lon="6.92327">
        <ele>1003</ele>
        <time>2015-08-09T10:45:51Z</time>
      </trkpt>
      <trkpt lat="47.8454" lon="6.92327">
        <ele>1003</ele>
        <time>2015-08-09T10:45:54Z</time>
      </trkpt>
      <trkpt lat="47.8454" lon="6.92327">
        <ele>1003</ele>
        <time>2015-08-09T10:45:59Z</time>
      </trkpt>
      <trkpt lat="47.8454" lon="6.92327">
        <ele>1003</ele>
        <time>2015-08-09T10:46:00Z</time>
      </trkpt>
      <trkpt lat="47.8454" lon="6.92327">
        <ele>1003</ele>
        <time>2015-08-09T10:46:03Z</time>
      </trkpt>
      <trkpt lat="47.8454" lon="6.92327">
        <ele>1003</ele>
        <time>2015-08-09T10:46:06Z</time>
      </trkpt>
      <trkpt lat="47.8454" lon="6.92327">
        <ele>1003</ele>
        <time>2015-08-09T10:46:09Z</time>
      </trkpt>
      <trkpt lat="47.8454" lon="6.92327">
        <ele>1003</ele>
        <time>2015-08-09T10:46:12Z</time>
      </trkpt>
      <trkpt lat="47.8454" lon="6.92327">
        <ele>1003</ele>
        <time>2015-08-09T10:46:15Z</time>
      </trkpt>
      <trkpt lat="47.8454" lon="6.92327">
        <ele>1003</ele>
        <time>2015-08-09T10:46:18Z</time>
      </trkpt>
      <trkpt lat="47.8454" lon="6.92327">
        <ele>1003</ele>
        <time>2015-08-09T10:46:21Z</time>
      </trkpt>
      <trkpt lat="47.8454" lon="6.92327">
        <ele>1003</ele>
        <time>2015-08-09T10:46:24Z</time>
      </trkpt>
      <trkpt lat="47.8454" lon="6.92327">
        <ele>1003</ele>
        <time>2015-08-09T10:46:27Z</time>
      </trkpt>
      <trkpt lat="47.8454" lon="6.92327">
        <ele>1003</ele>
        <time>2015-08-09T10:46:30Z</time>
      </trkpt>
      <trkpt lat="47.8454" lon="6.92327">
        <ele>1003</ele>
        <time>2015-08-09T10:46:33Z</time>
      </trkpt>
      <trkpt lat="47.8454" lon="6.92327">
        <ele>1003</ele>
        <time>2015-08-09T10:46:36Z</time>
      </trkpt>
      <trkpt lat="47.8454" lon="6.92327">
        <ele>1003</ele>
        <time>2015-08-09T10:46:39Z</time>
      </trkpt>
      <trkpt lat="47.8454" lon="6.92327">
        <ele>1003</ele>
        <time>2015-08-09T10:46:42Z</time>
      </trkpt>
      <trkpt lat="47.8454" lon="6.92327">
        <ele>1003</ele>
        <time>2015-08-09T10:46:45Z</time>
      </trkpt>
      <trkpt lat="47.8454" lon="6.92327">
        <ele>1003</ele>
        <time>2015-08-09T10:46:48Z</time>
      </trkpt>
      <trkpt lat="47.8454" lon="6.92327">
        <ele>1003</ele>
        <time>2015-08-09T10:46:51Z</time>
      </trkpt>
      <trkpt lat="47.8454" lon="6.92327">
        <ele>1003</ele>
        <time>2015-08-09T10:46:54Z</time>
      </trkpt>
      <trkpt lat="47.8454" lon="6.92327">
        <ele>1003</ele>
        <time>2015-08-09T10:46:57Z</time>
      </trkpt>
      <trkpt lat="47.8454" lon="6.92327">
        <ele>1003</ele>
        <time>2015-08-09T10:47:00Z</time>
      </trkpt>
      <trkpt lat="47.8454" lon="6.92327">
        <ele>1003</ele>
        <time>2015-08-09T10:47:03Z</time>
      </trkpt>
      <trkpt lat="47.8454" lon="6.92327">
        <ele>1003</ele>
        <time>2015-08-09T10:47:06Z</time>
      </trkpt>
      <trkpt lat="47.8454" lon="6.92327">
        <ele>1003</ele>
        <time>2015-08-09T10:47:09Z</time>
      </trkpt>
      <trkpt lat="47.8454" lon="6.92327">
        <ele>1003</ele>
        <time>2015-08-09T10:47:12Z</time>
      </trkpt>
      <trkpt lat="47.8454" lon="6.92327">
        <ele>1003</ele>
        <time>2015-08-09T10:47:17Z</time>
      </trkpt>
      <trkpt lat="47.8454" lon="6.92327">
        <ele>1003</ele>
        <time>2015-08-09T10:47:18Z</time>
      </trkpt>
      <trkpt lat="47.8454" lon="6.92327">
        <ele>1003</ele>
        <time>2015-08-09T10:47:21Z</time>
      </trkpt>
      <trkpt lat="47.8454" lon="6.92327">
        <ele>1003</ele>
        <time>2015-08-09T10:47:24Z</time>
      </trkpt>
      <trkpt lat="47.8454" lon="6.92327">
        <ele>1003</ele>
        <time>2015-08-09T10:47:27Z</time>
      </trkpt>
      <trkpt lat="47.8454" lon="6.92327">
        <ele>1003</ele>
        <time>2015-08-09T10:47:30Z</time>
      </trkpt>
      <trkpt lat="47.8454" lon="6.92327">
        <ele>1003</ele>
        <time>2015-08-09T10:47:33Z</time>
      </trkpt>
      <trkpt lat="47.8454" lon="6.92327">
        <ele>1003</ele>
        <time>2015-08-09T10:47:36Z</time>
      </trkpt>
      <trkpt lat="47.8454" lon="6.92327">
        <ele>1003</ele>
        <time>2015-08-09T10:47:39Z</time>
      </trkpt>
      <trkpt lat="47.8454" lon="6.92327">
        <ele>1003</ele>
        <time>2015-08-09T10:47:42Z</time>
      </trkpt>
      <trkpt lat="47.8454" lon="6.92327">
        <ele>1003</ele>
        <time>2015-08-09T10:47:45Z</time>
      </trkpt>
      <trkpt lat="47.8454" lon="6.92327">
        <ele>1003</ele>
        <time>2015-08-09T10:47:49Z</time>
      </trkpt>
      <trkpt lat="47.8454" lon="6.92327">
        <ele>1003</ele>
        <time>2015-08-09T10:47:51Z</time>
      </trkpt>
      <trkpt lat="47.8454" lon="6.92327">
        <ele>1003</ele>
        <time>2015-08-09T10:47:54Z</time>
      </trkpt>
      <trkpt lat="47.8454" lon="6.92327">
        <ele>1003</ele>
        <time>2015-08-09T10:47:59Z</time>
      </trkpt>
      <trkpt lat="47.8454" lon="6.92327">
        <ele>1003</ele>
        <time>2015-08-09T10:48:01Z</time>
      </trkpt>
      <trkpt lat="47.8454" lon="6.92327">
        <ele>1003</ele>
        <time>2015-08-09T10:48:03Z</time>
      </trkpt>
      <trkpt lat="47.8454" lon="6.92327">
        <ele>1003</ele>
        <time>2015-08-09T10:48:06Z</time>
      </trkpt>
      <trkpt lat="47.8454" lon="6.92327">
        <ele>1003</ele>
        <time>2015-08-09T10:48:10Z</time>
      </trkpt>
      <trkpt lat="47.8454" lon="6.92327">
        <ele>1003</ele>
        <time>2015-08-09T10:48:12Z</time>
      </trkpt>
      <trkpt lat="47.8454" lon="6.92327">
        <ele>1003</ele>
        <time>2015-08-09T10:48:15Z</time>
      </trkpt>
      <trkpt lat="47.8454" lon="6.92327">
        <ele>1003</ele>
        <time>2015-08-09T10:48:19Z</time>
      </trkpt>
      <trkpt lat="47.8454" lon="6.92327">
        <ele>1003</ele>
        <time>2015-08-09T10:48:21Z</time>
      </trkpt>
      <trkpt lat="47.8454" lon="6.92327">
        <ele>1003</ele>
        <time>2015-08-09T10:48:24Z</time>
      </trkpt>
      <trkpt lat="47.8454" lon="6.92327">
        <ele>1003</ele>
        <time>2015-08-09T10:48:29Z</time>
      </trkpt>
      <trkpt lat="47.8454" lon="6.92327">
        <ele>1003</ele>
        <time>2015-08-09T10:48:30Z</time>
      </trkpt>
      <trkpt lat="47.8454" lon="6.92327">
        <ele>1003</ele>
        <time>2015-08-09T10:48:34Z</time>
      </trkpt>
      <trkpt lat="47.8454" lon="6.92327">
        <ele>1003</ele>
        <time>2015-08-09T10:48:36Z</time>
      </trkpt>
      <trkpt lat="47.8454" lon="6.92327">
        <ele>1004</ele>
        <time>2015-08-09T10:48:39Z</time>
      </trkpt>
      <trkpt lat="47.8454" lon="6.92327">
        <ele>1004</ele>
        <time>2015-08-09T10:48:42Z</time>
      </trkpt>
      <trkpt lat="47.8454" lon="6.92327">
        <ele>1004</ele>
        <time>2015-08-09T10:48:45Z</time>
      </trkpt>
      <trkpt lat="47.8454" lon="6.92327">
        <ele>1004</ele>
        <time>2015-08-09T10:48:48Z</time>
      </trkpt>
      <trkpt lat="47.8454" lon="6.92327">
        <ele>1004</ele>
        <time>2015-08-09T10:48:51Z</time>
      </trkpt>
      <trkpt lat="47.8454" lon="6.92327">
        <ele>1004</ele>
        <time>2015-08-09T10:48:54Z</time>
      </trkpt>
      <trkpt lat="47.8454" lon="6.92327">
        <ele>1004</ele>
        <time>2015-08-09T10:48:57Z</time>
      </trkpt>
      <trkpt lat="47.8454" lon="6.92327">
        <ele>1004</ele>
        <time>2015-08-09T10:49:00Z</time>
      </trkpt>
      <trkpt lat="47.8454" lon="6.92327">
        <ele>1004</ele>
        <time>2015-08-09T10:49:03Z</time>
      </trkpt>
      <trkpt lat="47.8454" lon="6.92327">
        <ele>1004</ele>
        <time>2015-08-09T10:49:06Z</time>
      </trkpt>
      <trkpt lat="47.8454" lon="6.92327">
        <ele>1004</ele>
        <time>2015-08-09T10:49:09Z</time>
      </trkpt>
      <trkpt lat="47.8454" lon="6.92327">
        <ele>1004</ele>
        <time>2015-08-09T10:49:12Z</time>
      </trkpt>
      <trkpt lat="47.8454" lon="6.92327">
        <ele>1004</ele>
        <time>2015-08-09T10:49:15Z</time>
      </trkpt>
      <trkpt lat="47.8454" lon="6.92327">
        <ele>1004</ele>
        <time>2015-08-09T10:49:19Z</time>
      </trkpt>
      <trkpt lat="47.8454" lon="6.92327">
        <ele>1004</ele>
        <time>2015-08-09T10:49:21Z</time>
      </trkpt>
      <trkpt lat="47.8454" lon="6.92327">
        <ele>1004</ele>
        <time>2015-08-09T10:49:24Z</time>
      </trkpt>
      <trkpt lat="47.8454" lon="6.92327">
        <ele>1004</ele>
        <time>2015-08-09T10:49:27Z</time>
      </trkpt>
      <trkpt lat="47.8454" lon="6.92327">
        <ele>1004</ele>
        <time>2015-08-09T10:49:30Z</time>
      </trkpt>
      <trkpt lat="47.8454" lon="6.92327">
        <ele>1004</ele>
        <time>2015-08-09T10:49:33Z</time>
      </trkpt>
      <trkpt lat="47.8454" lon="6.92327">
        <ele>1004</ele>
        <time>2015-08-09T10:49:37Z</time>
      </trkpt>
      <trkpt lat="47.8454" lon="6.92328">
        <ele>1004</ele>
        <time>2015-08-09T10:49:39Z</time>
      </trkpt>
      <trkpt lat="47.8454" lon="6.92328">
        <ele>1004</ele>
        <time>2015-08-09T10:49:42Z</time>
      </trkpt>
      <trkpt lat="47.8454" lon="6.92328">
        <ele>1004</ele>
        <time>2015-08-09T10:49:45Z</time>
      </trkpt>
      <trkpt lat="47.8454" lon="6.92328">
        <ele>1004</ele>
        <time>2015-08-09T10:49:48Z</time>
      </trkpt>
      <trkpt lat="47.8454" lon="6.92328">
        <ele>1004</ele>
        <time>2015-08-09T10:49:52Z</time>
      </trkpt>
      <trkpt lat="47.8454" lon="6.92328">
        <ele>1004</ele>
        <time>2015-08-09T10:49:54Z</time>
      </trkpt>
      <trkpt lat="47.8454" lon="6.92328">
        <ele>1004</ele>
        <time>2015-08-09T10:49:57Z</time>
      </trkpt>
      <trkpt lat="47.8454" lon="6.92328">
        <ele>1004</ele>
        <time>2015-08-09T10:50:00Z</time>
      </trkpt>
      <trkpt lat="47.8454" lon="6.92328">
        <ele>1004</ele>
        <time>2015-08-09T10:50:03Z</time>
      </trkpt>
      <trkpt lat="47.8454" lon="6.92328">
        <ele>1004</ele>
        <time>2015-08-09T10:50:06Z</time>
      </trkpt>
      <trkpt lat="47.8454" lon="6.92328">
        <ele>1004</ele>
        <time>2015-08-09T10:50:10Z</time>
      </trkpt>
      <trkpt lat="47.8454" lon="6.92328">
        <ele>1004</ele>
        <time>2015-08-09T10:50:12Z</time>
      </trkpt>
      <trkpt lat="47.8454" lon="6.92328">
        <ele>1004</ele>
        <time>2015-08-09T10:50:15Z</time>
      </trkpt>
      <trkpt lat="47.8454" lon="6.92328">
        <ele>1004</ele>
        <time>2015-08-09T10:50:18Z</time>
      </trkpt>
      <trkpt lat="47.8454" lon="6.92328">
        <ele>1004</ele>
        <time>2015-08-09T10:50:21Z</time>
      </trkpt>
      <trkpt lat="47.8454" lon="6.92328">
        <ele>1004</ele>
        <time>2015-08-09T10:50:24Z</time>
      </trkpt>
      <trkpt lat="47.8454" lon="6.92328">
        <ele>1004</ele>
        <time>2015-08-09T10:50:27Z</time>
      </trkpt>
      <trkpt lat="47.8454" lon="6.92328">
        <ele>1004</ele>
        <time>2015-08-09T10:50:30Z</time>
      </trkpt>
      <trkpt lat="47.8454" lon="6.92328">
        <ele>1004</ele>
        <time>2015-08-09T10:50:33Z</time>
      </trkpt>
      <trkpt lat="47.8454" lon="6.92328">
        <ele>1004</ele>
        <time>2015-08-09T10:50:38Z</time>
      </trkpt>
      <trkpt lat="47.8454" lon="6.92328">
        <ele>1004</ele>
        <time>2015-08-09T10:50:40Z</time>
      </trkpt>
      <trkpt lat="47.8454" lon="6.92328">
        <ele>1004</ele>
        <time>2015-08-09T10:50:43Z</time>
      </trkpt>
      <trkpt lat="47.8454" lon="6.92328">
        <ele>1004</ele>
        <time>2015-08-09T10:50:45Z</time>
      </trkpt>
      <trkpt lat="47.8454" lon="6.92328">
        <ele>1004</ele>
        <time>2015-08-09T10:50:48Z</time>
      </trkpt>
      <trkpt lat="47.8454" lon="6.92328">
        <ele>1004</ele>
        <time>2015-08-09T10:50:51Z</time>
      </trkpt>
      <trkpt lat="47.8454" lon="6.92328">
        <ele>1004</ele>
        <time>2015-08-09T10:50:56Z</time>
      </trkpt>
      <trkpt lat="47.8454" lon="6.92328">
        <ele>1004</ele>
        <time>2015-08-09T10:50:58Z</time>
      </trkpt>
      <trkpt lat="47.8454" lon="6.92328">
        <ele>1004</ele>
        <time>2015-08-09T10:51:00Z</time>
      </trkpt>
      <trkpt lat="47.8454" lon="6.92328">
        <ele>1004</ele>
        <time>2015-08-09T10:51:03Z</time>
      </trkpt>
      <trkpt lat="47.8454" lon="6.92328">
        <ele>1004</ele>
        <time>2015-08-09T10:51:06Z</time>
      </trkpt>
      <trkpt lat="47.8454" lon="6.92328">
        <ele>1004</ele>
        <time>2015-08-09T10:51:10Z</time>
      </trkpt>
      <trkpt lat="47.8454" lon="6.92328">
        <ele>1004</ele>
        <time>2015-08-09T10:51:12Z</time>
      </trkpt>
      <trkpt lat="47.8454" lon="6.92328">
        <ele>1004</ele>
        <time>2015-08-09T10:51:15Z</time>
      </trkpt>
      <trkpt lat="47.8454" lon="6.92328">
        <ele>1004</ele>
        <time>2015-08-09T10:51:18Z</time>
      </trkpt>
      <trkpt lat="47.8454" lon="6.92328">
        <ele>1004</ele>
        <time>2015-08-09T10:51:21Z</time>
      </trkpt>
      <trkpt lat="47.8454" lon="6.92328">
        <ele>1004</ele>
        <time>2015-08-09T10:51:24Z</time>
      </trkpt>
      <trkpt lat="47.8454" lon="6.92328">
        <ele>1004</ele>
        <time>2015-08-09T10:51:28Z</time>
      </trkpt>
      <trkpt lat="47.8454" lon="6.92328">
        <ele>1004</ele>
        <time>2015-08-09T10:51:30Z</time>
      </trkpt>
      <trkpt lat="47.8454" lon="6.92328">
        <ele>1004</ele>
        <time>2015-08-09T10:51:33Z</time>
      </trkpt>
      <trkpt lat="47.8454" lon="6.92328">
        <ele>1004</ele>
        <time>2015-08-09T10:51:36Z</time>
      </trkpt>
      <trkpt lat="47.8454" lon="6.92328">
        <ele>1004</ele>
        <time>2015-08-09T10:51:39Z</time>
      </trkpt>
      <trkpt lat="47.8454" lon="6.92328">
        <ele>1004</ele>
        <time>2015-08-09T10:51:42Z</time>
      </trkpt>
      <trkpt lat="47.8454" lon="6.92328">
        <ele>1004</ele>
        <time>2015-08-09T10:51:45Z</time>
      </trkpt>
      <trkpt lat="47.8454" lon="6.92328">
        <ele>1004</ele>
        <time>2015-08-09T10:51:49Z</time>
      </trkpt>
      <trkpt lat="47.8454" lon="6.92328">
        <ele>1004</ele>
        <time>2015-08-09T10:51:51Z</time>
      </trkpt>
      <trkpt lat="47.8454" lon="6.92328">
        <ele>1004</ele>
        <time>2015-08-09T10:51:54Z</time>
      </trkpt>
      <trkpt lat="47.8454" lon="6.92328">
        <ele>1004</ele>
        <time>2015-08-09T10:51:58Z</time>
      </trkpt>
      <trkpt lat="47.8454" lon="6.92328">
        <ele>1004</ele>
        <time>2015-08-09T10:52:00Z</time>
      </trkpt>
      <trkpt lat="47.8454" lon="6.92328">
        <ele>1004</ele>
        <time>2015-08-09T10:52:03Z</time>
      </trkpt>
      <trkpt lat="47.8454" lon="6.92328">
        <ele>1004</ele>
        <time>2015-08-09T10:52:06Z</time>
      </trkpt>
      <trkpt lat="47.8454" lon="6.92328">
        <ele>1004</ele>
        <time>2015-08-09T10:52:09Z</time>
      </trkpt>
      <trkpt lat="47.8454" lon="6.92328">
        <ele>1004</ele>
        <time>2015-08-09T10:52:13Z</time>
      </trkpt>
      <trkpt lat="47.8454" lon="6.92328">
        <ele>1004</ele>
        <time>2015-08-09T10:52:15Z</time>
      </trkpt>
      <trkpt lat="47.8454" lon="6.92328">
        <ele>1004</ele>
        <time>2015-08-09T10:52:18Z</time>
      </trkpt>
      <trkpt lat="47.8454" lon="6.92328">
        <ele>1004</ele>
        <time>2015-08-09T10:52:21Z</time>
      </trkpt>
      <trkpt lat="47.8454" lon="6.92328">
        <ele>1004</ele>
        <time>2015-08-09T10:52:24Z</time>
      </trkpt>
      <trkpt lat="47.8454" lon="6.92328">
        <ele>1004</ele>
        <time>2015-08-09T10:52:27Z</time>
      </trkpt>
      <trkpt lat="47.8454" lon="6.92328">
        <ele>1004</ele>
        <time>2015-08-09T10:52:30Z</time>
      </trkpt>
      <trkpt lat="47.8454" lon="6.92328">
        <ele>1004</ele>
        <time>2015-08-09T10:52:33Z</time>
      </trkpt>
      <trkpt lat="47.8454" lon="6.92328">
        <ele>1004</ele>
        <time>2015-08-09T10:52:36Z</time>
      </trkpt>
      <trkpt lat="47.8454" lon="6.92328">
        <ele>1004</ele>
        <time>2015-08-09T10:52:39Z</time>
      </trkpt>
      <trkpt lat="47.8454" lon="6.92328">
        <ele>1004</ele>
        <time>2015-08-09T10:52:42Z</time>
      </trkpt>
      <trkpt lat="47.8454" lon="6.92328">
        <ele>1004</ele>
        <time>2015-08-09T10:52:47Z</time>
      </trkpt>
      <trkpt lat="47.8454" lon="6.92328">
        <ele>1004</ele>
        <time>2015-08-09T10:52:50Z</time>
      </trkpt>
      <trkpt lat="47.8454" lon="6.92328">
        <ele>1004</ele>
        <time>2015-08-09T10:52:51Z</time>
      </trkpt>
      <trkpt lat="47.8454" lon="6.92328">
        <ele>1004</ele>
        <time>2015-08-09T10:52:56Z</time>
      </trkpt>
      <trkpt lat="47.8454" lon="6.92328">
        <ele>1004</ele>
        <time>2015-08-09T10:52:59Z</time>
      </trkpt>
      <trkpt lat="47.8454" lon="6.92328">
        <ele>1004</ele>
        <time>2015-08-09T10:53:00Z</time>
      </trkpt>
      <trkpt lat="47.8454" lon="6.92328">
        <ele>1004</ele>
        <time>2015-08-09T10:53:03Z</time>
      </trkpt>
      <trkpt lat="47.8454" lon="6.92328">
        <ele>1004</ele>
        <time>2015-08-09T10:53:06Z</time>
      </trkpt>
      <trkpt lat="47.8454" lon="6.92328">
        <ele>1004</ele>
        <time>2015-08-09T10:53:09Z</time>
      </trkpt>
      <trkpt lat="47.8454" lon="6.92328">
        <ele>1004</ele>
        <time>2015-08-09T10:53:14Z</time>
      </trkpt>
      <trkpt lat="47.8454" lon="6.92328">
        <ele>1004</ele>
        <time>2015-08-09T10:53:15Z</time>
      </trkpt>
      <trkpt lat="47.8454" lon="6.92328">
        <ele>1004</ele>
        <time>2015-08-09T10:53:18Z</time>
      </trkpt>
      <trkpt lat="47.8454" lon="6.92328">
        <ele>1004</ele>
        <time>2015-08-09T10:53:22Z</time>
      </trkpt>
      <trkpt lat="47.8454" lon="6.92328">
        <ele>1004</ele>
        <time>2015-08-09T10:53:24Z</time>
      </trkpt>
      <trkpt lat="47.8454" lon="6.92328">
        <ele>1004</ele>
        <time>2015-08-09T10:53:28Z</time>
      </trkpt>
      <trkpt lat="47.8454" lon="6.92328">
        <ele>1004</ele>
        <time>2015-08-09T10:53:30Z</time>
      </trkpt>
      <trkpt lat="47.8454" lon="6.92328">
        <ele>1004</ele>
        <time>2015-08-09T10:53:34Z</time>
      </trkpt>
      <trkpt lat="47.8454" lon="6.92328">
        <ele>1004</ele>
        <time>2015-08-09T10:53:38Z</time>
      </trkpt>
      <trkpt lat="47.8454" lon="6.92328">
        <ele>1004</ele>
        <time>2015-08-09T10:53:39Z</time>
      </trkpt>
      <trkpt lat="47.8454" lon="6.92328">
        <ele>1004</ele>
        <time>2015-08-09T10:53:42Z</time>
      </trkpt>
      <trkpt lat="47.8454" lon="6.92328">
        <ele>1004</ele>
        <time>2015-08-09T10:53:45Z</time>
      </trkpt>
      <trkpt lat="47.8454" lon="6.92328">
        <ele>1004</ele>
        <time>2015-08-09T10:53:50Z</time>
      </trkpt>
      <trkpt lat="47.8454" lon="6.92328">
        <ele>1004</ele>
        <time>2015-08-09T10:53:51Z</time>
      </trkpt>
      <trkpt lat="47.8454" lon="6.92328">
        <ele>1004</ele>
        <time>2015-08-09T10:53:55Z</time>
      </trkpt>
      <trkpt lat="47.8454" lon="6.92328">
        <ele>1004</ele>
        <time>2015-08-09T10:53:57Z</time>
      </trkpt>
      <trkpt lat="47.8454" lon="6.92328">
        <ele>1004</ele>
        <time>2015-08-09T10:54:00Z</time>
      </trkpt>
      <trkpt lat="47.8454" lon="6.92328">
        <ele>1004</ele>
        <time>2015-08-09T10:54:03Z</time>
      </trkpt>
      <trkpt lat="47.8454" lon="6.92328">
        <ele>1004</ele>
        <time>2015-08-09T10:54:06Z</time>
      </trkpt>
      <trkpt lat="47.8454" lon="6.92328">
        <ele>1004</ele>
        <time>2015-08-09T10:54:09Z</time>
      </trkpt>
      <trkpt lat="47.8454" lon="6.92328">
        <ele>1004</ele>
        <time>2015-08-09T10:54:12Z</time>
      </trkpt>
      <trkpt lat="47.8454" lon="6.92328">
        <ele>1004</ele>
        <time>2015-08-09T10:54:15Z</time>
      </trkpt>
      <trkpt lat="47.8454" lon="6.92328">
        <ele>1004</ele>
        <time>2015-08-09T10:54:19Z</time>
      </trkpt>
      <trkpt lat="47.8454" lon="6.92328">
        <ele>1004</ele>
        <time>2015-08-09T10:54:22Z</time>
      </trkpt>
      <trkpt lat="47.8454" lon="6.92328">
        <ele>1004</ele>
        <time>2015-08-09T10:54:26Z</time>
      </trkpt>
      <trkpt lat="47.8454" lon="6.92328">
        <ele>1004</ele>
        <time>2015-08-09T10:54:27Z</time>
      </trkpt>
      <trkpt lat="47.8454" lon="6.92328">
        <ele>1004</ele>
        <time>2015-08-09T10:54:31Z</time>
      </trkpt>
      <trkpt lat="47.8454" lon="6.92328">
        <ele>1004</ele>
        <time>2015-08-09T10:54:33Z</time>
      </trkpt>
      <trkpt lat="47.8454" lon="6.92328">
        <ele>1004</ele>
        <time>2015-08-09T10:54:36Z</time>
      </trkpt>
      <trkpt lat="47.8454" lon="6.92328">
        <ele>1004</ele>
        <time>2015-08-09T10:54:39Z</time>
      </trkpt>
      <trkpt lat="47.8454" lon="6.92328">
        <ele>1004</ele>
        <time>2015-08-09T10:54:42Z</time>
      </trkpt>
      <trkpt lat="47.8454" lon="6.92328">
        <ele>1004</ele>
        <time>2015-08-09T10:54:45Z</time>
      </trkpt>
      <trkpt lat="47.8454" lon="6.92328">
        <ele>1004</ele>
        <time>2015-08-09T10:54:48Z</time>
      </trkpt>
      <trkpt lat="47.8454" lon="6.92328">
        <ele>1004</ele>
        <time>2015-08-09T10:54:52Z</time>
      </trkpt>
      <trkpt lat="47.8454" lon="6.92328">
        <ele>1004</ele>
        <time>2015-08-09T10:54:54Z</time>
      </trkpt>
      <trkpt lat="47.8454" lon="6.92328">
        <ele>1004</ele>
        <time>2015-08-09T10:54:58Z</time>
      </trkpt>
      <trkpt lat="47.8454" lon="6.92328">
        <ele>1004</ele>
        <time>2015-08-09T10:55:00Z</time>
      </trkpt>
      <trkpt lat="47.8454" lon="6.92328">
        <ele>1004</ele>
        <time>2015-08-09T10:55:04Z</time>
      </trkpt>
      <trkpt lat="47.8454" lon="6.92328">
        <ele>1004</ele>
        <time>2015-08-09T10:55:06Z</time>
      </trkpt>
      <trkpt lat="47.8454" lon="6.92328">
        <ele>1004</ele>
        <time>2015-08-09T10:55:11Z</time>
      </trkpt>
      <trkpt lat="47.8454" lon="6.92328">
        <ele>1004</ele>
        <time>2015-08-09T10:55:12Z</time>
      </trkpt>
      <trkpt lat="47.8454" lon="6.92328">
        <ele>1004</ele>
        <time>2015-08-09T10:55:15Z</time>
      </trkpt>
      <trkpt lat="47.8454" lon="6.92328">
        <ele>1004</ele>
        <time>2015-08-09T10:55:18Z</time>
      </trkpt>
      <trkpt lat="47.8454" lon="6.92328">
        <ele>1004</ele>
        <time>2015-08-09T10:55:21Z</time>
      </trkpt>
      <trkpt lat="47.8454" lon="6.92328">
        <ele>1004</ele>
        <time>2015-08-09T10:55:24Z</time>
      </trkpt>
      <trkpt lat="47.8454" lon="6.92328">
        <ele>1004</ele>
        <time>2015-08-09T10:55:27Z</time>
      </trkpt>
      <trkpt lat="47.8454" lon="6.92328">
        <ele>1004</ele>
        <time>2015-08-09T10:55:30Z</time>
      </trkpt>
      <trkpt lat="47.8454" lon="6.92328">
        <ele>1004</ele>
        <time>2015-08-09T10:55:33Z</time>
      </trkpt>
      <trkpt lat="47.8454" lon="6.92328">
        <ele>1005</ele>
        <time>2015-08-09T10:55:36Z</time>
      </trkpt>
      <trkpt lat="47.8454" lon="6.92328">
        <ele>1005</ele>
        <time>2015-08-09T10:55:39Z</time>
      </trkpt>
      <trkpt lat="47.8454" lon="6.92328">
        <ele>1005</ele>
        <time>2015-08-09T10:55:42Z</time>
      </trkpt>
      <trkpt lat="47.8454" lon="6.92328">
        <ele>1005</ele>
        <time>2015-08-09T10:55:45Z</time>
      </trkpt>
      <trkpt lat="47.8454" lon="6.92328">
        <ele>1005</ele>
        <time>2015-08-09T10:55:48Z</time>
      </trkpt>
      <trkpt lat="47.8454" lon="6.92328">
        <ele>1005</ele>
        <time>2015-08-09T10:55:51Z</time>
      </trkpt>
      <trkpt lat="47.8454" lon="6.92328">
        <ele>1005</ele>
        <time>2015-08-09T10:55:56Z</time>
      </trkpt>
      <trkpt lat="47.8454" lon="6.92328">
        <ele>1005</ele>
        <time>2015-08-09T10:55:57Z</time>
      </trkpt>
      <trkpt lat="47.8454" lon="6.92328">
        <ele>1005</ele>
        <time>2015-08-09T10:56:00Z</time>
      </trkpt>
      <trkpt lat="47.8454" lon="6.92328">
        <ele>1005</ele>
        <time>2015-08-09T10:56:05Z</time>
      </trkpt>
      <trkpt lat="47.8454" lon="6.92328">
        <ele>1004</ele>
        <time>2015-08-09T10:56:06Z</time>
      </trkpt>
      <trkpt lat="47.8454" lon="6.92328">
        <ele>1004</ele>
        <time>2015-08-09T10:56:09Z</time>
      </trkpt>
      <trkpt lat="47.8454" lon="6.92328">
        <ele>1004</ele>
        <time>2015-08-09T10:56:12Z</time>
      </trkpt>
      <trkpt lat="47.8454" lon="6.92328">
        <ele>1004</ele>
        <time>2015-08-09T10:56:15Z</time>
      </trkpt>
      <trkpt lat="47.8454" lon="6.92328">
        <ele>1004</ele>
        <time>2015-08-09T10:56:18Z</time>
      </trkpt>
      <trkpt lat="47.8454" lon="6.92328">
        <ele>1005</ele>
        <time>2015-08-09T10:56:21Z</time>
      </trkpt>
      <trkpt lat="47.8454" lon="6.92328">
        <ele>1004</ele>
        <time>2015-08-09T10:56:24Z</time>
      </trkpt>
      <trkpt lat="47.8454" lon="6.92328">
        <ele>1004</ele>
        <time>2015-08-09T10:56:29Z</time>
      </trkpt>
      <trkpt lat="47.8454" lon="6.92328">
        <ele>1004</ele>
        <time>2015-08-09T10:56:30Z</time>
      </trkpt>
      <trkpt lat="47.8454" lon="6.92328">
        <ele>1005</ele>
        <time>2015-08-09T10:56:33Z</time>
      </trkpt>
      <trkpt lat="47.8454" lon="6.92328">
        <ele>1005</ele>
        <time>2015-08-09T10:56:36Z</time>
      </trkpt>
      <trkpt lat="47.8454" lon="6.92328">
        <ele>1005</ele>
        <time>2015-08-09T10:56:39Z</time>
      </trkpt>
      <trkpt lat="47.8454" lon="6.92328">
        <ele>1005</ele>
        <time>2015-08-09T10:56:44Z</time>
      </trkpt>
      <trkpt lat="47.8454" lon="6.92328">
        <ele>1005</ele>
        <time>2015-08-09T10:56:45Z</time>
      </trkpt>
      <trkpt lat="47.8454" lon="6.92328">
        <ele>1005</ele>
        <time>2015-08-09T10:56:48Z</time>
      </trkpt>
      <trkpt lat="47.8454" lon="6.92328">
        <ele>1005</ele>
        <time>2015-08-09T10:56:51Z</time>
      </trkpt>
      <trkpt lat="47.8454" lon="6.92328">
        <ele>1005</ele>
        <time>2015-08-09T10:56:54Z</time>
      </trkpt>
      <trkpt lat="47.8454" lon="6.92328">
        <ele>1005</ele>
        <time>2015-08-09T10:56:58Z</time>
      </trkpt>
      <trkpt lat="47.8454" lon="6.92328">
        <ele>1005</ele>
        <time>2015-08-09T10:57:00Z</time>
      </trkpt>
      <trkpt lat="47.8454" lon="6.92328">
        <ele>1005</ele>
        <time>2015-08-09T10:57:04Z</time>
      </trkpt>
      <trkpt lat="47.8454" lon="6.92328">
        <ele>1005</ele>
        <time>2015-08-09T10:57:06Z</time>
      </trkpt>
      <trkpt lat="47.8454" lon="6.92328">
        <ele>1005</ele>
        <time>2015-08-09T10:57:09Z</time>
      </trkpt>
      <trkpt lat="47.8454" lon="6.92328">
        <ele>1005</ele>
        <time>2015-08-09T10:57:14Z</time>
      </trkpt>
      <trkpt lat="47.8454" lon="6.92328">
        <ele>1005</ele>
        <time>2015-08-09T10:57:15Z</time>
      </trkpt>
      <trkpt lat="47.8454" lon="6.92328">
        <ele>1005</ele>
        <time>2015-08-09T10:57:18Z</time>
      </trkpt>
      <trkpt lat="47.8454" lon="6.92328">
        <ele>1005</ele>
        <time>2015-08-09T10:57:22Z</time>
      </trkpt>
      <trkpt lat="47.8454" lon="6.92328">
        <ele>1005</ele>
        <time>2015-08-09T10:57:26Z</time>
      </trkpt>
      <trkpt lat="47.8454" lon="6.92328">
        <ele>1005</ele>
        <time>2015-08-09T10:57:29Z</time>
      </trkpt>
      <trkpt lat="47.8454" lon="6.92328">
        <ele>1005</ele>
        <time>2015-08-09T10:57:30Z</time>
      </trkpt>
      <trkpt lat="47.8454" lon="6.92328">
        <ele>1005</ele>
        <time>2015-08-09T10:57:33Z</time>
      </trkpt>
      <trkpt lat="47.8454" lon="6.92328">
        <ele>1005</ele>
        <time>2015-08-09T10:57:38Z</time>
      </trkpt>
      <trkpt lat="47.8454" lon="6.92328">
        <ele>1005</ele>
        <time>2015-08-09T10:57:39Z</time>
      </trkpt>
      <trkpt lat="47.8454" lon="6.92328">
        <ele>1005</ele>
        <time>2015-08-09T10:57:42Z</time>
      </trkpt>
      <trkpt lat="47.8454" lon="6.92328">
        <ele>1005</ele>
        <time>2015-08-09T10:57:45Z</time>
      </trkpt>
      <trkpt lat="47.8454" lon="6.92328">
        <ele>1005</ele>
        <time>2015-08-09T10:57:48Z</time>
      </trkpt>
      <trkpt lat="47.8454" lon="6.92328">
        <ele>1005</ele>
        <time>2015-08-09T10:57:52Z</time>
      </trkpt>
      <trkpt lat="47.8454" lon="6.92328">
        <ele>1005</ele>
        <time>2015-08-09T10:57:54Z</time>
      </trkpt>
      <trkpt lat="47.8454" lon="6.92328">
        <ele>1005</ele>
        <time>2015-08-09T10:57:58Z</time>
      </trkpt>
      <trkpt lat="47.8454" lon="6.92328">
        <ele>1005</ele>
        <time>2015-08-09T10:58:00Z</time>
      </trkpt>
      <trkpt lat="47.8454" lon="6.92328">
        <ele>1005</ele>
        <time>2015-08-09T10:58:03Z</time>
      </trkpt>
      <trkpt lat="47.8454" lon="6.92328">
        <ele>1005</ele>
        <time>2015-08-09T10:58:07Z</time>
      </trkpt>
      <trkpt lat="47.8454" lon="6.92328">
        <ele>1005</ele>
        <time>2015-08-09T10:58:09Z</time>
      </trkpt>
      <trkpt lat="47.8454" lon="6.92328">
        <ele>1005</ele>
        <time>2015-08-09T10:58:13Z</time>
      </trkpt>
      <trkpt lat="47.8454" lon="6.92328">
        <ele>1005</ele>
        <time>2015-08-09T10:58:16Z</time>
      </trkpt>
      <trkpt lat="47.8454" lon="6.92328">
        <ele>1005</ele>
        <time>2015-08-09T10:58:18Z</time>
      </trkpt>
      <trkpt lat="47.8454" lon="6.92328">
        <ele>1005</ele>
        <time>2015-08-09T10:58:22Z</time>
      </trkpt>
      <trkpt lat="47.8454" lon="6.92328">
        <ele>1005</ele>
        <time>2015-08-09T10:58:25Z</time>
      </trkpt>
      <trkpt lat="47.8454" lon="6.92328">
        <ele>1005</ele>
        <time>2015-08-09T10:58:27Z</time>
      </trkpt>
      <trkpt lat="47.8454" lon="6.92328">
        <ele>1005</ele>
        <time>2015-08-09T10:58:30Z</time>
      </trkpt>
      <trkpt lat="47.8454" lon="6.92328">
        <ele>1005</ele>
        <time>2015-08-09T10:58:35Z</time>
      </trkpt>
      <trkpt lat="47.8454" lon="6.92328">
        <ele>1005</ele>
        <time>2015-08-09T10:58:36Z</time>
      </trkpt>
      <trkpt lat="47.8454" lon="6.92328">
        <ele>1005</ele>
        <time>2015-08-09T10:58:39Z</time>
      </trkpt>
      <trkpt lat="47.8454" lon="6.92328">
        <ele>1005</ele>
        <time>2015-08-09T10:58:42Z</time>
      </trkpt>
      <trkpt lat="47.8454" lon="6.92328">
        <ele>1005</ele>
        <time>2015-08-09T10:58:45Z</time>
      </trkpt>
      <trkpt lat="47.8454" lon="6.92328">
        <ele>1004</ele>
        <time>2015-08-09T10:58:48Z</time>
      </trkpt>
      <trkpt lat="47.8454" lon="6.92328">
        <ele>1004</ele>
        <time>2015-08-09T10:58:51Z</time>
      </trkpt>
      <trkpt lat="47.8454" lon="6.92328">
        <ele>1004</ele>
        <time>2015-08-09T10:58:56Z</time>
      </trkpt>
      <trkpt lat="47.8454" lon="6.92328">
        <ele>1004</ele>
        <time>2015-08-09T10:58:57Z</time>
      </trkpt>
      <trkpt lat="47.8454" lon="6.92328">
        <ele>1004</ele>
        <time>2015-08-09T10:59:02Z</time>
      </trkpt>
      <trkpt lat="47.8454" lon="6.92328">
        <ele>1004</ele>
        <time>2015-08-09T10:59:03Z</time>
      </trkpt>
      <trkpt lat="47.8454" lon="6.92328">
        <ele>1004</ele>
        <time>2015-08-09T10:59:06Z</time>
      </trkpt>
      <trkpt lat="47.8454" lon="6.92328">
        <ele>1004</ele>
        <time>2015-08-09T10:59:09Z</time>
      </trkpt>
      <trkpt lat="47.8454" lon="6.92328">
        <ele>1004</ele>
        <time>2015-08-09T10:59:12Z</time>
      </trkpt>
      <trkpt lat="47.8454" lon="6.92328">
        <ele>1004</ele>
        <time>2015-08-09T10:59:15Z</time>
      </trkpt>
      <trkpt lat="47.8454" lon="6.92328">
        <ele>1004</ele>
        <time>2015-08-09T10:59:18Z</time>
      </trkpt>
      <trkpt lat="47.8454" lon="6.92328">
        <ele>1004</ele>
        <time>2015-08-09T10:59:21Z</time>
      </trkpt>
      <trkpt lat="47.8454" lon="6.92328">
        <ele>1004</ele>
        <time>2015-08-09T10:59:24Z</time>
      </trkpt>
      <trkpt lat="47.8454" lon="6.92328">
        <ele>1004</ele>
        <time>2015-08-09T10:59:27Z</time>
      </trkpt>
      <trkpt lat="47.8454" lon="6.92328">
        <ele>1004</ele>
        <time>2015-08-09T10:59:30Z</time>
      </trkpt>
      <trkpt lat="47.8454" lon="6.92328">
        <ele>1004</ele>
        <time>2015-08-09T10:59:33Z</time>
      </trkpt>
      <trkpt lat="47.8454" lon="6.92328">
        <ele>1004</ele>
        <time>2015-08-09T10:59:37Z</time>
      </trkpt>
      <trkpt lat="47.8454" lon="6.92328">
        <ele>1004</ele>
        <time>2015-08-09T10:59:39Z</time>
      </trkpt>
      <trkpt lat="47.8454" lon="6.92328">
        <ele>1004</ele>
        <time>2015-08-09T10:59:42Z</time>
      </trkpt>
      <trkpt lat="47.8454" lon="6.92328">
        <ele>1004</ele>
        <time>2015-08-09T10:59:45Z</time>
      </trkpt>
      <trkpt lat="47.8454" lon="6.92328">
        <ele>1004</ele>
        <time>2015-08-09T10:59:48Z</time>
      </trkpt>
      <trkpt lat="47.8454" lon="6.92328">
        <ele>1004</ele>
        <time>2015-08-09T10:59:51Z</time>
      </trkpt>
      <trkpt lat="47.8454" lon="6.92328">
        <ele>1004</ele>
        <time>2015-08-09T10:59:54Z</time>
      </trkpt>
      <trkpt lat="47.8454" lon="6.92328">
        <ele>1004</ele>
        <time>2015-08-09T10:59:59Z</time>
      </trkpt>
      <trkpt lat="47.8454" lon="6.92328">
        <ele>1004</ele>
        <time>2015-08-09T11:00:02Z</time>
      </trkpt>
      <trkpt lat="47.8454" lon="6.92328">
        <ele>1004</ele>
        <time>2015-08-09T11:00:03Z</time>
      </trkpt>
      <trkpt lat="47.8454" lon="6.92328">
        <ele>1004</ele>
        <time>2015-08-09T11:00:06Z</time>
      </trkpt>
      <trkpt lat="47.8454" lon="6.92328">
        <ele>1004</ele>
        <time>2015-08-09T11:00:09Z</time>
      </trkpt>
      <trkpt lat="47.8454" lon="6.92328">
        <ele>1004</ele>
        <time>2015-08-09T11:00:12Z</time>
      </trkpt>
      <trkpt lat="47.8454" lon="6.92328">
        <ele>1004</ele>
        <time>2015-08-09T11:00:15Z</time>
      </trkpt>
      <trkpt lat="47.8454" lon="6.92328">
        <ele>1004</ele>
        <time>2015-08-09T11:00:18Z</time>
      </trkpt>
      <trkpt lat="47.8454" lon="6.92328">
        <ele>1004</ele>
        <time>2015-08-09T11:00:22Z</time>
      </trkpt>
      <trkpt lat="47.8454" lon="6.92328">
        <ele>1004</ele>
        <time>2015-08-09T11:00:24Z</time>
      </trkpt>
      <trkpt lat="47.8454" lon="6.92328">
        <ele>1004</ele>
        <time>2015-08-09T11:00:28Z</time>
      </trkpt>
      <trkpt lat="47.8454" lon="6.92328">
        <ele>1004</ele>
        <time>2015-08-09T11:00:30Z</time>
      </trkpt>
      <trkpt lat="47.8454" lon="6.92328">
        <ele>1004</ele>
        <time>2015-08-09T11:00:33Z</time>
      </trkpt>
      <trkpt lat="47.8454" lon="6.92328">
        <ele>1004</ele>
        <time>2015-08-09T11:00:36Z</time>
      </trkpt>
      <trkpt lat="47.8454" lon="6.92328">
        <ele>1004</ele>
        <time>2015-08-09T11:00:39Z</time>
      </trkpt>
      <trkpt lat="47.8454" lon="6.92328">
        <ele>1004</ele>
        <time>2015-08-09T11:00:42Z</time>
      </trkpt>
      <trkpt lat="47.8454" lon="6.92328">
        <ele>1004</ele>
        <time>2015-08-09T11:00:45Z</time>
      </trkpt>
      <trkpt lat="47.8454" lon="6.92328">
        <ele>1004</ele>
        <time>2015-08-09T11:00:48Z</time>
      </trkpt>
      <trkpt lat="47.8454" lon="6.92328">
        <ele>1004</ele>
        <time>2015-08-09T11:00:51Z</time>
      </trkpt>
      <trkpt lat="47.8454" lon="6.92328">
        <ele>1004</ele>
        <time>2015-08-09T11:00:54Z</time>
      </trkpt>
      <trkpt lat="47.8454" lon="6.92328">
        <ele>1004</ele>
        <time>2015-08-09T11:00:57Z</time>
      </trkpt>
      <trkpt lat="47.8454" lon="6.92328">
        <ele>1004</ele>
        <time>2015-08-09T11:01:00Z</time>
      </trkpt>
      <trkpt lat="47.8454" lon="6.92328">
        <ele>1004</ele>
        <time>2015-08-09T11:01:03Z</time>
      </trkpt>
      <trkpt lat="47.8454" lon="6.92328">
        <ele>1004</ele>
        <time>2015-08-09T11:01:06Z</time>
      </trkpt>
      <trkpt lat="47.8454" lon="6.92328">
        <ele>1004</ele>
        <time>2015-08-09T11:01:09Z</time>
      </trkpt>
      <trkpt lat="47.8454" lon="6.92328">
        <ele>1004</ele>
        <time>2015-08-09T11:01:12Z</time>
      </trkpt>
      <trkpt lat="47.8454" lon="6.92328">
        <ele>1004</ele>
        <time>2015-08-09T11:01:15Z</time>
      </trkpt>
      <trkpt lat="47.8454" lon="6.92328">
        <ele>1004</ele>
        <time>2015-08-09T11:01:18Z</time>
      </trkpt>
      <trkpt lat="47.8454" lon="6.92328">
        <ele>1004</ele>
        <time>2015-08-09T11:01:21Z</time>
      </trkpt>
      <trkpt lat="47.8454" lon="6.92328">
        <ele>1004</ele>
        <time>2015-08-09T11:01:24Z</time>
      </trkpt>
      <trkpt lat="47.8454" lon="6.92328">
        <ele>1004</ele>
        <time>2015-08-09T11:01:27Z</time>
      </trkpt>
      <trkpt lat="47.8454" lon="6.92328">
        <ele>1004</ele>
        <time>2015-08-09T11:01:30Z</time>
      </trkpt>
      <trkpt lat="47.8454" lon="6.92328">
        <ele>1004</ele>
        <time>2015-08-09T11:01:33Z</time>
      </trkpt>
      <trkpt lat="47.8454" lon="6.92328">
        <ele>1004</ele>
        <time>2015-08-09T11:01:38Z</time>
      </trkpt>
      <trkpt lat="47.8454" lon="6.92328">
        <ele>1004</ele>
        <time>2015-08-09T11:01:39Z</time>
      </trkpt>
      <trkpt lat="47.8454" lon="6.92328">
        <ele>1004</ele>
        <time>2015-08-09T11:01:42Z</time>
      </trkpt>
      <trkpt lat="47.8454" lon="6.92328">
        <ele>1004</ele>
        <time>2015-08-09T11:01:46Z</time>
      </trkpt>
      <trkpt lat="47.8454" lon="6.92328">
        <ele>1004</ele>
        <time>2015-08-09T11:01:50Z</time>
      </trkpt>
      <trkpt lat="47.8454" lon="6.92328">
        <ele>1004</ele>
        <time>2015-08-09T11:01:51Z</time>
      </trkpt>
      <trkpt lat="47.8454" lon="6.92328">
        <ele>1004</ele>
        <time>2015-08-09T11:01:54Z</time>
      </trkpt>
      <trkpt lat="47.8454" lon="6.92328">
        <ele>1004</ele>
        <time>2015-08-09T11:01:57Z</time>
      </trkpt>
      <trkpt lat="47.8454" lon="6.92328">
        <ele>1004</ele>
        <time>2015-08-09T11:02:01Z</time>
      </trkpt>
      <trkpt lat="47.8454" lon="6.92328">
        <ele>1004</ele>
        <time>2015-08-09T11:02:05Z</time>
      </trkpt>
      <trkpt lat="47.8454" lon="6.92328">
        <ele>1004</ele>
        <time>2015-08-09T11:02:06Z</time>
      </trkpt>
      <trkpt lat="47.8454" lon="6.92328">
        <ele>1004</ele>
        <time>2015-08-09T11:02:09Z</time>
      </trkpt>
      <trkpt lat="47.8454" lon="6.92328">
        <ele>1004</ele>
        <time>2015-08-09T11:02:12Z</time>
      </trkpt>
      <trkpt lat="47.8454" lon="6.92328">
        <ele>1004</ele>
        <time>2015-08-09T11:02:15Z</time>
      </trkpt>
      <trkpt lat="47.8454" lon="6.92328">
        <ele>1004</ele>
        <time>2015-08-09T11:02:18Z</time>
      </trkpt>
      <trkpt lat="47.8454" lon="6.92328">
        <ele>1004</ele>
        <time>2015-08-09T11:02:21Z</time>
      </trkpt>
      <trkpt lat="47.8454" lon="6.92328">
        <ele>1004</ele>
        <time>2015-08-09T11:02:26Z</time>
      </trkpt>
      <trkpt lat="47.8454" lon="6.92328">
        <ele>1004</ele>
        <time>2015-08-09T11:02:27Z</time>
      </trkpt>
      <trkpt lat="47.8454" lon="6.92328">
        <ele>1004</ele>
        <time>2015-08-09T11:02:30Z</time>
      </trkpt>
      <trkpt lat="47.8454" lon="6.92328">
        <ele>1004</ele>
        <time>2015-08-09T11:02:33Z</time>
      </trkpt>
      <trkpt lat="47.8454" lon="6.92328">
        <ele>1004</ele>
        <time>2015-08-09T11:02:36Z</time>
      </trkpt>
      <trkpt lat="47.8454" lon="6.92328">
        <ele>1004</ele>
        <time>2015-08-09T11:02:39Z</time>
      </trkpt>
      <trkpt lat="47.8454" lon="6.92328">
        <ele>1004</ele>
        <time>2015-08-09T11:02:43Z</time>
      </trkpt>
      <trkpt lat="47.8454" lon="6.92328">
        <ele>1005</ele>
        <time>2015-08-09T11:02:45Z</time>
      </trkpt>
      <trkpt lat="47.8454" lon="6.92328">
        <ele>1005</ele>
        <time>2015-08-09T11:02:48Z</time>
      </trkpt>
      <trkpt lat="47.8454" lon="6.92328">
        <ele>1005</ele>
        <time>2015-08-09T11:02:51Z</time>
      </trkpt>
      <trkpt lat="47.8454" lon="6.92328">
        <ele>1005</ele>
        <time>2015-08-09T11:02:54Z</time>
      </trkpt>
      <trkpt lat="47.8454" lon="6.92328">
        <ele>1005</ele>
        <time>2015-08-09T11:02:57Z</time>
      </trkpt>
      <trkpt lat="47.8454" lon="6.92328">
        <ele>1004</ele>
        <time>2015-08-09T11:03:00Z</time>
      </trkpt>
      <trkpt lat="47.8454" lon="6.92328">
        <ele>1004</ele>
        <time>2015-08-09T11:03:04Z</time>
      </trkpt>
      <trkpt lat="47.8454" lon="6.92328">
        <ele>1005</ele>
        <time>2015-08-09T11:03:07Z</time>
      </trkpt>
      <trkpt lat="47.8454" lon="6.92328">
        <ele>1005</ele>
        <time>2015-08-09T11:03:11Z</time>
      </trkpt>
      <trkpt lat="47.8454" lon="6.92328">
        <ele>1005</ele>
        <time>2015-08-09T11:03:12Z</time>
      </trkpt>
      <trkpt lat="47.8454" lon="6.92328">
        <ele>1005</ele>
        <time>2015-08-09T11:03:15Z</time>
      </trkpt>
      <trkpt lat="47.8454" lon="6.92328">
        <ele>1005</ele>
        <time>2015-08-09T11:03:18Z</time>
      </trkpt>
      <trkpt lat="47.8454" lon="6.92328">
        <ele>1004</ele>
        <time>2015-08-09T11:03:21Z</time>
      </trkpt>
      <trkpt lat="47.8454" lon="6.92328">
        <ele>1004</ele>
        <time>2015-08-09T11:03:26Z</time>
      </trkpt>
      <trkpt lat="47.8454" lon="6.92328">
        <ele>1004</ele>
        <time>2015-08-09T11:03:27Z</time>
      </trkpt>
      <trkpt lat="47.8454" lon="6.92328">
        <ele>1004</ele>
        <time>2015-08-09T11:03:30Z</time>
      </trkpt>
      <trkpt lat="47.8454" lon="6.92328">
        <ele>1005</ele>
        <time>2015-08-09T11:03:33Z</time>
      </trkpt>
      <trkpt lat="47.8454" lon="6.92328">
        <ele>1005</ele>
        <time>2015-08-09T11:03:36Z</time>
      </trkpt>
      <trkpt lat="47.8454" lon="6.92328">
        <ele>1005</ele>
        <time>2015-08-09T11:03:39Z</time>
      </trkpt>
      <trkpt lat="47.8454" lon="6.92328">
        <ele>1004</ele>
        <time>2015-08-09T11:03:42Z</time>
      </trkpt>
      <trkpt lat="47.8454" lon="6.92328">
        <ele>1005</ele>
        <time>2015-08-09T11:03:45Z</time>
      </trkpt>
      <trkpt lat="47.8454" lon="6.92328">
        <ele>1004</ele>
        <time>2015-08-09T11:03:48Z</time>
      </trkpt>
      <trkpt lat="47.8454" lon="6.92328">
        <ele>1004</ele>
        <time>2015-08-09T11:03:51Z</time>
      </trkpt>
      <trkpt lat="47.8454" lon="6.92328">
        <ele>1004</ele>
        <time>2015-08-09T11:03:56Z</time>
      </trkpt>
      <trkpt lat="47.8454" lon="6.92328">
        <ele>1004</ele>
        <time>2015-08-09T11:03:57Z</time>
      </trkpt>
      <trkpt lat="47.8454" lon="6.92328">
        <ele>1004</ele>
        <time>2015-08-09T11:04:00Z</time>
      </trkpt>
      <trkpt lat="47.8454" lon="6.92328">
        <ele>1004</ele>
        <time>2015-08-09T11:04:03Z</time>
      </trkpt>
      <trkpt lat="47.8454" lon="6.92328">
        <ele>1004</ele>
        <time>2015-08-09T11:04:06Z</time>
      </trkpt>
      <trkpt lat="47.8454" lon="6.92328">
        <ele>1004</ele>
        <time>2015-08-09T11:04:09Z</time>
      </trkpt>
      <trkpt lat="47.8454" lon="6.92328">
        <ele>1004</ele>
        <time>2015-08-09T11:04:12Z</time>
      </trkpt>
      <trkpt lat="47.8454" lon="6.92328">
        <ele>1004</ele>
        <time>2015-08-09T11:04:16Z</time>
      </trkpt>
      <trkpt lat="47.8454" lon="6.92328">
        <ele>1004</ele>
        <time>2015-08-09T11:04:18Z</time>
      </trkpt>
      <trkpt lat="47.8454" lon="6.92328">
        <ele>1004</ele>
        <time>2015-08-09T11:04:21Z</time>
      </trkpt>
      <trkpt lat="47.8454" lon="6.92328">
        <ele>1004</ele>
        <time>2015-08-09T11:04:24Z</time>
      </trkpt>
      <trkpt lat="47.8454" lon="6.92328">
        <ele>1005</ele>
        <time>2015-08-09T11:04:27Z</time>
      </trkpt>
      <trkpt lat="47.8454" lon="6.92328">
        <ele>1005</ele>
        <time>2015-08-09T11:04:30Z</time>
      </trkpt>
      <trkpt lat="47.8454" lon="6.92328">
        <ele>1005</ele>
        <time>2015-08-09T11:04:33Z</time>
      </trkpt>
      <trkpt lat="47.8454" lon="6.92328">
        <ele>1005</ele>
        <time>2015-08-09T11:04:36Z</time>
      </trkpt>
      <trkpt lat="47.8454" lon="6.92328">
        <ele>1005</ele>
        <time>2015-08-09T11:04:39Z</time>
      </trkpt>
      <trkpt lat="47.8454" lon="6.92328">
        <ele>1005</ele>
        <time>2015-08-09T11:04:42Z</time>
      </trkpt>
      <trkpt lat="47.8454" lon="6.92328">
        <ele>1005</ele>
        <time>2015-08-09T11:04:45Z</time>
      </trkpt>
      <trkpt lat="47.8454" lon="6.92328">
        <ele>1005</ele>
        <time>2015-08-09T11:04:48Z</time>
      </trkpt>
      <trkpt lat="47.8454" lon="6.92328">
        <ele>1005</ele>
        <time>2015-08-09T11:04:51Z</time>
      </trkpt>
      <trkpt lat="47.8454" lon="6.92328">
        <ele>1005</ele>
        <time>2015-08-09T11:04:54Z</time>
      </trkpt>
      <trkpt lat="47.8454" lon="6.92328">
        <ele>1005</ele>
        <time>2015-08-09T11:04:59Z</time>
      </trkpt>
      <trkpt lat="47.8454" lon="6.92328">
        <ele>1005</ele>
        <time>2015-08-09T11:05:00Z</time>
      </trkpt>
      <trkpt lat="47.8454" lon="6.92328">
        <ele>1005</ele>
        <time>2015-08-09T11:05:03Z</time>
      </trkpt>
      <trkpt lat="47.8454" lon="6.92328">
        <ele>1005</ele>
        <time>2015-08-09T11:05:07Z</time>
      </trkpt>
      <trkpt lat="47.8454" lon="6.92328">
        <ele>1005</ele>
        <time>2015-08-09T11:05:09Z</time>
      </trkpt>
      <trkpt lat="47.8454" lon="6.92328">
        <ele>1005</ele>
        <time>2015-08-09T11:05:12Z</time>
      </trkpt>
      <trkpt lat="47.8454" lon="6.92328">
        <ele>1005</ele>
        <time>2015-08-09T11:05:15Z</time>
      </trkpt>
      <trkpt lat="47.8454" lon="6.92328">
        <ele>1005</ele>
        <time>2015-08-09T11:05:18Z</time>
      </trkpt>
      <trkpt lat="47.8454" lon="6.92328">
        <ele>1005</ele>
        <time>2015-08-09T11:05:21Z</time>
      </trkpt>
      <trkpt lat="47.8454" lon="6.92328">
        <ele>1005</ele>
        <time>2015-08-09T11:05:26Z</time>
      </trkpt>
      <trkpt lat="47.8454" lon="6.92328">
        <ele>1005</ele>
        <time>2015-08-09T11:05:27Z</time>
      </trkpt>
      <trkpt lat="47.8454" lon="6.92328">
        <ele>1005</ele>
        <time>2015-08-09T11:05:30Z</time>
      </trkpt>
      <trkpt lat="47.8454" lon="6.92328">
        <ele>1005</ele>
        <time>2015-08-09T11:05:33Z</time>
      </trkpt>
      <trkpt lat="47.8454" lon="6.92328">
        <ele>1005</ele>
        <time>2015-08-09T11:05:38Z</time>
      </trkpt>
      <trkpt lat="47.8454" lon="6.92328">
        <ele>1005</ele>
        <time>2015-08-09T11:05:40Z</time>
      </trkpt>
      <trkpt lat="47.8454" lon="6.92328">
        <ele>1005</ele>
        <time>2015-08-09T11:05:42Z</time>
      </trkpt>
      <trkpt lat="47.8454" lon="6.92328">
        <ele>1005</ele>
        <time>2015-08-09T11:05:45Z</time>
      </trkpt>
      <trkpt lat="47.8454" lon="6.92328">
        <ele>1005</ele>
        <time>2015-08-09T11:05:48Z</time>
      </trkpt>
      <trkpt lat="47.8454" lon="6.92328">
        <ele>1005</ele>
        <time>2015-08-09T11:05:51Z</time>
      </trkpt>
      <trkpt lat="47.8454" lon="6.92328">
        <ele>1005</ele>
        <time>2015-08-09T11:05:54Z</time>
      </trkpt>
      <trkpt lat="47.8454" lon="6.92328">
        <ele>1005</ele>
        <time>2015-08-09T11:05:57Z</time>
      </trkpt>
      <trkpt lat="47.8454" lon="6.92328">
        <ele>1005</ele>
        <time>2015-08-09T11:06:00Z</time>
      </trkpt>
      <trkpt lat="47.8454" lon="6.92328">
        <ele>1005</ele>
        <time>2015-08-09T11:06:05Z</time>
      </trkpt>
      <trkpt lat="47.8454" lon="6.92328">
        <ele>1005</ele>
        <time>2015-08-09T11:06:06Z</time>
      </trkpt>
      <trkpt lat="47.8454" lon="6.92328">
        <ele>1005</ele>
        <time>2015-08-09T11:06:09Z</time>
      </trkpt>
      <trkpt lat="47.8454" lon="6.92328">
        <ele>1005</ele>
        <time>2015-08-09T11:06:14Z</time>
      </trkpt>
      <trkpt lat="47.8454" lon="6.92328">
        <ele>1005</ele>
        <time>2015-08-09T11:06:15Z</time>
      </trkpt>
      <trkpt lat="47.8454" lon="6.92328">
        <ele>1005</ele>
        <time>2015-08-09T11:06:20Z</time>
      </trkpt>
      <trkpt lat="47.8454" lon="6.92328">
        <ele>1005</ele>
        <time>2015-08-09T11:06:21Z</time>
      </trkpt>
      <trkpt lat="47.8454" lon="6.92328">
        <ele>1005</ele>
        <time>2015-08-09T11:06:25Z</time>
      </trkpt>
      <trkpt lat="47.8454" lon="6.92328">
        <ele>1005</ele>
        <time>2015-08-09T11:06:27Z</time>
      </trkpt>
      <trkpt lat="47.8454" lon="6.92328">
        <ele>1005</ele>
        <time>2015-08-09T11:06:32Z</time>
      </trkpt>
      <trkpt lat="47.8454" lon="6.92328">
        <ele>1005</ele>
        <time>2015-08-09T11:06:33Z</time>
      </trkpt>
      <trkpt lat="47.8454" lon="6.92328">
        <ele>1005</ele>
        <time>2015-08-09T11:06:36Z</time>
      </trkpt>
      <trkpt lat="47.8454" lon="6.92328">
        <ele>1005</ele>
        <time>2015-08-09T11:06:39Z</time>
      </trkpt>
      <trkpt lat="47.8454" lon="6.92328">
        <ele>1005</ele>
        <time>2015-08-09T11:06:43Z</time>
      </trkpt>
      <trkpt lat="47.8454" lon="6.92328">
        <ele>1005</ele>
        <time>2015-08-09T11:06:47Z</time>
      </trkpt>
      <trkpt lat="47.8454" lon="6.92328">
        <ele>1005</ele>
        <time>2015-08-09T11:06:48Z</time>
      </trkpt>
      <trkpt lat="47.8454" lon="6.92328">
        <ele>1005</ele>
        <time>2015-08-09T11:06:51Z</time>
      </trkpt>
      <trkpt lat="47.8454" lon="6.92328">
        <ele>1005</ele>
        <time>2015-08-09T11:06:54Z</time>
      </trkpt>
      <trkpt lat="47.8454" lon="6.92328">
        <ele>1005</ele>
        <time>2015-08-09T11:06:57Z</time>
      </trkpt>
      <trkpt lat="47.8454" lon="6.92328">
        <ele>1005</ele>
        <time>2015-08-09T11:07:00Z</time>
      </trkpt>
      <trkpt lat="47.8454" lon="6.92328">
        <ele>1005</ele>
        <time>2015-08-09T11:07:03Z</time>
      </trkpt>
      <trkpt lat="47.8454" lon="6.92328">
        <ele>1005</ele>
        <time>2015-08-09T11:07:06Z</time>
      </trkpt>
      <trkpt lat="47.8454" lon="6.92328">
        <ele>1005</ele>
        <time>2015-08-09T11:07:09Z</time>
      </trkpt>
      <trkpt lat="47.8454" lon="6.92328">
        <ele>1005</ele>
        <time>2015-08-09T11:07:12Z</time>
      </trkpt>
      <trkpt lat="47.8454" lon="6.92328">
        <ele>1005</ele>
        <time>2015-08-09T11:07:15Z</time>
      </trkpt>
      <trkpt lat="47.8454" lon="6.92328">
        <ele>1005</ele>
        <time>2015-08-09T11:07:18Z</time>
      </trkpt>
      <trkpt lat="47.8454" lon="6.92328">
        <ele>1005</ele>
        <time>2015-08-09T11:07:21Z</time>
      </trkpt>
      <trkpt lat="47.8454" lon="6.92328">
        <ele>1005</ele>
        <time>2015-08-09T11:07:24Z</time>
      </trkpt>
      <trkpt lat="47.8454" lon="6.92328">
        <ele>1005</ele>
        <time>2015-08-09T11:07:27Z</time>
      </trkpt>
      <trkpt lat="47.8454" lon="6.92328">
        <ele>1005</ele>
        <time>2015-08-09T11:07:32Z</time>
      </trkpt>
      <trkpt lat="47.8454" lon="6.92328">
        <ele>1005</ele>
        <time>2015-08-09T11:07:33Z</time>
      </trkpt>
      <trkpt lat="47.8454" lon="6.92328">
        <ele>1005</ele>
        <time>2015-08-09T11:07:36Z</time>
      </trkpt>
      <trkpt lat="47.8454" lon="6.92328">
        <ele>1005</ele>
        <time>2015-08-09T11:07:39Z</time>
      </trkpt>
      <trkpt lat="47.8454" lon="6.92328">
        <ele>1005</ele>
        <time>2015-08-09T11:07:42Z</time>
      </trkpt>
      <trkpt lat="47.8454" lon="6.92328">
        <ele>1005</ele>
        <time>2015-08-09T11:07:45Z</time>
      </trkpt>
      <trkpt lat="47.8454" lon="6.92328">
        <ele>1005</ele>
        <time>2015-08-09T11:07:48Z</time>
      </trkpt>
      <trkpt lat="47.8454" lon="6.92328">
        <ele>1005</ele>
        <time>2015-08-09T11:07:53Z</time>
      </trkpt>
      <trkpt lat="47.8454" lon="6.92328">
        <ele>1005</ele>
        <time>2015-08-09T11:07:54Z</time>
      </trkpt>
      <trkpt lat="47.84541" lon="6.92328">
        <ele>1007</ele>
        <time>2015-08-09T11:07:57Z</time>
      </trkpt>
      <trkpt lat="47.84542" lon="6.92327">
        <ele>1008</ele>
        <time>2015-08-09T11:08:06Z</time>
      </trkpt>
      <trkpt lat="47.84542" lon="6.92327">
        <ele>1008</ele>
        <time>2015-08-09T11:08:09Z</time>
      </trkpt>
      <trkpt lat="47.84542" lon="6.92327">
        <ele>1008</ele>
        <time>2015-08-09T11:08:12Z</time>
      </trkpt>
      <trkpt lat="47.84541" lon="6.92327">
        <ele>1009</ele>
        <time>2015-08-09T11:08:15Z</time>
      </trkpt>
      <trkpt lat="47.84541" lon="6.92327">
        <ele>1009</ele>
        <time>2015-08-09T11:08:18Z</time>
      </trkpt>
      <trkpt lat="47.84541" lon="6.92326">
        <ele>1009</ele>
        <time>2015-08-09T11:08:21Z</time>
      </trkpt>
      <trkpt lat="47.84541" lon="6.92325">
        <ele>1010</ele>
        <time>2015-08-09T11:08:27Z</time>
      </trkpt>
      <trkpt lat="47.84541" lon="6.92325">
        <ele>1010</ele>
        <time>2015-08-09T11:08:32Z</time>
      </trkpt>
      <trkpt lat="47.84541" lon="6.92325">
        <ele>1010</ele>
        <time>2015-08-09T11:08:33Z</time>
      </trkpt>
      <trkpt lat="47.84541" lon="6.92325">
        <ele>1010</ele>
        <time>2015-08-09T11:08:36Z</time>
      </trkpt>
      <trkpt lat="47.84541" lon="6.92325">
        <ele>1010</ele>
        <time>2015-08-09T11:08:39Z</time>
      </trkpt>
      <trkpt lat="47.84541" lon="6.92325">
        <ele>1010</ele>
        <time>2015-08-09T11:08:42Z</time>
      </trkpt>
      <trkpt lat="47.84541" lon="6.92325">
        <ele>1010</ele>
        <time>2015-08-09T11:08:45Z</time>
      </trkpt>
      <trkpt lat="47.84541" lon="6.92325">
        <ele>1010</ele>
        <time>2015-08-09T11:08:48Z</time>
      </trkpt>
      <trkpt lat="47.84541" lon="6.92325">
        <ele>1010</ele>
        <time>2015-08-09T11:08:51Z</time>
      </trkpt>
      <trkpt lat="47.84541" lon="6.92325">
        <ele>1010</ele>
        <time>2015-08-09T11:08:54Z</time>
      </trkpt>
      <trkpt lat="47.84541" lon="6.92325">
        <ele>1010</ele>
        <time>2015-08-09T11:08:57Z</time>
      </trkpt>
      <trkpt lat="47.84541" lon="6.92325">
        <ele>1010</ele>
        <time>2015-08-09T11:09:00Z</time>
      </trkpt>
      <trkpt lat="47.84541" lon="6.92325">
        <ele>1010</ele>
        <time>2015-08-09T11:09:03Z</time>
      </trkpt>
      <trkpt lat="47.84541" lon="6.92325">
        <ele>1010</ele>
        <time>2015-08-09T11:09:06Z</time>
      </trkpt>
      <trkpt lat="47.84541" lon="6.92325">
        <ele>1010</ele>
        <time>2015-08-09T11:09:09Z</time>
      </trkpt>
      <trkpt lat="47.84541" lon="6.92325">
        <ele>1010</ele>
        <time>2015-08-09T11:09:12Z</time>
      </trkpt>
      <trkpt lat="47.84541" lon="6.92325">
        <ele>1010</ele>
        <time>2015-08-09T11:09:15Z</time>
      </trkpt>
      <trkpt lat="47.84541" lon="6.92325">
        <ele>1010</ele>
        <time>2015-08-09T11:09:18Z</time>
      </trkpt>
      <trkpt lat="47.84541" lon="6.92325">
        <ele>1010</ele>
        <time>2015-08-09T11:09:22Z</time>
      </trkpt>
      <trkpt lat="47.84541" lon="6.92325">
        <ele>1010</ele>
        <time>2015-08-09T11:09:24Z</time>
      </trkpt>
      <trkpt lat="47.84541" lon="6.92325">
        <ele>1010</ele>
        <time>2015-08-09T11:09:27Z</time>
      </trkpt>
      <trkpt lat="47.84541" lon="6.92325">
        <ele>1010</ele>
        <time>2015-08-09T11:09:30Z</time>
      </trkpt>
      <trkpt lat="47.84541" lon="6.92325">
        <ele>1010</ele>
        <time>2015-08-09T11:09:33Z</time>
      </trkpt>
      <trkpt lat="47.84541" lon="6.92325">
        <ele>1010</ele>
        <time>2015-08-09T11:09:36Z</time>
      </trkpt>
      <trkpt lat="47.84541" lon="6.92325">
        <ele>1010</ele>
        <time>2015-08-09T11:09:40Z</time>
      </trkpt>
      <trkpt lat="47.84541" lon="6.92325">
        <ele>1010</ele>
        <time>2015-08-09T11:09:42Z</time>
      </trkpt>
      <trkpt lat="47.84541" lon="6.92325">
        <ele>1010</ele>
        <time>2015-08-09T11:09:45Z</time>
      </trkpt>
      <trkpt lat="47.84541" lon="6.92325">
        <ele>1010</ele>
        <time>2015-08-09T11:09:48Z</time>
      </trkpt>
      <trkpt lat="47.84541" lon="6.92325">
        <ele>1010</ele>
        <time>2015-08-09T11:09:51Z</time>
      </trkpt>
      <trkpt lat="47.84541" lon="6.92325">
        <ele>1010</ele>
        <time>2015-08-09T11:09:54Z</time>
      </trkpt>
      <trkpt lat="47.84541" lon="6.92325">
        <ele>1010</ele>
        <time>2015-08-09T11:09:57Z</time>
      </trkpt>
      <trkpt lat="47.84541" lon="6.92325">
        <ele>1010</ele>
        <time>2015-08-09T11:10:00Z</time>
      </trkpt>
      <trkpt lat="47.84541" lon="6.92325">
        <ele>1010</ele>
        <time>2015-08-09T11:10:05Z</time>
      </trkpt>
      <trkpt lat="47.84541" lon="6.92325">
        <ele>1010</ele>
        <time>2015-08-09T11:10:08Z</time>
      </trkpt>
      <trkpt lat="47.84541" lon="6.92325">
        <ele>1010</ele>
        <time>2015-08-09T11:10:09Z</time>
      </trkpt>
      <trkpt lat="47.84541" lon="6.92325">
        <ele>1010</ele>
        <time>2015-08-09T11:10:12Z</time>
      </trkpt>
      <trkpt lat="47.84541" lon="6.92325">
        <ele>1010</ele>
        <time>2015-08-09T11:10:15Z</time>
      </trkpt>
      <trkpt lat="47.84541" lon="6.92325">
        <ele>1010</ele>
        <time>2015-08-09T11:10:18Z</time>
      </trkpt>
      <trkpt lat="47.84541" lon="6.92325">
        <ele>1010</ele>
        <time>2015-08-09T11:10:23Z</time>
      </trkpt>
      <trkpt lat="47.84541" lon="6.92325">
        <ele>1010</ele>
        <time>2015-08-09T11:10:24Z</time>
      </trkpt>
      <trkpt lat="47.84541" lon="6.92325">
        <ele>1010</ele>
        <time>2015-08-09T11:10:27Z</time>
      </trkpt>
      <trkpt lat="47.84541" lon="6.92325">
        <ele>1010</ele>
        <time>2015-08-09T11:10:30Z</time>
      </trkpt>
      <trkpt lat="47.84541" lon="6.92325">
        <ele>1010</ele>
        <time>2015-08-09T11:10:33Z</time>
      </trkpt>
      <trkpt lat="47.84541" lon="6.92325">
        <ele>1010</ele>
        <time>2015-08-09T11:10:36Z</time>
      </trkpt>
      <trkpt lat="47.84541" lon="6.92325">
        <ele>1010</ele>
        <time>2015-08-09T11:10:39Z</time>
      </trkpt>
      <trkpt lat="47.84541" lon="6.92325">
        <ele>1010</ele>
        <time>2015-08-09T11:10:42Z</time>
      </trkpt>
      <trkpt lat="47.84541" lon="6.92325">
        <ele>1010</ele>
        <time>2015-08-09T11:10:45Z</time>
      </trkpt>
      <trkpt lat="47.84541" lon="6.92325">
        <ele>1010</ele>
        <time>2015-08-09T11:10:48Z</time>
      </trkpt>
      <trkpt lat="47.84541" lon="6.92325">
        <ele>1010</ele>
        <time>2015-08-09T11:10:51Z</time>
      </trkpt>
      <trkpt lat="47.84541" lon="6.92325">
        <ele>1010</ele>
        <time>2015-08-09T11:10:54Z</time>
      </trkpt>
      <trkpt lat="47.84541" lon="6.92325">
        <ele>1010</ele>
        <time>2015-08-09T11:10:58Z</time>
      </trkpt>
      <trkpt lat="47.84541" lon="6.92325">
        <ele>1010</ele>
        <time>2015-08-09T11:11:00Z</time>
      </trkpt>
      <trkpt lat="47.84541" lon="6.92325">
        <ele>1010</ele>
        <time>2015-08-09T11:11:03Z</time>
      </trkpt>
      <trkpt lat="47.84541" lon="6.92325">
        <ele>1010</ele>
        <time>2015-08-09T11:11:06Z</time>
      </trkpt>
      <trkpt lat="47.84541" lon="6.92325">
        <ele>1010</ele>
        <time>2015-08-09T11:11:09Z</time>
      </trkpt>
      <trkpt lat="47.84541" lon="6.92325">
        <ele>1010</ele>
        <time>2015-08-09T11:11:12Z</time>
      </trkpt>
      <trkpt lat="47.84541" lon="6.92325">
        <ele>1010</ele>
        <time>2015-08-09T11:11:15Z</time>
      </trkpt>
      <trkpt lat="47.84541" lon="6.92325">
        <ele>1010</ele>
        <time>2015-08-09T11:11:18Z</time>
      </trkpt>
      <trkpt lat="47.84541" lon="6.92325">
        <ele>1010</ele>
        <time>2015-08-09T11:11:21Z</time>
      </trkpt>
      <trkpt lat="47.84541" lon="6.92325">
        <ele>1010</ele>
        <time>2015-08-09T11:11:24Z</time>
      </trkpt>
      <trkpt lat="47.84541" lon="6.92325">
        <ele>1010</ele>
        <time>2015-08-09T11:11:27Z</time>
      </trkpt>
      <trkpt lat="47.84541" lon="6.92325">
        <ele>1010</ele>
        <time>2015-08-09T11:11:32Z</time>
      </trkpt>
      <trkpt lat="47.84541" lon="6.92325">
        <ele>1010</ele>
        <time>2015-08-09T11:11:33Z</time>
      </trkpt>
      <trkpt lat="47.84541" lon="6.92325">
        <ele>1010</ele>
        <time>2015-08-09T11:11:36Z</time>
      </trkpt>
      <trkpt lat="47.84541" lon="6.92325">
        <ele>1010</ele>
        <time>2015-08-09T11:11:39Z</time>
      </trkpt>
      <trkpt lat="47.84541" lon="6.92325">
        <ele>1010</ele>
        <time>2015-08-09T11:11:42Z</time>
      </trkpt>
      <trkpt lat="47.84541" lon="6.92325">
        <ele>1010</ele>
        <time>2015-08-09T11:11:45Z</time>
      </trkpt>
      <trkpt lat="47.84541" lon="6.92325">
        <ele>1010</ele>
        <time>2015-08-09T11:11:48Z</time>
      </trkpt>
      <trkpt lat="47.84541" lon="6.92325">
        <ele>1010</ele>
        <time>2015-08-09T11:11:51Z</time>
      </trkpt>
      <trkpt lat="47.84541" lon="6.92325">
        <ele>1010</ele>
        <time>2015-08-09T11:11:54Z</time>
      </trkpt>
      <trkpt lat="47.84541" lon="6.92325">
        <ele>1010</ele>
        <time>2015-08-09T11:11:57Z</time>
      </trkpt>
      <trkpt lat="47.84541" lon="6.92325">
        <ele>1010</ele>
        <time>2015-08-09T11:12:00Z</time>
      </trkpt>
      <trkpt lat="47.84542" lon="6.92326">
        <ele>1011</ele>
        <time>2015-08-09T11:12:03Z</time>
      </trkpt>
      <trkpt lat="47.84542" lon="6.92329">
        <ele>1013</ele>
        <time>2015-08-09T11:12:20Z</time>
      </trkpt>
      <trkpt lat="47.84542" lon="6.92329">
        <ele>1013</ele>
        <time>2015-08-09T11:12:23Z</time>
      </trkpt>
      <trkpt lat="47.84542" lon="6.92329">
        <ele>1013</ele>
        <time>2015-08-09T11:12:26Z</time>
      </trkpt>
      <trkpt lat="47.84542" lon="6.92329">
        <ele>1013</ele>
        <time>2015-08-09T11:12:29Z</time>
      </trkpt>
      <trkpt lat="47.84542" lon="6.92329">
        <ele>1013</ele>
        <time>2015-08-09T11:12:33Z</time>
      </trkpt>
      <trkpt lat="47.84542" lon="6.92329">
        <ele>1013</ele>
        <time>2015-08-09T11:12:35Z</time>
      </trkpt>
      <trkpt lat="47.84542" lon="6.92329">
        <ele>1013</ele>
        <time>2015-08-09T11:12:38Z</time>
      </trkpt>
      <trkpt lat="47.84542" lon="6.92329">
        <ele>1013</ele>
        <time>2015-08-09T11:12:41Z</time>
      </trkpt>
      <trkpt lat="47.84542" lon="6.92329">
        <ele>1013</ele>
        <time>2015-08-09T11:12:44Z</time>
      </trkpt>
      <trkpt lat="47.84542" lon="6.92329">
        <ele>1013</ele>
        <time>2015-08-09T11:12:47Z</time>
      </trkpt>
      <trkpt lat="47.84542" lon="6.92329">
        <ele>1013</ele>
        <time>2015-08-09T11:12:50Z</time>
      </trkpt>
      <trkpt lat="47.84541" lon="6.92331">
        <ele>1009</ele>
        <time>2015-08-09T11:12:55Z</time>
      </trkpt>
      <trkpt lat="47.8454" lon="6.92333">
        <ele>1008</ele>
        <time>2015-08-09T11:13:04Z</time>
      </trkpt>
      <trkpt lat="47.8454" lon="6.92333">
        <ele>1008</ele>
        <time>2015-08-09T11:13:07Z</time>
      </trkpt>
      <trkpt lat="47.8454" lon="6.92333">
        <ele>1008</ele>
        <time>2015-08-09T11:13:10Z</time>
      </trkpt>
      <trkpt lat="47.8454" lon="6.92333">
        <ele>1008</ele>
        <time>2015-08-09T11:13:13Z</time>
      </trkpt>
      <trkpt lat="47.8454" lon="6.92333">
        <ele>1008</ele>
        <time>2015-08-09T11:13:16Z</time>
      </trkpt>
      <trkpt lat="47.8454" lon="6.92333">
        <ele>1008</ele>
        <time>2015-08-09T11:13:19Z</time>
      </trkpt>
      <trkpt lat="47.8454" lon="6.92333">
        <ele>1008</ele>
        <time>2015-08-09T11:13:22Z</time>
      </trkpt>
      <trkpt lat="47.8454" lon="6.92333">
        <ele>1008</ele>
        <time>2015-08-09T11:13:25Z</time>
      </trkpt>
      <trkpt lat="47.8454" lon="6.92333">
        <ele>1008</ele>
        <time>2015-08-09T11:13:29Z</time>
      </trkpt>
      <trkpt lat="47.8454" lon="6.92333">
        <ele>1008</ele>
        <time>2015-08-09T11:13:31Z</time>
      </trkpt>
      <trkpt lat="47.8454" lon="6.92333">
        <ele>1008</ele>
        <time>2015-08-09T11:13:34Z</time>
      </trkpt>
      <trkpt lat="47.8454" lon="6.92333">
        <ele>1008</ele>
        <time>2015-08-09T11:13:39Z</time>
      </trkpt>
      <trkpt lat="47.8454" lon="6.92333">
        <ele>1008</ele>
        <time>2015-08-09T11:13:40Z</time>
      </trkpt>
      <trkpt lat="47.8454" lon="6.92333">
        <ele>1008</ele>
        <time>2015-08-09T11:13:43Z</time>
      </trkpt>
      <trkpt lat="47.8454" lon="6.92333">
        <ele>1008</ele>
        <time>2015-08-09T11:13:46Z</time>
      </trkpt>
      <trkpt lat="47.8454" lon="6.92333">
        <ele>1008</ele>
        <time>2015-08-09T11:13:49Z</time>
      </trkpt>
      <trkpt lat="47.8454" lon="6.92333">
        <ele>1008</ele>
        <time>2015-08-09T11:13:52Z</time>
      </trkpt>
      <trkpt lat="47.8454" lon="6.92333">
        <ele>1008</ele>
        <time>2015-08-09T11:13:56Z</time>
      </trkpt>
      <trkpt lat="47.8454" lon="6.92333">
        <ele>1008</ele>
        <time>2015-08-09T11:13:59Z</time>
      </trkpt>
      <trkpt lat="47.84541" lon="6.92333">
        <ele>1007</ele>
        <time>2015-08-09T11:14:02Z</time>
      </trkpt>
      <trkpt lat="47.84543" lon="6.92328">
        <ele>1008</ele>
        <time>2015-08-09T11:14:16Z</time>
      </trkpt>
      <trkpt lat="47.84542" lon="6.92326">
        <ele>1009</ele>
        <time>2015-08-09T11:14:24Z</time>
      </trkpt>
      <trkpt lat="47.84542" lon="6.92326">
        <ele>1009</ele>
        <time>2015-08-09T11:14:26Z</time>
      </trkpt>
      <trkpt lat="47.84542" lon="6.92326">
        <ele>1009</ele>
        <time>2015-08-09T11:14:29Z</time>
      </trkpt>
      <trkpt lat="47.84542" lon="6.92326">
        <ele>1009</ele>
        <time>2015-08-09T11:14:34Z</time>
      </trkpt>
      <trkpt lat="47.84542" lon="6.92326">
        <ele>1009</ele>
        <time>2015-08-09T11:14:35Z</time>
      </trkpt>
      <trkpt lat="47.84542" lon="6.92326">
        <ele>1009</ele>
        <time>2015-08-09T11:14:38Z</time>
      </trkpt>
      <trkpt lat="47.84542" lon="6.92326">
        <ele>1009</ele>
        <time>2015-08-09T11:14:41Z</time>
      </trkpt>
      <trkpt lat="47.84542" lon="6.92326">
        <ele>1011</ele>
        <time>2015-08-09T11:14:47Z</time>
      </trkpt>
      <trkpt lat="47.84542" lon="6.92325">
        <ele>1014</ele>
        <time>2015-08-09T11:14:50Z</time>
      </trkpt>
      <trkpt lat="47.84542" lon="6.92324">
        <ele>1015</ele>
        <time>2015-08-09T11:14:53Z</time>
      </trkpt>
      <trkpt lat="47.84542" lon="6.92324">
        <ele>1014</ele>
        <time>2015-08-09T11:15:04Z</time>
      </trkpt>
      <trkpt lat="47.84541" lon="6.92325">
        <ele>1014</ele>
        <time>2015-08-09T11:15:10Z</time>
      </trkpt>
      <trkpt lat="47.84542" lon="6.92326">
        <ele>1014</ele>
        <time>2015-08-09T11:15:16Z</time>
      </trkpt>
      <trkpt lat="47.84541" lon="6.92326">
        <ele>1013</ele>
        <time>2015-08-09T11:15:19Z</time>
      </trkpt>
      <trkpt lat="47.84541" lon="6.92326">
        <ele>1013</ele>
        <time>2015-08-09T11:15:22Z</time>
      </trkpt>
      <trkpt lat="47.84541" lon="6.92326">
        <ele>1013</ele>
        <time>2015-08-09T11:15:25Z</time>
      </trkpt>
      <trkpt lat="47.84541" lon="6.92326">
        <ele>1013</ele>
        <time>2015-08-09T11:15:28Z</time>
      </trkpt>
      <trkpt lat="47.84541" lon="6.92326">
        <ele>1013</ele>
        <time>2015-08-09T11:15:31Z</time>
      </trkpt>
      <trkpt lat="47.84541" lon="6.92326">
        <ele>1014</ele>
        <time>2015-08-09T11:15:34Z</time>
      </trkpt>
      <trkpt lat="47.84541" lon="6.92327">
        <ele>1013</ele>
        <time>2015-08-09T11:15:40Z</time>
      </trkpt>
      <trkpt lat="47.84541" lon="6.92329">
        <ele>1012</ele>
        <time>2015-08-09T11:15:49Z</time>
      </trkpt>
      <trkpt lat="47.8454" lon="6.92329">
        <ele>1012</ele>
        <time>2015-08-09T11:15:52Z</time>
      </trkpt>
      <trkpt lat="47.8454" lon="6.92329">
        <ele>1011</ele>
        <time>2015-08-09T11:15:55Z</time>
      </trkpt>
      <trkpt lat="47.8454" lon="6.92331">
        <ele>1014</ele>
        <time>2015-08-09T11:16:04Z</time>
      </trkpt>
      <trkpt lat="47.84539" lon="6.92333">
        <ele>1012</ele>
        <time>2015-08-09T11:16:10Z</time>
      </trkpt>
      <trkpt lat="47.84534" lon="6.92343">
        <ele>1016</ele>
        <time>2015-08-09T11:16:20Z</time>
      </trkpt>
      <trkpt lat="47.84532" lon="6.92347">
        <ele>1014</ele>
        <time>2015-08-09T11:16:29Z</time>
      </trkpt>
      <trkpt lat="47.84541" lon="6.92354">
        <ele>1007</ele>
        <time>2015-08-09T11:16:50Z</time>
      </trkpt>
      <trkpt lat="47.84542" lon="6.92356">
        <ele>1007</ele>
        <time>2015-08-09T11:16:51Z</time>
      </trkpt>
      <trkpt lat="47.8455" lon="6.92357">
        <ele>1003</ele>
        <time>2015-08-09T11:17:02Z</time>
      </trkpt>
      <trkpt lat="47.84553" lon="6.92346">
        <ele>1002</ele>
        <time>2015-08-09T11:17:22Z</time>
      </trkpt>
      <trkpt lat="47.84553" lon="6.92346">
        <ele>1000</ele>
        <time>2015-08-09T11:17:24Z</time>
      </trkpt>
      <trkpt lat="47.84552" lon="6.9235">
        <ele>999</ele>
        <time>2015-08-09T11:17:31Z</time>
      </trkpt>
      <trkpt lat="47.84549" lon="6.92352">
        <ele>1001</ele>
        <time>2015-08-09T11:17:38Z</time>
      </trkpt>
      <trkpt lat="47.84555" lon="6.92358">
        <ele>1002</ele>
        <time>2015-08-09T11:17:57Z</time>
      </trkpt>
      <trkpt lat="47.84557" lon="6.9236">
        <ele>1005</ele>
        <time>2015-08-09T11:18:03Z</time>
      </trkpt>
      <trkpt lat="47.84556" lon="6.92359">
        <ele>1003</ele>
        <time>2015-08-09T11:18:11Z</time>
      </trkpt>
      <trkpt lat="47.84559" lon="6.92358">
        <ele>1003</ele>
        <time>2015-08-09T11:18:14Z</time>
      </trkpt>
      <trkpt lat="47.84557" lon="6.92356">
        <ele>1003</ele>
        <time>2015-08-09T11:18:25Z</time>
      </trkpt>
      <trkpt lat="47.84557" lon="6.92356">
        <ele>1003</ele>
        <time>2015-08-09T11:18:28Z</time>
      </trkpt>
      <trkpt lat="47.84556" lon="6.92357">
        <ele>998</ele>
        <time>2015-08-09T11:18:34Z</time>
      </trkpt>
      <trkpt lat="47.84556" lon="6.92354">
        <ele>994</ele>
        <time>2015-08-09T11:18:48Z</time>
      </trkpt>
      <trkpt lat="47.84555" lon="6.92354">
        <ele>993</ele>
        <time>2015-08-09T11:18:51Z</time>
      </trkpt>
      <trkpt lat="47.84556" lon="6.92354">
        <ele>994</ele>
        <time>2015-08-09T11:18:54Z</time>
      </trkpt>
      <trkpt lat="47.84555" lon="6.92353">
        <ele>994</ele>
        <time>2015-08-09T11:18:57Z</time>
      </trkpt>
      <trkpt lat="47.84555" lon="6.92353">
        <ele>993</ele>
        <time>2015-08-09T11:19:08Z</time>
      </trkpt>
      <trkpt lat="47.84555" lon="6.92353">
        <ele>993</ele>
        <time>2015-08-09T11:19:11Z</time>
      </trkpt>
      <trkpt lat="47.84555" lon="6.92353">
        <ele>993</ele>
        <time>2015-08-09T11:19:14Z</time>
      </trkpt>
      <trkpt lat="47.84555" lon="6.92353">
        <ele>993</ele>
        <time>2015-08-09T11:19:17Z</time>
      </trkpt>
      <trkpt lat="47.84555" lon="6.92353">
        <ele>993</ele>
        <time>2015-08-09T11:19:20Z</time>
      </trkpt>
      <trkpt lat="47.84553" lon="6.92352">
        <ele>991</ele>
        <time>2015-08-09T11:19:32Z</time>
      </trkpt>
      <trkpt lat="47.84553" lon="6.92353">
        <ele>993</ele>
        <time>2015-08-09T11:19:37Z</time>
      </trkpt>
      <trkpt lat="47.84554" lon="6.92352">
        <ele>994</ele>
        <time>2015-08-09T11:19:43Z</time>
      </trkpt>
      <trkpt lat="47.84554" lon="6.92352">
        <ele>993</ele>
        <time>2015-08-09T11:19:47Z</time>
      </trkpt>
      <trkpt lat="47.84555" lon="6.92353">
        <ele>997</ele>
        <time>2015-08-09T11:19:55Z</time>
      </trkpt>
      <trkpt lat="47.84555" lon="6.92353">
        <ele>998</ele>
        <time>2015-08-09T11:19:58Z</time>
      </trkpt>
      <trkpt lat="47.84554" lon="6.92354">
        <ele>998</ele>
        <time>2015-08-09T11:20:07Z</time>
      </trkpt>
      <trkpt lat="47.84553" lon="6.92352">
        <ele>996</ele>
        <time>2015-08-09T11:20:16Z</time>
      </trkpt>
      <trkpt lat="47.84553" lon="6.92353">
        <ele>997</ele>
        <time>2015-08-09T11:20:19Z</time>
      </trkpt>
      <trkpt lat="47.84553" lon="6.92352">
        <ele>997</ele>
        <time>2015-08-09T11:20:22Z</time>
      </trkpt>
      <trkpt lat="47.84553" lon="6.92352">
        <ele>997</ele>
        <time>2015-08-09T11:20:27Z</time>
      </trkpt>
      <trkpt lat="47.84553" lon="6.92352">
        <ele>997</ele>
        <time>2015-08-09T11:20:30Z</time>
      </trkpt>
      <trkpt lat="47.84553" lon="6.92352">
        <ele>997</ele>
        <time>2015-08-09T11:20:31Z</time>
      </trkpt>
      <trkpt lat="47.84553" lon="6.92352">
        <ele>997</ele>
        <time>2015-08-09T11:20:35Z</time>
      </trkpt>
      <trkpt lat="47.84553" lon="6.92352">
        <ele>997</ele>
        <time>2015-08-09T11:20:37Z</time>
      </trkpt>
      <trkpt lat="47.84553" lon="6.92352">
        <ele>997</ele>
        <time>2015-08-09T11:20:40Z</time>
      </trkpt>
      <trkpt lat="47.84553" lon="6.92352">
        <ele>997</ele>
        <time>2015-08-09T11:20:43Z</time>
      </trkpt>
      <trkpt lat="47.84553" lon="6.92352">
        <ele>997</ele>
        <time>2015-08-09T11:20:46Z</time>
      </trkpt>
      <trkpt lat="47.84553" lon="6.92353">
        <ele>997</ele>
        <time>2015-08-09T11:20:49Z</time>
      </trkpt>
      <trkpt lat="47.84554" lon="6.92355">
        <ele>998</ele>
        <time>2015-08-09T11:20:52Z</time>
      </trkpt>
      <trkpt lat="47.84557" lon="6.92361">
        <ele>1000</ele>
        <time>2015-08-09T11:21:03Z</time>
      </trkpt>
      <trkpt lat="47.84558" lon="6.92365">
        <ele>1000</ele>
        <time>2015-08-09T11:21:14Z</time>
      </trkpt>
      <trkpt lat="47.84558" lon="6.92368">
        <ele>991</ele>
        <time>2015-08-09T11:21:30Z</time>
      </trkpt>
      <trkpt lat="47.84558" lon="6.92368">
        <ele>991</ele>
        <time>2015-08-09T11:21:31Z</time>
      </trkpt>
      <trkpt lat="47.84558" lon="6.92367">
        <ele>990</ele>
        <time>2015-08-09T11:21:37Z</time>
      </trkpt>
      <trkpt lat="47.84558" lon="6.92367">
        <ele>990</ele>
        <time>2015-08-09T11:21:40Z</time>
      </trkpt>
      <trkpt lat="47.84558" lon="6.92367">
        <ele>990</ele>
        <time>2015-08-09T11:21:43Z</time>
      </trkpt>
      <trkpt lat="47.84558" lon="6.92367">
        <ele>990</ele>
        <time>2015-08-09T11:21:46Z</time>
      </trkpt>
      <trkpt lat="47.84558" lon="6.92367">
        <ele>990</ele>
        <time>2015-08-09T11:21:51Z</time>
      </trkpt>
      <trkpt lat="47.84558" lon="6.92367">
        <ele>990</ele>
        <time>2015-08-09T11:21:52Z</time>
      </trkpt>
      <trkpt lat="47.84558" lon="6.92367">
        <ele>990</ele>
        <time>2015-08-09T11:21:55Z</time>
      </trkpt>
      <trkpt lat="47.84557" lon="6.92367">
        <ele>990</ele>
        <time>2015-08-09T11:22:01Z</time>
      </trkpt>
      <trkpt lat="47.84557" lon="6.92367">
        <ele>989</ele>
        <time>2015-08-09T11:22:05Z</time>
      </trkpt>
      <trkpt lat="47.84558" lon="6.92367">
        <ele>986</ele>
        <time>2015-08-09T11:22:14Z</time>
      </trkpt>
      <trkpt lat="47.84557" lon="6.92368">
        <ele>986</ele>
        <time>2015-08-09T11:22:19Z</time>
      </trkpt>
      <trkpt lat="47.84557" lon="6.92368">
        <ele>986</ele>
        <time>2015-08-09T11:22:22Z</time>
      </trkpt>
      <trkpt lat="47.84557" lon="6.92368">
        <ele>986</ele>
        <time>2015-08-09T11:22:25Z</time>
      </trkpt>
      <trkpt lat="47.84557" lon="6.92368">
        <ele>986</ele>
        <time>2015-08-09T11:22:28Z</time>
      </trkpt>
      <trkpt lat="47.84557" lon="6.92368">
        <ele>986</ele>
        <time>2015-08-09T11:22:31Z</time>
      </trkpt>
      <trkpt lat="47.84557" lon="6.92368">
        <ele>986</ele>
        <time>2015-08-09T11:22:34Z</time>
      </trkpt>
      <trkpt lat="47.84557" lon="6.92368">
        <ele>986</ele>
        <time>2015-08-09T11:22:37Z</time>
      </trkpt>
      <trkpt lat="47.84557" lon="6.92368">
        <ele>986</ele>
        <time>2015-08-09T11:22:40Z</time>
      </trkpt>
      <trkpt lat="47.84557" lon="6.92368">
        <ele>986</ele>
        <time>2015-08-09T11:22:43Z</time>
      </trkpt>
      <trkpt lat="47.84557" lon="6.92368">
        <ele>986</ele>
        <time>2015-08-09T11:22:48Z</time>
      </trkpt>
      <trkpt lat="47.84557" lon="6.92368">
        <ele>986</ele>
        <time>2015-08-09T11:22:49Z</time>
      </trkpt>
      <trkpt lat="47.84557" lon="6.92369">
        <ele>986</ele>
        <time>2015-08-09T11:22:52Z</time>
      </trkpt>
      <trkpt lat="47.8456" lon="6.92371">
        <ele>989</ele>
        <time>2015-08-09T11:23:09Z</time>
      </trkpt>
      <trkpt lat="47.84559" lon="6.92372">
        <ele>990</ele>
        <time>2015-08-09T11:23:14Z</time>
      </trkpt>
      <trkpt lat="47.84559" lon="6.92372">
        <ele>991</ele>
        <time>2015-08-09T11:23:15Z</time>
      </trkpt>
      <trkpt lat="47.84559" lon="6.92372">
        <ele>991</ele>
        <time>2015-08-09T11:23:18Z</time>
      </trkpt>
      <trkpt lat="47.84559" lon="6.92372">
        <ele>991</ele>
        <time>2015-08-09T11:23:21Z</time>
      </trkpt>
      <trkpt lat="47.84559" lon="6.92373">
        <ele>991</ele>
        <time>2015-08-09T11:23:25Z</time>
      </trkpt>
      <trkpt lat="47.84559" lon="6.92373">
        <ele>991</ele>
        <time>2015-08-09T11:23:29Z</time>
      </trkpt>
      <trkpt lat="47.84559" lon="6.92372">
        <ele>991</ele>
        <time>2015-08-09T11:23:32Z</time>
      </trkpt>
      <trkpt lat="47.84557" lon="6.92371">
        <ele>991</ele>
        <time>2015-08-09T11:23:35Z</time>
      </trkpt>
      <trkpt lat="47.84548" lon="6.92366">
        <ele>987</ele>
        <time>2015-08-09T11:23:46Z</time>
      </trkpt>
      <trkpt lat="47.84543" lon="6.92367">
        <ele>987</ele>
        <time>2015-08-09T11:23:55Z</time>
      </trkpt>
      <trkpt lat="47.84542" lon="6.9237">
        <ele>987</ele>
        <time>2015-08-09T11:24:09Z</time>
      </trkpt>
      <trkpt lat="47.84541" lon="6.92371">
        <ele>990</ele>
        <time>2015-08-09T11:24:18Z</time>
      </trkpt>
      <trkpt lat="47.8454" lon="6.92369">
        <ele>990</ele>
        <time>2015-08-09T11:24:21Z</time>
      </trkpt>
      <trkpt lat="47.84541" lon="6.92366">
        <ele>989</ele>
        <time>2015-08-09T11:24:32Z</time>
      </trkpt>
      <trkpt lat="47.84541" lon="6.92366">
        <ele>989</ele>
        <time>2015-08-09T11:24:35Z</time>
      </trkpt>
      <trkpt lat="47.84541" lon="6.92366">
        <ele>988</ele>
        <time>2015-08-09T11:24:42Z</time>
      </trkpt>
      <trkpt lat="47.8454" lon="6.92365">
        <ele>991</ele>
        <time>2015-08-09T11:24:45Z</time>
      </trkpt>
      <trkpt lat="47.84533" lon="6.92376">
        <ele>997</ele>
        <time>2015-08-09T11:24:58Z</time>
      </trkpt>
      <trkpt lat="47.84532" lon="6.92379">
        <ele>998</ele>
        <time>2015-08-09T11:25:06Z</time>
      </trkpt>
      <trkpt lat="47.84528" lon="6.92385">
        <ele>1001</ele>
        <time>2015-08-09T11:25:17Z</time>
      </trkpt>
      <trkpt lat="47.84521" lon="6.92395">
        <ele>990</ele>
        <time>2015-08-09T11:25:35Z</time>
      </trkpt>
      <trkpt lat="47.84519" lon="6.92396">
        <ele>992</ele>
        <time>2015-08-09T11:25:39Z</time>
      </trkpt>
      <trkpt lat="47.8451" lon="6.92397">
        <ele>995</ele>
        <time>2015-08-09T11:25:50Z</time>
      </trkpt>
      <trkpt lat="47.84504" lon="6.92397">
        <ele>992</ele>
        <time>2015-08-09T11:26:01Z</time>
      </trkpt>
      <trkpt lat="47.84492" lon="6.92395">
        <ele>996</ele>
        <time>2015-08-09T11:26:12Z</time>
      </trkpt>
      <trkpt lat="47.84486" lon="6.92396">
        <ele>1003</ele>
        <time>2015-08-09T11:26:23Z</time>
      </trkpt>
      <trkpt lat="47.84473" lon="6.92401">
        <ele>1010</ele>
        <time>2015-08-09T11:26:42Z</time>
      </trkpt>
      <trkpt lat="47.84472" lon="6.92401">
        <ele>1012</ele>
        <time>2015-08-09T11:26:45Z</time>
      </trkpt>
      <trkpt lat="47.84467" lon="6.9239">
        <ele>1006</ele>
        <time>2015-08-09T11:26:56Z</time>
      </trkpt>
      <trkpt lat="47.84456" lon="6.92388">
        <ele>1010</ele>
        <time>2015-08-09T11:27:10Z</time>
      </trkpt>
      <trkpt lat="47.84447" lon="6.92384">
        <ele>1012</ele>
        <time>2015-08-09T11:27:21Z</time>
      </trkpt>
      <trkpt lat="47.84444" lon="6.92381">
        <ele>1014</ele>
        <time>2015-08-09T11:27:29Z</time>
      </trkpt>
      <trkpt lat="47.84434" lon="6.92376">
        <ele>1018</ele>
        <time>2015-08-09T11:27:46Z</time>
      </trkpt>
      <trkpt lat="47.84428" lon="6.92374">
        <ele>1017</ele>
        <time>2015-08-09T11:27:57Z</time>
      </trkpt>
      <trkpt lat="47.84425" lon="6.92378">
        <ele>1019</ele>
        <time>2015-08-09T11:28:02Z</time>
      </trkpt>
      <trkpt lat="47.84418" lon="6.92373">
        <ele>1019</ele>
        <time>2015-08-09T11:28:19Z</time>
      </trkpt>
      <trkpt lat="47.84417" lon="6.92373">
        <ele>1020</ele>
        <time>2015-08-09T11:28:25Z</time>
      </trkpt>
      <trkpt lat="47.84417" lon="6.92373">
        <ele>1020</ele>
        <time>2015-08-09T11:28:27Z</time>
      </trkpt>
      <trkpt lat="47.84404" lon="6.92367">
        <ele>1017</ele>
        <time>2015-08-09T11:28:39Z</time>
      </trkpt>
      <trkpt lat="47.84391" lon="6.92362">
        <ele>1010</ele>
        <time>2015-08-09T11:28:56Z</time>
      </trkpt>
      <trkpt lat="47.8439" lon="6.92362">
        <ele>1010</ele>
        <time>2015-08-09T11:29:01Z</time>
      </trkpt>
      <trkpt lat="47.84381" lon="6.92363">
        <ele>1010</ele>
        <time>2015-08-09T11:29:11Z</time>
      </trkpt>
      <trkpt lat="47.84373" lon="6.92366">
        <ele>1011</ele>
        <time>2015-08-09T11:29:28Z</time>
      </trkpt>
      <trkpt lat="47.84373" lon="6.92366">
        <ele>1011</ele>
        <time>2015-08-09T11:29:35Z</time>
      </trkpt>
      <trkpt lat="47.84373" lon="6.92366">
        <ele>1011</ele>
        <time>2015-08-09T11:29:36Z</time>
      </trkpt>
      <trkpt lat="47.84372" lon="6.92365">
        <ele>1011</ele>
        <time>2015-08-09T11:29:39Z</time>
      </trkpt>
      <trkpt lat="47.84372" lon="6.92368">
        <ele>1018</ele>
        <time>2015-08-09T11:29:44Z</time>
      </trkpt>
      <trkpt lat="47.84371" lon="6.92369">
        <ele>1020</ele>
        <time>2015-08-09T11:29:53Z</time>
      </trkpt>
      <trkpt lat="47.84371" lon="6.92369">
        <ele>1020</ele>
        <time>2015-08-09T11:29:56Z</time>
      </trkpt>
      <trkpt lat="47.84371" lon="6.92369">
        <ele>1021</ele>
        <time>2015-08-09T11:30:01Z</time>
      </trkpt>
      <trkpt lat="47.84369" lon="6.92367">
        <ele>1021</ele>
        <time>2015-08-09T11:30:04Z</time>
      </trkpt>
      <trkpt lat="47.84363" lon="6.92368">
        <ele>1021</ele>
        <time>2015-08-09T11:30:14Z</time>
      </trkpt>
      <trkpt lat="47.84363" lon="6.92364">
        <ele>1021</ele>
        <time>2015-08-09T11:30:24Z</time>
      </trkpt>
      <trkpt lat="47.84357" lon="6.92361">
        <ele>1020</ele>
        <time>2015-08-09T11:30:44Z</time>
      </trkpt>
      <trkpt lat="47.84357" lon="6.92361">
        <ele>1021</ele>
        <time>2015-08-09T11:30:50Z</time>
      </trkpt>
      <trkpt lat="47.84355" lon="6.9236">
        <ele>1019</ele>
        <time>2015-08-09T11:30:52Z</time>
      </trkpt>
      <trkpt lat="47.84349" lon="6.92364">
        <ele>1024</ele>
        <time>2015-08-09T11:31:05Z</time>
      </trkpt>
      <trkpt lat="47.84343" lon="6.92365">
        <ele>1024</ele>
        <time>2015-08-09T11:31:14Z</time>
      </trkpt>
      <trkpt lat="47.84337" lon="6.92369">
        <ele>1022</ele>
        <time>2015-08-09T11:31:35Z</time>
      </trkpt>
      <trkpt lat="47.84337" lon="6.92368">
        <ele>1022</ele>
        <time>2015-08-09T11:31:36Z</time>
      </trkpt>
      <trkpt lat="47.84334" lon="6.92369">
        <ele>1018</ele>
        <time>2015-08-09T11:31:47Z</time>
      </trkpt>
      <trkpt lat="47.84315" lon="6.92371">
        <ele>1021</ele>
        <time>2015-08-09T11:32:03Z</time>
      </trkpt>
      <trkpt lat="47.84312" lon="6.92368">
        <ele>1020</ele>
        <time>2015-08-09T11:32:09Z</time>
      </trkpt>
      <trkpt lat="47.84305" lon="6.9237">
        <ele>1028</ele>
        <time>2015-08-09T11:32:20Z</time>
      </trkpt>
      <trkpt lat="47.84303" lon="6.92372">
        <ele>1030</ele>
        <time>2015-08-09T11:32:31Z</time>
      </trkpt>
      <trkpt lat="47.84299" lon="6.92369">
        <ele>1027</ele>
        <time>2015-08-09T11:32:37Z</time>
      </trkpt>
      <trkpt lat="47.84295" lon="6.9237">
        <ele>1024</ele>
        <time>2015-08-09T11:32:45Z</time>
      </trkpt>
      <trkpt lat="47.84288" lon="6.92366">
        <ele>1019</ele>
        <time>2015-08-09T11:32:56Z</time>
      </trkpt>
      <trkpt lat="47.84282" lon="6.92369">
        <ele>1018</ele>
        <time>2015-08-09T11:33:07Z</time>
      </trkpt>
      <trkpt lat="47.84272" lon="6.92366">
        <ele>1021</ele>
        <time>2015-08-09T11:33:18Z</time>
      </trkpt>
      <trkpt lat="47.84268" lon="6.92358">
        <ele>1024</ele>
        <time>2015-08-09T11:33:29Z</time>
      </trkpt>
      <trkpt lat="47.84255" lon="6.9236">
        <ele>1024</ele>
        <time>2015-08-09T11:33:41Z</time>
      </trkpt>
      <trkpt lat="47.84248" lon="6.92365">
        <ele>1032</ele>
        <time>2015-08-09T11:33:54Z</time>
      </trkpt>
      <trkpt lat="47.84243" lon="6.92362">
        <ele>1036</ele>
        <time>2015-08-09T11:34:07Z</time>
      </trkpt>
      <trkpt lat="47.84238" lon="6.92361">
        <ele>1037</ele>
        <time>2015-08-09T11:34:16Z</time>
      </trkpt>
      <trkpt lat="47.84237" lon="6.9236">
        <ele>1030</ele>
        <time>2015-08-09T11:34:26Z</time>
      </trkpt>
      <trkpt lat="47.84237" lon="6.92359">
        <ele>1030</ele>
        <time>2015-08-09T11:34:31Z</time>
      </trkpt>
      <trkpt lat="47.84237" lon="6.92359">
        <ele>1030</ele>
        <time>2015-08-09T11:34:33Z</time>
      </trkpt>
      <trkpt lat="47.84237" lon="6.92359">
        <ele>1030</ele>
        <time>2015-08-09T11:34:37Z</time>
      </trkpt>
      <trkpt lat="47.84237" lon="6.92359">
        <ele>1030</ele>
        <time>2015-08-09T11:34:40Z</time>
      </trkpt>
      <trkpt lat="47.84237" lon="6.92359">
        <ele>1030</ele>
        <time>2015-08-09T11:34:44Z</time>
      </trkpt>
      <trkpt lat="47.84237" lon="6.92359">
        <ele>1030</ele>
        <time>2015-08-09T11:34:45Z</time>
      </trkpt>
      <trkpt lat="47.84237" lon="6.92359">
        <ele>1030</ele>
        <time>2015-08-09T11:34:48Z</time>
      </trkpt>
      <trkpt lat="47.84236" lon="6.92357">
        <ele>1030</ele>
        <time>2015-08-09T11:34:51Z</time>
      </trkpt>
      <trkpt lat="47.84232" lon="6.92354">
        <ele>1027</ele>
        <time>2015-08-09T11:35:04Z</time>
      </trkpt>
      <trkpt lat="47.84228" lon="6.9235">
        <ele>1027</ele>
        <time>2015-08-09T11:35:19Z</time>
      </trkpt>
      <trkpt lat="47.84228" lon="6.9235">
        <ele>1027</ele>
        <time>2015-08-09T11:35:25Z</time>
      </trkpt>
      <trkpt lat="47.84228" lon="6.9235">
        <ele>1027</ele>
        <time>2015-08-09T11:35:27Z</time>
      </trkpt>
      <trkpt lat="47.84228" lon="6.9235">
        <ele>1027</ele>
        <time>2015-08-09T11:35:30Z</time>
      </trkpt>
      <trkpt lat="47.84228" lon="6.9235">
        <ele>1027</ele>
        <time>2015-08-09T11:35:33Z</time>
      </trkpt>
      <trkpt lat="47.84226" lon="6.92353">
        <ele>1034</ele>
        <time>2015-08-09T11:35:36Z</time>
      </trkpt>
      <trkpt lat="47.84227" lon="6.9236">
        <ele>1037</ele>
        <time>2015-08-09T11:35:47Z</time>
      </trkpt>
      <trkpt lat="47.84226" lon="6.92368">
        <ele>1036</ele>
        <time>2015-08-09T11:35:58Z</time>
      </trkpt>
      <trkpt lat="47.84226" lon="6.92367">
        <ele>1038</ele>
        <time>2015-08-09T11:36:10Z</time>
      </trkpt>
      <trkpt lat="47.84226" lon="6.92366">
        <ele>1038</ele>
        <time>2015-08-09T11:36:12Z</time>
      </trkpt>
      <trkpt lat="47.84226" lon="6.92366">
        <ele>1038</ele>
        <time>2015-08-09T11:36:15Z</time>
      </trkpt>
      <trkpt lat="47.84226" lon="6.92366">
        <ele>1037</ele>
        <time>2015-08-09T11:36:19Z</time>
      </trkpt>
      <trkpt lat="47.84226" lon="6.92366">
        <ele>1037</ele>
        <time>2015-08-09T11:36:22Z</time>
      </trkpt>
      <trkpt lat="47.84226" lon="6.92366">
        <ele>1037</ele>
        <time>2015-08-09T11:36:25Z</time>
      </trkpt>
      <trkpt lat="47.84226" lon="6.92366">
        <ele>1037</ele>
        <time>2015-08-09T11:36:27Z</time>
      </trkpt>
      <trkpt lat="47.84225" lon="6.92366">
        <ele>1037</ele>
        <time>2015-08-09T11:36:30Z</time>
      </trkpt>
      <trkpt lat="47.84226" lon="6.92366">
        <ele>1035</ele>
        <time>2015-08-09T11:36:36Z</time>
      </trkpt>
      <trkpt lat="47.84225" lon="6.92367">
        <ele>1034</ele>
        <time>2015-08-09T11:36:40Z</time>
      </trkpt>
      <trkpt lat="47.84225" lon="6.92367">
        <ele>1034</ele>
        <time>2015-08-09T11:36:43Z</time>
      </trkpt>
      <trkpt lat="47.84223" lon="6.92372">
        <ele>1036</ele>
        <time>2015-08-09T11:36:58Z</time>
      </trkpt>
      <trkpt lat="47.84224" lon="6.92372">
        <ele>1037</ele>
        <time>2015-08-09T11:37:04Z</time>
      </trkpt>
      <trkpt lat="47.84225" lon="6.92373">
        <ele>1039</ele>
        <time>2015-08-09T11:37:10Z</time>
      </trkpt>
      <trkpt lat="47.84223" lon="6.92372">
        <ele>1041</ele>
        <time>2015-08-09T11:37:19Z</time>
      </trkpt>
      <trkpt lat="47.84223" lon="6.92373">
        <ele>1042</ele>
        <time>2015-08-09T11:37:24Z</time>
      </trkpt>
      <trkpt lat="47.84223" lon="6.92373">
        <ele>1042</ele>
        <time>2015-08-09T11:37:25Z</time>
      </trkpt>
      <trkpt lat="47.84222" lon="6.92372">
        <ele>1042</ele>
        <time>2015-08-09T11:37:31Z</time>
      </trkpt>
      <trkpt lat="47.84222" lon="6.92373">
        <ele>1041</ele>
        <time>2015-08-09T11:37:34Z</time>
      </trkpt>
      <trkpt lat="47.84221" lon="6.92372">
        <ele>1042</ele>
        <time>2015-08-09T11:37:40Z</time>
      </trkpt>
      <trkpt lat="47.84221" lon="6.92372">
        <ele>1042</ele>
        <time>2015-08-09T11:37:43Z</time>
      </trkpt>
      <trkpt lat="47.84221" lon="6.92372">
        <ele>1042</ele>
        <time>2015-08-09T11:37:47Z</time>
      </trkpt>
      <trkpt lat="47.84221" lon="6.92372">
        <ele>1042</ele>
        <time>2015-08-09T11:37:49Z</time>
      </trkpt>
      <trkpt lat="47.84221" lon="6.92372">
        <ele>1042</ele>
        <time>2015-08-09T11:37:52Z</time>
      </trkpt>
      <trkpt lat="47.84221" lon="6.92372">
        <ele>1042</ele>
        <time>2015-08-09T11:37:55Z</time>
      </trkpt>
      <trkpt lat="47.84221" lon="6.92372">
        <ele>1042</ele>
        <time>2015-08-09T11:37:59Z</time>
      </trkpt>
      <trkpt lat="47.84221" lon="6.92372">
        <ele>1042</ele>
        <time>2015-08-09T11:38:01Z</time>
      </trkpt>
      <trkpt lat="47.84221" lon="6.92372">
        <ele>1042</ele>
        <time>2015-08-09T11:38:05Z</time>
      </trkpt>
      <trkpt lat="47.84221" lon="6.92372">
        <ele>1042</ele>
        <time>2015-08-09T11:38:07Z</time>
      </trkpt>
      <trkpt lat="47.84221" lon="6.92372">
        <ele>1042</ele>
        <time>2015-08-09T11:38:10Z</time>
      </trkpt>
      <trkpt lat="47.84221" lon="6.92372">
        <ele>1042</ele>
        <time>2015-08-09T11:38:13Z</time>
      </trkpt>
      <trkpt lat="47.84221" lon="6.92372">
        <ele>1041</ele>
        <time>2015-08-09T11:38:16Z</time>
      </trkpt>
      <trkpt lat="47.8422" lon="6.92371">
        <ele>1041</ele>
        <time>2015-08-09T11:38:19Z</time>
      </trkpt>
      <trkpt lat="47.8422" lon="6.92371">
        <ele>1040</ele>
        <time>2015-08-09T11:38:22Z</time>
      </trkpt>
      <trkpt lat="47.8422" lon="6.92371">
        <ele>1040</ele>
        <time>2015-08-09T11:38:25Z</time>
      </trkpt>
      <trkpt lat="47.8422" lon="6.92371">
        <ele>1040</ele>
        <time>2015-08-09T11:38:28Z</time>
      </trkpt>
      <trkpt lat="47.84221" lon="6.92371">
        <ele>1040</ele>
        <time>2015-08-09T11:38:33Z</time>
      </trkpt>
      <trkpt lat="47.84221" lon="6.92371">
        <ele>1040</ele>
        <time>2015-08-09T11:38:36Z</time>
      </trkpt>
      <trkpt lat="47.84221" lon="6.92371">
        <ele>1040</ele>
        <time>2015-08-09T11:38:37Z</time>
      </trkpt>
      <trkpt lat="47.84222" lon="6.9237">
        <ele>1041</ele>
        <time>2015-08-09T11:38:43Z</time>
      </trkpt>
      <trkpt lat="47.84221" lon="6.9237">
        <ele>1041</ele>
        <time>2015-08-09T11:38:46Z</time>
      </trkpt>
      <trkpt lat="47.84222" lon="6.92372">
        <ele>1039</ele>
        <time>2015-08-09T11:38:55Z</time>
      </trkpt>
      <trkpt lat="47.84222" lon="6.92372">
        <ele>1040</ele>
        <time>2015-08-09T11:38:58Z</time>
      </trkpt>
      <trkpt lat="47.84223" lon="6.92371">
        <ele>1040</ele>
        <time>2015-08-09T11:39:01Z</time>
      </trkpt>
      <trkpt lat="47.84223" lon="6.92371">
        <ele>1040</ele>
        <time>2015-08-09T11:39:04Z</time>
      </trkpt>
      <trkpt lat="47.84223" lon="6.92371">
        <ele>1040</ele>
        <time>2015-08-09T11:39:09Z</time>
      </trkpt>
      <trkpt lat="47.84221" lon="6.92372">
        <ele>1041</ele>
        <time>2015-08-09T11:39:16Z</time>
      </trkpt>
      <trkpt lat="47.84221" lon="6.92373">
        <ele>1040</ele>
        <time>2015-08-09T11:39:19Z</time>
      </trkpt>
      <trkpt lat="47.84222" lon="6.92372">
        <ele>1039</ele>
        <time>2015-08-09T11:39:22Z</time>
      </trkpt>
      <trkpt lat="47.84222" lon="6.92372">
        <ele>1041</ele>
        <time>2015-08-09T11:39:26Z</time>
      </trkpt>
      <trkpt lat="47.84222" lon="6.92371">
        <ele>1040</ele>
        <time>2015-08-09T11:39:31Z</time>
      </trkpt>
      <trkpt lat="47.84222" lon="6.92372">
        <ele>1040</ele>
        <time>2015-08-09T11:39:35Z</time>
      </trkpt>
      <trkpt lat="47.84222" lon="6.92371">
        <ele>1040</ele>
        <time>2015-08-09T11:39:43Z</time>
      </trkpt>
      <trkpt lat="47.84223" lon="6.92372">
        <ele>1038</ele>
        <time>2015-08-09T11:39:49Z</time>
      </trkpt>
      <trkpt lat="47.84223" lon="6.92373">
        <ele>1039</ele>
        <time>2015-08-09T11:39:55Z</time>
      </trkpt>
      <trkpt lat="47.84223" lon="6.92372">
        <ele>1039</ele>
        <time>2015-08-09T11:39:58Z</time>
      </trkpt>
      <trkpt lat="47.84223" lon="6.92372">
        <ele>1038</ele>
        <time>2015-08-09T11:40:03Z</time>
      </trkpt>
      <trkpt lat="47.84223" lon="6.92372">
        <ele>1038</ele>
        <time>2015-08-09T11:40:04Z</time>
      </trkpt>
      <trkpt lat="47.84223" lon="6.92372">
        <ele>1038</ele>
        <time>2015-08-09T11:40:07Z</time>
      </trkpt>
      <trkpt lat="47.84223" lon="6.92372">
        <ele>1038</ele>
        <time>2015-08-09T11:40:10Z</time>
      </trkpt>
      <trkpt lat="47.84223" lon="6.92372">
        <ele>1038</ele>
        <time>2015-08-09T11:40:13Z</time>
      </trkpt>
      <trkpt lat="47.84223" lon="6.92372">
        <ele>1038</ele>
        <time>2015-08-09T11:40:16Z</time>
      </trkpt>
      <trkpt lat="47.84223" lon="6.92372">
        <ele>1038</ele>
        <time>2015-08-09T11:40:19Z</time>
      </trkpt>
      <trkpt lat="47.84223" lon="6.92372">
        <ele>1038</ele>
        <time>2015-08-09T11:40:22Z</time>
      </trkpt>
      <trkpt lat="47.84224" lon="6.92371">
        <ele>1038</ele>
        <time>2015-08-09T11:40:27Z</time>
      </trkpt>
      <trkpt lat="47.84226" lon="6.92371">
        <ele>1038</ele>
        <time>2015-08-09T11:40:39Z</time>
      </trkpt>
      <trkpt lat="47.84226" lon="6.92375">
        <ele>1041</ele>
        <time>2015-08-09T11:40:47Z</time>
      </trkpt>
      <trkpt lat="47.84225" lon="6.92375">
        <ele>1041</ele>
        <time>2015-08-09T11:40:56Z</time>
      </trkpt>
      <trkpt lat="47.84226" lon="6.92374">
        <ele>1040</ele>
        <time>2015-08-09T11:40:59Z</time>
      </trkpt>
      <trkpt lat="47.84228" lon="6.92371">
        <ele>1039</ele>
        <time>2015-08-09T11:41:11Z</time>
      </trkpt>
      <trkpt lat="47.8423" lon="6.92367">
        <ele>1041</ele>
        <time>2015-08-09T11:41:23Z</time>
      </trkpt>
      <trkpt lat="47.84229" lon="6.92365">
        <ele>1035</ele>
        <time>2015-08-09T11:41:32Z</time>
      </trkpt>
      <trkpt lat="47.84229" lon="6.92365">
        <ele>1035</ele>
        <time>2015-08-09T11:41:35Z</time>
      </trkpt>
      <trkpt lat="47.84229" lon="6.92365">
        <ele>1035</ele>
        <time>2015-08-09T11:41:38Z</time>
      </trkpt>
      <trkpt lat="47.84229" lon="6.92365">
        <ele>1035</ele>
        <time>2015-08-09T11:41:41Z</time>
      </trkpt>
      <trkpt lat="47.84229" lon="6.92365">
        <ele>1035</ele>
        <time>2015-08-09T11:41:44Z</time>
      </trkpt>
      <trkpt lat="47.84229" lon="6.92365">
        <ele>1035</ele>
        <time>2015-08-09T11:41:47Z</time>
      </trkpt>
      <trkpt lat="47.84229" lon="6.92365">
        <ele>1035</ele>
        <time>2015-08-09T11:41:50Z</time>
      </trkpt>
      <trkpt lat="47.84229" lon="6.92363">
        <ele>1037</ele>
        <time>2015-08-09T11:41:53Z</time>
      </trkpt>
      <trkpt lat="47.84226" lon="6.92355">
        <ele>1034</ele>
        <time>2015-08-09T11:42:07Z</time>
      </trkpt>
      <trkpt lat="47.84225" lon="6.92353">
        <ele>1031</ele>
        <time>2015-08-09T11:42:23Z</time>
      </trkpt>
      <trkpt lat="47.84225" lon="6.92353">
        <ele>1031</ele>
        <time>2015-08-09T11:42:24Z</time>
      </trkpt>
      <trkpt lat="47.84225" lon="6.92353">
        <ele>1031</ele>
        <time>2015-08-09T11:42:28Z</time>
      </trkpt>
      <trkpt lat="47.84223" lon="6.9235">
        <ele>1029</ele>
        <time>2015-08-09T11:42:40Z</time>
      </trkpt>
      <trkpt lat="47.84223" lon="6.92349">
        <ele>1029</ele>
        <time>2015-08-09T11:42:41Z</time>
      </trkpt>
      <trkpt lat="47.84223" lon="6.92351">
        <ele>1032</ele>
        <time>2015-08-09T11:42:52Z</time>
      </trkpt>
      <trkpt lat="47.8422" lon="6.92351">
        <ele>1034</ele>
        <time>2015-08-09T11:43:03Z</time>
      </trkpt>
      <trkpt lat="47.8422" lon="6.92351">
        <ele>1035</ele>
        <time>2015-08-09T11:43:06Z</time>
      </trkpt>
      <trkpt lat="47.8422" lon="6.9235">
        <ele>1035</ele>
        <time>2015-08-09T11:43:09Z</time>
      </trkpt>
      <trkpt lat="47.84217" lon="6.92339">
        <ele>1039</ele>
        <time>2015-08-09T11:43:20Z</time>
      </trkpt>
      <trkpt lat="47.84214" lon="6.92338">
        <ele>1051</ele>
        <time>2015-08-09T11:43:32Z</time>
      </trkpt>
      <trkpt lat="47.84201" lon="6.92314">
        <ele>1048</ele>
        <time>2015-08-09T11:43:52Z</time>
      </trkpt>
      <trkpt lat="47.84201" lon="6.92313">
        <ele>1048</ele>
        <time>2015-08-09T11:43:53Z</time>
      </trkpt>
      <trkpt lat="47.842" lon="6.92299">
        <ele>1050</ele>
        <time>2015-08-09T11:44:04Z</time>
      </trkpt>
      <trkpt lat="47.84196" lon="6.92283">
        <ele>1050</ele>
        <time>2015-08-09T11:44:21Z</time>
      </trkpt>
      <trkpt lat="47.84188" lon="6.92276">
        <ele>1061</ele>
        <time>2015-08-09T11:44:31Z</time>
      </trkpt>
      <trkpt lat="47.84189" lon="6.92262">
        <ele>1052</ele>
        <time>2015-08-09T11:44:45Z</time>
      </trkpt>
      <trkpt lat="47.84189" lon="6.92258">
        <ele>1053</ele>
        <time>2015-08-09T11:44:48Z</time>
      </trkpt>
      <trkpt lat="47.84178" lon="6.92234">
        <ele>1058</ele>
        <time>2015-08-09T11:45:07Z</time>
      </trkpt>
      <trkpt lat="47.84176" lon="6.9223">
        <ele>1062</ele>
        <time>2015-08-09T11:45:11Z</time>
      </trkpt>
      <trkpt lat="47.84174" lon="6.92215">
        <ele>1059</ele>
        <time>2015-08-09T11:45:21Z</time>
      </trkpt>
      <trkpt lat="47.84173" lon="6.92202">
        <ele>1060</ele>
        <time>2015-08-09T11:45:32Z</time>
      </trkpt>
      <trkpt lat="47.84165" lon="6.92174">
        <ele>1052</ele>
        <time>2015-08-09T11:45:53Z</time>
      </trkpt>
      <trkpt lat="47.84164" lon="6.92171">
        <ele>1051</ele>
        <time>2015-08-09T11:45:59Z</time>
      </trkpt>
      <trkpt lat="47.8416" lon="6.92154">
        <ele>1052</ele>
        <time>2015-08-09T11:46:14Z</time>
      </trkpt>
      <trkpt lat="47.84159" lon="6.92153">
        <ele>1051</ele>
        <time>2015-08-09T11:46:16Z</time>
      </trkpt>
      <trkpt lat="47.84158" lon="6.92141">
        <ele>1057</ele>
        <time>2015-08-09T11:46:27Z</time>
      </trkpt>
      <trkpt lat="47.84157" lon="6.9211">
        <ele>1042</ele>
        <time>2015-08-09T11:46:48Z</time>
      </trkpt>
      <trkpt lat="47.84157" lon="6.92109">
        <ele>1043</ele>
        <time>2015-08-09T11:46:49Z</time>
      </trkpt>
      <trkpt lat="47.84156" lon="6.92096">
        <ele>1052</ele>
        <time>2015-08-09T11:47:00Z</time>
      </trkpt>
      <trkpt lat="47.84153" lon="6.92079">
        <ele>1055</ele>
        <time>2015-08-09T11:47:11Z</time>
      </trkpt>
      <trkpt lat="47.84157" lon="6.92062">
        <ele>1054</ele>
        <time>2015-08-09T11:47:25Z</time>
      </trkpt>
      <trkpt lat="47.84157" lon="6.92046">
        <ele>1059</ele>
        <time>2015-08-09T11:47:42Z</time>
      </trkpt>
      <trkpt lat="47.84156" lon="6.92041">
        <ele>1061</ele>
        <time>2015-08-09T11:47:44Z</time>
      </trkpt>
      <trkpt lat="47.84156" lon="6.92018">
        <ele>1061</ele>
        <time>2015-08-09T11:47:57Z</time>
      </trkpt>
      <trkpt lat="47.84158" lon="6.92009">
        <ele>1062</ele>
        <time>2015-08-09T11:48:07Z</time>
      </trkpt>
      <trkpt lat="47.84162" lon="6.91983">
        <ele>1068</ele>
        <time>2015-08-09T11:48:26Z</time>
      </trkpt>
      <trkpt lat="47.84161" lon="6.91981">
        <ele>1066</ele>
        <time>2015-08-09T11:48:32Z</time>
      </trkpt>
      <trkpt lat="47.84161" lon="6.91964">
        <ele>1066</ele>
        <time>2015-08-09T11:48:43Z</time>
      </trkpt>
      <trkpt lat="47.84162" lon="6.91956">
        <ele>1071</ele>
        <time>2015-08-09T11:48:52Z</time>
      </trkpt>
      <trkpt lat="47.84163" lon="6.91941">
        <ele>1072</ele>
        <time>2015-08-09T11:49:10Z</time>
      </trkpt>
      <trkpt lat="47.84163" lon="6.91937">
        <ele>1073</ele>
        <time>2015-08-09T11:49:15Z</time>
      </trkpt>
      <trkpt lat="47.84166" lon="6.91932">
        <ele>1072</ele>
        <time>2015-08-09T11:49:23Z</time>
      </trkpt>
      <trkpt lat="47.84173" lon="6.91918">
        <ele>1078</ele>
        <time>2015-08-09T11:49:41Z</time>
      </trkpt>
      <trkpt lat="47.84173" lon="6.91917">
        <ele>1077</ele>
        <time>2015-08-09T11:49:47Z</time>
      </trkpt>
      <trkpt lat="47.84173" lon="6.91915">
        <ele>1078</ele>
        <time>2015-08-09T11:49:48Z</time>
      </trkpt>
      <trkpt lat="47.84183" lon="6.91902">
        <ele>1078</ele>
        <time>2015-08-09T11:50:09Z</time>
      </trkpt>
      <trkpt lat="47.84186" lon="6.91893">
        <ele>1083</ele>
        <time>2015-08-09T11:50:19Z</time>
      </trkpt>
      <trkpt lat="47.84186" lon="6.91891">
        <ele>1085</ele>
        <time>2015-08-09T11:50:21Z</time>
      </trkpt>
      <trkpt lat="47.84187" lon="6.91878">
        <ele>1084</ele>
        <time>2015-08-09T11:50:32Z</time>
      </trkpt>
      <trkpt lat="47.84183" lon="6.91868">
        <ele>1077</ele>
        <time>2015-08-09T11:50:43Z</time>
      </trkpt>
      <trkpt lat="47.84182" lon="6.91845">
        <ele>1080</ele>
        <time>2015-08-09T11:50:58Z</time>
      </trkpt>
      <trkpt lat="47.84178" lon="6.91826">
        <ele>1083</ele>
        <time>2015-08-09T11:51:14Z</time>
      </trkpt>
      <trkpt lat="47.84177" lon="6.91825">
        <ele>1085</ele>
        <time>2015-08-09T11:51:17Z</time>
      </trkpt>
      <trkpt lat="47.84174" lon="6.91822">
        <ele>1084</ele>
        <time>2015-08-09T11:51:27Z</time>
      </trkpt>
      <trkpt lat="47.84163" lon="6.91813">
        <ele>1080</ele>
        <time>2015-08-09T11:51:44Z</time>
      </trkpt>
      <trkpt lat="47.84157" lon="6.91812">
        <ele>1080</ele>
        <time>2015-08-09T11:51:49Z</time>
      </trkpt>
      <trkpt lat="47.84142" lon="6.91803">
        <ele>1075</ele>
        <time>2015-08-09T11:52:07Z</time>
      </trkpt>
      <trkpt lat="47.84138" lon="6.91803">
        <ele>1078</ele>
        <time>2015-08-09T11:52:11Z</time>
      </trkpt>
      <trkpt lat="47.8413" lon="6.91801">
        <ele>1077</ele>
        <time>2015-08-09T11:52:22Z</time>
      </trkpt>
      <trkpt lat="47.8412" lon="6.91793">
        <ele>1077</ele>
        <time>2015-08-09T11:52:33Z</time>
      </trkpt>
      <trkpt lat="47.84111" lon="6.91784">
        <ele>1080</ele>
        <time>2015-08-09T11:52:44Z</time>
      </trkpt>
      <trkpt lat="47.84096" lon="6.91764">
        <ele>1080</ele>
        <time>2015-08-09T11:53:04Z</time>
      </trkpt>
      <trkpt lat="47.84095" lon="6.91763">
        <ele>1081</ele>
        <time>2015-08-09T11:53:06Z</time>
      </trkpt>
      <trkpt lat="47.84084" lon="6.91743">
        <ele>1081</ele>
        <time>2015-08-09T11:53:21Z</time>
      </trkpt>
      <trkpt lat="47.8408" lon="6.91737">
        <ele>1082</ele>
        <time>2015-08-09T11:53:28Z</time>
      </trkpt>
      <trkpt lat="47.84075" lon="6.91721">
        <ele>1084</ele>
        <time>2015-08-09T11:53:41Z</time>
      </trkpt>
      <trkpt lat="47.84068" lon="6.91705">
        <ele>1083</ele>
        <time>2015-08-09T11:53:52Z</time>
      </trkpt>
      <trkpt lat="47.8406" lon="6.91697">
        <ele>1082</ele>
        <time>2015-08-09T11:54:01Z</time>
      </trkpt>
      <trkpt lat="47.84052" lon="6.91685">
        <ele>1082</ele>
        <time>2015-08-09T11:54:12Z</time>
      </trkpt>
      <trkpt lat="47.84045" lon="6.9167">
        <ele>1085</ele>
        <time>2015-08-09T11:54:25Z</time>
      </trkpt>
      <trkpt lat="47.84039" lon="6.91658">
        <ele>1086</ele>
        <time>2015-08-09T11:54:34Z</time>
      </trkpt>
      <trkpt lat="47.84029" lon="6.91636">
        <ele>1083</ele>
        <time>2015-08-09T11:54:49Z</time>
      </trkpt>
      <trkpt lat="47.84025" lon="6.91626">
        <ele>1082</ele>
        <time>2015-08-09T11:54:56Z</time>
      </trkpt>
      <trkpt lat="47.84016" lon="6.9161">
        <ele>1079</ele>
        <time>2015-08-09T11:55:07Z</time>
      </trkpt>
      <trkpt lat="47.84005" lon="6.91584">
        <ele>1076</ele>
        <time>2015-08-09T11:55:25Z</time>
      </trkpt>
      <trkpt lat="47.84003" lon="6.91579">
        <ele>1077</ele>
        <time>2015-08-09T11:55:29Z</time>
      </trkpt>
      <trkpt lat="47.83998" lon="6.91565">
        <ele>1078</ele>
        <time>2015-08-09T11:55:40Z</time>
      </trkpt>
      <trkpt lat="47.83992" lon="6.91548">
        <ele>1080</ele>
        <time>2015-08-09T11:55:51Z</time>
      </trkpt>
      <trkpt lat="47.83986" lon="6.91536">
        <ele>1081</ele>
        <time>2015-08-09T11:56:02Z</time>
      </trkpt>
      <trkpt lat="47.8398" lon="6.91522">
        <ele>1083</ele>
        <time>2015-08-09T11:56:13Z</time>
      </trkpt>
      <trkpt lat="47.83976" lon="6.91512">
        <ele>1084</ele>
        <time>2015-08-09T11:56:24Z</time>
      </trkpt>
      <trkpt lat="47.83975" lon="6.9151">
        <ele>1087</ele>
        <time>2015-08-09T11:56:35Z</time>
      </trkpt>
      <trkpt lat="47.83974" lon="6.91508">
        <ele>1087</ele>
        <time>2015-08-09T11:56:38Z</time>
      </trkpt>
      <trkpt lat="47.83971" lon="6.91502">
        <ele>1090</ele>
        <time>2015-08-09T11:56:55Z</time>
      </trkpt>
      <trkpt lat="47.83968" lon="6.91495">
        <ele>1088</ele>
        <time>2015-08-09T11:57:00Z</time>
      </trkpt>
      <trkpt lat="47.83967" lon="6.91487">
        <ele>1086</ele>
        <time>2015-08-09T11:57:11Z</time>
      </trkpt>
      <trkpt lat="47.83967" lon="6.91484">
        <ele>1088</ele>
        <time>2015-08-09T11:57:22Z</time>
      </trkpt>
      <trkpt lat="47.83967" lon="6.91485">
        <ele>1088</ele>
        <time>2015-08-09T11:57:25Z</time>
      </trkpt>
      <trkpt lat="47.83968" lon="6.91485">
        <ele>1088</ele>
        <time>2015-08-09T11:57:28Z</time>
      </trkpt>
      <trkpt lat="47.83968" lon="6.91484">
        <ele>1089</ele>
        <time>2015-08-09T11:57:34Z</time>
      </trkpt>
      <trkpt lat="47.83968" lon="6.91483">
        <ele>1089</ele>
        <time>2015-08-09T11:57:40Z</time>
      </trkpt>
      <trkpt lat="47.83968" lon="6.91483">
        <ele>1089</ele>
        <time>2015-08-09T11:57:43Z</time>
      </trkpt>
      <trkpt lat="47.83968" lon="6.91483">
        <ele>1089</ele>
        <time>2015-08-09T11:57:46Z</time>
      </trkpt>
      <trkpt lat="47.83968" lon="6.91483">
        <ele>1089</ele>
        <time>2015-08-09T11:57:49Z</time>
      </trkpt>
      <trkpt lat="47.83968" lon="6.91483">
        <ele>1089</ele>
        <time>2015-08-09T11:57:52Z</time>
      </trkpt>
      <trkpt lat="47.83968" lon="6.91483">
        <ele>1089</ele>
        <time>2015-08-09T11:57:55Z</time>
      </trkpt>
      <trkpt lat="47.83968" lon="6.91483">
        <ele>1089</ele>
        <time>2015-08-09T11:57:58Z</time>
      </trkpt>
      <trkpt lat="47.83968" lon="6.91483">
        <ele>1089</ele>
        <time>2015-08-09T11:58:01Z</time>
      </trkpt>
      <trkpt lat="47.83966" lon="6.91484">
        <ele>1088</ele>
        <time>2015-08-09T11:58:04Z</time>
      </trkpt>
      <trkpt lat="47.83962" lon="6.91482">
        <ele>1084</ele>
        <time>2015-08-09T11:58:16Z</time>
      </trkpt>
      <trkpt lat="47.83959" lon="6.91477">
        <ele>1083</ele>
        <time>2015-08-09T11:58:26Z</time>
      </trkpt>
      <trkpt lat="47.83955" lon="6.91471">
        <ele>1087</ele>
        <time>2015-08-09T11:58:37Z</time>
      </trkpt>
      <trkpt lat="47.83947" lon="6.91466">
        <ele>1088</ele>
        <time>2015-08-09T11:58:50Z</time>
      </trkpt>
      <trkpt lat="47.83943" lon="6.91463">
        <ele>1090</ele>
        <time>2015-08-09T11:58:59Z</time>
      </trkpt>
      <trkpt lat="47.83941" lon="6.9146">
        <ele>1090</ele>
        <time>2015-08-09T11:59:10Z</time>
      </trkpt>
      <trkpt lat="47.83935" lon="6.91454">
        <ele>1096</ele>
        <time>2015-08-09T11:59:22Z</time>
      </trkpt>
      <trkpt lat="47.83932" lon="6.91449">
        <ele>1091</ele>
        <time>2015-08-09T11:59:32Z</time>
      </trkpt>
      <trkpt lat="47.83932" lon="6.91448">
        <ele>1092</ele>
        <time>2015-08-09T11:59:43Z</time>
      </trkpt>
      <trkpt lat="47.83933" lon="6.91447">
        <ele>1093</ele>
        <time>2015-08-09T11:59:46Z</time>
      </trkpt>
      <trkpt lat="47.8393" lon="6.91444">
        <ele>1092</ele>
        <time>2015-08-09T12:00:05Z</time>
      </trkpt>
      <trkpt lat="47.8393" lon="6.91444">
        <ele>1092</ele>
        <time>2015-08-09T12:00:07Z</time>
      </trkpt>
      <trkpt lat="47.8393" lon="6.91444">
        <ele>1092</ele>
        <time>2015-08-09T12:00:09Z</time>
      </trkpt>
      <trkpt lat="47.83926" lon="6.91445">
        <ele>1097</ele>
        <time>2015-08-09T12:00:13Z</time>
      </trkpt>
      <trkpt lat="47.8392" lon="6.91445">
        <ele>1094</ele>
        <time>2015-08-09T12:00:23Z</time>
      </trkpt>
      <trkpt lat="47.8391" lon="6.91436">
        <ele>1094</ele>
        <time>2015-08-09T12:00:38Z</time>
      </trkpt>
      <trkpt lat="47.83909" lon="6.9143">
        <ele>1097</ele>
        <time>2015-08-09T12:00:45Z</time>
      </trkpt>
      <trkpt lat="47.83901" lon="6.9142">
        <ele>1097</ele>
        <time>2015-08-09T12:00:56Z</time>
      </trkpt>
      <trkpt lat="47.83898" lon="6.91416">
        <ele>1095</ele>
        <time>2015-08-09T12:01:07Z</time>
      </trkpt>
      <trkpt lat="47.83878" lon="6.91391">
        <ele>1095</ele>
        <time>2015-08-09T12:01:25Z</time>
      </trkpt>
      <trkpt lat="47.83873" lon="6.91386">
        <ele>1093</ele>
        <time>2015-08-09T12:01:30Z</time>
      </trkpt>
      <trkpt lat="47.83864" lon="6.91378">
        <ele>1090</ele>
        <time>2015-08-09T12:01:41Z</time>
      </trkpt>
      <trkpt lat="47.83859" lon="6.91374">
        <ele>1096</ele>
        <time>2015-08-09T12:01:51Z</time>
      </trkpt>
      <trkpt lat="47.83853" lon="6.91369">
        <ele>1095</ele>
        <time>2015-08-09T12:02:03Z</time>
      </trkpt>
      <trkpt lat="47.8385" lon="6.91365">
        <ele>1093</ele>
        <time>2015-08-09T12:02:13Z</time>
      </trkpt>
      <trkpt lat="47.83841" lon="6.91362">
        <ele>1094</ele>
        <time>2015-08-09T12:02:25Z</time>
      </trkpt>
      <trkpt lat="47.83827" lon="6.91352">
        <ele>1089</ele>
        <time>2015-08-09T12:02:42Z</time>
      </trkpt>
      <trkpt lat="47.83825" lon="6.91347">
        <ele>1087</ele>
        <time>2015-08-09T12:02:47Z</time>
      </trkpt>
      <trkpt lat="47.83815" lon="6.91342">
        <ele>1088</ele>
        <time>2015-08-09T12:02:57Z</time>
      </trkpt>
      <trkpt lat="47.83797" lon="6.91332">
        <ele>1091</ele>
        <time>2015-08-09T12:03:13Z</time>
      </trkpt>
      <trkpt lat="47.83792" lon="6.91325">
        <ele>1093</ele>
        <time>2015-08-09T12:03:22Z</time>
      </trkpt>
      <trkpt lat="47.8378" lon="6.91313">
        <ele>1089</ele>
        <time>2015-08-09T12:03:40Z</time>
      </trkpt>
      <trkpt lat="47.83781" lon="6.91312">
        <ele>1089</ele>
        <time>2015-08-09T12:03:42Z</time>
      </trkpt>
      <trkpt lat="47.83776" lon="6.91309">
        <ele>1088</ele>
        <time>2015-08-09T12:03:52Z</time>
      </trkpt>
      <trkpt lat="47.83762" lon="6.91308">
        <ele>1086</ele>
        <time>2015-08-09T12:04:03Z</time>
      </trkpt>
      <trkpt lat="47.83752" lon="6.91304">
        <ele>1088</ele>
        <time>2015-08-09T12:04:14Z</time>
      </trkpt>
      <trkpt lat="47.8372" lon="6.91298">
        <ele>1071</ele>
        <time>2015-08-09T12:04:34Z</time>
      </trkpt>
      <trkpt lat="47.83716" lon="6.91297">
        <ele>1073</ele>
        <time>2015-08-09T12:04:40Z</time>
      </trkpt>
      <trkpt lat="47.83707" lon="6.91299">
        <ele>1070</ele>
        <time>2015-08-09T12:04:53Z</time>
      </trkpt>
      <trkpt lat="47.83707" lon="6.91298">
        <ele>1071</ele>
        <time>2015-08-09T12:04:58Z</time>
      </trkpt>
      <trkpt lat="47.83704" lon="6.913">
        <ele>1072</ele>
        <time>2015-08-09T12:05:01Z</time>
      </trkpt>
      <trkpt lat="47.8369" lon="6.91304">
        <ele>1071</ele>
        <time>2015-08-09T12:05:16Z</time>
      </trkpt>
      <trkpt lat="47.83682" lon="6.91308">
        <ele>1067</ele>
        <time>2015-08-09T12:05:23Z</time>
      </trkpt>
      <trkpt lat="47.83667" lon="6.91318">
        <ele>1073</ele>
        <time>2015-08-09T12:05:39Z</time>
      </trkpt>
      <trkpt lat="47.83661" lon="6.91323">
        <ele>1073</ele>
        <time>2015-08-09T12:05:47Z</time>
      </trkpt>
      <trkpt lat="47.83655" lon="6.91331">
        <ele>1076</ele>
        <time>2015-08-09T12:06:03Z</time>
      </trkpt>
      <trkpt lat="47.83653" lon="6.91331">
        <ele>1077</ele>
        <time>2015-08-09T12:06:08Z</time>
      </trkpt>
      <trkpt lat="47.83646" lon="6.91334">
        <ele>1079</ele>
        <time>2015-08-09T12:06:19Z</time>
      </trkpt>
      <trkpt lat="47.83641" lon="6.9134">
        <ele>1079</ele>
        <time>2015-08-09T12:06:29Z</time>
      </trkpt>
      <trkpt lat="47.83637" lon="6.91346">
        <ele>1077</ele>
        <time>2015-08-09T12:06:47Z</time>
      </trkpt>
      <trkpt lat="47.83637" lon="6.91346">
        <ele>1077</ele>
        <time>2015-08-09T12:06:51Z</time>
      </trkpt>
      <trkpt lat="47.83637" lon="6.91346">
        <ele>1077</ele>
        <time>2015-08-09T12:06:54Z</time>
      </trkpt>
      <trkpt lat="47.83637" lon="6.91346">
        <ele>1077</ele>
        <time>2015-08-09T12:06:57Z</time>
      </trkpt>
      <trkpt lat="47.83637" lon="6.91346">
        <ele>1077</ele>
        <time>2015-08-09T12:07:00Z</time>
      </trkpt>
      <trkpt lat="47.83637" lon="6.91346">
        <ele>1077</ele>
        <time>2015-08-09T12:07:03Z</time>
      </trkpt>
      <trkpt lat="47.83637" lon="6.91346">
        <ele>1077</ele>
        <time>2015-08-09T12:07:08Z</time>
      </trkpt>
      <trkpt lat="47.83637" lon="6.91346">
        <ele>1077</ele>
        <time>2015-08-09T12:07:10Z</time>
      </trkpt>
      <trkpt lat="47.83637" lon="6.91346">
        <ele>1077</ele>
        <time>2015-08-09T12:07:12Z</time>
      </trkpt>
      <trkpt lat="47.83637" lon="6.91346">
        <ele>1077</ele>
        <time>2015-08-09T12:07:15Z</time>
      </trkpt>
      <trkpt lat="47.83637" lon="6.91346">
        <ele>1077</ele>
        <time>2015-08-09T12:07:18Z</time>
      </trkpt>
      <trkpt lat="47.83637" lon="6.91346">
        <ele>1077</ele>
        <time>2015-08-09T12:07:21Z</time>
      </trkpt>
      <trkpt lat="47.83637" lon="6.91349">
        <ele>1077</ele>
        <time>2015-08-09T12:07:24Z</time>
      </trkpt>
      <trkpt lat="47.83624" lon="6.91359">
        <ele>1076</ele>
        <time>2015-08-09T12:07:41Z</time>
      </trkpt>
      <trkpt lat="47.8362" lon="6.91361">
        <ele>1080</ele>
        <time>2015-08-09T12:07:46Z</time>
      </trkpt>
      <trkpt lat="47.83608" lon="6.91364">
        <ele>1078</ele>
        <time>2015-08-09T12:07:57Z</time>
      </trkpt>
      <trkpt lat="47.83601" lon="6.91368">
        <ele>1071</ele>
        <time>2015-08-09T12:08:08Z</time>
      </trkpt>
      <trkpt lat="47.83599" lon="6.91371">
        <ele>1067</ele>
        <time>2015-08-09T12:08:19Z</time>
      </trkpt>
      <trkpt lat="47.83595" lon="6.91363">
        <ele>1065</ele>
        <time>2015-08-09T12:08:34Z</time>
      </trkpt>
      <trkpt lat="47.83595" lon="6.9136">
        <ele>1067</ele>
        <time>2015-08-09T12:08:41Z</time>
      </trkpt>
      <trkpt lat="47.83598" lon="6.91353">
        <ele>1070</ele>
        <time>2015-08-09T12:08:52Z</time>
      </trkpt>
      <trkpt lat="47.83603" lon="6.91341">
        <ele>1064</ele>
        <time>2015-08-09T12:09:11Z</time>
      </trkpt>
      <trkpt lat="47.83602" lon="6.91337">
        <ele>1065</ele>
        <time>2015-08-09T12:09:18Z</time>
      </trkpt>
      <trkpt lat="47.836" lon="6.91336">
        <ele>1064</ele>
        <time>2015-08-09T12:09:28Z</time>
      </trkpt>
      <trkpt lat="47.83591" lon="6.91334">
        <ele>1066</ele>
        <time>2015-08-09T12:09:36Z</time>
      </trkpt>
      <trkpt lat="47.83585" lon="6.91331">
        <ele>1066</ele>
        <time>2015-08-09T12:09:48Z</time>
      </trkpt>
      <trkpt lat="47.83582" lon="6.91335">
        <ele>1062</ele>
        <time>2015-08-09T12:09:58Z</time>
      </trkpt>
      <trkpt lat="47.83581" lon="6.91335">
        <ele>1061</ele>
        <time>2015-08-09T12:10:09Z</time>
      </trkpt>
      <trkpt lat="47.8358" lon="6.91333">
        <ele>1062</ele>
        <time>2015-08-09T12:10:12Z</time>
      </trkpt>
      <trkpt lat="47.83579" lon="6.91326">
        <ele>1060</ele>
        <time>2015-08-09T12:10:23Z</time>
      </trkpt>
      <trkpt lat="47.83586" lon="6.91323">
        <ele>1058</ele>
        <time>2015-08-09T12:10:34Z</time>
      </trkpt>
      <trkpt lat="47.83585" lon="6.91318">
        <ele>1053</ele>
        <time>2015-08-09T12:10:46Z</time>
      </trkpt>
      <trkpt lat="47.83582" lon="6.91317">
        <ele>1047</ele>
        <time>2015-08-09T12:10:58Z</time>
      </trkpt>
      <trkpt lat="47.8358" lon="6.91317">
        <ele>1047</ele>
        <time>2015-08-09T12:11:07Z</time>
      </trkpt>
      <trkpt lat="47.8358" lon="6.91314">
        <ele>1049</ele>
        <time>2015-08-09T12:11:10Z</time>
      </trkpt>
      <trkpt lat="47.83579" lon="6.91305">
        <ele>1051</ele>
        <time>2015-08-09T12:11:21Z</time>
      </trkpt>
      <trkpt lat="47.83578" lon="6.91301">
        <ele>1051</ele>
        <time>2015-08-09T12:11:32Z</time>
      </trkpt>
      <trkpt lat="47.83571" lon="6.91296">
        <ele>1047</ele>
        <time>2015-08-09T12:11:53Z</time>
      </trkpt>
      <trkpt lat="47.83568" lon="6.91296">
        <ele>1042</ele>
        <time>2015-08-09T12:11:57Z</time>
      </trkpt>
      <trkpt lat="47.83564" lon="6.91296">
        <ele>1042</ele>
        <time>2015-08-09T12:12:05Z</time>
      </trkpt>
      <trkpt lat="47.83557" lon="6.91303">
        <ele>1037</ele>
        <time>2015-08-09T12:12:17Z</time>
      </trkpt>
      <trkpt lat="47.83553" lon="6.91306">
        <ele>1032</ele>
        <time>2015-08-09T12:12:27Z</time>
      </trkpt>
      <trkpt lat="47.83552" lon="6.91304">
        <ele>1035</ele>
        <time>2015-08-09T12:12:38Z</time>
      </trkpt>
      <trkpt lat="47.83552" lon="6.91298">
        <ele>1035</ele>
        <time>2015-08-09T12:12:41Z</time>
      </trkpt>
      <trkpt lat="47.83552" lon="6.91286">
        <ele>1032</ele>
        <time>2015-08-09T12:12:56Z</time>
      </trkpt>
      <trkpt lat="47.83551" lon="6.91276">
        <ele>1034</ele>
        <time>2015-08-09T12:13:03Z</time>
      </trkpt>
      <trkpt lat="47.83555" lon="6.91267">
        <ele>1031</ele>
        <time>2015-08-09T12:13:14Z</time>
      </trkpt>
      <trkpt lat="47.83558" lon="6.91254">
        <ele>1033</ele>
        <time>2015-08-09T12:13:30Z</time>
      </trkpt>
      <trkpt lat="47.83565" lon="6.91243">
        <ele>1026</ele>
        <time>2015-08-09T12:13:43Z</time>
      </trkpt>
      <trkpt lat="47.83565" lon="6.9124">
        <ele>1030</ele>
        <time>2015-08-09T12:13:48Z</time>
      </trkpt>
      <trkpt lat="47.83565" lon="6.91232">
        <ele>1020</ele>
        <time>2015-08-09T12:14:07Z</time>
      </trkpt>
      <trkpt lat="47.83564" lon="6.91231">
        <ele>1016</ele>
        <time>2015-08-09T12:14:14Z</time>
      </trkpt>
      <trkpt lat="47.83563" lon="6.91231">
        <ele>1016</ele>
        <time>2015-08-09T12:14:17Z</time>
      </trkpt>
      <trkpt lat="47.83554" lon="6.91236">
        <ele>1018</ele>
        <time>2015-08-09T12:14:32Z</time>
      </trkpt>
      <trkpt lat="47.83551" lon="6.91238">
        <ele>1017</ele>
        <time>2015-08-09T12:14:38Z</time>
      </trkpt>
      <trkpt lat="47.8355" lon="6.91246">
        <ele>1013</ele>
        <time>2015-08-09T12:14:49Z</time>
      </trkpt>
      <trkpt lat="47.83547" lon="6.91245">
        <ele>1008</ele>
        <time>2015-08-09T12:15:00Z</time>
      </trkpt>
      <trkpt lat="47.83539" lon="6.91248">
        <ele>1005</ele>
        <time>2015-08-09T12:15:12Z</time>
      </trkpt>
      <trkpt lat="47.83527" lon="6.91249">
        <ele>1008</ele>
        <time>2015-08-09T12:15:24Z</time>
      </trkpt>
      <trkpt lat="47.83513" lon="6.91255">
        <ele>1013</ele>
        <time>2015-08-09T12:15:42Z</time>
      </trkpt>
      <trkpt lat="47.83511" lon="6.91256">
        <ele>1014</ele>
        <time>2015-08-09T12:15:45Z</time>
      </trkpt>
      <trkpt lat="47.8351" lon="6.91264">
        <ele>1008</ele>
        <time>2015-08-09T12:15:55Z</time>
      </trkpt>
      <trkpt lat="47.835" lon="6.91275">
        <ele>1004</ele>
        <time>2015-08-09T12:16:10Z</time>
      </trkpt>
      <trkpt lat="47.83498" lon="6.91277">
        <ele>1003</ele>
        <time>2015-08-09T12:16:21Z</time>
      </trkpt>
      <trkpt lat="47.83494" lon="6.91277">
        <ele>1004</ele>
        <time>2015-08-09T12:16:32Z</time>
      </trkpt>
      <trkpt lat="47.83493" lon="6.91276">
        <ele>1004</ele>
        <time>2015-08-09T12:16:44Z</time>
      </trkpt>
      <trkpt lat="47.83491" lon="6.91273">
        <ele>1005</ele>
        <time>2015-08-09T12:16:47Z</time>
      </trkpt>
      <trkpt lat="47.83495" lon="6.91259">
        <ele>1004</ele>
        <time>2015-08-09T12:16:58Z</time>
      </trkpt>
      <trkpt lat="47.835" lon="6.91254">
        <ele>999</ele>
        <time>2015-08-09T12:17:10Z</time>
      </trkpt>
      <trkpt lat="47.835" lon="6.91242">
        <ele>997</ele>
        <time>2015-08-09T12:17:21Z</time>
      </trkpt>
      <trkpt lat="47.83501" lon="6.91225">
        <ele>999</ele>
        <time>2015-08-09T12:17:34Z</time>
      </trkpt>
      <trkpt lat="47.83506" lon="6.91218">
        <ele>1000</ele>
        <time>2015-08-09T12:17:44Z</time>
      </trkpt>
      <trkpt lat="47.83509" lon="6.91215">
        <ele>991</ele>
        <time>2015-08-09T12:17:58Z</time>
      </trkpt>
      <trkpt lat="47.83511" lon="6.91212">
        <ele>986</ele>
        <time>2015-08-09T12:18:04Z</time>
      </trkpt>
      <trkpt lat="47.83512" lon="6.91204">
        <ele>983</ele>
        <time>2015-08-09T12:18:20Z</time>
      </trkpt>
      <trkpt lat="47.83514" lon="6.91203">
        <ele>979</ele>
        <time>2015-08-09T12:18:26Z</time>
      </trkpt>
      <trkpt lat="47.83511" lon="6.91195">
        <ele>976</ele>
        <time>2015-08-09T12:18:46Z</time>
      </trkpt>
      <trkpt lat="47.83506" lon="6.91196">
        <ele>976</ele>
        <time>2015-08-09T12:18:56Z</time>
      </trkpt>
      <trkpt lat="47.83503" lon="6.91195">
        <ele>976</ele>
        <time>2015-08-09T12:19:00Z</time>
      </trkpt>
      <trkpt lat="47.83496" lon="6.91198">
        <ele>974</ele>
        <time>2015-08-09T12:19:10Z</time>
      </trkpt>
      <trkpt lat="47.83492" lon="6.91202">
        <ele>972</ele>
        <time>2015-08-09T12:19:21Z</time>
      </trkpt>
      <trkpt lat="47.83474" lon="6.91206">
        <ele>974</ele>
        <time>2015-08-09T12:19:41Z</time>
      </trkpt>
      <trkpt lat="47.83469" lon="6.91208">
        <ele>973</ele>
        <time>2015-08-09T12:19:48Z</time>
      </trkpt>
      <trkpt lat="47.83467" lon="6.91211">
        <ele>970</ele>
        <time>2015-08-09T12:19:55Z</time>
      </trkpt>
      <trkpt lat="47.83464" lon="6.91215">
        <ele>969</ele>
        <time>2015-08-09T12:20:05Z</time>
      </trkpt>
      <trkpt lat="47.83457" lon="6.91218">
        <ele>967</ele>
        <time>2015-08-09T12:20:17Z</time>
      </trkpt>
      <trkpt lat="47.83453" lon="6.91224">
        <ele>962</ele>
        <time>2015-08-09T12:20:27Z</time>
      </trkpt>
      <trkpt lat="47.83447" lon="6.91218">
        <ele>965</ele>
        <time>2015-08-09T12:20:38Z</time>
      </trkpt>
      <trkpt lat="47.83445" lon="6.91208">
        <ele>965</ele>
        <time>2015-08-09T12:20:49Z</time>
      </trkpt>
      <trkpt lat="47.83442" lon="6.9119">
        <ele>964</ele>
        <time>2015-08-09T12:21:01Z</time>
      </trkpt>
      <trkpt lat="47.8345" lon="6.9119">
        <ele>957</ele>
        <time>2015-08-09T12:21:12Z</time>
      </trkpt>
      <trkpt lat="47.83458" lon="6.91179">
        <ele>955</ele>
        <time>2015-08-09T12:21:24Z</time>
      </trkpt>
      <trkpt lat="47.8346" lon="6.91163">
        <ele>958</ele>
        <time>2015-08-09T12:21:39Z</time>
      </trkpt>
      <trkpt lat="47.83469" lon="6.91143">
        <ele>958</ele>
        <time>2015-08-09T12:21:54Z</time>
      </trkpt>
      <trkpt lat="47.83469" lon="6.91141">
        <ele>958</ele>
        <time>2015-08-09T12:21:55Z</time>
      </trkpt>
      <trkpt lat="47.83476" lon="6.91125">
        <ele>958</ele>
        <time>2015-08-09T12:22:12Z</time>
      </trkpt>
      <trkpt lat="47.83478" lon="6.91121">
        <ele>956</ele>
        <time>2015-08-09T12:22:17Z</time>
      </trkpt>
      <trkpt lat="47.83485" lon="6.91118">
        <ele>953</ele>
        <time>2015-08-09T12:22:30Z</time>
      </trkpt>
      <trkpt lat="47.83491" lon="6.91106">
        <ele>953</ele>
        <time>2015-08-09T12:22:46Z</time>
      </trkpt>
      <trkpt lat="47.835" lon="6.911">
        <ele>950</ele>
        <time>2015-08-09T12:22:55Z</time>
      </trkpt>
      <trkpt lat="47.83502" lon="6.91101">
        <ele>948</ele>
        <time>2015-08-09T12:23:01Z</time>
      </trkpt>
      <trkpt lat="47.83504" lon="6.91096">
        <ele>945</ele>
        <time>2015-08-09T12:23:14Z</time>
      </trkpt>
      <trkpt lat="47.83506" lon="6.91087">
        <ele>943</ele>
        <time>2015-08-09T12:23:23Z</time>
      </trkpt>
      <trkpt lat="47.83507" lon="6.9107">
        <ele>941</ele>
        <time>2015-08-09T12:23:40Z</time>
      </trkpt>
      <trkpt lat="47.8351" lon="6.9107">
        <ele>938</ele>
        <time>2015-08-09T12:23:47Z</time>
      </trkpt>
      <trkpt lat="47.83509" lon="6.91054">
        <ele>939</ele>
        <time>2015-08-09T12:24:06Z</time>
      </trkpt>
      <trkpt lat="47.83509" lon="6.91054">
        <ele>939</ele>
        <time>2015-08-09T12:24:07Z</time>
      </trkpt>
      <trkpt lat="47.83508" lon="6.91053">
        <ele>937</ele>
        <time>2015-08-09T12:24:13Z</time>
      </trkpt>
      <trkpt lat="47.83503" lon="6.91047">
        <ele>937</ele>
        <time>2015-08-09T12:24:31Z</time>
      </trkpt>
      <trkpt lat="47.83504" lon="6.91046">
        <ele>935</ele>
        <time>2015-08-09T12:24:39Z</time>
      </trkpt>
      <trkpt lat="47.83504" lon="6.91045">
        <ele>934</ele>
        <time>2015-08-09T12:24:41Z</time>
      </trkpt>
      <trkpt lat="47.83504" lon="6.91044">
        <ele>933</ele>
        <time>2015-08-09T12:24:44Z</time>
      </trkpt>
      <trkpt lat="47.83508" lon="6.91035">
        <ele>933</ele>
        <time>2015-08-09T12:24:56Z</time>
      </trkpt>
      <trkpt lat="47.83519" lon="6.91022">
        <ele>929</ele>
        <time>2015-08-09T12:25:13Z</time>
      </trkpt>
      <trkpt lat="47.83521" lon="6.91018">
        <ele>929</ele>
        <time>2015-08-09T12:25:17Z</time>
      </trkpt>
      <trkpt lat="47.83526" lon="6.91011">
        <ele>926</ele>
        <time>2015-08-09T12:25:34Z</time>
      </trkpt>
      <trkpt lat="47.83533" lon="6.91005">
        <ele>921</ele>
        <time>2015-08-09T12:25:46Z</time>
      </trkpt>
      <trkpt lat="47.83534" lon="6.91002">
        <ele>918</ele>
        <time>2015-08-09T12:25:58Z</time>
      </trkpt>
      <trkpt lat="47.83533" lon="6.91002">
        <ele>917</ele>
        <time>2015-08-09T12:26:00Z</time>
      </trkpt>
      <trkpt lat="47.83533" lon="6.90997">
        <ele>918</ele>
        <time>2015-08-09T12:26:11Z</time>
      </trkpt>
      <trkpt lat="47.83533" lon="6.90997">
        <ele>918</ele>
        <time>2015-08-09T12:26:13Z</time>
      </trkpt>
      <trkpt lat="47.83527" lon="6.90992">
        <ele>916</ele>
        <time>2015-08-09T12:26:25Z</time>
      </trkpt>
      <trkpt lat="47.83526" lon="6.90993">
        <ele>916</ele>
        <time>2015-08-09T12:26:27Z</time>
      </trkpt>
      <trkpt lat="47.8352" lon="6.90989">
        <ele>916</ele>
        <time>2015-08-09T12:26:38Z</time>
      </trkpt>
      <trkpt lat="47.83513" lon="6.9099">
        <ele>914</ele>
        <time>2015-08-09T12:26:49Z</time>
      </trkpt>
      <trkpt lat="47.83503" lon="6.90986">
        <ele>915</ele>
        <time>2015-08-09T12:27:04Z</time>
      </trkpt>
      <trkpt lat="47.83494" lon="6.90988">
        <ele>909</ele>
        <time>2015-08-09T12:27:20Z</time>
      </trkpt>
      <trkpt lat="47.83495" lon="6.90987">
        <ele>908</ele>
        <time>2015-08-09T12:27:25Z</time>
      </trkpt>
      <trkpt lat="47.83495" lon="6.90987">
        <ele>907</ele>
        <time>2015-08-09T12:27:28Z</time>
      </trkpt>
      <trkpt lat="47.83495" lon="6.90987">
        <ele>907</ele>
        <time>2015-08-09T12:27:31Z</time>
      </trkpt>
      <trkpt lat="47.83494" lon="6.90986">
        <ele>907</ele>
        <time>2015-08-09T12:27:35Z</time>
      </trkpt>
      <trkpt lat="47.83498" lon="6.90977">
        <ele>911</ele>
        <time>2015-08-09T12:27:49Z</time>
      </trkpt>
      <trkpt lat="47.83499" lon="6.90973">
        <ele>911</ele>
        <time>2015-08-09T12:27:56Z</time>
      </trkpt>
      <trkpt lat="47.83504" lon="6.90958">
        <ele>913</ele>
        <time>2015-08-09T12:28:09Z</time>
      </trkpt>
      <trkpt lat="47.83509" lon="6.90951">
        <ele>910</ele>
        <time>2015-08-09T12:28:18Z</time>
      </trkpt>
      <trkpt lat="47.83515" lon="6.90945">
        <ele>905</ele>
        <time>2015-08-09T12:28:29Z</time>
      </trkpt>
      <trkpt lat="47.83525" lon="6.90943">
        <ele>904</ele>
        <time>2015-08-09T12:28:48Z</time>
      </trkpt>
      <trkpt lat="47.83533" lon="6.90931">
        <ele>907</ele>
        <time>2015-08-09T12:29:01Z</time>
      </trkpt>
      <trkpt lat="47.83533" lon="6.90931">
        <ele>907</ele>
        <time>2015-08-09T12:29:02Z</time>
      </trkpt>
      <trkpt lat="47.8354" lon="6.9091">
        <ele>905</ele>
        <time>2015-08-09T12:29:23Z</time>
      </trkpt>
      <trkpt lat="47.83541" lon="6.90907">
        <ele>904</ele>
        <time>2015-08-09T12:29:25Z</time>
      </trkpt>
      <trkpt lat="47.83546" lon="6.909">
        <ele>900</ele>
        <time>2015-08-09T12:29:35Z</time>
      </trkpt>
      <trkpt lat="47.83545" lon="6.90899">
        <ele>900</ele>
        <time>2015-08-09T12:29:46Z</time>
      </trkpt>
      <trkpt lat="47.83544" lon="6.90889">
        <ele>895</ele>
        <time>2015-08-09T12:29:54Z</time>
      </trkpt>
      <trkpt lat="47.83539" lon="6.90884">
        <ele>895</ele>
        <time>2015-08-09T12:30:08Z</time>
      </trkpt>
      <trkpt lat="47.83538" lon="6.90884">
        <ele>895</ele>
        <time>2015-08-09T12:30:13Z</time>
      </trkpt>
      <trkpt lat="47.83538" lon="6.90884">
        <ele>894</ele>
        <time>2015-08-09T12:30:14Z</time>
      </trkpt>
      <trkpt lat="47.83538" lon="6.90885">
        <ele>893</ele>
        <time>2015-08-09T12:30:17Z</time>
      </trkpt>
      <trkpt lat="47.83538" lon="6.90886">
        <ele>893</ele>
        <time>2015-08-09T12:30:28Z</time>
      </trkpt>
      <trkpt lat="47.83538" lon="6.90886">
        <ele>893</ele>
        <time>2015-08-09T12:30:31Z</time>
      </trkpt>
      <trkpt lat="47.83538" lon="6.90886">
        <ele>893</ele>
        <time>2015-08-09T12:30:35Z</time>
      </trkpt>
      <trkpt lat="47.83538" lon="6.90886">
        <ele>893</ele>
        <time>2015-08-09T12:30:37Z</time>
      </trkpt>
      <trkpt lat="47.83538" lon="6.90885">
        <ele>894</ele>
        <time>2015-08-09T12:30:40Z</time>
      </trkpt>
      <trkpt lat="47.83532" lon="6.9087">
        <ele>893</ele>
        <time>2015-08-09T12:31:00Z</time>
      </trkpt>
      <trkpt lat="47.83529" lon="6.90866">
        <ele>889</ele>
        <time>2015-08-09T12:31:10Z</time>
      </trkpt>
      <trkpt lat="47.83525" lon="6.90864">
        <ele>889</ele>
        <time>2015-08-09T12:31:13Z</time>
      </trkpt>
      <trkpt lat="47.83526" lon="6.90866">
        <ele>887</ele>
        <time>2015-08-09T12:31:25Z</time>
      </trkpt>
      <trkpt lat="47.83526" lon="6.90866">
        <ele>887</ele>
        <time>2015-08-09T12:31:29Z</time>
      </trkpt>
      <trkpt lat="47.83526" lon="6.90866">
        <ele>887</ele>
        <time>2015-08-09T12:31:30Z</time>
      </trkpt>
      <trkpt lat="47.83526" lon="6.90866">
        <ele>887</ele>
        <time>2015-08-09T12:31:34Z</time>
      </trkpt>
      <trkpt lat="47.83526" lon="6.90866">
        <ele>887</ele>
        <time>2015-08-09T12:31:37Z</time>
      </trkpt>
      <trkpt lat="47.83526" lon="6.90866">
        <ele>887</ele>
        <time>2015-08-09T12:31:39Z</time>
      </trkpt>
      <trkpt lat="47.83523" lon="6.90864">
        <ele>886</ele>
        <time>2015-08-09T12:31:42Z</time>
      </trkpt>
      <trkpt lat="47.83515" lon="6.90859">
        <ele>881</ele>
        <time>2015-08-09T12:31:56Z</time>
      </trkpt>
      <trkpt lat="47.83511" lon="6.90859">
        <ele>880</ele>
        <time>2015-08-09T12:32:12Z</time>
      </trkpt>
      <trkpt lat="47.83511" lon="6.90859">
        <ele>880</ele>
        <time>2015-08-09T12:32:15Z</time>
      </trkpt>
      <trkpt lat="47.83503" lon="6.90853">
        <ele>882</ele>
        <time>2015-08-09T12:32:24Z</time>
      </trkpt>
      <trkpt lat="47.835" lon="6.90852">
        <ele>881</ele>
        <time>2015-08-09T12:32:30Z</time>
      </trkpt>
      <trkpt lat="47.83498" lon="6.90854">
        <ele>878</ele>
        <time>2015-08-09T12:32:41Z</time>
      </trkpt>
      <trkpt lat="47.83493" lon="6.90853">
        <ele>876</ele>
        <time>2015-08-09T12:32:54Z</time>
      </trkpt>
      <trkpt lat="47.8349" lon="6.90854">
        <ele>875</ele>
        <time>2015-08-09T12:33:02Z</time>
      </trkpt>
      <trkpt lat="47.8348" lon="6.90851">
        <ele>871</ele>
        <time>2015-08-09T12:33:14Z</time>
      </trkpt>
      <trkpt lat="47.83475" lon="6.9085">
        <ele>862</ele>
        <time>2015-08-09T12:33:25Z</time>
      </trkpt>
      <trkpt lat="47.83475" lon="6.90849">
        <ele>862</ele>
        <time>2015-08-09T12:33:35Z</time>
      </trkpt>
      <trkpt lat="47.83475" lon="6.90849">
        <ele>863</ele>
        <time>2015-08-09T12:33:38Z</time>
      </trkpt>
      <trkpt lat="47.83467" lon="6.90847">
        <ele>860</ele>
        <time>2015-08-09T12:33:50Z</time>
      </trkpt>
      <trkpt lat="47.83466" lon="6.90845">
        <ele>859</ele>
        <time>2015-08-09T12:33:53Z</time>
      </trkpt>
      <trkpt lat="47.83453" lon="6.90835">
        <ele>861</ele>
        <time>2015-08-09T12:34:06Z</time>
      </trkpt>
      <trkpt lat="47.83451" lon="6.9084">
        <ele>856</ele>
        <time>2015-08-09T12:34:20Z</time>
      </trkpt>
      <trkpt lat="47.83442" lon="6.90833">
        <ele>855</ele>
        <time>2015-08-09T12:34:31Z</time>
      </trkpt>
      <trkpt lat="47.83438" lon="6.90832">
        <ele>853</ele>
        <time>2015-08-09T12:34:42Z</time>
      </trkpt>
      <trkpt lat="47.83436" lon="6.90833">
        <ele>851</ele>
        <time>2015-08-09T12:34:53Z</time>
      </trkpt>
      <trkpt lat="47.83436" lon="6.90833">
        <ele>851</ele>
        <time>2015-08-09T12:34:56Z</time>
      </trkpt>
      <trkpt lat="47.83424" lon="6.90825">
        <ele>848</ele>
        <time>2015-08-09T12:35:05Z</time>
      </trkpt>
      <trkpt lat="47.8342" lon="6.90823">
        <ele>844</ele>
        <time>2015-08-09T12:35:10Z</time>
      </trkpt>
      <trkpt lat="47.83398" lon="6.90819">
        <ele>838</ele>
        <time>2015-08-09T12:35:26Z</time>
      </trkpt>
      <trkpt lat="47.83396" lon="6.90819">
        <ele>835</ele>
        <time>2015-08-09T12:35:39Z</time>
      </trkpt>
      <trkpt lat="47.83395" lon="6.90819">
        <ele>835</ele>
        <time>2015-08-09T12:35:43Z</time>
      </trkpt>
      <trkpt lat="47.83393" lon="6.90819">
        <ele>836</ele>
        <time>2015-08-09T12:35:46Z</time>
      </trkpt>
      <trkpt lat="47.83388" lon="6.90818">
        <ele>834</ele>
        <time>2015-08-09T12:35:57Z</time>
      </trkpt>
      <trkpt lat="47.83387" lon="6.90814">
        <ele>832</ele>
        <time>2015-08-09T12:36:09Z</time>
      </trkpt>
      <trkpt lat="47.83385" lon="6.90811">
        <ele>830</ele>
        <time>2015-08-09T12:36:19Z</time>
      </trkpt>
      <trkpt lat="47.83383" lon="6.90809">
        <ele>830</ele>
        <time>2015-08-09T12:36:31Z</time>
      </trkpt>
      <trkpt lat="47.83382" lon="6.90804">
        <ele>830</ele>
        <time>2015-08-09T12:36:41Z</time>
      </trkpt>
      <trkpt lat="47.83381" lon="6.90801">
        <ele>829</ele>
        <time>2015-08-09T12:36:57Z</time>
      </trkpt>
      <trkpt lat="47.83381" lon="6.908">
        <ele>825</ele>
        <time>2015-08-09T12:37:04Z</time>
      </trkpt>
      <trkpt lat="47.83381" lon="6.90798">
        <ele>827</ele>
        <time>2015-08-09T12:37:14Z</time>
      </trkpt>
      <trkpt lat="47.83381" lon="6.90797">
        <ele>827</ele>
        <time>2015-08-09T12:37:16Z</time>
      </trkpt>
      <trkpt lat="47.8338" lon="6.90794">
        <ele>830</ele>
        <time>2015-08-09T12:37:31Z</time>
      </trkpt>
      <trkpt lat="47.8338" lon="6.90794">
        <ele>830</ele>
        <time>2015-08-09T12:37:33Z</time>
      </trkpt>
      <trkpt lat="47.8338" lon="6.90794">
        <ele>830</ele>
        <time>2015-08-09T12:37:36Z</time>
      </trkpt>
      <trkpt lat="47.8338" lon="6.90794">
        <ele>829</ele>
        <time>2015-08-09T12:37:39Z</time>
      </trkpt>
      <trkpt lat="47.8338" lon="6.90794">
        <ele>829</ele>
        <time>2015-08-09T12:37:43Z</time>
      </trkpt>
      <trkpt lat="47.8338" lon="6.90794">
        <ele>829</ele>
        <time>2015-08-09T12:37:45Z</time>
      </trkpt>
      <trkpt lat="47.83381" lon="6.90795">
        <ele>827</ele>
        <time>2015-08-09T12:37:52Z</time>
      </trkpt>
      <trkpt lat="47.8338" lon="6.90795">
        <ele>829</ele>
        <time>2015-08-09T12:37:57Z</time>
      </trkpt>
      <trkpt lat="47.83379" lon="6.90795">
        <ele>829</ele>
        <time>2015-08-09T12:38:03Z</time>
      </trkpt>
      <trkpt lat="47.83379" lon="6.90795">
        <ele>829</ele>
        <time>2015-08-09T12:38:07Z</time>
      </trkpt>
      <trkpt lat="47.83379" lon="6.90795">
        <ele>829</ele>
        <time>2015-08-09T12:38:09Z</time>
      </trkpt>
      <trkpt lat="47.83379" lon="6.90795">
        <ele>829</ele>
        <time>2015-08-09T12:38:12Z</time>
      </trkpt>
      <trkpt lat="47.83379" lon="6.90795">
        <ele>829</ele>
        <time>2015-08-09T12:38:15Z</time>
      </trkpt>
      <trkpt lat="47.83379" lon="6.90795">
        <ele>829</ele>
        <time>2015-08-09T12:38:19Z</time>
      </trkpt>
      <trkpt lat="47.83379" lon="6.90795">
        <ele>829</ele>
        <time>2015-08-09T12:38:21Z</time>
      </trkpt>
      <trkpt lat="47.83379" lon="6.90795">
        <ele>829</ele>
        <time>2015-08-09T12:38:25Z</time>
      </trkpt>
      <trkpt lat="47.83379" lon="6.90795">
        <ele>829</ele>
        <time>2015-08-09T12:38:27Z</time>
      </trkpt>
      <trkpt lat="47.83379" lon="6.90795">
        <ele>829</ele>
        <time>2015-08-09T12:38:30Z</time>
      </trkpt>
      <trkpt lat="47.83379" lon="6.90795">
        <ele>829</ele>
        <time>2015-08-09T12:38:33Z</time>
      </trkpt>
      <trkpt lat="47.83379" lon="6.90795">
        <ele>829</ele>
        <time>2015-08-09T12:38:36Z</time>
      </trkpt>
      <trkpt lat="47.83379" lon="6.90795">
        <ele>830</ele>
        <time>2015-08-09T12:38:39Z</time>
      </trkpt>
      <trkpt lat="47.83379" lon="6.90795">
        <ele>830</ele>
        <time>2015-08-09T12:38:43Z</time>
      </trkpt>
      <trkpt lat="47.8338" lon="6.90794">
        <ele>826</ele>
        <time>2015-08-09T12:38:48Z</time>
      </trkpt>
      <trkpt lat="47.8338" lon="6.90794">
        <ele>825</ele>
        <time>2015-08-09T12:38:52Z</time>
      </trkpt>
      <trkpt lat="47.8338" lon="6.90795">
        <ele>825</ele>
        <time>2015-08-09T12:38:57Z</time>
      </trkpt>
      <trkpt lat="47.8338" lon="6.90795">
        <ele>825</ele>
        <time>2015-08-09T12:39:00Z</time>
      </trkpt>
      <trkpt lat="47.8338" lon="6.90794">
        <ele>826</ele>
        <time>2015-08-09T12:39:03Z</time>
      </trkpt>
      <trkpt lat="47.8338" lon="6.90795">
        <ele>827</ele>
        <time>2015-08-09T12:39:12Z</time>
      </trkpt>
      <trkpt lat="47.83379" lon="6.90795">
        <ele>826</ele>
        <time>2015-08-09T12:39:17Z</time>
      </trkpt>
      <trkpt lat="47.83379" lon="6.90796">
        <ele>826</ele>
        <time>2015-08-09T12:39:26Z</time>
      </trkpt>
      <trkpt lat="47.83379" lon="6.90796">
        <ele>826</ele>
        <time>2015-08-09T12:39:30Z</time>
      </trkpt>
      <trkpt lat="47.83379" lon="6.90796">
        <ele>826</ele>
        <time>2015-08-09T12:39:33Z</time>
      </trkpt>
      <trkpt lat="47.83379" lon="6.90796">
        <ele>826</ele>
        <time>2015-08-09T12:39:35Z</time>
      </trkpt>
      <trkpt lat="47.83379" lon="6.90796">
        <ele>826</ele>
        <time>2015-08-09T12:39:38Z</time>
      </trkpt>
      <trkpt lat="47.83379" lon="6.90796">
        <ele>826</ele>
        <time>2015-08-09T12:39:41Z</time>
      </trkpt>
      <trkpt lat="47.83379" lon="6.90796">
        <ele>827</ele>
        <time>2015-08-09T12:39:45Z</time>
      </trkpt>
      <trkpt lat="47.83379" lon="6.90796">
        <ele>827</ele>
        <time>2015-08-09T12:39:47Z</time>
      </trkpt>
      <trkpt lat="47.83378" lon="6.90796">
        <ele>827</ele>
        <time>2015-08-09T12:39:50Z</time>
      </trkpt>
      <trkpt lat="47.83378" lon="6.90796">
        <ele>827</ele>
        <time>2015-08-09T12:39:54Z</time>
      </trkpt>
      <trkpt lat="47.83378" lon="6.90796">
        <ele>827</ele>
        <time>2015-08-09T12:39:56Z</time>
      </trkpt>
      <trkpt lat="47.83378" lon="6.90796">
        <ele>827</ele>
        <time>2015-08-09T12:40:00Z</time>
      </trkpt>
      <trkpt lat="47.83378" lon="6.90796">
        <ele>827</ele>
        <time>2015-08-09T12:40:02Z</time>
      </trkpt>
      <trkpt lat="47.83378" lon="6.90795">
        <ele>826</ele>
        <time>2015-08-09T12:40:08Z</time>
      </trkpt>
      <trkpt lat="47.83378" lon="6.90794">
        <ele>824</ele>
        <time>2015-08-09T12:40:14Z</time>
      </trkpt>
      <trkpt lat="47.83378" lon="6.90793">
        <ele>825</ele>
        <time>2015-08-09T12:40:17Z</time>
      </trkpt>
      <trkpt lat="47.83378" lon="6.90793">
        <ele>825</ele>
        <time>2015-08-09T12:40:20Z</time>
      </trkpt>
      <trkpt lat="47.83378" lon="6.90793">
        <ele>825</ele>
        <time>2015-08-09T12:40:23Z</time>
      </trkpt>
      <trkpt lat="47.83378" lon="6.90793">
        <ele>825</ele>
        <time>2015-08-09T12:40:26Z</time>
      </trkpt>
      <trkpt lat="47.83378" lon="6.90793">
        <ele>825</ele>
        <time>2015-08-09T12:40:29Z</time>
      </trkpt>
      <trkpt lat="47.83378" lon="6.90793">
        <ele>825</ele>
        <time>2015-08-09T12:40:32Z</time>
      </trkpt>
      <trkpt lat="47.83378" lon="6.90793">
        <ele>825</ele>
        <time>2015-08-09T12:40:35Z</time>
      </trkpt>
      <trkpt lat="47.83378" lon="6.90793">
        <ele>825</ele>
        <time>2015-08-09T12:40:38Z</time>
      </trkpt>
      <trkpt lat="47.83378" lon="6.90793">
        <ele>825</ele>
        <time>2015-08-09T12:40:41Z</time>
      </trkpt>
      <trkpt lat="47.83378" lon="6.90793">
        <ele>825</ele>
        <time>2015-08-09T12:40:44Z</time>
      </trkpt>
      <trkpt lat="47.83378" lon="6.90793">
        <ele>825</ele>
        <time>2015-08-09T12:40:47Z</time>
      </trkpt>
      <trkpt lat="47.83378" lon="6.90793">
        <ele>825</ele>
        <time>2015-08-09T12:40:50Z</time>
      </trkpt>
      <trkpt lat="47.83378" lon="6.90793">
        <ele>825</ele>
        <time>2015-08-09T12:40:53Z</time>
      </trkpt>
      <trkpt lat="47.83378" lon="6.90793">
        <ele>825</ele>
        <time>2015-08-09T12:40:56Z</time>
      </trkpt>
      <trkpt lat="47.83378" lon="6.90793">
        <ele>825</ele>
        <time>2015-08-09T12:40:59Z</time>
      </trkpt>
      <trkpt lat="47.83378" lon="6.90793">
        <ele>825</ele>
        <time>2015-08-09T12:41:02Z</time>
      </trkpt>
      <trkpt lat="47.83378" lon="6.90793">
        <ele>825</ele>
        <time>2015-08-09T12:41:05Z</time>
      </trkpt>
      <trkpt lat="47.83378" lon="6.90793">
        <ele>825</ele>
        <time>2015-08-09T12:41:08Z</time>
      </trkpt>
      <trkpt lat="47.83378" lon="6.90793">
        <ele>825</ele>
        <time>2015-08-09T12:41:11Z</time>
      </trkpt>
      <trkpt lat="47.83378" lon="6.90793">
        <ele>825</ele>
        <time>2015-08-09T12:41:14Z</time>
      </trkpt>
      <trkpt lat="47.83378" lon="6.90793">
        <ele>825</ele>
        <time>2015-08-09T12:41:17Z</time>
      </trkpt>
      <trkpt lat="47.83378" lon="6.90793">
        <ele>825</ele>
        <time>2015-08-09T12:41:20Z</time>
      </trkpt>
      <trkpt lat="47.83378" lon="6.90793">
        <ele>825</ele>
        <time>2015-08-09T12:41:23Z</time>
      </trkpt>
      <trkpt lat="47.83378" lon="6.90793">
        <ele>825</ele>
        <time>2015-08-09T12:41:26Z</time>
      </trkpt>
      <trkpt lat="47.83378" lon="6.90793">
        <ele>825</ele>
        <time>2015-08-09T12:41:29Z</time>
      </trkpt>
      <trkpt lat="47.83378" lon="6.90793">
        <ele>825</ele>
        <time>2015-08-09T12:41:32Z</time>
      </trkpt>
      <trkpt lat="47.83378" lon="6.90793">
        <ele>825</ele>
        <time>2015-08-09T12:41:35Z</time>
      </trkpt>
      <trkpt lat="47.83378" lon="6.90793">
        <ele>825</ele>
        <time>2015-08-09T12:41:40Z</time>
      </trkpt>
      <trkpt lat="47.83378" lon="6.90793">
        <ele>825</ele>
        <time>2015-08-09T12:41:41Z</time>
      </trkpt>
      <trkpt lat="47.83378" lon="6.90792">
        <ele>825</ele>
        <time>2015-08-09T12:41:44Z</time>
      </trkpt>
      <trkpt lat="47.83378" lon="6.90792">
        <ele>825</ele>
        <time>2015-08-09T12:41:47Z</time>
      </trkpt>
      <trkpt lat="47.83378" lon="6.90792">
        <ele>825</ele>
        <time>2015-08-09T12:41:50Z</time>
      </trkpt>
      <trkpt lat="47.83378" lon="6.90792">
        <ele>825</ele>
        <time>2015-08-09T12:41:53Z</time>
      </trkpt>
      <trkpt lat="47.83378" lon="6.90792">
        <ele>825</ele>
        <time>2015-08-09T12:41:56Z</time>
      </trkpt>
      <trkpt lat="47.83378" lon="6.90792">
        <ele>825</ele>
        <time>2015-08-09T12:41:59Z</time>
      </trkpt>
      <trkpt lat="47.83378" lon="6.90792">
        <ele>825</ele>
        <time>2015-08-09T12:42:03Z</time>
      </trkpt>
      <trkpt lat="47.83378" lon="6.90792">
        <ele>825</ele>
        <time>2015-08-09T12:42:05Z</time>
      </trkpt>
      <trkpt lat="47.83378" lon="6.90792">
        <ele>825</ele>
        <time>2015-08-09T12:42:08Z</time>
      </trkpt>
      <trkpt lat="47.83378" lon="6.90792">
        <ele>825</ele>
        <time>2015-08-09T12:42:11Z</time>
      </trkpt>
      <trkpt lat="47.83378" lon="6.90792">
        <ele>825</ele>
        <time>2015-08-09T12:42:14Z</time>
      </trkpt>
      <trkpt lat="47.83378" lon="6.90792">
        <ele>825</ele>
        <time>2015-08-09T12:42:17Z</time>
      </trkpt>
      <trkpt lat="47.83378" lon="6.90792">
        <ele>825</ele>
        <time>2015-08-09T12:42:20Z</time>
      </trkpt>
      <trkpt lat="47.83378" lon="6.90792">
        <ele>825</ele>
        <time>2015-08-09T12:42:23Z</time>
      </trkpt>
      <trkpt lat="47.83378" lon="6.90792">
        <ele>825</ele>
        <time>2015-08-09T12:42:26Z</time>
      </trkpt>
      <trkpt lat="47.83378" lon="6.90792">
        <ele>825</ele>
        <time>2015-08-09T12:42:29Z</time>
      </trkpt>
      <trkpt lat="47.83378" lon="6.90792">
        <ele>825</ele>
        <time>2015-08-09T12:42:32Z</time>
      </trkpt>
      <trkpt lat="47.83378" lon="6.90792">
        <ele>825</ele>
        <time>2015-08-09T12:42:35Z</time>
      </trkpt>
      <trkpt lat="47.83378" lon="6.90792">
        <ele>825</ele>
        <time>2015-08-09T12:42:38Z</time>
      </trkpt>
      <trkpt lat="47.83378" lon="6.90792">
        <ele>825</ele>
        <time>2015-08-09T12:42:41Z</time>
      </trkpt>
      <trkpt lat="47.83378" lon="6.90792">
        <ele>825</ele>
        <time>2015-08-09T12:42:46Z</time>
      </trkpt>
      <trkpt lat="47.83378" lon="6.90792">
        <ele>825</ele>
        <time>2015-08-09T12:42:47Z</time>
      </trkpt>
      <trkpt lat="47.83378" lon="6.90792">
        <ele>825</ele>
        <time>2015-08-09T12:42:50Z</time>
      </trkpt>
      <trkpt lat="47.83378" lon="6.90792">
        <ele>825</ele>
        <time>2015-08-09T12:42:53Z</time>
      </trkpt>
      <trkpt lat="47.83378" lon="6.90792">
        <ele>825</ele>
        <time>2015-08-09T12:42:56Z</time>
      </trkpt>
      <trkpt lat="47.83378" lon="6.90792">
        <ele>825</ele>
        <time>2015-08-09T12:42:59Z</time>
      </trkpt>
      <trkpt lat="47.83378" lon="6.90792">
        <ele>825</ele>
        <time>2015-08-09T12:43:02Z</time>
      </trkpt>
      <trkpt lat="47.83378" lon="6.90792">
        <ele>825</ele>
        <time>2015-08-09T12:43:07Z</time>
      </trkpt>
      <trkpt lat="47.83378" lon="6.90792">
        <ele>825</ele>
        <time>2015-08-09T12:43:08Z</time>
      </trkpt>
      <trkpt lat="47.83378" lon="6.90792">
        <ele>825</ele>
        <time>2015-08-09T12:43:11Z</time>
      </trkpt>
      <trkpt lat="47.83378" lon="6.90792">
        <ele>825</ele>
        <time>2015-08-09T12:43:14Z</time>
      </trkpt>
      <trkpt lat="47.83378" lon="6.90792">
        <ele>825</ele>
        <time>2015-08-09T12:43:18Z</time>
      </trkpt>
      <trkpt lat="47.83378" lon="6.90792">
        <ele>825</ele>
        <time>2015-08-09T12:43:20Z</time>
      </trkpt>
      <trkpt lat="47.83378" lon="6.90792">
        <ele>825</ele>
        <time>2015-08-09T12:43:23Z</time>
      </trkpt>
      <trkpt lat="47.83378" lon="6.90792">
        <ele>825</ele>
        <time>2015-08-09T12:43:26Z</time>
      </trkpt>
      <trkpt lat="47.83378" lon="6.90792">
        <ele>825</ele>
        <time>2015-08-09T12:43:29Z</time>
      </trkpt>
      <trkpt lat="47.83378" lon="6.90792">
        <ele>825</ele>
        <time>2015-08-09T12:43:33Z</time>
      </trkpt>
      <trkpt lat="47.83378" lon="6.90792">
        <ele>825</ele>
        <time>2015-08-09T12:43:35Z</time>
      </trkpt>
      <trkpt lat="47.83378" lon="6.90792">
        <ele>826</ele>
        <time>2015-08-09T12:43:38Z</time>
      </trkpt>
      <trkpt lat="47.83378" lon="6.90792">
        <ele>826</ele>
        <time>2015-08-09T12:43:42Z</time>
      </trkpt>
      <trkpt lat="47.83378" lon="6.90792">
        <ele>826</ele>
        <time>2015-08-09T12:43:44Z</time>
      </trkpt>
      <trkpt lat="47.83378" lon="6.90792">
        <ele>826</ele>
        <time>2015-08-09T12:43:48Z</time>
      </trkpt>
      <trkpt lat="47.83378" lon="6.90792">
        <ele>826</ele>
        <time>2015-08-09T12:43:51Z</time>
      </trkpt>
      <trkpt lat="47.83378" lon="6.90792">
        <ele>826</ele>
        <time>2015-08-09T12:43:53Z</time>
      </trkpt>
      <trkpt lat="47.83378" lon="6.90792">
        <ele>826</ele>
        <time>2015-08-09T12:43:56Z</time>
      </trkpt>
      <trkpt lat="47.83378" lon="6.90792">
        <ele>826</ele>
        <time>2015-08-09T12:43:59Z</time>
      </trkpt>
      <trkpt lat="47.83378" lon="6.90791">
        <ele>826</ele>
        <time>2015-08-09T12:44:04Z</time>
      </trkpt>
      <trkpt lat="47.83378" lon="6.90791">
        <ele>826</ele>
        <time>2015-08-09T12:44:05Z</time>
      </trkpt>
      <trkpt lat="47.83378" lon="6.90791">
        <ele>826</ele>
        <time>2015-08-09T12:44:09Z</time>
      </trkpt>
      <trkpt lat="47.83378" lon="6.90792">
        <ele>826</ele>
        <time>2015-08-09T12:44:13Z</time>
      </trkpt>
      <trkpt lat="47.83378" lon="6.90792">
        <ele>826</ele>
        <time>2015-08-09T12:44:14Z</time>
      </trkpt>
      <trkpt lat="47.83378" lon="6.90792">
        <ele>826</ele>
        <time>2015-08-09T12:44:17Z</time>
      </trkpt>
      <trkpt lat="47.83378" lon="6.90791">
        <ele>826</ele>
        <time>2015-08-09T12:44:20Z</time>
      </trkpt>
      <trkpt lat="47.83378" lon="6.90791">
        <ele>826</ele>
        <time>2015-08-09T12:44:23Z</time>
      </trkpt>
      <trkpt lat="47.83378" lon="6.90791">
        <ele>826</ele>
        <time>2015-08-09T12:44:28Z</time>
      </trkpt>
      <trkpt lat="47.83378" lon="6.90791">
        <ele>826</ele>
        <time>2015-08-09T12:44:29Z</time>
      </trkpt>
      <trkpt lat="47.83378" lon="6.90791">
        <ele>826</ele>
        <time>2015-08-09T12:44:32Z</time>
      </trkpt>
      <trkpt lat="47.83378" lon="6.90791">
        <ele>826</ele>
        <time>2015-08-09T12:44:35Z</time>
      </trkpt>
      <trkpt lat="47.83378" lon="6.90791">
        <ele>826</ele>
        <time>2015-08-09T12:44:38Z</time>
      </trkpt>
      <trkpt lat="47.83378" lon="6.90791">
        <ele>826</ele>
        <time>2015-08-09T12:44:41Z</time>
      </trkpt>
      <trkpt lat="47.83378" lon="6.90791">
        <ele>826</ele>
        <time>2015-08-09T12:44:44Z</time>
      </trkpt>
      <trkpt lat="47.83378" lon="6.90791">
        <ele>826</ele>
        <time>2015-08-09T12:44:49Z</time>
      </trkpt>
      <trkpt lat="47.83378" lon="6.90791">
        <ele>826</ele>
        <time>2015-08-09T12:44:50Z</time>
      </trkpt>
      <trkpt lat="47.83378" lon="6.90791">
        <ele>826</ele>
        <time>2015-08-09T12:44:53Z</time>
      </trkpt>
      <trkpt lat="47.83378" lon="6.90791">
        <ele>826</ele>
        <time>2015-08-09T12:44:56Z</time>
      </trkpt>
      <trkpt lat="47.83378" lon="6.90791">
        <ele>826</ele>
        <time>2015-08-09T12:45:00Z</time>
      </trkpt>
      <trkpt lat="47.83378" lon="6.90791">
        <ele>826</ele>
        <time>2015-08-09T12:45:02Z</time>
      </trkpt>
      <trkpt lat="47.83378" lon="6.90791">
        <ele>826</ele>
        <time>2015-08-09T12:45:05Z</time>
      </trkpt>
      <trkpt lat="47.83378" lon="6.90791">
        <ele>826</ele>
        <time>2015-08-09T12:45:08Z</time>
      </trkpt>
      <trkpt lat="47.83378" lon="6.90791">
        <ele>826</ele>
        <time>2015-08-09T12:45:11Z</time>
      </trkpt>
      <trkpt lat="47.83378" lon="6.90791">
        <ele>826</ele>
        <time>2015-08-09T12:45:14Z</time>
      </trkpt>
      <trkpt lat="47.83378" lon="6.90791">
        <ele>826</ele>
        <time>2015-08-09T12:45:17Z</time>
      </trkpt>
      <trkpt lat="47.83378" lon="6.90791">
        <ele>826</ele>
        <time>2015-08-09T12:45:20Z</time>
      </trkpt>
      <trkpt lat="47.83378" lon="6.90791">
        <ele>826</ele>
        <time>2015-08-09T12:45:23Z</time>
      </trkpt>
      <trkpt lat="47.83378" lon="6.90791">
        <ele>826</ele>
        <time>2015-08-09T12:45:26Z</time>
      </trkpt>
      <trkpt lat="47.83378" lon="6.90791">
        <ele>826</ele>
        <time>2015-08-09T12:45:29Z</time>
      </trkpt>
      <trkpt lat="47.83378" lon="6.90791">
        <ele>826</ele>
        <time>2015-08-09T12:45:34Z</time>
      </trkpt>
      <trkpt lat="47.83378" lon="6.90791">
        <ele>826</ele>
        <time>2015-08-09T12:45:35Z</time>
      </trkpt>
      <trkpt lat="47.83378" lon="6.90791">
        <ele>826</ele>
        <time>2015-08-09T12:45:38Z</time>
      </trkpt>
      <trkpt lat="47.83378" lon="6.90791">
        <ele>826</ele>
        <time>2015-08-09T12:45:41Z</time>
      </trkpt>
      <trkpt lat="47.83378" lon="6.90791">
        <ele>826</ele>
        <time>2015-08-09T12:45:44Z</time>
      </trkpt>
      <trkpt lat="47.83378" lon="6.90791">
        <ele>826</ele>
        <time>2015-08-09T12:45:47Z</time>
      </trkpt>
      <trkpt lat="47.83378" lon="6.90791">
        <ele>826</ele>
        <time>2015-08-09T12:45:50Z</time>
      </trkpt>
      <trkpt lat="47.83378" lon="6.90791">
        <ele>826</ele>
        <time>2015-08-09T12:45:54Z</time>
      </trkpt>
      <trkpt lat="47.83378" lon="6.90791">
        <ele>826</ele>
        <time>2015-08-09T12:45:56Z</time>
      </trkpt>
      <trkpt lat="47.83378" lon="6.90791">
        <ele>826</ele>
        <time>2015-08-09T12:45:59Z</time>
      </trkpt>
      <trkpt lat="47.83378" lon="6.90791">
        <ele>826</ele>
        <time>2015-08-09T12:46:02Z</time>
      </trkpt>
      <trkpt lat="47.83378" lon="6.90791">
        <ele>826</ele>
        <time>2015-08-09T12:46:05Z</time>
      </trkpt>
      <trkpt lat="47.83378" lon="6.9079">
        <ele>826</ele>
        <time>2015-08-09T12:46:09Z</time>
      </trkpt>
      <trkpt lat="47.83378" lon="6.90791">
        <ele>825</ele>
        <time>2015-08-09T12:46:14Z</time>
      </trkpt>
      <trkpt lat="47.83378" lon="6.90791">
        <ele>825</ele>
        <time>2015-08-09T12:46:17Z</time>
      </trkpt>
      <trkpt lat="47.83379" lon="6.90791">
        <ele>825</ele>
        <time>2015-08-09T12:46:24Z</time>
      </trkpt>
      <trkpt lat="47.8338" lon="6.90789">
        <ele>820</ele>
        <time>2015-08-09T12:46:32Z</time>
      </trkpt>
      <trkpt lat="47.83379" lon="6.90789">
        <ele>820</ele>
        <time>2015-08-09T12:46:35Z</time>
      </trkpt>
      <trkpt lat="47.8338" lon="6.9079">
        <ele>822</ele>
        <time>2015-08-09T12:46:41Z</time>
      </trkpt>
      <trkpt lat="47.8338" lon="6.9079">
        <ele>822</ele>
        <time>2015-08-09T12:46:44Z</time>
      </trkpt>
      <trkpt lat="47.8338" lon="6.9079">
        <ele>822</ele>
        <time>2015-08-09T12:46:47Z</time>
      </trkpt>
      <trkpt lat="47.8338" lon="6.9079">
        <ele>822</ele>
        <time>2015-08-09T12:46:50Z</time>
      </trkpt>
      <trkpt lat="47.8338" lon="6.9079">
        <ele>822</ele>
        <time>2015-08-09T12:46:53Z</time>
      </trkpt>
      <trkpt lat="47.8338" lon="6.90791">
        <ele>822</ele>
        <time>2015-08-09T12:46:56Z</time>
      </trkpt>
      <trkpt lat="47.83381" lon="6.90793">
        <ele>823</ele>
        <time>2015-08-09T12:47:10Z</time>
      </trkpt>
      <trkpt lat="47.83381" lon="6.90793">
        <ele>824</ele>
        <time>2015-08-09T12:47:13Z</time>
      </trkpt>
      <trkpt lat="47.83381" lon="6.90793">
        <ele>824</ele>
        <time>2015-08-09T12:47:16Z</time>
      </trkpt>
      <trkpt lat="47.83381" lon="6.90793">
        <ele>824</ele>
        <time>2015-08-09T12:47:19Z</time>
      </trkpt>
      <trkpt lat="47.83381" lon="6.90793">
        <ele>824</ele>
        <time>2015-08-09T12:47:22Z</time>
      </trkpt>
      <trkpt lat="47.83381" lon="6.90793">
        <ele>824</ele>
        <time>2015-08-09T12:47:27Z</time>
      </trkpt>
      <trkpt lat="47.83381" lon="6.90793">
        <ele>824</ele>
        <time>2015-08-09T12:47:28Z</time>
      </trkpt>
      <trkpt lat="47.83381" lon="6.90793">
        <ele>824</ele>
        <time>2015-08-09T12:47:31Z</time>
      </trkpt>
      <trkpt lat="47.8338" lon="6.90791">
        <ele>823</ele>
        <time>2015-08-09T12:47:40Z</time>
      </trkpt>
      <trkpt lat="47.8338" lon="6.90792">
        <ele>824</ele>
        <time>2015-08-09T12:47:43Z</time>
      </trkpt>
      <trkpt lat="47.83381" lon="6.90791">
        <ele>824</ele>
        <time>2015-08-09T12:47:46Z</time>
      </trkpt>
      <trkpt lat="47.83381" lon="6.90791">
        <ele>824</ele>
        <time>2015-08-09T12:47:50Z</time>
      </trkpt>
      <trkpt lat="47.8338" lon="6.90791">
        <ele>824</ele>
        <time>2015-08-09T12:47:54Z</time>
      </trkpt>
      <trkpt lat="47.8338" lon="6.90791">
        <ele>824</ele>
        <time>2015-08-09T12:47:57Z</time>
      </trkpt>
      <trkpt lat="47.8338" lon="6.90791">
        <ele>824</ele>
        <time>2015-08-09T12:47:58Z</time>
      </trkpt>
      <trkpt lat="47.8338" lon="6.90791">
        <ele>824</ele>
        <time>2015-08-09T12:48:02Z</time>
      </trkpt>
      <trkpt lat="47.8338" lon="6.90791">
        <ele>824</ele>
        <time>2015-08-09T12:48:04Z</time>
      </trkpt>
      <trkpt lat="47.8338" lon="6.90791">
        <ele>824</ele>
        <time>2015-08-09T12:48:07Z</time>
      </trkpt>
      <trkpt lat="47.8338" lon="6.90791">
        <ele>824</ele>
        <time>2015-08-09T12:48:10Z</time>
      </trkpt>
      <trkpt lat="47.8338" lon="6.90791">
        <ele>824</ele>
        <time>2015-08-09T12:48:13Z</time>
      </trkpt>
      <trkpt lat="47.8338" lon="6.90791">
        <ele>824</ele>
        <time>2015-08-09T12:48:16Z</time>
      </trkpt>
      <trkpt lat="47.8338" lon="6.90791">
        <ele>824</ele>
        <time>2015-08-09T12:48:19Z</time>
      </trkpt>
      <trkpt lat="47.8338" lon="6.90791">
        <ele>824</ele>
        <time>2015-08-09T12:48:24Z</time>
      </trkpt>
      <trkpt lat="47.8338" lon="6.90791">
        <ele>824</ele>
        <time>2015-08-09T12:48:25Z</time>
      </trkpt>
      <trkpt lat="47.8338" lon="6.90791">
        <ele>824</ele>
        <time>2015-08-09T12:48:28Z</time>
      </trkpt>
      <trkpt lat="47.8338" lon="6.90791">
        <ele>824</ele>
        <time>2015-08-09T12:48:33Z</time>
      </trkpt>
      <trkpt lat="47.8338" lon="6.90791">
        <ele>824</ele>
        <time>2015-08-09T12:48:34Z</time>
      </trkpt>
      <trkpt lat="47.8338" lon="6.90791">
        <ele>824</ele>
        <time>2015-08-09T12:48:37Z</time>
      </trkpt>
      <trkpt lat="47.8338" lon="6.90791">
        <ele>824</ele>
        <time>2015-08-09T12:48:40Z</time>
      </trkpt>
      <trkpt lat="47.8338" lon="6.90791">
        <ele>824</ele>
        <time>2015-08-09T12:48:43Z</time>
      </trkpt>
      <trkpt lat="47.8338" lon="6.90791">
        <ele>824</ele>
        <time>2015-08-09T12:48:46Z</time>
      </trkpt>
      <trkpt lat="47.8338" lon="6.90791">
        <ele>824</ele>
        <time>2015-08-09T12:48:49Z</time>
      </trkpt>
      <trkpt lat="47.8338" lon="6.90791">
        <ele>824</ele>
        <time>2015-08-09T12:48:52Z</time>
      </trkpt>
      <trkpt lat="47.8338" lon="6.90791">
        <ele>824</ele>
        <time>2015-08-09T12:48:55Z</time>
      </trkpt>
      <trkpt lat="47.8338" lon="6.90791">
        <ele>824</ele>
        <time>2015-08-09T12:48:58Z</time>
      </trkpt>
      <trkpt lat="47.8338" lon="6.90791">
        <ele>824</ele>
        <time>2015-08-09T12:49:01Z</time>
      </trkpt>
      <trkpt lat="47.8338" lon="6.90791">
        <ele>824</ele>
        <time>2015-08-09T12:49:04Z</time>
      </trkpt>
      <trkpt lat="47.8338" lon="6.9079">
        <ele>824</ele>
        <time>2015-08-09T12:49:07Z</time>
      </trkpt>
      <trkpt lat="47.8338" lon="6.9079">
        <ele>824</ele>
        <time>2015-08-09T12:49:10Z</time>
      </trkpt>
      <trkpt lat="47.8338" lon="6.9079">
        <ele>825</ele>
        <time>2015-08-09T12:49:13Z</time>
      </trkpt>
      <trkpt lat="47.8338" lon="6.9079">
        <ele>825</ele>
        <time>2015-08-09T12:49:16Z</time>
      </trkpt>
      <trkpt lat="47.8338" lon="6.9079">
        <ele>825</ele>
        <time>2015-08-09T12:49:19Z</time>
      </trkpt>
      <trkpt lat="47.8338" lon="6.9079">
        <ele>825</ele>
        <time>2015-08-09T12:49:22Z</time>
      </trkpt>
      <trkpt lat="47.8338" lon="6.9079">
        <ele>825</ele>
        <time>2015-08-09T12:49:25Z</time>
      </trkpt>
      <trkpt lat="47.8338" lon="6.9079">
        <ele>825</ele>
        <time>2015-08-09T12:49:28Z</time>
      </trkpt>
      <trkpt lat="47.8338" lon="6.9079">
        <ele>825</ele>
        <time>2015-08-09T12:49:31Z</time>
      </trkpt>
      <trkpt lat="47.8338" lon="6.9079">
        <ele>825</ele>
        <time>2015-08-09T12:49:34Z</time>
      </trkpt>
      <trkpt lat="47.8338" lon="6.9079">
        <ele>825</ele>
        <time>2015-08-09T12:49:37Z</time>
      </trkpt>
      <trkpt lat="47.8338" lon="6.9079">
        <ele>825</ele>
        <time>2015-08-09T12:49:40Z</time>
      </trkpt>
      <trkpt lat="47.8338" lon="6.9079">
        <ele>825</ele>
        <time>2015-08-09T12:49:43Z</time>
      </trkpt>
      <trkpt lat="47.8338" lon="6.9079">
        <ele>825</ele>
        <time>2015-08-09T12:49:47Z</time>
      </trkpt>
      <trkpt lat="47.8338" lon="6.9079">
        <ele>825</ele>
        <time>2015-08-09T12:49:49Z</time>
      </trkpt>
      <trkpt lat="47.8338" lon="6.9079">
        <ele>825</ele>
        <time>2015-08-09T12:49:52Z</time>
      </trkpt>
      <trkpt lat="47.8338" lon="6.9079">
        <ele>825</ele>
        <time>2015-08-09T12:49:55Z</time>
      </trkpt>
      <trkpt lat="47.8338" lon="6.9079">
        <ele>825</ele>
        <time>2015-08-09T12:49:58Z</time>
      </trkpt>
      <trkpt lat="47.8338" lon="6.9079">
        <ele>825</ele>
        <time>2015-08-09T12:50:01Z</time>
      </trkpt>
      <trkpt lat="47.8338" lon="6.9079">
        <ele>825</ele>
        <time>2015-08-09T12:50:04Z</time>
      </trkpt>
      <trkpt lat="47.8338" lon="6.9079">
        <ele>825</ele>
        <time>2015-08-09T12:50:07Z</time>
      </trkpt>
      <trkpt lat="47.8338" lon="6.9079">
        <ele>825</ele>
        <time>2015-08-09T12:50:10Z</time>
      </trkpt>
      <trkpt lat="47.8338" lon="6.9079">
        <ele>825</ele>
        <time>2015-08-09T12:50:13Z</time>
      </trkpt>
      <trkpt lat="47.8338" lon="6.9079">
        <ele>825</ele>
        <time>2015-08-09T12:50:16Z</time>
      </trkpt>
      <trkpt lat="47.8338" lon="6.9079">
        <ele>825</ele>
        <time>2015-08-09T12:50:19Z</time>
      </trkpt>
      <trkpt lat="47.8338" lon="6.9079">
        <ele>825</ele>
        <time>2015-08-09T12:50:22Z</time>
      </trkpt>
      <trkpt lat="47.8338" lon="6.9079">
        <ele>825</ele>
        <time>2015-08-09T12:50:25Z</time>
      </trkpt>
      <trkpt lat="47.8338" lon="6.9079">
        <ele>825</ele>
        <time>2015-08-09T12:50:28Z</time>
      </trkpt>
      <trkpt lat="47.8338" lon="6.9079">
        <ele>825</ele>
        <time>2015-08-09T12:50:31Z</time>
      </trkpt>
      <trkpt lat="47.8338" lon="6.9079">
        <ele>825</ele>
        <time>2015-08-09T12:50:34Z</time>
      </trkpt>
      <trkpt lat="47.8338" lon="6.9079">
        <ele>825</ele>
        <time>2015-08-09T12:50:37Z</time>
      </trkpt>
      <trkpt lat="47.8338" lon="6.9079">
        <ele>825</ele>
        <time>2015-08-09T12:50:40Z</time>
      </trkpt>
      <trkpt lat="47.8338" lon="6.9079">
        <ele>825</ele>
        <time>2015-08-09T12:50:43Z</time>
      </trkpt>
      <trkpt lat="47.8338" lon="6.9079">
        <ele>825</ele>
        <time>2015-08-09T12:50:46Z</time>
      </trkpt>
      <trkpt lat="47.8338" lon="6.9079">
        <ele>825</ele>
        <time>2015-08-09T12:50:49Z</time>
      </trkpt>
      <trkpt lat="47.8338" lon="6.9079">
        <ele>825</ele>
        <time>2015-08-09T12:50:52Z</time>
      </trkpt>
      <trkpt lat="47.8338" lon="6.9079">
        <ele>825</ele>
        <time>2015-08-09T12:50:55Z</time>
      </trkpt>
      <trkpt lat="47.8338" lon="6.9079">
        <ele>825</ele>
        <time>2015-08-09T12:50:58Z</time>
      </trkpt>
      <trkpt lat="47.8338" lon="6.9079">
        <ele>825</ele>
        <time>2015-08-09T12:51:03Z</time>
      </trkpt>
      <trkpt lat="47.8338" lon="6.9079">
        <ele>825</ele>
        <time>2015-08-09T12:51:04Z</time>
      </trkpt>
      <trkpt lat="47.8338" lon="6.9079">
        <ele>825</ele>
        <time>2015-08-09T12:51:07Z</time>
      </trkpt>
      <trkpt lat="47.8338" lon="6.9079">
        <ele>825</ele>
        <time>2015-08-09T12:51:10Z</time>
      </trkpt>
      <trkpt lat="47.8338" lon="6.9079">
        <ele>825</ele>
        <time>2015-08-09T12:51:13Z</time>
      </trkpt>
      <trkpt lat="47.8338" lon="6.9079">
        <ele>825</ele>
        <time>2015-08-09T12:51:16Z</time>
      </trkpt>
      <trkpt lat="47.8338" lon="6.9079">
        <ele>825</ele>
        <time>2015-08-09T12:51:19Z</time>
      </trkpt>
      <trkpt lat="47.8338" lon="6.9079">
        <ele>825</ele>
        <time>2015-08-09T12:51:22Z</time>
      </trkpt>
      <trkpt lat="47.8338" lon="6.9079">
        <ele>825</ele>
        <time>2015-08-09T12:51:26Z</time>
      </trkpt>
      <trkpt lat="47.8338" lon="6.9079">
        <ele>825</ele>
        <time>2015-08-09T12:51:28Z</time>
      </trkpt>
      <trkpt lat="47.8338" lon="6.9079">
        <ele>825</ele>
        <time>2015-08-09T12:51:31Z</time>
      </trkpt>
      <trkpt lat="47.8338" lon="6.9079">
        <ele>825</ele>
        <time>2015-08-09T12:51:34Z</time>
      </trkpt>
      <trkpt lat="47.8338" lon="6.9079">
        <ele>825</ele>
        <time>2015-08-09T12:51:38Z</time>
      </trkpt>
      <trkpt lat="47.8338" lon="6.9079">
        <ele>825</ele>
        <time>2015-08-09T12:51:40Z</time>
      </trkpt>
      <trkpt lat="47.8338" lon="6.9079">
        <ele>825</ele>
        <time>2015-08-09T12:51:45Z</time>
      </trkpt>
      <trkpt lat="47.83381" lon="6.9079">
        <ele>826</ele>
        <time>2015-08-09T12:51:52Z</time>
      </trkpt>
      <trkpt lat="47.83381" lon="6.9079">
        <ele>825</ele>
        <time>2015-08-09T12:51:55Z</time>
      </trkpt>
      <trkpt lat="47.83382" lon="6.9079">
        <ele>825</ele>
        <time>2015-08-09T12:52:02Z</time>
      </trkpt>
      <trkpt lat="47.83381" lon="6.9079">
        <ele>825</ele>
        <time>2015-08-09T12:52:04Z</time>
      </trkpt>
      <trkpt lat="47.83381" lon="6.9079">
        <ele>825</ele>
        <time>2015-08-09T12:52:07Z</time>
      </trkpt>
      <trkpt lat="47.83381" lon="6.9079">
        <ele>825</ele>
        <time>2015-08-09T12:52:10Z</time>
      </trkpt>
      <trkpt lat="47.83381" lon="6.9079">
        <ele>825</ele>
        <time>2015-08-09T12:52:13Z</time>
      </trkpt>
      <trkpt lat="47.83381" lon="6.9079">
        <ele>825</ele>
        <time>2015-08-09T12:52:16Z</time>
      </trkpt>
      <trkpt lat="47.83381" lon="6.9079">
        <ele>825</ele>
        <time>2015-08-09T12:52:20Z</time>
      </trkpt>
      <trkpt lat="47.83381" lon="6.9079">
        <ele>825</ele>
        <time>2015-08-09T12:52:22Z</time>
      </trkpt>
      <trkpt lat="47.83381" lon="6.9079">
        <ele>825</ele>
        <time>2015-08-09T12:52:27Z</time>
      </trkpt>
      <trkpt lat="47.83381" lon="6.9079">
        <ele>825</ele>
        <time>2015-08-09T12:52:28Z</time>
      </trkpt>
      <trkpt lat="47.83381" lon="6.9079">
        <ele>825</ele>
        <time>2015-08-09T12:52:31Z</time>
      </trkpt>
      <trkpt lat="47.83381" lon="6.9079">
        <ele>825</ele>
        <time>2015-08-09T12:52:34Z</time>
      </trkpt>
      <trkpt lat="47.83381" lon="6.9079">
        <ele>825</ele>
        <time>2015-08-09T12:52:37Z</time>
      </trkpt>
      <trkpt lat="47.83381" lon="6.9079">
        <ele>825</ele>
        <time>2015-08-09T12:52:40Z</time>
      </trkpt>
      <trkpt lat="47.83381" lon="6.9079">
        <ele>825</ele>
        <time>2015-08-09T12:52:43Z</time>
      </trkpt>
      <trkpt lat="47.83381" lon="6.9079">
        <ele>825</ele>
        <time>2015-08-09T12:52:46Z</time>
      </trkpt>
      <trkpt lat="47.83381" lon="6.90789">
        <ele>825</ele>
        <time>2015-08-09T12:52:49Z</time>
      </trkpt>
      <trkpt lat="47.83381" lon="6.90789">
        <ele>825</ele>
        <time>2015-08-09T12:52:52Z</time>
      </trkpt>
      <trkpt lat="47.83381" lon="6.90789">
        <ele>825</ele>
        <time>2015-08-09T12:52:57Z</time>
      </trkpt>
      <trkpt lat="47.83381" lon="6.90789">
        <ele>825</ele>
        <time>2015-08-09T12:52:58Z</time>
      </trkpt>
      <trkpt lat="47.83381" lon="6.90791">
        <ele>824</ele>
        <time>2015-08-09T12:53:05Z</time>
      </trkpt>
      <trkpt lat="47.83382" lon="6.90791">
        <ele>825</ele>
        <time>2015-08-09T12:53:07Z</time>
      </trkpt>
      <trkpt lat="47.8338" lon="6.9079">
        <ele>828</ele>
        <time>2015-08-09T12:53:16Z</time>
      </trkpt>
      <trkpt lat="47.83381" lon="6.9079">
        <ele>828</ele>
        <time>2015-08-09T12:53:19Z</time>
      </trkpt>
      <trkpt lat="47.83381" lon="6.9079">
        <ele>828</ele>
        <time>2015-08-09T12:53:22Z</time>
      </trkpt>
      <trkpt lat="47.83381" lon="6.9079">
        <ele>828</ele>
        <time>2015-08-09T12:53:27Z</time>
      </trkpt>
      <trkpt lat="47.83381" lon="6.9079">
        <ele>828</ele>
        <time>2015-08-09T12:53:28Z</time>
      </trkpt>
      <trkpt lat="47.83381" lon="6.9079">
        <ele>828</ele>
        <time>2015-08-09T12:53:31Z</time>
      </trkpt>
      <trkpt lat="47.83381" lon="6.9079">
        <ele>828</ele>
        <time>2015-08-09T12:53:34Z</time>
      </trkpt>
      <trkpt lat="47.83381" lon="6.9079">
        <ele>828</ele>
        <time>2015-08-09T12:53:38Z</time>
      </trkpt>
      <trkpt lat="47.83381" lon="6.9079">
        <ele>829</ele>
        <time>2015-08-09T12:53:40Z</time>
      </trkpt>
      <trkpt lat="47.8338" lon="6.9079">
        <ele>830</ele>
        <time>2015-08-09T12:53:48Z</time>
      </trkpt>
      <trkpt lat="47.8338" lon="6.9079">
        <ele>830</ele>
        <time>2015-08-09T12:53:49Z</time>
      </trkpt>
      <trkpt lat="47.8338" lon="6.9079">
        <ele>830</ele>
        <time>2015-08-09T12:53:52Z</time>
      </trkpt>
      <trkpt lat="47.8338" lon="6.9079">
        <ele>830</ele>
        <time>2015-08-09T12:53:56Z</time>
      </trkpt>
      <trkpt lat="47.8338" lon="6.9079">
        <ele>830</ele>
        <time>2015-08-09T12:53:58Z</time>
      </trkpt>
      <trkpt lat="47.8338" lon="6.9079">
        <ele>830</ele>
        <time>2015-08-09T12:54:01Z</time>
      </trkpt>
      <trkpt lat="47.8338" lon="6.9079">
        <ele>830</ele>
        <time>2015-08-09T12:54:04Z</time>
      </trkpt>
      <trkpt lat="47.8338" lon="6.9079">
        <ele>830</ele>
        <time>2015-08-09T12:54:07Z</time>
      </trkpt>
      <trkpt lat="47.8338" lon="6.9079">
        <ele>830</ele>
        <time>2015-08-09T12:54:10Z</time>
      </trkpt>
      <trkpt lat="47.8338" lon="6.9079">
        <ele>830</ele>
        <time>2015-08-09T12:54:13Z</time>
      </trkpt>
      <trkpt lat="47.8338" lon="6.9079">
        <ele>830</ele>
        <time>2015-08-09T12:54:16Z</time>
      </trkpt>
      <trkpt lat="47.8338" lon="6.9079">
        <ele>830</ele>
        <time>2015-08-09T12:54:19Z</time>
      </trkpt>
      <trkpt lat="47.8338" lon="6.90791">
        <ele>829</ele>
        <time>2015-08-09T12:54:25Z</time>
      </trkpt>
      <trkpt lat="47.8338" lon="6.90791">
        <ele>829</ele>
        <time>2015-08-09T12:54:28Z</time>
      </trkpt>
      <trkpt lat="47.8338" lon="6.90791">
        <ele>829</ele>
        <time>2015-08-09T12:54:31Z</time>
      </trkpt>
      <trkpt lat="47.8338" lon="6.90791">
        <ele>829</ele>
        <time>2015-08-09T12:54:35Z</time>
      </trkpt>
      <trkpt lat="47.8338" lon="6.90792">
        <ele>829</ele>
        <time>2015-08-09T12:54:37Z</time>
      </trkpt>
      <trkpt lat="47.83379" lon="6.90791">
        <ele>829</ele>
        <time>2015-08-09T12:54:50Z</time>
      </trkpt>
      <trkpt lat="47.83379" lon="6.90791">
        <ele>828</ele>
        <time>2015-08-09T12:54:52Z</time>
      </trkpt>
      <trkpt lat="47.83379" lon="6.90791">
        <ele>828</ele>
        <time>2015-08-09T12:54:54Z</time>
      </trkpt>
      <trkpt lat="47.83379" lon="6.90791">
        <ele>828</ele>
        <time>2015-08-09T12:54:57Z</time>
      </trkpt>
      <trkpt lat="47.83379" lon="6.90791">
        <ele>828</ele>
        <time>2015-08-09T12:55:00Z</time>
      </trkpt>
      <trkpt lat="47.83379" lon="6.90791">
        <ele>828</ele>
        <time>2015-08-09T12:55:03Z</time>
      </trkpt>
      <trkpt lat="47.83379" lon="6.90791">
        <ele>828</ele>
        <time>2015-08-09T12:55:06Z</time>
      </trkpt>
      <trkpt lat="47.83379" lon="6.90791">
        <ele>829</ele>
        <time>2015-08-09T12:55:09Z</time>
      </trkpt>
      <trkpt lat="47.83379" lon="6.90791">
        <ele>828</ele>
        <time>2015-08-09T12:55:12Z</time>
      </trkpt>
      <trkpt lat="47.8338" lon="6.90794">
        <ele>825</ele>
        <time>2015-08-09T12:55:23Z</time>
      </trkpt>
      <trkpt lat="47.8338" lon="6.90795">
        <ele>824</ele>
        <time>2015-08-09T12:55:26Z</time>
      </trkpt>
      <trkpt lat="47.8338" lon="6.90795">
        <ele>824</ele>
        <time>2015-08-09T12:55:29Z</time>
      </trkpt>
      <trkpt lat="47.8338" lon="6.90795">
        <ele>824</ele>
        <time>2015-08-09T12:55:34Z</time>
      </trkpt>
      <trkpt lat="47.8338" lon="6.90795">
        <ele>824</ele>
        <time>2015-08-09T12:55:36Z</time>
      </trkpt>
      <trkpt lat="47.8338" lon="6.90795">
        <ele>824</ele>
        <time>2015-08-09T12:55:38Z</time>
      </trkpt>
      <trkpt lat="47.8338" lon="6.90795">
        <ele>824</ele>
        <time>2015-08-09T12:55:41Z</time>
      </trkpt>
      <trkpt lat="47.8338" lon="6.90795">
        <ele>824</ele>
        <time>2015-08-09T12:55:44Z</time>
      </trkpt>
      <trkpt lat="47.8338" lon="6.90795">
        <ele>824</ele>
        <time>2015-08-09T12:55:47Z</time>
      </trkpt>
      <trkpt lat="47.8338" lon="6.90795">
        <ele>824</ele>
        <time>2015-08-09T12:55:50Z</time>
      </trkpt>
      <trkpt lat="47.8338" lon="6.90795">
        <ele>824</ele>
        <time>2015-08-09T12:55:53Z</time>
      </trkpt>
      <trkpt lat="47.8338" lon="6.90795">
        <ele>824</ele>
        <time>2015-08-09T12:55:58Z</time>
      </trkpt>
      <trkpt lat="47.8338" lon="6.90795">
        <ele>824</ele>
        <time>2015-08-09T12:55:59Z</time>
      </trkpt>
      <trkpt lat="47.8338" lon="6.90795">
        <ele>825</ele>
        <time>2015-08-09T12:56:02Z</time>
      </trkpt>
      <trkpt lat="47.83381" lon="6.90794">
        <ele>825</ele>
        <time>2015-08-09T12:56:06Z</time>
      </trkpt>
      <trkpt lat="47.83381" lon="6.90794">
        <ele>825</ele>
        <time>2015-08-09T12:56:11Z</time>
      </trkpt>
      <trkpt lat="47.83382" lon="6.90794">
        <ele>826</ele>
        <time>2015-08-09T12:56:14Z</time>
      </trkpt>
      <trkpt lat="47.83382" lon="6.90794">
        <ele>826</ele>
        <time>2015-08-09T12:56:17Z</time>
      </trkpt>
      <trkpt lat="47.83382" lon="6.90794">
        <ele>826</ele>
        <time>2015-08-09T12:56:20Z</time>
      </trkpt>
      <trkpt lat="47.83382" lon="6.90794">
        <ele>826</ele>
        <time>2015-08-09T12:56:24Z</time>
      </trkpt>
      <trkpt lat="47.83382" lon="6.90794">
        <ele>826</ele>
        <time>2015-08-09T12:56:26Z</time>
      </trkpt>
      <trkpt lat="47.83382" lon="6.90794">
        <ele>826</ele>
        <time>2015-08-09T12:56:29Z</time>
      </trkpt>
      <trkpt lat="47.83382" lon="6.90794">
        <ele>826</ele>
        <time>2015-08-09T12:56:32Z</time>
      </trkpt>
      <trkpt lat="47.83382" lon="6.90794">
        <ele>826</ele>
        <time>2015-08-09T12:56:35Z</time>
      </trkpt>
      <trkpt lat="47.83382" lon="6.90794">
        <ele>826</ele>
        <time>2015-08-09T12:56:38Z</time>
      </trkpt>
      <trkpt lat="47.83382" lon="6.90794">
        <ele>826</ele>
        <time>2015-08-09T12:56:41Z</time>
      </trkpt>
      <trkpt lat="47.83382" lon="6.90794">
        <ele>826</ele>
        <time>2015-08-09T12:56:44Z</time>
      </trkpt>
      <trkpt lat="47.83382" lon="6.90794">
        <ele>826</ele>
        <time>2015-08-09T12:56:49Z</time>
      </trkpt>
      <trkpt lat="47.83382" lon="6.90794">
        <ele>826</ele>
        <time>2015-08-09T12:56:51Z</time>
      </trkpt>
      <trkpt lat="47.83382" lon="6.90794">
        <ele>825</ele>
        <time>2015-08-09T12:56:56Z</time>
      </trkpt>
      <trkpt lat="47.83383" lon="6.90795">
        <ele>825</ele>
        <time>2015-08-09T12:56:59Z</time>
      </trkpt>
      <trkpt lat="47.83381" lon="6.90803">
        <ele>830</ele>
        <time>2015-08-09T12:57:17Z</time>
      </trkpt>
      <trkpt lat="47.83382" lon="6.90807">
        <ele>832</ele>
        <time>2015-08-09T12:57:24Z</time>
      </trkpt>
      <trkpt lat="47.83382" lon="6.9081">
        <ele>834</ele>
        <time>2015-08-09T12:57:32Z</time>
      </trkpt>
      <trkpt lat="47.83379" lon="6.90819">
        <ele>838</ele>
        <time>2015-08-09T12:57:43Z</time>
      </trkpt>
      <trkpt lat="47.83376" lon="6.90829">
        <ele>838</ele>
        <time>2015-08-09T12:57:54Z</time>
      </trkpt>
      <trkpt lat="47.83371" lon="6.90837">
        <ele>836</ele>
        <time>2015-08-09T12:58:05Z</time>
      </trkpt>
      <trkpt lat="47.83349" lon="6.9085">
        <ele>849</ele>
        <time>2015-08-09T12:58:26Z</time>
      </trkpt>
      <trkpt lat="47.83348" lon="6.90851">
        <ele>850</ele>
        <time>2015-08-09T12:58:27Z</time>
      </trkpt>
      <trkpt lat="47.83333" lon="6.9086">
        <ele>845</ele>
        <time>2015-08-09T12:58:38Z</time>
      </trkpt>
      <trkpt lat="47.83325" lon="6.90875">
        <ele>838</ele>
        <time>2015-08-09T12:58:58Z</time>
      </trkpt>
      <trkpt lat="47.83323" lon="6.90876">
        <ele>837</ele>
        <time>2015-08-09T12:59:00Z</time>
      </trkpt>
      <trkpt lat="47.83319" lon="6.90878">
        <ele>836</ele>
        <time>2015-08-09T12:59:12Z</time>
      </trkpt>
      <trkpt lat="47.83314" lon="6.90874">
        <ele>834</ele>
        <time>2015-08-09T12:59:28Z</time>
      </trkpt>
      <trkpt lat="47.8331" lon="6.90874">
        <ele>837</ele>
        <time>2015-08-09T12:59:33Z</time>
      </trkpt>
      <trkpt lat="47.83303" lon="6.90865">
        <ele>836</ele>
        <time>2015-08-09T12:59:49Z</time>
      </trkpt>
      <trkpt lat="47.83302" lon="6.90863">
        <ele>835</ele>
        <time>2015-08-09T12:59:55Z</time>
      </trkpt>
      <trkpt lat="47.83294" lon="6.90856">
        <ele>831</ele>
        <time>2015-08-09T13:00:06Z</time>
      </trkpt>
      <trkpt lat="47.83287" lon="6.90849">
        <ele>829</ele>
        <time>2015-08-09T13:00:17Z</time>
      </trkpt>
      <trkpt lat="47.83274" lon="6.90847">
        <ele>825</ele>
        <time>2015-08-09T13:00:37Z</time>
      </trkpt>
      <trkpt lat="47.83272" lon="6.90846">
        <ele>825</ele>
        <time>2015-08-09T13:00:39Z</time>
      </trkpt>
      <trkpt lat="47.83265" lon="6.90846">
        <ele>822</ele>
        <time>2015-08-09T13:00:50Z</time>
      </trkpt>
      <trkpt lat="47.83267" lon="6.90848">
        <ele>822</ele>
        <time>2015-08-09T13:01:03Z</time>
      </trkpt>
      <trkpt lat="47.83267" lon="6.90848">
        <ele>821</ele>
        <time>2015-08-09T13:01:12Z</time>
      </trkpt>
      <trkpt lat="47.83262" lon="6.90846">
        <ele>821</ele>
        <time>2015-08-09T13:01:24Z</time>
      </trkpt>
      <trkpt lat="47.8326" lon="6.90843">
        <ele>821</ele>
        <time>2015-08-09T13:01:27Z</time>
      </trkpt>
      <trkpt lat="47.83259" lon="6.90841">
        <ele>820</ele>
        <time>2015-08-09T13:01:37Z</time>
      </trkpt>
      <trkpt lat="47.83258" lon="6.90841">
        <ele>820</ele>
        <time>2015-08-09T13:01:40Z</time>
      </trkpt>
      <trkpt lat="47.83257" lon="6.90843">
        <ele>821</ele>
        <time>2015-08-09T13:01:45Z</time>
      </trkpt>
      <trkpt lat="47.83254" lon="6.90837">
        <ele>818</ele>
        <time>2015-08-09T13:01:59Z</time>
      </trkpt>
      <trkpt lat="47.83254" lon="6.90837">
        <ele>818</ele>
        <time>2015-08-09T13:02:05Z</time>
      </trkpt>
      <trkpt lat="47.83254" lon="6.90837">
        <ele>818</ele>
        <time>2015-08-09T13:02:08Z</time>
      </trkpt>
      <trkpt lat="47.83254" lon="6.90837">
        <ele>818</ele>
        <time>2015-08-09T13:02:11Z</time>
      </trkpt>
      <trkpt lat="47.83254" lon="6.90836">
        <ele>816</ele>
        <time>2015-08-09T13:02:20Z</time>
      </trkpt>
      <trkpt lat="47.83253" lon="6.90836">
        <ele>815</ele>
        <time>2015-08-09T13:02:23Z</time>
      </trkpt>
      <trkpt lat="47.83254" lon="6.90839">
        <ele>818</ele>
        <time>2015-08-09T13:02:34Z</time>
      </trkpt>
      <trkpt lat="47.83254" lon="6.90841">
        <ele>819</ele>
        <time>2015-08-09T13:02:43Z</time>
      </trkpt>
      <trkpt lat="47.83253" lon="6.90839">
        <ele>817</ele>
        <time>2015-08-09T13:02:49Z</time>
      </trkpt>
      <trkpt lat="47.83252" lon="6.9084">
        <ele>818</ele>
        <time>2015-08-09T13:02:58Z</time>
      </trkpt>
      <trkpt lat="47.83249" lon="6.90839">
        <ele>818</ele>
        <time>2015-08-09T13:03:02Z</time>
      </trkpt>
      <trkpt lat="47.83243" lon="6.90835">
        <ele>820</ele>
        <time>2015-08-09T13:03:12Z</time>
      </trkpt>
      <trkpt lat="47.83234" lon="6.90828">
        <ele>819</ele>
        <time>2015-08-09T13:03:27Z</time>
      </trkpt>
      <trkpt lat="47.83231" lon="6.90824">
        <ele>818</ele>
        <time>2015-08-09T13:03:34Z</time>
      </trkpt>
      <trkpt lat="47.83224" lon="6.9081">
        <ele>819</ele>
        <time>2015-08-09T13:03:54Z</time>
      </trkpt>
      <trkpt lat="47.83221" lon="6.90807">
        <ele>819</ele>
        <time>2015-08-09T13:03:58Z</time>
      </trkpt>
      <trkpt lat="47.83216" lon="6.90806">
        <ele>821</ele>
        <time>2015-08-09T13:04:07Z</time>
      </trkpt>
      <trkpt lat="47.83219" lon="6.90808">
        <ele>818</ele>
        <time>2015-08-09T13:04:21Z</time>
      </trkpt>
      <trkpt lat="47.83219" lon="6.90808">
        <ele>818</ele>
        <time>2015-08-09T13:04:26Z</time>
      </trkpt>
      <trkpt lat="47.83218" lon="6.90808">
        <ele>818</ele>
        <time>2015-08-09T13:04:27Z</time>
      </trkpt>
      <trkpt lat="47.83219" lon="6.90808">
        <ele>818</ele>
        <time>2015-08-09T13:04:30Z</time>
      </trkpt>
      <trkpt lat="47.83218" lon="6.90807">
        <ele>818</ele>
        <time>2015-08-09T13:04:36Z</time>
      </trkpt>
      <trkpt lat="47.83218" lon="6.90806">
        <ele>819</ele>
        <time>2015-08-09T13:04:40Z</time>
      </trkpt>
      <trkpt lat="47.83218" lon="6.90807">
        <ele>819</ele>
        <time>2015-08-09T13:04:45Z</time>
      </trkpt>
      <trkpt lat="47.83218" lon="6.90807">
        <ele>820</ele>
        <time>2015-08-09T13:04:49Z</time>
      </trkpt>
      <trkpt lat="47.83218" lon="6.90807">
        <ele>820</ele>
        <time>2015-08-09T13:04:51Z</time>
      </trkpt>
      <trkpt lat="47.83219" lon="6.90807">
        <ele>820</ele>
        <time>2015-08-09T13:04:54Z</time>
      </trkpt>
      <trkpt lat="47.83219" lon="6.90807">
        <ele>820</ele>
        <time>2015-08-09T13:04:57Z</time>
      </trkpt>
      <trkpt lat="47.83219" lon="6.90807">
        <ele>820</ele>
        <time>2015-08-09T13:05:00Z</time>
      </trkpt>
      <trkpt lat="47.83219" lon="6.90808">
        <ele>820</ele>
        <time>2015-08-09T13:05:03Z</time>
      </trkpt>
      <trkpt lat="47.83217" lon="6.90805">
        <ele>820</ele>
        <time>2015-08-09T13:05:14Z</time>
      </trkpt>
      <trkpt lat="47.83217" lon="6.90805">
        <ele>821</ele>
        <time>2015-08-09T13:05:17Z</time>
      </trkpt>
      <trkpt lat="47.83217" lon="6.90805">
        <ele>821</ele>
        <time>2015-08-09T13:05:21Z</time>
      </trkpt>
      <trkpt lat="47.83217" lon="6.90805">
        <ele>821</ele>
        <time>2015-08-09T13:05:23Z</time>
      </trkpt>
      <trkpt lat="47.83217" lon="6.90805">
        <ele>821</ele>
        <time>2015-08-09T13:05:26Z</time>
      </trkpt>
      <trkpt lat="47.83217" lon="6.90805">
        <ele>821</ele>
        <time>2015-08-09T13:05:29Z</time>
      </trkpt>
      <trkpt lat="47.83217" lon="6.90805">
        <ele>821</ele>
        <time>2015-08-09T13:05:33Z</time>
      </trkpt>
      <trkpt lat="47.83217" lon="6.90806">
        <ele>821</ele>
        <time>2015-08-09T13:05:35Z</time>
      </trkpt>
      <trkpt lat="47.83218" lon="6.9081">
        <ele>819</ele>
        <time>2015-08-09T13:05:48Z</time>
      </trkpt>
      <trkpt lat="47.83219" lon="6.90812">
        <ele>818</ele>
        <time>2015-08-09T13:05:58Z</time>
      </trkpt>
      <trkpt lat="47.83219" lon="6.90812">
        <ele>818</ele>
        <time>2015-08-09T13:06:00Z</time>
      </trkpt>
      <trkpt lat="47.83219" lon="6.90812">
        <ele>818</ele>
        <time>2015-08-09T13:06:03Z</time>
      </trkpt>
      <trkpt lat="47.83219" lon="6.90812">
        <ele>818</ele>
        <time>2015-08-09T13:06:06Z</time>
      </trkpt>
      <trkpt lat="47.83219" lon="6.90812">
        <ele>818</ele>
        <time>2015-08-09T13:06:09Z</time>
      </trkpt>
      <trkpt lat="47.83219" lon="6.90812">
        <ele>818</ele>
        <time>2015-08-09T13:06:12Z</time>
      </trkpt>
      <trkpt lat="47.83219" lon="6.90812">
        <ele>818</ele>
        <time>2015-08-09T13:06:15Z</time>
      </trkpt>
      <trkpt lat="47.83218" lon="6.90812">
        <ele>818</ele>
        <time>2015-08-09T13:06:19Z</time>
      </trkpt>
      <trkpt lat="47.83217" lon="6.9081">
        <ele>818</ele>
        <time>2015-08-09T13:06:23Z</time>
      </trkpt>
      <trkpt lat="47.83217" lon="6.90808">
        <ele>818</ele>
        <time>2015-08-09T13:06:36Z</time>
      </trkpt>
      <trkpt lat="47.83217" lon="6.90808">
        <ele>817</ele>
        <time>2015-08-09T13:06:39Z</time>
      </trkpt>
      <trkpt lat="47.83218" lon="6.90808">
        <ele>817</ele>
        <time>2015-08-09T13:06:44Z</time>
      </trkpt>
      <trkpt lat="47.83218" lon="6.90808">
        <ele>817</ele>
        <time>2015-08-09T13:06:47Z</time>
      </trkpt>
      <trkpt lat="47.83218" lon="6.90808">
        <ele>817</ele>
        <time>2015-08-09T13:06:50Z</time>
      </trkpt>
      <trkpt lat="47.83218" lon="6.90808">
        <ele>817</ele>
        <time>2015-08-09T13:06:53Z</time>
      </trkpt>
      <trkpt lat="47.83218" lon="6.90808">
        <ele>817</ele>
        <time>2015-08-09T13:06:57Z</time>
      </trkpt>
      <trkpt lat="47.83218" lon="6.90808">
        <ele>817</ele>
        <time>2015-08-09T13:06:59Z</time>
      </trkpt>
      <trkpt lat="47.83218" lon="6.90808">
        <ele>817</ele>
        <time>2015-08-09T13:07:02Z</time>
      </trkpt>
      <trkpt lat="47.83218" lon="6.90808">
        <ele>817</ele>
        <time>2015-08-09T13:07:07Z</time>
      </trkpt>
      <trkpt lat="47.83218" lon="6.90808">
        <ele>817</ele>
        <time>2015-08-09T13:07:08Z</time>
      </trkpt>
      <trkpt lat="47.83218" lon="6.90808">
        <ele>817</ele>
        <time>2015-08-09T13:07:11Z</time>
      </trkpt>
      <trkpt lat="47.83218" lon="6.90808">
        <ele>817</ele>
        <time>2015-08-09T13:07:14Z</time>
      </trkpt>
      <trkpt lat="47.83218" lon="6.90808">
        <ele>818</ele>
        <time>2015-08-09T13:07:19Z</time>
      </trkpt>
      <trkpt lat="47.83218" lon="6.90808">
        <ele>818</ele>
        <time>2015-08-09T13:07:22Z</time>
      </trkpt>
      <trkpt lat="47.83218" lon="6.90808">
        <ele>818</ele>
        <time>2015-08-09T13:07:23Z</time>
      </trkpt>
      <trkpt lat="47.83218" lon="6.90808">
        <ele>818</ele>
        <time>2015-08-09T13:07:28Z</time>
      </trkpt>
      <trkpt lat="47.83218" lon="6.90808">
        <ele>818</ele>
        <time>2015-08-09T13:07:29Z</time>
      </trkpt>
      <trkpt lat="47.83218" lon="6.90808">
        <ele>818</ele>
        <time>2015-08-09T13:07:32Z</time>
      </trkpt>
      <trkpt lat="47.83218" lon="6.90808">
        <ele>818</ele>
        <time>2015-08-09T13:07:35Z</time>
      </trkpt>
      <trkpt lat="47.83218" lon="6.90808">
        <ele>818</ele>
        <time>2015-08-09T13:07:38Z</time>
      </trkpt>
      <trkpt lat="47.83218" lon="6.90808">
        <ele>818</ele>
        <time>2015-08-09T13:07:41Z</time>
      </trkpt>
      <trkpt lat="47.83218" lon="6.90808">
        <ele>818</ele>
        <time>2015-08-09T13:07:44Z</time>
      </trkpt>
      <trkpt lat="47.83218" lon="6.90808">
        <ele>818</ele>
        <time>2015-08-09T13:07:47Z</time>
      </trkpt>
      <trkpt lat="47.83218" lon="6.90808">
        <ele>818</ele>
        <time>2015-08-09T13:07:51Z</time>
      </trkpt>
      <trkpt lat="47.83218" lon="6.90808">
        <ele>818</ele>
        <time>2015-08-09T13:07:53Z</time>
      </trkpt>
      <trkpt lat="47.83218" lon="6.90808">
        <ele>818</ele>
        <time>2015-08-09T13:07:56Z</time>
      </trkpt>
      <trkpt lat="47.83218" lon="6.90808">
        <ele>818</ele>
        <time>2015-08-09T13:07:59Z</time>
      </trkpt>
      <trkpt lat="47.83218" lon="6.90808">
        <ele>818</ele>
        <time>2015-08-09T13:08:02Z</time>
      </trkpt>
      <trkpt lat="47.83218" lon="6.90807">
        <ele>818</ele>
        <time>2015-08-09T13:08:05Z</time>
      </trkpt>
      <trkpt lat="47.83218" lon="6.90807">
        <ele>818</ele>
        <time>2015-08-09T13:08:10Z</time>
      </trkpt>
      <trkpt lat="47.83218" lon="6.90807">
        <ele>818</ele>
        <time>2015-08-09T13:08:13Z</time>
      </trkpt>
      <trkpt lat="47.83218" lon="6.90807">
        <ele>818</ele>
        <time>2015-08-09T13:08:14Z</time>
      </trkpt>
      <trkpt lat="47.83218" lon="6.90807">
        <ele>818</ele>
        <time>2015-08-09T13:08:17Z</time>
      </trkpt>
      <trkpt lat="47.83218" lon="6.90807">
        <ele>818</ele>
        <time>2015-08-09T13:08:20Z</time>
      </trkpt>
      <trkpt lat="47.83218" lon="6.90807">
        <ele>818</ele>
        <time>2015-08-09T13:08:23Z</time>
      </trkpt>
      <trkpt lat="47.83218" lon="6.90807">
        <ele>818</ele>
        <time>2015-08-09T13:08:28Z</time>
      </trkpt>
      <trkpt lat="47.83218" lon="6.90807">
        <ele>818</ele>
        <time>2015-08-09T13:08:29Z</time>
      </trkpt>
      <trkpt lat="47.83218" lon="6.90807">
        <ele>818</ele>
        <time>2015-08-09T13:08:32Z</time>
      </trkpt>
      <trkpt lat="47.83218" lon="6.90807">
        <ele>818</ele>
        <time>2015-08-09T13:08:35Z</time>
      </trkpt>
      <trkpt lat="47.83218" lon="6.90807">
        <ele>818</ele>
        <time>2015-08-09T13:08:38Z</time>
      </trkpt>
      <trkpt lat="47.83218" lon="6.90807">
        <ele>818</ele>
        <time>2015-08-09T13:08:41Z</time>
      </trkpt>
      <trkpt lat="47.83218" lon="6.90807">
        <ele>818</ele>
        <time>2015-08-09T13:08:44Z</time>
      </trkpt>
      <trkpt lat="47.83217" lon="6.90806">
        <ele>817</ele>
        <time>2015-08-09T13:08:50Z</time>
      </trkpt>
      <trkpt lat="47.83216" lon="6.90806">
        <ele>817</ele>
        <time>2015-08-09T13:08:56Z</time>
      </trkpt>
      <trkpt lat="47.83216" lon="6.90806">
        <ele>817</ele>
        <time>2015-08-09T13:08:59Z</time>
      </trkpt>
      <trkpt lat="47.83216" lon="6.90806">
        <ele>817</ele>
        <time>2015-08-09T13:09:02Z</time>
      </trkpt>
      <trkpt lat="47.83216" lon="6.90806">
        <ele>817</ele>
        <time>2015-08-09T13:09:07Z</time>
      </trkpt>
      <trkpt lat="47.83216" lon="6.90806">
        <ele>817</ele>
        <time>2015-08-09T13:09:08Z</time>
      </trkpt>
      <trkpt lat="47.83216" lon="6.90806">
        <ele>817</ele>
        <time>2015-08-09T13:09:11Z</time>
      </trkpt>
      <trkpt lat="47.83216" lon="6.90806">
        <ele>817</ele>
        <time>2015-08-09T13:09:14Z</time>
      </trkpt>
      <trkpt lat="47.83216" lon="6.90806">
        <ele>817</ele>
        <time>2015-08-09T13:09:17Z</time>
      </trkpt>
      <trkpt lat="47.83216" lon="6.90806">
        <ele>817</ele>
        <time>2015-08-09T13:09:20Z</time>
      </trkpt>
      <trkpt lat="47.83216" lon="6.90806">
        <ele>817</ele>
        <time>2015-08-09T13:09:24Z</time>
      </trkpt>
      <trkpt lat="47.83216" lon="6.90806">
        <ele>817</ele>
        <time>2015-08-09T13:09:26Z</time>
      </trkpt>
      <trkpt lat="47.83216" lon="6.90806">
        <ele>817</ele>
        <time>2015-08-09T13:09:29Z</time>
      </trkpt>
      <trkpt lat="47.83216" lon="6.90806">
        <ele>817</ele>
        <time>2015-08-09T13:09:34Z</time>
      </trkpt>
      <trkpt lat="47.83216" lon="6.90806">
        <ele>817</ele>
        <time>2015-08-09T13:09:35Z</time>
      </trkpt>
      <trkpt lat="47.83216" lon="6.90806">
        <ele>817</ele>
        <time>2015-08-09T13:09:38Z</time>
      </trkpt>
      <trkpt lat="47.83216" lon="6.90806">
        <ele>817</ele>
        <time>2015-08-09T13:09:41Z</time>
      </trkpt>
      <trkpt lat="47.83216" lon="6.90806">
        <ele>817</ele>
        <time>2015-08-09T13:09:44Z</time>
      </trkpt>
      <trkpt lat="47.83216" lon="6.90806">
        <ele>817</ele>
        <time>2015-08-09T13:09:47Z</time>
      </trkpt>
      <trkpt lat="47.83216" lon="6.90806">
        <ele>817</ele>
        <time>2015-08-09T13:09:50Z</time>
      </trkpt>
      <trkpt lat="47.83216" lon="6.90806">
        <ele>817</ele>
        <time>2015-08-09T13:09:54Z</time>
      </trkpt>
      <trkpt lat="47.83216" lon="6.90806">
        <ele>817</ele>
        <time>2015-08-09T13:09:57Z</time>
      </trkpt>
      <trkpt lat="47.83216" lon="6.90806">
        <ele>817</ele>
        <time>2015-08-09T13:09:59Z</time>
      </trkpt>
      <trkpt lat="47.83216" lon="6.90806">
        <ele>817</ele>
        <time>2015-08-09T13:10:02Z</time>
      </trkpt>
      <trkpt lat="47.83216" lon="6.90806">
        <ele>817</ele>
        <time>2015-08-09T13:10:05Z</time>
      </trkpt>
      <trkpt lat="47.83216" lon="6.90806">
        <ele>817</ele>
        <time>2015-08-09T13:10:08Z</time>
      </trkpt>
      <trkpt lat="47.83216" lon="6.90806">
        <ele>817</ele>
        <time>2015-08-09T13:10:11Z</time>
      </trkpt>
      <trkpt lat="47.83216" lon="6.90806">
        <ele>819</ele>
        <time>2015-08-09T13:10:17Z</time>
      </trkpt>
      <trkpt lat="47.83214" lon="6.90799">
        <ele>819</ele>
        <time>2015-08-09T13:10:24Z</time>
      </trkpt>
      <trkpt lat="47.83203" lon="6.90787">
        <ele>820</ele>
        <time>2015-08-09T13:10:40Z</time>
      </trkpt>
      <trkpt lat="47.83201" lon="6.90785">
        <ele>819</ele>
        <time>2015-08-09T13:10:42Z</time>
      </trkpt>
      <trkpt lat="47.83187" lon="6.90773">
        <ele>824</ele>
        <time>2015-08-09T13:11:00Z</time>
      </trkpt>
      <trkpt lat="47.83186" lon="6.90769">
        <ele>825</ele>
        <time>2015-08-09T13:11:04Z</time>
      </trkpt>
      <trkpt lat="47.8318" lon="6.90753">
        <ele>825</ele>
        <time>2015-08-09T13:11:18Z</time>
      </trkpt>
      <trkpt lat="47.83178" lon="6.90739">
        <ele>826</ele>
        <time>2015-08-09T13:11:27Z</time>
      </trkpt>
      <trkpt lat="47.83175" lon="6.90724">
        <ele>824</ele>
        <time>2015-08-09T13:11:37Z</time>
      </trkpt>
      <trkpt lat="47.83175" lon="6.90698">
        <ele>825</ele>
        <time>2015-08-09T13:11:52Z</time>
      </trkpt>
      <trkpt lat="47.83177" lon="6.90684">
        <ele>826</ele>
        <time>2015-08-09T13:11:59Z</time>
      </trkpt>
      <trkpt lat="47.83186" lon="6.90662">
        <ele>826</ele>
        <time>2015-08-09T13:12:13Z</time>
      </trkpt>
      <trkpt lat="47.83193" lon="6.90648">
        <ele>823</ele>
        <time>2015-08-09T13:12:24Z</time>
      </trkpt>
      <trkpt lat="47.83199" lon="6.90646">
        <ele>825</ele>
        <time>2015-08-09T13:12:34Z</time>
      </trkpt>
      <trkpt lat="47.83215" lon="6.90641">
        <ele>824</ele>
        <time>2015-08-09T13:12:52Z</time>
      </trkpt>
      <trkpt lat="47.83216" lon="6.90641">
        <ele>823</ele>
        <time>2015-08-09T13:12:54Z</time>
      </trkpt>
      <trkpt lat="47.83229" lon="6.90639">
        <ele>822</ele>
        <time>2015-08-09T13:13:05Z</time>
      </trkpt>
      <trkpt lat="47.83234" lon="6.9064">
        <ele>819</ele>
        <time>2015-08-09T13:13:16Z</time>
      </trkpt>
      <trkpt lat="47.83235" lon="6.9064">
        <ele>818</ele>
        <time>2015-08-09T13:13:27Z</time>
      </trkpt>
      <trkpt lat="47.83235" lon="6.90641">
        <ele>817</ele>
        <time>2015-08-09T13:13:33Z</time>
      </trkpt>
      <trkpt lat="47.83234" lon="6.90641">
        <ele>817</ele>
        <time>2015-08-09T13:13:39Z</time>
      </trkpt>
      <trkpt lat="47.83235" lon="6.90641">
        <ele>818</ele>
        <time>2015-08-09T13:13:45Z</time>
      </trkpt>
      <trkpt lat="47.83234" lon="6.90641">
        <ele>818</ele>
        <time>2015-08-09T13:13:55Z</time>
      </trkpt>
      <trkpt lat="47.83234" lon="6.90641">
        <ele>818</ele>
        <time>2015-08-09T13:13:57Z</time>
      </trkpt>
      <trkpt lat="47.83234" lon="6.9064">
        <ele>818</ele>
        <time>2015-08-09T13:14:00Z</time>
      </trkpt>
      <trkpt lat="47.83234" lon="6.9064">
        <ele>818</ele>
        <time>2015-08-09T13:14:03Z</time>
      </trkpt>
      <trkpt lat="47.83234" lon="6.9064">
        <ele>818</ele>
        <time>2015-08-09T13:14:06Z</time>
      </trkpt>
      <trkpt lat="47.83234" lon="6.9064">
        <ele>818</ele>
        <time>2015-08-09T13:14:09Z</time>
      </trkpt>
      <trkpt lat="47.83234" lon="6.9064">
        <ele>818</ele>
        <time>2015-08-09T13:14:12Z</time>
      </trkpt>
      <trkpt lat="47.83234" lon="6.9064">
        <ele>818</ele>
        <time>2015-08-09T13:14:16Z</time>
      </trkpt>
      <trkpt lat="47.83234" lon="6.9064">
        <ele>818</ele>
        <time>2015-08-09T13:14:18Z</time>
      </trkpt>
      <trkpt lat="47.83234" lon="6.90641">
        <ele>818</ele>
        <time>2015-08-09T13:14:21Z</time>
      </trkpt>
      <trkpt lat="47.83234" lon="6.9064">
        <ele>818</ele>
        <time>2015-08-09T13:14:24Z</time>
      </trkpt>
      <trkpt lat="47.83235" lon="6.90641">
        <ele>819</ele>
        <time>2015-08-09T13:14:33Z</time>
      </trkpt>
      <trkpt lat="47.83234" lon="6.90641">
        <ele>820</ele>
        <time>2015-08-09T13:14:37Z</time>
      </trkpt>
      <trkpt lat="47.83234" lon="6.90642">
        <ele>820</ele>
        <time>2015-08-09T13:14:39Z</time>
      </trkpt>
      <trkpt lat="47.83235" lon="6.90642">
        <ele>821</ele>
        <time>2015-08-09T13:14:43Z</time>
      </trkpt>
      <trkpt lat="47.83241" lon="6.90645">
        <ele>821</ele>
        <time>2015-08-09T13:14:55Z</time>
      </trkpt>
      <trkpt lat="47.83241" lon="6.90645">
        <ele>821</ele>
        <time>2015-08-09T13:14:56Z</time>
      </trkpt>
      <trkpt lat="47.83244" lon="6.90645">
        <ele>822</ele>
        <time>2015-08-09T13:14:59Z</time>
      </trkpt>
      <trkpt lat="47.83245" lon="6.90645">
        <ele>820</ele>
        <time>2015-08-09T13:15:12Z</time>
      </trkpt>
      <trkpt lat="47.83245" lon="6.90645">
        <ele>821</ele>
        <time>2015-08-09T13:15:15Z</time>
      </trkpt>
      <trkpt lat="47.83246" lon="6.90645">
        <ele>821</ele>
        <time>2015-08-09T13:15:17Z</time>
      </trkpt>
      <trkpt lat="47.83247" lon="6.90645">
        <ele>823</ele>
        <time>2015-08-09T13:15:23Z</time>
      </trkpt>
      <trkpt lat="47.83249" lon="6.90641">
        <ele>825</ele>
        <time>2015-08-09T13:15:31Z</time>
      </trkpt>
      <trkpt lat="47.83249" lon="6.90639">
        <ele>822</ele>
        <time>2015-08-09T13:15:41Z</time>
      </trkpt>
      <trkpt lat="47.83249" lon="6.90639">
        <ele>822</ele>
        <time>2015-08-09T13:15:44Z</time>
      </trkpt>
      <trkpt lat="47.83249" lon="6.90639">
        <ele>822</ele>
        <time>2015-08-09T13:15:47Z</time>
      </trkpt>
      <trkpt lat="47.83249" lon="6.90639">
        <ele>822</ele>
        <time>2015-08-09T13:15:50Z</time>
      </trkpt>
      <trkpt lat="47.83249" lon="6.90639">
        <ele>822</ele>
        <time>2015-08-09T13:15:53Z</time>
      </trkpt>
      <trkpt lat="47.83249" lon="6.90639">
        <ele>822</ele>
        <time>2015-08-09T13:17:08Z</time>
      </trkpt>
      <trkpt lat="47.83249" lon="6.90639">
        <ele>822</ele>
        <time>2015-08-09T13:17:53Z</time>
      </trkpt>
      <trkpt lat="47.83249" lon="6.90639">
        <ele>822</ele>
        <time>2015-08-09T13:17:59Z</time>
      </trkpt>
      <trkpt lat="47.83249" lon="6.90639">
        <ele>822</ele>
        <time>2015-08-09T13:18:00Z</time>
      </trkpt>
      <trkpt lat="47.83249" lon="6.90639">
        <ele>822</ele>
        <time>2015-08-09T13:18:04Z</time>
      </trkpt>
      <trkpt lat="47.83249" lon="6.90639">
        <ele>822</ele>
        <time>2015-08-09T13:18:06Z</time>
      </trkpt>
      <trkpt lat="47.83249" lon="6.90639">
        <ele>822</ele>
        <time>2015-08-09T13:18:09Z</time>
      </trkpt>
      <trkpt lat="47.83249" lon="6.90639">
        <ele>822</ele>
        <time>2015-08-09T13:18:47Z</time>
      </trkpt>
      <trkpt lat="47.83249" lon="6.90639">
        <ele>822</ele>
        <time>2015-08-09T13:19:50Z</time>
      </trkpt>
      <trkpt lat="47.83249" lon="6.90639">
        <ele>822</ele>
        <time>2015-08-09T13:20:37Z</time>
      </trkpt>
      <trkpt lat="47.83249" lon="6.90639">
        <ele>822</ele>
        <time>2015-08-09T13:20:50Z</time>
      </trkpt>
      <trkpt lat="47.83249" lon="6.90639">
        <ele>822</ele>
        <time>2015-08-09T13:22:26Z</time>
      </trkpt>
      <trkpt lat="47.83249" lon="6.90639">
        <ele>822</ele>
        <time>2015-08-09T13:22:41Z</time>
      </trkpt>
      <trkpt lat="47.83249" lon="6.90639">
        <ele>822</ele>
        <time>2015-08-09T13:23:23Z</time>
      </trkpt>
      <trkpt lat="47.83249" lon="6.90639">
        <ele>822</ele>
        <time>2015-08-09T13:23:25Z</time>
      </trkpt>
      <trkpt lat="47.83249" lon="6.90639">
        <ele>822</ele>
        <time>2015-08-09T13:23:27Z</time>
      </trkpt>
      <trkpt lat="47.83249" lon="6.90639">
        <ele>822</ele>
        <time>2015-08-09T13:24:04Z</time>
      </trkpt>
      <trkpt lat="47.83249" lon="6.90639">
        <ele>822</ele>
        <time>2015-08-09T13:26:55Z</time>
      </trkpt>
      <trkpt lat="47.83249" lon="6.90639">
        <ele>822</ele>
        <time>2015-08-09T13:28:38Z</time>
      </trkpt>
      <trkpt lat="47.83249" lon="6.90639">
        <ele>822</ele>
        <time>2015-08-09T13:32:39Z</time>
      </trkpt>
      <trkpt lat="47.83249" lon="6.90639">
        <ele>822</ele>
        <time>2015-08-09T13:40:06Z</time>
      </trkpt>
      <trkpt lat="47.8325" lon="6.90653">
        <ele>888</ele>
        <time>2015-08-09T13:47:12Z</time>
      </trkpt>
      <trkpt lat="47.83247" lon="6.90663">
        <ele>860</ele>
        <time>2015-08-09T14:00:24Z</time>
      </trkpt>
      <trkpt lat="47.8326" lon="6.90651">
        <ele>843</ele>
        <time>2015-08-09T14:00:41Z</time>
      </trkpt>
      <trkpt lat="47.8326" lon="6.90651">
        <ele>842</ele>
        <time>2015-08-09T14:00:45Z</time>
      </trkpt>
      <trkpt lat="47.83257" lon="6.90647">
        <ele>843</ele>
        <time>2015-08-09T14:00:56Z</time>
      </trkpt>
      <trkpt lat="47.83255" lon="6.90641">
        <ele>843</ele>
        <time>2015-08-09T14:01:09Z</time>
      </trkpt>
      <trkpt lat="47.83253" lon="6.90641">
        <ele>844</ele>
        <time>2015-08-09T14:01:10Z</time>
      </trkpt>
      <trkpt lat="47.83254" lon="6.90643">
        <ele>844</ele>
        <time>2015-08-09T14:01:21Z</time>
      </trkpt>
      <trkpt lat="47.83254" lon="6.90642">
        <ele>841</ele>
        <time>2015-08-09T14:01:25Z</time>
      </trkpt>
      <trkpt lat="47.83254" lon="6.90643">
        <ele>843</ele>
        <time>2015-08-09T14:01:27Z</time>
      </trkpt>
      <trkpt lat="47.83253" lon="6.90643">
        <ele>845</ele>
        <time>2015-08-09T14:01:30Z</time>
      </trkpt>
      <trkpt lat="47.83251" lon="6.90642">
        <ele>843</ele>
        <time>2015-08-09T14:01:33Z</time>
      </trkpt>
      <trkpt lat="47.83252" lon="6.90641">
        <ele>842</ele>
        <time>2015-08-09T14:01:51Z</time>
      </trkpt>
      <trkpt lat="47.83253" lon="6.90639">
        <ele>852</ele>
        <time>2015-08-09T14:02:03Z</time>
      </trkpt>
      <trkpt lat="47.83254" lon="6.90639">
        <ele>845</ele>
        <time>2015-08-09T14:02:20Z</time>
      </trkpt>
      <trkpt lat="47.83254" lon="6.90639">
        <ele>847</ele>
        <time>2015-08-09T14:02:23Z</time>
      </trkpt>
      <trkpt lat="47.83253" lon="6.9064">
        <ele>843</ele>
        <time>2015-08-09T14:02:35Z</time>
      </trkpt>
      <trkpt lat="47.83253" lon="6.90641">
        <ele>843</ele>
        <time>2015-08-09T14:02:40Z</time>
      </trkpt>
      <trkpt lat="47.83253" lon="6.90641">
        <ele>843</ele>
        <time>2015-08-09T14:02:41Z</time>
      </trkpt>
      <trkpt lat="47.83253" lon="6.90641">
        <ele>843</ele>
        <time>2015-08-09T14:02:44Z</time>
      </trkpt>
      <trkpt lat="47.83253" lon="6.90641">
        <ele>843</ele>
        <time>2015-08-09T14:02:58Z</time>
      </trkpt>
      <trkpt lat="47.83253" lon="6.9064">
        <ele>840</ele>
        <time>2015-08-09T14:03:05Z</time>
      </trkpt>
      <trkpt lat="47.83251" lon="6.90639">
        <ele>842</ele>
        <time>2015-08-09T14:03:08Z</time>
      </trkpt>
      <trkpt lat="47.83249" lon="6.90647">
        <ele>840</ele>
        <time>2015-08-09T14:03:23Z</time>
      </trkpt>
      <trkpt lat="47.83243" lon="6.90645">
        <ele>835</ele>
        <time>2015-08-09T14:03:32Z</time>
      </trkpt>
      <trkpt lat="47.83234" lon="6.90644">
        <ele>841</ele>
        <time>2015-08-09T14:03:48Z</time>
      </trkpt>
      <trkpt lat="47.83233" lon="6.90646">
        <ele>841</ele>
        <time>2015-08-09T14:03:52Z</time>
      </trkpt>
      <trkpt lat="47.83229" lon="6.90647">
        <ele>839</ele>
        <time>2015-08-09T14:04:03Z</time>
      </trkpt>
      <trkpt lat="47.83216" lon="6.90653">
        <ele>839</ele>
        <time>2015-08-09T14:04:17Z</time>
      </trkpt>
      <trkpt lat="47.83204" lon="6.90655">
        <ele>837</ele>
        <time>2015-08-09T14:04:29Z</time>
      </trkpt>
      <trkpt lat="47.83204" lon="6.90664">
        <ele>845</ele>
        <time>2015-08-09T14:04:36Z</time>
      </trkpt>
      <trkpt lat="47.83197" lon="6.90677">
        <ele>833</ele>
        <time>2015-08-09T14:04:51Z</time>
      </trkpt>
      <trkpt lat="47.83189" lon="6.90695">
        <ele>827</ele>
        <time>2015-08-09T14:05:06Z</time>
      </trkpt>
      <trkpt lat="47.83187" lon="6.90703">
        <ele>829</ele>
        <time>2015-08-09T14:05:13Z</time>
      </trkpt>
      <trkpt lat="47.83186" lon="6.90714">
        <ele>827</ele>
        <time>2015-08-09T14:05:20Z</time>
      </trkpt>
      <trkpt lat="47.83195" lon="6.90746">
        <ele>827</ele>
        <time>2015-08-09T14:05:40Z</time>
      </trkpt>
      <trkpt lat="47.83191" lon="6.90757">
        <ele>823</ele>
        <time>2015-08-09T14:05:46Z</time>
      </trkpt>
      <trkpt lat="47.83196" lon="6.9077">
        <ele>819</ele>
        <time>2015-08-09T14:05:54Z</time>
      </trkpt>
      <trkpt lat="47.83204" lon="6.90782">
        <ele>818</ele>
        <time>2015-08-09T14:06:04Z</time>
      </trkpt>
      <trkpt lat="47.83211" lon="6.90796">
        <ele>816</ele>
        <time>2015-08-09T14:06:15Z</time>
      </trkpt>
      <trkpt lat="47.83211" lon="6.90806">
        <ele>814</ele>
        <time>2015-08-09T14:06:27Z</time>
      </trkpt>
      <trkpt lat="47.83206" lon="6.90819">
        <ele>812</ele>
        <time>2015-08-09T14:06:37Z</time>
      </trkpt>
      <trkpt lat="47.83201" lon="6.90838">
        <ele>813</ele>
        <time>2015-08-09T14:06:57Z</time>
      </trkpt>
      <trkpt lat="47.83202" lon="6.90838">
        <ele>813</ele>
        <time>2015-08-09T14:07:02Z</time>
      </trkpt>
      <trkpt lat="47.83201" lon="6.9084">
        <ele>812</ele>
        <time>2015-08-09T14:07:05Z</time>
      </trkpt>
      <trkpt lat="47.83199" lon="6.90847">
        <ele>807</ele>
        <time>2015-08-09T14:07:20Z</time>
      </trkpt>
      <trkpt lat="47.83201" lon="6.90849">
        <ele>811</ele>
        <time>2015-08-09T14:07:29Z</time>
      </trkpt>
      <trkpt lat="47.83198" lon="6.90855">
        <ele>810</ele>
        <time>2015-08-09T14:07:38Z</time>
      </trkpt>
      <trkpt lat="47.83196" lon="6.9086">
        <ele>813</ele>
        <time>2015-08-09T14:07:49Z</time>
      </trkpt>
      <trkpt lat="47.83199" lon="6.9087">
        <ele>812</ele>
        <time>2015-08-09T14:08:01Z</time>
      </trkpt>
      <trkpt lat="47.83195" lon="6.90892">
        <ele>811</ele>
        <time>2015-08-09T14:08:21Z</time>
      </trkpt>
      <trkpt lat="47.83194" lon="6.90893">
        <ele>812</ele>
        <time>2015-08-09T14:08:22Z</time>
      </trkpt>
      <trkpt lat="47.83193" lon="6.90906">
        <ele>816</ele>
        <time>2015-08-09T14:08:33Z</time>
      </trkpt>
      <trkpt lat="47.83185" lon="6.90928">
        <ele>819</ele>
        <time>2015-08-09T14:08:54Z</time>
      </trkpt>
      <trkpt lat="47.83182" lon="6.90932">
        <ele>814</ele>
        <time>2015-08-09T14:08:57Z</time>
      </trkpt>
      <trkpt lat="47.83182" lon="6.90943">
        <ele>811</ele>
        <time>2015-08-09T14:09:06Z</time>
      </trkpt>
      <trkpt lat="47.83172" lon="6.90966">
        <ele>811</ele>
        <time>2015-08-09T14:09:20Z</time>
      </trkpt>
      <trkpt lat="47.83171" lon="6.9099">
        <ele>811</ele>
        <time>2015-08-09T14:09:37Z</time>
      </trkpt>
      <trkpt lat="47.83171" lon="6.91">
        <ele>808</ele>
        <time>2015-08-09T14:09:48Z</time>
      </trkpt>
      <trkpt lat="47.83172" lon="6.91002">
        <ele>809</ele>
        <time>2015-08-09T14:09:50Z</time>
      </trkpt>
      <trkpt lat="47.83171" lon="6.91016">
        <ele>808</ele>
        <time>2015-08-09T14:10:01Z</time>
      </trkpt>
      <trkpt lat="47.83169" lon="6.91023">
        <ele>804</ele>
        <time>2015-08-09T14:10:12Z</time>
      </trkpt>
      <trkpt lat="47.83168" lon="6.91027">
        <ele>803</ele>
        <time>2015-08-09T14:10:23Z</time>
      </trkpt>
      <trkpt lat="47.83165" lon="6.91033">
        <ele>803</ele>
        <time>2015-08-09T14:10:34Z</time>
      </trkpt>
      <trkpt lat="47.83164" lon="6.91045">
        <ele>811</ele>
        <time>2015-08-09T14:10:48Z</time>
      </trkpt>
      <trkpt lat="47.83164" lon="6.91053">
        <ele>810</ele>
        <time>2015-08-09T14:10:56Z</time>
      </trkpt>
      <trkpt lat="47.83164" lon="6.91056">
        <ele>812</ele>
        <time>2015-08-09T14:11:07Z</time>
      </trkpt>
      <trkpt lat="47.83164" lon="6.91063">
        <ele>810</ele>
        <time>2015-08-09T14:11:12Z</time>
      </trkpt>
      <trkpt lat="47.83169" lon="6.91081">
        <ele>808</ele>
        <time>2015-08-09T14:11:24Z</time>
      </trkpt>
      <trkpt lat="47.83174" lon="6.91088">
        <ele>811</ele>
        <time>2015-08-09T14:11:32Z</time>
      </trkpt>
      <trkpt lat="47.83169" lon="6.91096">
        <ele>815</ele>
        <time>2015-08-09T14:11:45Z</time>
      </trkpt>
      <trkpt lat="47.83173" lon="6.91111">
        <ele>812</ele>
        <time>2015-08-09T14:11:59Z</time>
      </trkpt>
      <trkpt lat="47.83171" lon="6.91117">
        <ele>817</ele>
        <time>2015-08-09T14:12:10Z</time>
      </trkpt>
      <trkpt lat="47.8317" lon="6.91118">
        <ele>817</ele>
        <time>2015-08-09T14:12:17Z</time>
      </trkpt>
      <trkpt lat="47.8317" lon="6.91118">
        <ele>817</ele>
        <time>2015-08-09T14:12:19Z</time>
      </trkpt>
      <trkpt lat="47.8317" lon="6.91118">
        <ele>817</ele>
        <time>2015-08-09T14:12:22Z</time>
      </trkpt>
      <trkpt lat="47.8317" lon="6.91118">
        <ele>817</ele>
        <time>2015-08-09T14:12:25Z</time>
      </trkpt>
      <trkpt lat="47.8317" lon="6.91118">
        <ele>816</ele>
        <time>2015-08-09T14:12:28Z</time>
      </trkpt>
      <trkpt lat="47.8317" lon="6.91119">
        <ele>816</ele>
        <time>2015-08-09T14:12:33Z</time>
      </trkpt>
      <trkpt lat="47.8317" lon="6.91118">
        <ele>815</ele>
        <time>2015-08-09T14:12:38Z</time>
      </trkpt>
      <trkpt lat="47.8317" lon="6.91118">
        <ele>815</ele>
        <time>2015-08-09T14:12:41Z</time>
      </trkpt>
      <trkpt lat="47.8317" lon="6.91118">
        <ele>815</ele>
        <time>2015-08-09T14:12:45Z</time>
      </trkpt>
      <trkpt lat="47.8317" lon="6.9112">
        <ele>814</ele>
        <time>2015-08-09T14:12:52Z</time>
      </trkpt>
      <trkpt lat="47.8317" lon="6.91122">
        <ele>812</ele>
        <time>2015-08-09T14:13:01Z</time>
      </trkpt>
      <trkpt lat="47.8317" lon="6.91122">
        <ele>812</ele>
        <time>2015-08-09T14:13:04Z</time>
      </trkpt>
      <trkpt lat="47.8317" lon="6.91122">
        <ele>812</ele>
        <time>2015-08-09T14:13:07Z</time>
      </trkpt>
      <trkpt lat="47.8317" lon="6.91122">
        <ele>812</ele>
        <time>2015-08-09T14:13:10Z</time>
      </trkpt>
      <trkpt lat="47.8317" lon="6.91122">
        <ele>812</ele>
        <time>2015-08-09T14:13:13Z</time>
      </trkpt>
      <trkpt lat="47.83169" lon="6.91122">
        <ele>815</ele>
        <time>2015-08-09T14:13:16Z</time>
      </trkpt>
      <trkpt lat="47.83168" lon="6.91127">
        <ele>812</ele>
        <time>2015-08-09T14:13:27Z</time>
      </trkpt>
      <trkpt lat="47.83162" lon="6.9115">
        <ele>814</ele>
        <time>2015-08-09T14:13:44Z</time>
      </trkpt>
      <trkpt lat="47.8316" lon="6.91156">
        <ele>814</ele>
        <time>2015-08-09T14:13:49Z</time>
      </trkpt>
      <trkpt lat="47.83151" lon="6.91167">
        <ele>809</ele>
        <time>2015-08-09T14:14:01Z</time>
      </trkpt>
      <trkpt lat="47.83143" lon="6.91174">
        <ele>807</ele>
        <time>2015-08-09T14:14:11Z</time>
      </trkpt>
      <trkpt lat="47.83138" lon="6.91189">
        <ele>796</ele>
        <time>2015-08-09T14:14:22Z</time>
      </trkpt>
      <trkpt lat="47.83129" lon="6.91206">
        <ele>794</ele>
        <time>2015-08-09T14:14:41Z</time>
      </trkpt>
      <trkpt lat="47.83122" lon="6.91217">
        <ele>799</ele>
        <time>2015-08-09T14:14:52Z</time>
      </trkpt>
      <trkpt lat="47.83121" lon="6.91217">
        <ele>799</ele>
        <time>2015-08-09T14:14:55Z</time>
      </trkpt>
      <trkpt lat="47.83119" lon="6.91223">
        <ele>800</ele>
        <time>2015-08-09T14:15:06Z</time>
      </trkpt>
      <trkpt lat="47.83116" lon="6.91236">
        <ele>791</ele>
        <time>2015-08-09T14:15:26Z</time>
      </trkpt>
      <trkpt lat="47.83114" lon="6.91235">
        <ele>794</ele>
        <time>2015-08-09T14:15:28Z</time>
      </trkpt>
      <trkpt lat="47.8311" lon="6.91244">
        <ele>793</ele>
        <time>2015-08-09T14:15:39Z</time>
      </trkpt>
      <trkpt lat="47.8311" lon="6.91254">
        <ele>795</ele>
        <time>2015-08-09T14:15:50Z</time>
      </trkpt>
      <trkpt lat="47.83099" lon="6.91252">
        <ele>787</ele>
        <time>2015-08-09T14:16:01Z</time>
      </trkpt>
      <trkpt lat="47.8309" lon="6.91259">
        <ele>787</ele>
        <time>2015-08-09T14:16:21Z</time>
      </trkpt>
      <trkpt lat="47.83081" lon="6.91265">
        <ele>791</ele>
        <time>2015-08-09T14:16:32Z</time>
      </trkpt>
      <trkpt lat="47.83076" lon="6.91267">
        <ele>797</ele>
        <time>2015-08-09T14:16:40Z</time>
      </trkpt>
      <trkpt lat="47.83071" lon="6.91271">
        <ele>793</ele>
        <time>2015-08-09T14:16:45Z</time>
      </trkpt>
      <trkpt lat="47.83066" lon="6.91271">
        <ele>792</ele>
        <time>2015-08-09T14:16:56Z</time>
      </trkpt>
      <trkpt lat="47.8306" lon="6.9127">
        <ele>792</ele>
        <time>2015-08-09T14:17:07Z</time>
      </trkpt>
      <trkpt lat="47.83046" lon="6.91269">
        <ele>790</ele>
        <time>2015-08-09T14:17:28Z</time>
      </trkpt>
      <trkpt lat="47.83045" lon="6.91269">
        <ele>790</ele>
        <time>2015-08-09T14:17:29Z</time>
      </trkpt>
      <trkpt lat="47.83043" lon="6.91272">
        <ele>791</ele>
        <time>2015-08-09T14:17:35Z</time>
      </trkpt>
      <trkpt lat="47.83042" lon="6.91274">
        <ele>792</ele>
        <time>2015-08-09T14:17:43Z</time>
      </trkpt>
      <trkpt lat="47.83033" lon="6.91279">
        <ele>793</ele>
        <time>2015-08-09T14:17:59Z</time>
      </trkpt>
      <trkpt lat="47.83029" lon="6.9128">
        <ele>790</ele>
        <time>2015-08-09T14:18:08Z</time>
      </trkpt>
      <trkpt lat="47.83023" lon="6.91279">
        <ele>788</ele>
        <time>2015-08-09T14:18:17Z</time>
      </trkpt>
      <trkpt lat="47.83016" lon="6.91279">
        <ele>782</ele>
        <time>2015-08-09T14:18:31Z</time>
      </trkpt>
      <trkpt lat="47.83005" lon="6.91276">
        <ele>781</ele>
        <time>2015-08-09T14:18:45Z</time>
      </trkpt>
      <trkpt lat="47.82999" lon="6.91273">
        <ele>782</ele>
        <time>2015-08-09T14:18:49Z</time>
      </trkpt>
      <trkpt lat="47.82991" lon="6.91269">
        <ele>785</ele>
        <time>2015-08-09T14:19:00Z</time>
      </trkpt>
      <trkpt lat="47.82984" lon="6.91269">
        <ele>776</ele>
        <time>2015-08-09T14:19:11Z</time>
      </trkpt>
      <trkpt lat="47.82971" lon="6.91282">
        <ele>774</ele>
        <time>2015-08-09T14:19:30Z</time>
      </trkpt>
      <trkpt lat="47.82966" lon="6.91288">
        <ele>775</ele>
        <time>2015-08-09T14:19:39Z</time>
      </trkpt>
      <trkpt lat="47.82964" lon="6.91292">
        <ele>776</ele>
        <time>2015-08-09T14:19:44Z</time>
      </trkpt>
      <trkpt lat="47.8296" lon="6.91295">
        <ele>769</ele>
        <time>2015-08-09T14:19:55Z</time>
      </trkpt>
      <trkpt lat="47.82959" lon="6.91306">
        <ele>766</ele>
        <time>2015-08-09T14:20:06Z</time>
      </trkpt>
      <trkpt lat="47.82957" lon="6.91315">
        <ele>763</ele>
        <time>2015-08-09T14:20:17Z</time>
      </trkpt>
      <trkpt lat="47.82949" lon="6.91335">
        <ele>760</ele>
        <time>2015-08-09T14:20:35Z</time>
      </trkpt>
      <trkpt lat="47.82943" lon="6.91354">
        <ele>761</ele>
        <time>2015-08-09T14:20:49Z</time>
      </trkpt>
      <trkpt lat="47.82939" lon="6.9136">
        <ele>760</ele>
        <time>2015-08-09T14:20:56Z</time>
      </trkpt>
      <trkpt lat="47.82936" lon="6.91364">
        <ele>762</ele>
        <time>2015-08-09T14:21:01Z</time>
      </trkpt>
      <trkpt lat="47.82933" lon="6.91368">
        <ele>761</ele>
        <time>2015-08-09T14:21:12Z</time>
      </trkpt>
      <trkpt lat="47.82931" lon="6.9137">
        <ele>760</ele>
        <time>2015-08-09T14:21:23Z</time>
      </trkpt>
      <trkpt lat="47.82925" lon="6.91388">
        <ele>763</ele>
        <time>2015-08-09T14:21:42Z</time>
      </trkpt>
      <trkpt lat="47.82922" lon="6.91392">
        <ele>761</ele>
        <time>2015-08-09T14:21:51Z</time>
      </trkpt>
      <trkpt lat="47.82921" lon="6.91398">
        <ele>761</ele>
        <time>2015-08-09T14:21:56Z</time>
      </trkpt>
      <trkpt lat="47.82916" lon="6.91403">
        <ele>763</ele>
        <time>2015-08-09T14:22:07Z</time>
      </trkpt>
      <trkpt lat="47.82905" lon="6.91419">
        <ele>762</ele>
        <time>2015-08-09T14:22:24Z</time>
      </trkpt>
      <trkpt lat="47.82903" lon="6.91423">
        <ele>760</ele>
        <time>2015-08-09T14:22:30Z</time>
      </trkpt>
      <trkpt lat="47.82901" lon="6.91432">
        <ele>758</ele>
        <time>2015-08-09T14:22:40Z</time>
      </trkpt>
      <trkpt lat="47.82898" lon="6.91444">
        <ele>751</ele>
        <time>2015-08-09T14:22:52Z</time>
      </trkpt>
      <trkpt lat="47.82893" lon="6.91459">
        <ele>752</ele>
        <time>2015-08-09T14:23:03Z</time>
      </trkpt>
      <trkpt lat="47.82893" lon="6.91464">
        <ele>750</ele>
        <time>2015-08-09T14:23:16Z</time>
      </trkpt>
      <trkpt lat="47.82889" lon="6.91478">
        <ele>746</ele>
        <time>2015-08-09T14:23:27Z</time>
      </trkpt>
      <trkpt lat="47.82887" lon="6.91487">
        <ele>745</ele>
        <time>2015-08-09T14:23:35Z</time>
      </trkpt>
      <trkpt lat="47.8289" lon="6.91495">
        <ele>744</ele>
        <time>2015-08-09T14:23:46Z</time>
      </trkpt>
      <trkpt lat="47.82877" lon="6.91499">
        <ele>748</ele>
        <time>2015-08-09T14:24:07Z</time>
      </trkpt>
      <trkpt lat="47.82875" lon="6.91506">
        <ele>749</ele>
        <time>2015-08-09T14:24:14Z</time>
      </trkpt>
      <trkpt lat="47.82874" lon="6.91511">
        <ele>747</ele>
        <time>2015-08-09T14:24:19Z</time>
      </trkpt>
      <trkpt lat="47.82869" lon="6.91538">
        <ele>753</ele>
        <time>2015-08-09T14:24:38Z</time>
      </trkpt>
      <trkpt lat="47.82868" lon="6.91548">
        <ele>752</ele>
        <time>2015-08-09T14:24:51Z</time>
      </trkpt>
      <trkpt lat="47.82867" lon="6.91549">
        <ele>752</ele>
        <time>2015-08-09T14:24:52Z</time>
      </trkpt>
      <trkpt lat="47.82862" lon="6.91558">
        <ele>748</ele>
        <time>2015-08-09T14:25:03Z</time>
      </trkpt>
      <trkpt lat="47.82856" lon="6.91572">
        <ele>743</ele>
        <time>2015-08-09T14:25:22Z</time>
      </trkpt>
      <trkpt lat="47.82855" lon="6.91578">
        <ele>740</ele>
        <time>2015-08-09T14:25:29Z</time>
      </trkpt>
      <trkpt lat="47.82851" lon="6.9159">
        <ele>742</ele>
        <time>2015-08-09T14:25:41Z</time>
      </trkpt>
      <trkpt lat="47.82848" lon="6.91593">
        <ele>739</ele>
        <time>2015-08-09T14:25:48Z</time>
      </trkpt>
      <trkpt lat="47.82844" lon="6.91599">
        <ele>735</ele>
        <time>2015-08-09T14:25:59Z</time>
      </trkpt>
      <trkpt lat="47.82841" lon="6.91608">
        <ele>737</ele>
        <time>2015-08-09T14:26:09Z</time>
      </trkpt>
      <trkpt lat="47.82835" lon="6.91626">
        <ele>738</ele>
        <time>2015-08-09T14:26:26Z</time>
      </trkpt>
      <trkpt lat="47.82831" lon="6.91635">
        <ele>739</ele>
        <time>2015-08-09T14:26:33Z</time>
      </trkpt>
      <trkpt lat="47.82827" lon="6.91646">
        <ele>736</ele>
        <time>2015-08-09T14:26:43Z</time>
      </trkpt>
      <trkpt lat="47.82822" lon="6.91664">
        <ele>731</ele>
        <time>2015-08-09T14:26:56Z</time>
      </trkpt>
      <trkpt lat="47.82819" lon="6.9167">
        <ele>735</ele>
        <time>2015-08-09T14:27:04Z</time>
      </trkpt>
      <trkpt lat="47.82817" lon="6.91686">
        <ele>733</ele>
        <time>2015-08-09T14:27:22Z</time>
      </trkpt>
      <trkpt lat="47.82813" lon="6.9169">
        <ele>733</ele>
        <time>2015-08-09T14:27:26Z</time>
      </trkpt>
      <trkpt lat="47.82805" lon="6.917">
        <ele>730</ele>
        <time>2015-08-09T14:27:38Z</time>
      </trkpt>
      <trkpt lat="47.82795" lon="6.91714">
        <ele>727</ele>
        <time>2015-08-09T14:27:52Z</time>
      </trkpt>
      <trkpt lat="47.82789" lon="6.91728">
        <ele>730</ele>
        <time>2015-08-09T14:28:03Z</time>
      </trkpt>
      <trkpt lat="47.82778" lon="6.91745">
        <ele>728</ele>
        <time>2015-08-09T14:28:18Z</time>
      </trkpt>
      <trkpt lat="47.82777" lon="6.91747">
        <ele>723</ele>
        <time>2015-08-09T14:28:21Z</time>
      </trkpt>
      <trkpt lat="47.82764" lon="6.9176">
        <ele>714</ele>
        <time>2015-08-09T14:28:42Z</time>
      </trkpt>
      <trkpt lat="47.82764" lon="6.9176">
        <ele>714</ele>
        <time>2015-08-09T14:28:43Z</time>
      </trkpt>
      <trkpt lat="47.82757" lon="6.91768">
        <ele>710</ele>
        <time>2015-08-09T14:28:54Z</time>
      </trkpt>
      <trkpt lat="47.82747" lon="6.91774">
        <ele>709</ele>
        <time>2015-08-09T14:29:05Z</time>
      </trkpt>
      <trkpt lat="47.82745" lon="6.91785">
        <ele>709</ele>
        <time>2015-08-09T14:29:16Z</time>
      </trkpt>
      <trkpt lat="47.8273" lon="6.91797">
        <ele>705</ele>
        <time>2015-08-09T14:29:33Z</time>
      </trkpt>
      <trkpt lat="47.82716" lon="6.91808">
        <ele>709</ele>
        <time>2015-08-09T14:29:47Z</time>
      </trkpt>
      <trkpt lat="47.82706" lon="6.91816">
        <ele>709</ele>
        <time>2015-08-09T14:29:57Z</time>
      </trkpt>
      <trkpt lat="47.82698" lon="6.91819">
        <ele>708</ele>
        <time>2015-08-09T14:30:05Z</time>
      </trkpt>
      <trkpt lat="47.82681" lon="6.91827">
        <ele>717</ele>
        <time>2015-08-09T14:30:19Z</time>
      </trkpt>
      <trkpt lat="47.82677" lon="6.91828">
        <ele>714</ele>
        <time>2015-08-09T14:30:22Z</time>
      </trkpt>
      <trkpt lat="47.82663" lon="6.91841">
        <ele>711</ele>
        <time>2015-08-09T14:30:39Z</time>
      </trkpt>
      <trkpt lat="47.82655" lon="6.91849">
        <ele>704</ele>
        <time>2015-08-09T14:30:51Z</time>
      </trkpt>
      <trkpt lat="47.82652" lon="6.9185">
        <ele>702</ele>
        <time>2015-08-09T14:30:55Z</time>
      </trkpt>
      <trkpt lat="47.82648" lon="6.91854">
        <ele>698</ele>
        <time>2015-08-09T14:31:06Z</time>
      </trkpt>
      <trkpt lat="47.8264" lon="6.91861">
        <ele>695</ele>
        <time>2015-08-09T14:31:24Z</time>
      </trkpt>
      <trkpt lat="47.82633" lon="6.91867">
        <ele>692</ele>
        <time>2015-08-09T14:31:34Z</time>
      </trkpt>
      <trkpt lat="47.82629" lon="6.9187">
        <ele>692</ele>
        <time>2015-08-09T14:31:41Z</time>
      </trkpt>
      <trkpt lat="47.82622" lon="6.91874">
        <ele>686</ele>
        <time>2015-08-09T14:31:50Z</time>
      </trkpt>
      <trkpt lat="47.82611" lon="6.91885">
        <ele>687</ele>
        <time>2015-08-09T14:32:02Z</time>
      </trkpt>
      <trkpt lat="47.82606" lon="6.91906">
        <ele>682</ele>
        <time>2015-08-09T14:32:21Z</time>
      </trkpt>
      <trkpt lat="47.82606" lon="6.91913">
        <ele>682</ele>
        <time>2015-08-09T14:32:28Z</time>
      </trkpt>
      <trkpt lat="47.82603" lon="6.91921">
        <ele>682</ele>
        <time>2015-08-09T14:32:35Z</time>
      </trkpt>
      <trkpt lat="47.82603" lon="6.91929">
        <ele>681</ele>
        <time>2015-08-09T14:32:45Z</time>
      </trkpt>
      <trkpt lat="47.82597" lon="6.91949">
        <ele>674</ele>
        <time>2015-08-09T14:32:56Z</time>
      </trkpt>
      <trkpt lat="47.82591" lon="6.91955">
        <ele>687</ele>
        <time>2015-08-09T14:33:07Z</time>
      </trkpt>
      <trkpt lat="47.82591" lon="6.91974">
        <ele>691</ele>
        <time>2015-08-09T14:33:19Z</time>
      </trkpt>
      <trkpt lat="47.82586" lon="6.91997">
        <ele>686</ele>
        <time>2015-08-09T14:33:33Z</time>
      </trkpt>
      <trkpt lat="47.82581" lon="6.9201">
        <ele>682</ele>
        <time>2015-08-09T14:33:43Z</time>
      </trkpt>
      <trkpt lat="47.82571" lon="6.92028">
        <ele>683</ele>
        <time>2015-08-09T14:33:56Z</time>
      </trkpt>
      <trkpt lat="47.82569" lon="6.92034">
        <ele>682</ele>
        <time>2015-08-09T14:34:03Z</time>
      </trkpt>
      <trkpt lat="47.82564" lon="6.92041">
        <ele>682</ele>
        <time>2015-08-09T14:34:14Z</time>
      </trkpt>
      <trkpt lat="47.8256" lon="6.9205">
        <ele>678</ele>
        <time>2015-08-09T14:34:24Z</time>
      </trkpt>
      <trkpt lat="47.82558" lon="6.9206">
        <ele>678</ele>
        <time>2015-08-09T14:34:38Z</time>
      </trkpt>
      <trkpt lat="47.82552" lon="6.92066">
        <ele>674</ele>
        <time>2015-08-09T14:34:46Z</time>
      </trkpt>
      <trkpt lat="47.82539" lon="6.92086">
        <ele>675</ele>
        <time>2015-08-09T14:35:04Z</time>
      </trkpt>
      <trkpt lat="47.82533" lon="6.92096">
        <ele>670</ele>
        <time>2015-08-09T14:35:18Z</time>
      </trkpt>
      <trkpt lat="47.82533" lon="6.92096">
        <ele>670</ele>
        <time>2015-08-09T14:35:19Z</time>
      </trkpt>
      <trkpt lat="47.82531" lon="6.9211">
        <ele>676</ele>
        <time>2015-08-09T14:35:33Z</time>
      </trkpt>
      <trkpt lat="47.82528" lon="6.92115">
        <ele>670</ele>
        <time>2015-08-09T14:35:41Z</time>
      </trkpt>
      <trkpt lat="47.82529" lon="6.9212">
        <ele>666</ele>
        <time>2015-08-09T14:35:52Z</time>
      </trkpt>
      <trkpt lat="47.82527" lon="6.92125">
        <ele>665</ele>
        <time>2015-08-09T14:36:03Z</time>
      </trkpt>
      <trkpt lat="47.8252" lon="6.92137">
        <ele>661</ele>
        <time>2015-08-09T14:36:21Z</time>
      </trkpt>
      <trkpt lat="47.82518" lon="6.92139">
        <ele>662</ele>
        <time>2015-08-09T14:36:25Z</time>
      </trkpt>
      <trkpt lat="47.8251" lon="6.9215">
        <ele>665</ele>
        <time>2015-08-09T14:36:38Z</time>
      </trkpt>
      <trkpt lat="47.82507" lon="6.92154">
        <ele>662</ele>
        <time>2015-08-09T14:36:47Z</time>
      </trkpt>
      <trkpt lat="47.82505" lon="6.92176">
        <ele>657</ele>
        <time>2015-08-09T14:37:05Z</time>
      </trkpt>
      <trkpt lat="47.82499" lon="6.92186">
        <ele>658</ele>
        <time>2015-08-09T14:37:14Z</time>
      </trkpt>
      <trkpt lat="47.82496" lon="6.92188">
        <ele>659</ele>
        <time>2015-08-09T14:37:21Z</time>
      </trkpt>
      <trkpt lat="47.82494" lon="6.92193">
        <ele>659</ele>
        <time>2015-08-09T14:37:31Z</time>
      </trkpt>
      <trkpt lat="47.82487" lon="6.92205">
        <ele>655</ele>
        <time>2015-08-09T14:37:42Z</time>
      </trkpt>
      <trkpt lat="47.82473" lon="6.92213">
        <ele>646</ele>
        <time>2015-08-09T14:37:59Z</time>
      </trkpt>
      <trkpt lat="47.82471" lon="6.92229">
        <ele>650</ele>
        <time>2015-08-09T14:38:11Z</time>
      </trkpt>
      <trkpt lat="47.82466" lon="6.92236">
        <ele>652</ele>
        <time>2015-08-09T14:38:22Z</time>
      </trkpt>
      <trkpt lat="47.82463" lon="6.92237">
        <ele>651</ele>
        <time>2015-08-09T14:38:26Z</time>
      </trkpt>
      <trkpt lat="47.82455" lon="6.92245">
        <ele>645</ele>
        <time>2015-08-09T14:38:37Z</time>
      </trkpt>
      <trkpt lat="47.82448" lon="6.92252">
        <ele>649</ele>
        <time>2015-08-09T14:38:48Z</time>
      </trkpt>
      <trkpt lat="47.82434" lon="6.92268">
        <ele>645</ele>
        <time>2015-08-09T14:39:07Z</time>
      </trkpt>
      <trkpt lat="47.82432" lon="6.92278">
        <ele>644</ele>
        <time>2015-08-09T14:39:16Z</time>
      </trkpt>
      <trkpt lat="47.82431" lon="6.9228">
        <ele>647</ele>
        <time>2015-08-09T14:39:24Z</time>
      </trkpt>
      <trkpt lat="47.82431" lon="6.9228">
        <ele>648</ele>
        <time>2015-08-09T14:39:27Z</time>
      </trkpt>
      <trkpt lat="47.82431" lon="6.92281">
        <ele>648</ele>
        <time>2015-08-09T14:39:30Z</time>
      </trkpt>
      <trkpt lat="47.82431" lon="6.92281">
        <ele>647</ele>
        <time>2015-08-09T14:39:35Z</time>
      </trkpt>
      <trkpt lat="47.82431" lon="6.92281">
        <ele>647</ele>
        <time>2015-08-09T14:39:36Z</time>
      </trkpt>
      <trkpt lat="47.8243" lon="6.92282">
        <ele>646</ele>
        <time>2015-08-09T14:39:42Z</time>
      </trkpt>
      <trkpt lat="47.8243" lon="6.92282">
        <ele>646</ele>
        <time>2015-08-09T14:39:47Z</time>
      </trkpt>
      <trkpt lat="47.8243" lon="6.92282">
        <ele>646</ele>
        <time>2015-08-09T14:39:48Z</time>
      </trkpt>
      <trkpt lat="47.8243" lon="6.92282">
        <ele>646</ele>
        <time>2015-08-09T14:39:51Z</time>
      </trkpt>
      <trkpt lat="47.8243" lon="6.92282">
        <ele>646</ele>
        <time>2015-08-09T14:39:54Z</time>
      </trkpt>
      <trkpt lat="47.8243" lon="6.92282">
        <ele>646</ele>
        <time>2015-08-09T14:39:57Z</time>
      </trkpt>
      <trkpt lat="47.8243" lon="6.92282">
        <ele>646</ele>
        <time>2015-08-09T14:40:00Z</time>
      </trkpt>
      <trkpt lat="47.8243" lon="6.92282">
        <ele>646</ele>
        <time>2015-08-09T14:40:03Z</time>
      </trkpt>
      <trkpt lat="47.8243" lon="6.92282">
        <ele>646</ele>
        <time>2015-08-09T14:40:06Z</time>
      </trkpt>
      <trkpt lat="47.82431" lon="6.92283">
        <ele>645</ele>
        <time>2015-08-09T14:40:12Z</time>
      </trkpt>
      <trkpt lat="47.82431" lon="6.92282">
        <ele>645</ele>
        <time>2015-08-09T14:40:15Z</time>
      </trkpt>
      <trkpt lat="47.8243" lon="6.92282">
        <ele>645</ele>
        <time>2015-08-09T14:40:21Z</time>
      </trkpt>
      <trkpt lat="47.8243" lon="6.92282">
        <ele>645</ele>
        <time>2015-08-09T14:40:24Z</time>
      </trkpt>
      <trkpt lat="47.8243" lon="6.92282">
        <ele>645</ele>
        <time>2015-08-09T14:40:27Z</time>
      </trkpt>
      <trkpt lat="47.8243" lon="6.92282">
        <ele>645</ele>
        <time>2015-08-09T14:40:30Z</time>
      </trkpt>
      <trkpt lat="47.8243" lon="6.92282">
        <ele>645</ele>
        <time>2015-08-09T14:40:34Z</time>
      </trkpt>
      <trkpt lat="47.8243" lon="6.92282">
        <ele>645</ele>
        <time>2015-08-09T14:40:36Z</time>
      </trkpt>
      <trkpt lat="47.8243" lon="6.92282">
        <ele>645</ele>
        <time>2015-08-09T14:40:39Z</time>
      </trkpt>
      <trkpt lat="47.8243" lon="6.92282">
        <ele>645</ele>
        <time>2015-08-09T14:40:42Z</time>
      </trkpt>
      <trkpt lat="47.82431" lon="6.92284">
        <ele>644</ele>
        <time>2015-08-09T14:40:47Z</time>
      </trkpt>
      <trkpt lat="47.82427" lon="6.92292">
        <ele>642</ele>
        <time>2015-08-09T14:40:56Z</time>
      </trkpt>
      <trkpt lat="47.82423" lon="6.92304">
        <ele>642</ele>
        <time>2015-08-09T14:41:17Z</time>
      </trkpt>
      <trkpt lat="47.82423" lon="6.92305">
        <ele>638</ele>
        <time>2015-08-09T14:41:18Z</time>
      </trkpt>
      <trkpt lat="47.82418" lon="6.92314">
        <ele>637</ele>
        <time>2015-08-09T14:41:35Z</time>
      </trkpt>
      <trkpt lat="47.82417" lon="6.92315">
        <ele>635</ele>
        <time>2015-08-09T14:41:48Z</time>
      </trkpt>
      <trkpt lat="47.82414" lon="6.92316">
        <ele>636</ele>
        <time>2015-08-09T14:41:54Z</time>
      </trkpt>
      <trkpt lat="47.82413" lon="6.92317">
        <ele>636</ele>
        <time>2015-08-09T14:42:00Z</time>
      </trkpt>
      <trkpt lat="47.8241" lon="6.92322">
        <ele>638</ele>
        <time>2015-08-09T14:42:14Z</time>
      </trkpt>
      <trkpt lat="47.82409" lon="6.92323">
        <ele>637</ele>
        <time>2015-08-09T14:42:22Z</time>
      </trkpt>
      <trkpt lat="47.82402" lon="6.92344">
        <ele>631</ele>
        <time>2015-08-09T14:42:41Z</time>
      </trkpt>
      <trkpt lat="47.82399" lon="6.92347">
        <ele>632</ele>
        <time>2015-08-09T14:42:47Z</time>
      </trkpt>
      <trkpt lat="47.82397" lon="6.92352">
        <ele>636</ele>
        <time>2015-08-09T14:42:58Z</time>
      </trkpt>
      <trkpt lat="47.82393" lon="6.92353">
        <ele>640</ele>
        <time>2015-08-09T14:43:06Z</time>
      </trkpt>
      <trkpt lat="47.82387" lon="6.92365">
        <ele>643</ele>
        <time>2015-08-09T14:43:18Z</time>
      </trkpt>
      <trkpt lat="47.82383" lon="6.92371">
        <ele>635</ele>
        <time>2015-08-09T14:43:29Z</time>
      </trkpt>
      <trkpt lat="47.8237" lon="6.92393">
        <ele>636</ele>
        <time>2015-08-09T14:43:48Z</time>
      </trkpt>
      <trkpt lat="47.82368" lon="6.92396">
        <ele>636</ele>
        <time>2015-08-09T14:43:51Z</time>
      </trkpt>
      <trkpt lat="47.82363" lon="6.92403">
        <ele>633</ele>
        <time>2015-08-09T14:44:01Z</time>
      </trkpt>
      <trkpt lat="47.82362" lon="6.92415">
        <ele>631</ele>
        <time>2015-08-09T14:44:12Z</time>
      </trkpt>
      <trkpt lat="47.82357" lon="6.92437">
        <ele>622</ele>
        <time>2015-08-09T14:44:32Z</time>
      </trkpt>
      <trkpt lat="47.82357" lon="6.92439">
        <ele>620</ele>
        <time>2015-08-09T14:44:34Z</time>
      </trkpt>
      <trkpt lat="47.82353" lon="6.92456">
        <ele>616</ele>
        <time>2015-08-09T14:44:50Z</time>
      </trkpt>
      <trkpt lat="47.82351" lon="6.92458">
        <ele>612</ele>
        <time>2015-08-09T14:44:56Z</time>
      </trkpt>
      <trkpt lat="47.82345" lon="6.92468">
        <ele>613</ele>
        <time>2015-08-09T14:45:07Z</time>
      </trkpt>
      <trkpt lat="47.82333" lon="6.92498">
        <ele>609</ele>
        <time>2015-08-09T14:45:27Z</time>
      </trkpt>
      <trkpt lat="47.82334" lon="6.92508">
        <ele>609</ele>
        <time>2015-08-09T14:45:36Z</time>
      </trkpt>
      <trkpt lat="47.82324" lon="6.92528">
        <ele>609</ele>
        <time>2015-08-09T14:45:50Z</time>
      </trkpt>
      <trkpt lat="47.82319" lon="6.92538">
        <ele>609</ele>
        <time>2015-08-09T14:45:57Z</time>
      </trkpt>
      <trkpt lat="47.82316" lon="6.92541">
        <ele>606</ele>
        <time>2015-08-09T14:46:05Z</time>
      </trkpt>
      <trkpt lat="47.82316" lon="6.92544">
        <ele>603</ele>
        <time>2015-08-09T14:46:19Z</time>
      </trkpt>
      <trkpt lat="47.82315" lon="6.92547">
        <ele>603</ele>
        <time>2015-08-09T14:46:29Z</time>
      </trkpt>
      <trkpt lat="47.82315" lon="6.92547">
        <ele>603</ele>
        <time>2015-08-09T14:46:33Z</time>
      </trkpt>
      <trkpt lat="47.82315" lon="6.92547">
        <ele>603</ele>
        <time>2015-08-09T14:46:37Z</time>
      </trkpt>
      <trkpt lat="47.82315" lon="6.92548">
        <ele>603</ele>
        <time>2015-08-09T14:46:39Z</time>
      </trkpt>
      <trkpt lat="47.82315" lon="6.92548">
        <ele>603</ele>
        <time>2015-08-09T14:46:43Z</time>
      </trkpt>
      <trkpt lat="47.82315" lon="6.92548">
        <ele>603</ele>
        <time>2015-08-09T14:46:45Z</time>
      </trkpt>
      <trkpt lat="47.82315" lon="6.92548">
        <ele>603</ele>
        <time>2015-08-09T14:46:48Z</time>
      </trkpt>
      <trkpt lat="47.82315" lon="6.92552">
        <ele>605</ele>
        <time>2015-08-09T14:46:58Z</time>
      </trkpt>
      <trkpt lat="47.82313" lon="6.92554">
        <ele>604</ele>
        <time>2015-08-09T14:47:02Z</time>
      </trkpt>
      <trkpt lat="47.82307" lon="6.92566">
        <ele>608</ele>
        <time>2015-08-09T14:47:18Z</time>
      </trkpt>
      <trkpt lat="47.82305" lon="6.92566">
        <ele>608</ele>
        <time>2015-08-09T14:47:30Z</time>
      </trkpt>
      <trkpt lat="47.82305" lon="6.92566">
        <ele>609</ele>
        <time>2015-08-09T14:47:33Z</time>
      </trkpt>
      <trkpt lat="47.82303" lon="6.92568">
        <ele>608</ele>
        <time>2015-08-09T14:47:37Z</time>
      </trkpt>
      <trkpt lat="47.82298" lon="6.92573">
        <ele>610</ele>
        <time>2015-08-09T14:47:47Z</time>
      </trkpt>
      <trkpt lat="47.82292" lon="6.92584">
        <ele>601</ele>
        <time>2015-08-09T14:48:03Z</time>
      </trkpt>
      <trkpt lat="47.82292" lon="6.92583">
        <ele>594</ele>
        <time>2015-08-09T14:48:09Z</time>
      </trkpt>
      <trkpt lat="47.82291" lon="6.92585">
        <ele>593</ele>
        <time>2015-08-09T14:48:12Z</time>
      </trkpt>
      <trkpt lat="47.8229" lon="6.92589">
        <ele>591</ele>
        <time>2015-08-09T14:48:27Z</time>
      </trkpt>
      <trkpt lat="47.82285" lon="6.92594">
        <ele>591</ele>
        <time>2015-08-09T14:48:34Z</time>
      </trkpt>
      <trkpt lat="47.82279" lon="6.92602">
        <ele>591</ele>
        <time>2015-08-09T14:48:46Z</time>
      </trkpt>
      <trkpt lat="47.82276" lon="6.92603">
        <ele>589</ele>
        <time>2015-08-09T14:48:56Z</time>
      </trkpt>
      <trkpt lat="47.82269" lon="6.9261">
        <ele>591</ele>
        <time>2015-08-09T14:49:10Z</time>
      </trkpt>
      <trkpt lat="47.82263" lon="6.92616">
        <ele>592</ele>
        <time>2015-08-09T14:49:18Z</time>
      </trkpt>
      <trkpt lat="47.82255" lon="6.92638">
        <ele>596</ele>
        <time>2015-08-09T14:49:38Z</time>
      </trkpt>
      <trkpt lat="47.82252" lon="6.92643">
        <ele>597</ele>
        <time>2015-08-09T14:49:42Z</time>
      </trkpt>
      <trkpt lat="47.8225" lon="6.92655">
        <ele>596</ele>
        <time>2015-08-09T14:49:51Z</time>
      </trkpt>
      <trkpt lat="47.82243" lon="6.92665">
        <ele>596</ele>
        <time>2015-08-09T14:50:02Z</time>
      </trkpt>
      <trkpt lat="47.82241" lon="6.92669">
        <ele>590</ele>
        <time>2015-08-09T14:50:13Z</time>
      </trkpt>
      <trkpt lat="47.82236" lon="6.92684">
        <ele>594</ele>
        <time>2015-08-09T14:50:24Z</time>
      </trkpt>
      <trkpt lat="47.82237" lon="6.92689">
        <ele>590</ele>
        <time>2015-08-09T14:50:39Z</time>
      </trkpt>
      <trkpt lat="47.82238" lon="6.92689">
        <ele>590</ele>
        <time>2015-08-09T14:50:47Z</time>
      </trkpt>
      <trkpt lat="47.82235" lon="6.92694">
        <ele>587</ele>
        <time>2015-08-09T14:50:56Z</time>
      </trkpt>
      <trkpt lat="47.82234" lon="6.92697">
        <ele>588</ele>
        <time>2015-08-09T14:51:00Z</time>
      </trkpt>
      <trkpt lat="47.82225" lon="6.92715">
        <ele>586</ele>
        <time>2015-08-09T14:51:11Z</time>
      </trkpt>
      <trkpt lat="47.82225" lon="6.92745">
        <ele>582</ele>
        <time>2015-08-09T14:51:27Z</time>
      </trkpt>
      <trkpt lat="47.82223" lon="6.92766">
        <ele>584</ele>
        <time>2015-08-09T14:51:39Z</time>
      </trkpt>
      <trkpt lat="47.82222" lon="6.9277">
        <ele>586</ele>
        <time>2015-08-09T14:51:44Z</time>
      </trkpt>
      <trkpt lat="47.82223" lon="6.928">
        <ele>590</ele>
        <time>2015-08-09T14:52:02Z</time>
      </trkpt>
      <trkpt lat="47.82222" lon="6.92805">
        <ele>592</ele>
        <time>2015-08-09T14:52:06Z</time>
      </trkpt>
      <trkpt lat="47.82219" lon="6.92819">
        <ele>594</ele>
        <time>2015-08-09T14:52:17Z</time>
      </trkpt>
      <trkpt lat="47.8222" lon="6.92841">
        <ele>591</ele>
        <time>2015-08-09T14:52:28Z</time>
      </trkpt>
      <trkpt lat="47.82217" lon="6.92863">
        <ele>590</ele>
        <time>2015-08-09T14:52:40Z</time>
      </trkpt>
      <trkpt lat="47.82213" lon="6.92878">
        <ele>590</ele>
        <time>2015-08-09T14:52:53Z</time>
      </trkpt>
      <trkpt lat="47.8221" lon="6.92884">
        <ele>586</ele>
        <time>2015-08-09T14:53:02Z</time>
      </trkpt>
      <trkpt lat="47.8221" lon="6.92899">
        <ele>587</ele>
        <time>2015-08-09T14:53:13Z</time>
      </trkpt>
      <trkpt lat="47.82205" lon="6.92912">
        <ele>583</ele>
        <time>2015-08-09T14:53:29Z</time>
      </trkpt>
      <trkpt lat="47.82204" lon="6.92916">
        <ele>585</ele>
        <time>2015-08-09T14:53:34Z</time>
      </trkpt>
      <trkpt lat="47.82206" lon="6.92937">
        <ele>579</ele>
        <time>2015-08-09T14:53:45Z</time>
      </trkpt>
      <trkpt lat="47.82199" lon="6.92977">
        <ele>581</ele>
        <time>2015-08-09T14:54:04Z</time>
      </trkpt>
      <trkpt lat="47.82193" lon="6.9299">
        <ele>569</ele>
        <time>2015-08-09T14:54:12Z</time>
      </trkpt>
      <trkpt lat="47.82185" lon="6.93018">
        <ele>578</ele>
        <time>2015-08-09T14:54:27Z</time>
      </trkpt>
      <trkpt lat="47.82184" lon="6.93032">
        <ele>571</ele>
        <time>2015-08-09T14:54:35Z</time>
      </trkpt>
      <trkpt lat="47.82184" lon="6.93035">
        <ele>571</ele>
        <time>2015-08-09T14:54:40Z</time>
      </trkpt>
      <trkpt lat="47.82184" lon="6.93047">
        <ele>574</ele>
        <time>2015-08-09T14:54:55Z</time>
      </trkpt>
      <trkpt lat="47.82184" lon="6.93062">
        <ele>574</ele>
        <time>2015-08-09T14:55:06Z</time>
      </trkpt>
      <trkpt lat="47.82185" lon="6.9307">
        <ele>574</ele>
        <time>2015-08-09T14:55:13Z</time>
      </trkpt>
      <trkpt lat="47.82189" lon="6.93087">
        <ele>569</ele>
        <time>2015-08-09T14:55:24Z</time>
      </trkpt>
      <trkpt lat="47.82191" lon="6.93113">
        <ele>568</ele>
        <time>2015-08-09T14:55:41Z</time>
      </trkpt>
      <trkpt lat="47.82191" lon="6.93127">
        <ele>568</ele>
        <time>2015-08-09T14:55:50Z</time>
      </trkpt>
      <trkpt lat="47.8219" lon="6.93139">
        <ele>570</ele>
        <time>2015-08-09T14:55:57Z</time>
      </trkpt>
      <trkpt lat="47.82188" lon="6.93152">
        <ele>571</ele>
        <time>2015-08-09T14:56:08Z</time>
      </trkpt>
      <trkpt lat="47.82186" lon="6.93168">
        <ele>571</ele>
        <time>2015-08-09T14:56:19Z</time>
      </trkpt>
      <trkpt lat="47.82182" lon="6.93189">
        <ele>567</ele>
        <time>2015-08-09T14:56:38Z</time>
      </trkpt>
      <trkpt lat="47.82179" lon="6.93201">
        <ele>565</ele>
        <time>2015-08-09T14:56:47Z</time>
      </trkpt>
      <trkpt lat="47.82171" lon="6.93218">
        <ele>567</ele>
        <time>2015-08-09T14:57:02Z</time>
      </trkpt>
      <trkpt lat="47.82171" lon="6.93219">
        <ele>568</ele>
        <time>2015-08-09T14:57:03Z</time>
      </trkpt>
      <trkpt lat="47.82164" lon="6.9323">
        <ele>570</ele>
        <time>2015-08-09T14:57:14Z</time>
      </trkpt>
      <trkpt lat="47.82163" lon="6.93251">
        <ele>568</ele>
        <time>2015-08-09T14:57:25Z</time>
      </trkpt>
      <trkpt lat="47.82158" lon="6.93263">
        <ele>569</ele>
        <time>2015-08-09T14:57:36Z</time>
      </trkpt>
      <trkpt lat="47.82152" lon="6.93272">
        <ele>567</ele>
        <time>2015-08-09T14:57:47Z</time>
      </trkpt>
      <trkpt lat="47.82141" lon="6.93286">
        <ele>569</ele>
        <time>2015-08-09T14:58:02Z</time>
      </trkpt>
      <trkpt lat="47.82138" lon="6.93293">
        <ele>571</ele>
        <time>2015-08-09T14:58:09Z</time>
      </trkpt>
      <trkpt lat="47.82133" lon="6.93306">
        <ele>569</ele>
        <time>2015-08-09T14:58:20Z</time>
      </trkpt>
      <trkpt lat="47.82127" lon="6.9332">
        <ele>569</ele>
        <time>2015-08-09T14:58:31Z</time>
      </trkpt>
      <trkpt lat="47.82121" lon="6.93333">
        <ele>567</ele>
        <time>2015-08-09T14:58:42Z</time>
      </trkpt>
      <trkpt lat="47.82114" lon="6.93346">
        <ele>568</ele>
        <time>2015-08-09T14:58:53Z</time>
      </trkpt>
      <trkpt lat="47.82108" lon="6.93359">
        <ele>567</ele>
        <time>2015-08-09T14:59:04Z</time>
      </trkpt>
      <trkpt lat="47.82103" lon="6.93369">
        <ele>569</ele>
        <time>2015-08-09T14:59:15Z</time>
      </trkpt>
      <trkpt lat="47.82098" lon="6.93382">
        <ele>567</ele>
        <time>2015-08-09T14:59:26Z</time>
      </trkpt>
      <trkpt lat="47.8209" lon="6.93395">
        <ele>567</ele>
        <time>2015-08-09T14:59:37Z</time>
      </trkpt>
      <trkpt lat="47.82081" lon="6.9341">
        <ele>559</ele>
        <time>2015-08-09T14:59:55Z</time>
      </trkpt>
      <trkpt lat="47.8208" lon="6.93413">
        <ele>560</ele>
        <time>2015-08-09T14:59:59Z</time>
      </trkpt>
      <trkpt lat="47.82074" lon="6.93422">
        <ele>560</ele>
        <time>2015-08-09T15:00:10Z</time>
      </trkpt>
      <trkpt lat="47.82068" lon="6.93433">
        <ele>563</ele>
        <time>2015-08-09T15:00:21Z</time>
      </trkpt>
      <trkpt lat="47.82061" lon="6.93443">
        <ele>564</ele>
        <time>2015-08-09T15:00:32Z</time>
      </trkpt>
      <trkpt lat="47.82053" lon="6.93455">
        <ele>560</ele>
        <time>2015-08-09T15:00:43Z</time>
      </trkpt>
      <trkpt lat="47.82043" lon="6.93466">
        <ele>559</ele>
        <time>2015-08-09T15:00:55Z</time>
      </trkpt>
      <trkpt lat="47.82029" lon="6.9347">
        <ele>564</ele>
        <time>2015-08-09T15:01:06Z</time>
      </trkpt>
      <trkpt lat="47.82021" lon="6.93482">
        <ele>560</ele>
        <time>2015-08-09T15:01:16Z</time>
      </trkpt>
      <trkpt lat="47.82011" lon="6.93491">
        <ele>564</ele>
        <time>2015-08-09T15:01:27Z</time>
      </trkpt>
      <trkpt lat="47.82001" lon="6.93509">
        <ele>560</ele>
        <time>2015-08-09T15:01:43Z</time>
      </trkpt>
      <trkpt lat="47.81996" lon="6.93518">
        <ele>560</ele>
        <time>2015-08-09T15:01:52Z</time>
      </trkpt>
      <trkpt lat="47.81992" lon="6.93527">
        <ele>558</ele>
        <time>2015-08-09T15:02:00Z</time>
      </trkpt>
      <trkpt lat="47.81984" lon="6.93539">
        <ele>560</ele>
        <time>2015-08-09T15:02:11Z</time>
      </trkpt>
      <trkpt lat="47.81983" lon="6.9354">
        <ele>559</ele>
        <time>2015-08-09T15:02:22Z</time>
      </trkpt>
      <trkpt lat="47.81981" lon="6.93536">
        <ele>558</ele>
        <time>2015-08-09T15:02:27Z</time>
      </trkpt>
      <trkpt lat="47.81979" lon="6.93537">
        <ele>559</ele>
        <time>2015-08-09T15:02:39Z</time>
      </trkpt>
      <trkpt lat="47.81978" lon="6.93542">
        <ele>558</ele>
        <time>2015-08-09T15:02:42Z</time>
      </trkpt>
      <trkpt lat="47.81977" lon="6.93558">
        <ele>559</ele>
        <time>2015-08-09T15:02:53Z</time>
      </trkpt>
      <trkpt lat="47.81974" lon="6.93573">
        <ele>561</ele>
        <time>2015-08-09T15:03:04Z</time>
      </trkpt>
      <trkpt lat="47.81971" lon="6.93591">
        <ele>556</ele>
        <time>2015-08-09T15:03:17Z</time>
      </trkpt>
      <trkpt lat="47.8197" lon="6.936">
        <ele>557</ele>
        <time>2015-08-09T15:03:26Z</time>
      </trkpt>
      <trkpt lat="47.81968" lon="6.93618">
        <ele>557</ele>
        <time>2015-08-09T15:03:38Z</time>
      </trkpt>
      <trkpt lat="47.81969" lon="6.93618">
        <ele>557</ele>
        <time>2015-08-09T15:03:48Z</time>
      </trkpt>
      <trkpt lat="47.81969" lon="6.93618">
        <ele>556</ele>
        <time>2015-08-09T15:03:51Z</time>
      </trkpt>
      <trkpt lat="47.81972" lon="6.93636">
        <ele>553</ele>
        <time>2015-08-09T15:04:02Z</time>
      </trkpt>
      <trkpt lat="47.81972" lon="6.93641">
        <ele>552</ele>
        <time>2015-08-09T15:04:05Z</time>
      </trkpt>
      <trkpt lat="47.81971" lon="6.93657">
        <ele>549</ele>
        <time>2015-08-09T15:04:16Z</time>
      </trkpt>
      <trkpt lat="47.81969" lon="6.93681">
        <ele>549</ele>
        <time>2015-08-09T15:04:35Z</time>
      </trkpt>
      <trkpt lat="47.81969" lon="6.93685">
        <ele>548</ele>
        <time>2015-08-09T15:04:38Z</time>
      </trkpt>
      <trkpt lat="47.81968" lon="6.93712">
        <ele>555</ele>
        <time>2015-08-09T15:04:58Z</time>
      </trkpt>
      <trkpt lat="47.81967" lon="6.93716">
        <ele>555</ele>
        <time>2015-08-09T15:05:02Z</time>
      </trkpt>
      <trkpt lat="47.81971" lon="6.93737">
        <ele>550</ele>
        <time>2015-08-09T15:05:19Z</time>
      </trkpt>
      <trkpt lat="47.8197" lon="6.93742">
        <ele>552</ele>
        <time>2015-08-09T15:05:22Z</time>
      </trkpt>
      <trkpt lat="47.81968" lon="6.93759">
        <ele>552</ele>
        <time>2015-08-09T15:05:33Z</time>
      </trkpt>
      <trkpt lat="47.81967" lon="6.93774">
        <ele>554</ele>
        <time>2015-08-09T15:05:44Z</time>
      </trkpt>
      <trkpt lat="47.81966" lon="6.93793">
        <ele>552</ele>
        <time>2015-08-09T15:05:58Z</time>
      </trkpt>
      <trkpt lat="47.81963" lon="6.93802">
        <ele>552</ele>
        <time>2015-08-09T15:06:06Z</time>
      </trkpt>
      <trkpt lat="47.81962" lon="6.93818">
        <ele>549</ele>
        <time>2015-08-09T15:06:17Z</time>
      </trkpt>
      <trkpt lat="47.81958" lon="6.93827">
        <ele>549</ele>
        <time>2015-08-09T15:06:28Z</time>
      </trkpt>
      <trkpt lat="47.81959" lon="6.93827">
        <ele>548</ele>
        <time>2015-08-09T15:06:39Z</time>
      </trkpt>
      <trkpt lat="47.81957" lon="6.93829">
        <ele>549</ele>
        <time>2015-08-09T15:06:42Z</time>
      </trkpt>
      <trkpt lat="47.8195" lon="6.93843">
        <ele>550</ele>
        <time>2015-08-09T15:06:58Z</time>
      </trkpt>
      <trkpt lat="47.81947" lon="6.93849">
        <ele>548</ele>
        <time>2015-08-09T15:07:05Z</time>
      </trkpt>
      <trkpt lat="47.81942" lon="6.93859">
        <ele>547</ele>
        <time>2015-08-09T15:07:15Z</time>
      </trkpt>
      <trkpt lat="47.81934" lon="6.93867">
        <ele>547</ele>
        <time>2015-08-09T15:07:26Z</time>
      </trkpt>
      <trkpt lat="47.81927" lon="6.93876">
        <ele>545</ele>
        <time>2015-08-09T15:07:37Z</time>
      </trkpt>
      <trkpt lat="47.81918" lon="6.93887">
        <ele>546</ele>
        <time>2015-08-09T15:07:48Z</time>
      </trkpt>
      <trkpt lat="47.8191" lon="6.93899">
        <ele>547</ele>
        <time>2015-08-09T15:07:59Z</time>
      </trkpt>
      <trkpt lat="47.81903" lon="6.93911">
        <ele>540</ele>
        <time>2015-08-09T15:08:10Z</time>
      </trkpt>
      <trkpt lat="47.81893" lon="6.9393">
        <ele>538</ele>
        <time>2015-08-09T15:08:27Z</time>
      </trkpt>
      <trkpt lat="47.81888" lon="6.93934">
        <ele>541</ele>
        <time>2015-08-09T15:08:32Z</time>
      </trkpt>
      <trkpt lat="47.81878" lon="6.93949">
        <ele>544</ele>
        <time>2015-08-09T15:08:48Z</time>
      </trkpt>
      <trkpt lat="47.81872" lon="6.93955">
        <ele>544</ele>
        <time>2015-08-09T15:08:54Z</time>
      </trkpt>
      <trkpt lat="47.81862" lon="6.93965">
        <ele>547</ele>
        <time>2015-08-09T15:09:06Z</time>
      </trkpt>
      <trkpt lat="47.81857" lon="6.93979">
        <ele>544</ele>
        <time>2015-08-09T15:09:17Z</time>
      </trkpt>
      <trkpt lat="47.81844" lon="6.93999">
        <ele>543</ele>
        <time>2015-08-09T15:09:36Z</time>
      </trkpt>
      <trkpt lat="47.81842" lon="6.94003">
        <ele>544</ele>
        <time>2015-08-09T15:09:38Z</time>
      </trkpt>
      <trkpt lat="47.81838" lon="6.94019">
        <ele>540</ele>
        <time>2015-08-09T15:09:49Z</time>
      </trkpt>
      <trkpt lat="47.81834" lon="6.94032">
        <ele>538</ele>
        <time>2015-08-09T15:10:00Z</time>
      </trkpt>
      <trkpt lat="47.81828" lon="6.94063">
        <ele>539</ele>
        <time>2015-08-09T15:10:19Z</time>
      </trkpt>
      <trkpt lat="47.81828" lon="6.94067">
        <ele>538</ele>
        <time>2015-08-09T15:10:22Z</time>
      </trkpt>
      <trkpt lat="47.81826" lon="6.94088">
        <ele>539</ele>
        <time>2015-08-09T15:10:33Z</time>
      </trkpt>
      <trkpt lat="47.81824" lon="6.941">
        <ele>540</ele>
        <time>2015-08-09T15:10:44Z</time>
      </trkpt>
      <trkpt lat="47.81821" lon="6.94116">
        <ele>541</ele>
        <time>2015-08-09T15:10:55Z</time>
      </trkpt>
      <trkpt lat="47.8182" lon="6.94134">
        <ele>542</ele>
        <time>2015-08-09T15:11:07Z</time>
      </trkpt>
      <trkpt lat="47.8182" lon="6.94154">
        <ele>535</ele>
        <time>2015-08-09T15:11:17Z</time>
      </trkpt>
      <trkpt lat="47.81814" lon="6.94175">
        <ele>535</ele>
        <time>2015-08-09T15:11:30Z</time>
      </trkpt>
      <trkpt lat="47.81811" lon="6.94183">
        <ele>538</ele>
        <time>2015-08-09T15:11:39Z</time>
      </trkpt>
      <trkpt lat="47.81809" lon="6.94198">
        <ele>541</ele>
        <time>2015-08-09T15:11:55Z</time>
      </trkpt>
      <trkpt lat="47.8181" lon="6.942">
        <ele>538</ele>
        <time>2015-08-09T15:12:07Z</time>
      </trkpt>
      <trkpt lat="47.8181" lon="6.94201">
        <ele>538</ele>
        <time>2015-08-09T15:12:10Z</time>
      </trkpt>
      <trkpt lat="47.81807" lon="6.94223">
        <ele>533</ele>
        <time>2015-08-09T15:12:23Z</time>
      </trkpt>
      <trkpt lat="47.81807" lon="6.94224">
        <ele>533</ele>
        <time>2015-08-09T15:12:24Z</time>
      </trkpt>
      <trkpt lat="47.81804" lon="6.94239">
        <ele>530</ele>
        <time>2015-08-09T15:12:35Z</time>
      </trkpt>
      <trkpt lat="47.818" lon="6.94253">
        <ele>531</ele>
        <time>2015-08-09T15:12:46Z</time>
      </trkpt>
      <trkpt lat="47.81795" lon="6.94268">
        <ele>532</ele>
        <time>2015-08-09T15:12:57Z</time>
      </trkpt>
      <trkpt lat="47.81793" lon="6.94279">
        <ele>530</ele>
        <time>2015-08-09T15:13:08Z</time>
      </trkpt>
      <trkpt lat="47.8179" lon="6.94282">
        <ele>528</ele>
        <time>2015-08-09T15:13:27Z</time>
      </trkpt>
      <trkpt lat="47.8179" lon="6.94281">
        <ele>528</ele>
        <time>2015-08-09T15:13:33Z</time>
      </trkpt>
      <trkpt lat="47.8179" lon="6.94281">
        <ele>528</ele>
        <time>2015-08-09T15:13:37Z</time>
      </trkpt>
      <trkpt lat="47.8179" lon="6.94281">
        <ele>528</ele>
        <time>2015-08-09T15:13:39Z</time>
      </trkpt>
      <trkpt lat="47.8179" lon="6.94282">
        <ele>528</ele>
        <time>2015-08-09T15:13:42Z</time>
      </trkpt>
      <trkpt lat="47.8179" lon="6.94282">
        <ele>528</ele>
        <time>2015-08-09T15:13:45Z</time>
      </trkpt>
      <trkpt lat="47.8179" lon="6.94282">
        <ele>528</ele>
        <time>2015-08-09T15:13:48Z</time>
      </trkpt>
      <trkpt lat="47.8179" lon="6.94282">
        <ele>528</ele>
        <time>2015-08-09T15:13:51Z</time>
      </trkpt>
      <trkpt lat="47.81791" lon="6.94281">
        <ele>528</ele>
        <time>2015-08-09T15:13:56Z</time>
      </trkpt>
      <trkpt lat="47.81791" lon="6.94281">
        <ele>528</ele>
        <time>2015-08-09T15:13:58Z</time>
      </trkpt>
      <trkpt lat="47.81791" lon="6.94281">
        <ele>528</ele>
        <time>2015-08-09T15:14:02Z</time>
      </trkpt>
      <trkpt lat="47.81791" lon="6.94281">
        <ele>528</ele>
        <time>2015-08-09T15:14:03Z</time>
      </trkpt>
      <trkpt lat="47.81791" lon="6.94281">
        <ele>528</ele>
        <time>2015-08-09T15:14:06Z</time>
      </trkpt>
      <trkpt lat="47.81791" lon="6.94281">
        <ele>528</ele>
        <time>2015-08-09T15:14:09Z</time>
      </trkpt>
      <trkpt lat="47.81791" lon="6.94281">
        <ele>528</ele>
        <time>2015-08-09T15:14:12Z</time>
      </trkpt>
      <trkpt lat="47.81791" lon="6.94281">
        <ele>528</ele>
        <time>2015-08-09T15:14:15Z</time>
      </trkpt>
      <trkpt lat="47.81791" lon="6.94281">
        <ele>528</ele>
        <time>2015-08-09T15:14:18Z</time>
      </trkpt>
      <trkpt lat="47.81791" lon="6.94281">
        <ele>528</ele>
        <time>2015-08-09T15:14:21Z</time>
      </trkpt>
      <trkpt lat="47.81791" lon="6.94281">
        <ele>528</ele>
        <time>2015-08-09T15:14:24Z</time>
      </trkpt>
      <trkpt lat="47.81791" lon="6.94282">
        <ele>528</ele>
        <time>2015-08-09T15:14:29Z</time>
      </trkpt>
      <trkpt lat="47.81791" lon="6.94282">
        <ele>528</ele>
        <time>2015-08-09T15:14:32Z</time>
      </trkpt>
      <trkpt lat="47.81791" lon="6.94282">
        <ele>528</ele>
        <time>2015-08-09T15:14:34Z</time>
      </trkpt>
      <trkpt lat="47.81791" lon="6.94282">
        <ele>528</ele>
        <time>2015-08-09T15:14:36Z</time>
      </trkpt>
      <trkpt lat="47.81792" lon="6.94281">
        <ele>528</ele>
        <time>2015-08-09T15:14:39Z</time>
      </trkpt>
      <trkpt lat="47.81793" lon="6.94281">
        <ele>528</ele>
        <time>2015-08-09T15:14:50Z</time>
      </trkpt>
      <trkpt lat="47.81793" lon="6.94281">
        <ele>528</ele>
        <time>2015-08-09T15:14:53Z</time>
      </trkpt>
      <trkpt lat="47.81794" lon="6.94281">
        <ele>528</ele>
        <time>2015-08-09T15:14:58Z</time>
      </trkpt>
      <trkpt lat="47.81794" lon="6.94281">
        <ele>528</ele>
        <time>2015-08-09T15:14:59Z</time>
      </trkpt>
      <trkpt lat="47.81794" lon="6.94282">
        <ele>528</ele>
        <time>2015-08-09T15:15:04Z</time>
      </trkpt>
      <trkpt lat="47.81794" lon="6.94282">
        <ele>528</ele>
        <time>2015-08-09T15:15:06Z</time>
      </trkpt>
      <trkpt lat="47.81794" lon="6.94282">
        <ele>528</ele>
        <time>2015-08-09T15:15:08Z</time>
      </trkpt>
      <trkpt lat="47.81794" lon="6.94282">
        <ele>528</ele>
        <time>2015-08-09T15:15:11Z</time>
      </trkpt>
      <trkpt lat="47.81794" lon="6.94282">
        <ele>528</ele>
        <time>2015-08-09T15:15:14Z</time>
      </trkpt>
      <trkpt lat="47.81794" lon="6.94282">
        <ele>528</ele>
        <time>2015-08-09T15:15:17Z</time>
      </trkpt>
      <trkpt lat="47.81794" lon="6.94282">
        <ele>528</ele>
        <time>2015-08-09T15:15:20Z</time>
      </trkpt>
      <trkpt lat="47.81794" lon="6.94282">
        <ele>528</ele>
        <time>2015-08-09T15:15:23Z</time>
      </trkpt>
      <trkpt lat="47.81794" lon="6.94282">
        <ele>528</ele>
        <time>2015-08-09T15:15:26Z</time>
      </trkpt>
      <trkpt lat="47.81794" lon="6.94282">
        <ele>528</ele>
        <time>2015-08-09T15:15:30Z</time>
      </trkpt>
      <trkpt lat="47.81794" lon="6.94282">
        <ele>528</ele>
        <time>2015-08-09T15:15:32Z</time>
      </trkpt>
      <trkpt lat="47.81794" lon="6.94282">
        <ele>528</ele>
        <time>2015-08-09T15:15:35Z</time>
      </trkpt>
      <trkpt lat="47.81794" lon="6.94282">
        <ele>528</ele>
        <time>2015-08-09T15:15:38Z</time>
      </trkpt>
      <trkpt lat="47.81794" lon="6.94282">
        <ele>528</ele>
        <time>2015-08-09T15:15:41Z</time>
      </trkpt>
      <trkpt lat="47.81794" lon="6.94282">
        <ele>528</ele>
        <time>2015-08-09T15:15:44Z</time>
      </trkpt>
      <trkpt lat="47.81794" lon="6.94282">
        <ele>528</ele>
        <time>2015-08-09T15:15:47Z</time>
      </trkpt>
      <trkpt lat="47.81794" lon="6.94282">
        <ele>528</ele>
        <time>2015-08-09T15:15:50Z</time>
      </trkpt>
      <trkpt lat="47.81794" lon="6.94282">
        <ele>528</ele>
        <time>2015-08-09T15:15:55Z</time>
      </trkpt>
      <trkpt lat="47.81794" lon="6.94282">
        <ele>528</ele>
        <time>2015-08-09T15:15:56Z</time>
      </trkpt>
      <trkpt lat="47.81794" lon="6.94282">
        <ele>528</ele>
        <time>2015-08-09T15:15:59Z</time>
      </trkpt>
      <trkpt lat="47.81794" lon="6.94282">
        <ele>528</ele>
        <time>2015-08-09T15:16:02Z</time>
      </trkpt>
      <trkpt lat="47.81794" lon="6.94282">
        <ele>528</ele>
        <time>2015-08-09T15:16:05Z</time>
      </trkpt>
      <trkpt lat="47.81794" lon="6.94282">
        <ele>528</ele>
        <time>2015-08-09T15:16:08Z</time>
      </trkpt>
      <trkpt lat="47.81794" lon="6.94282">
        <ele>528</ele>
        <time>2015-08-09T15:16:11Z</time>
      </trkpt>
      <trkpt lat="47.81794" lon="6.94282">
        <ele>528</ele>
        <time>2015-08-09T15:16:14Z</time>
      </trkpt>
      <trkpt lat="47.81794" lon="6.94282">
        <ele>528</ele>
        <time>2015-08-09T15:16:17Z</time>
      </trkpt>
      <trkpt lat="47.81794" lon="6.94282">
        <ele>528</ele>
        <time>2015-08-09T15:16:20Z</time>
      </trkpt>
      <trkpt lat="47.81794" lon="6.94281">
        <ele>528</ele>
        <time>2015-08-09T15:16:23Z</time>
      </trkpt>
      <trkpt lat="47.81794" lon="6.94282">
        <ele>528</ele>
        <time>2015-08-09T15:16:33Z</time>
      </trkpt>
      <trkpt lat="47.81794" lon="6.94282">
        <ele>527</ele>
        <time>2015-08-09T15:16:35Z</time>
      </trkpt>
      <trkpt lat="47.81793" lon="6.94283">
        <ele>526</ele>
        <time>2015-08-09T15:16:43Z</time>
      </trkpt>
      <trkpt lat="47.81793" lon="6.94285">
        <ele>525</ele>
        <time>2015-08-09T15:16:50Z</time>
      </trkpt>
    </trkseg>
  </trk>
</gpx>